<?xml version="1.0" encoding="UTF-8" standalone="no" ?>
<gpx xmlns="http://www.topografix.com/GPX/1/1" xmlns:xsi="http://www.w3.org/2001/XMLSchema-instance" xsi:schemaLocation="http://www.topografix.com/GPX/1/1 http://www.topografix.com/GPX/1/1/gpx.xsd" version="1.1" creator="VisuGPX - https://www.visugpx.com">
  <metadata>
    <name>Pornichet 15/04/2021</name>
    <desc><![CDATA[Sortie VTT du jeudi 15 avril 2021]]></desc>
  </metadata>
  <trk>
    <name><![CDATA[Pornichet Cyclisme]]></name>
    <trkseg>
      <trkpt lat="47.26374" lon="-2.316">
        <ele>8.5</ele>
        <time>2021-04-15T07:18:26.000Z</time>
      </trkpt>
      <trkpt lat="47.26373" lon="-2.31617">
        <ele>8.4</ele>
        <time>2021-04-15T07:18:29.000Z</time>
      </trkpt>
      <trkpt lat="47.26373" lon="-2.31624">
        <ele>-0.60000002384186</ele>
        <time>2021-04-15T07:18:30.000Z</time>
      </trkpt>
      <trkpt lat="47.26371" lon="-2.31646">
        <ele>-0.60000002384186</ele>
        <time>2021-04-15T07:18:33.000Z</time>
      </trkpt>
      <trkpt lat="47.26372" lon="-2.3169">
        <ele>-0.60000002384186</ele>
        <time>2021-04-15T07:18:39.000Z</time>
      </trkpt>
      <trkpt lat="47.2636" lon="-2.31699">
        <ele>-0.60000002384186</ele>
        <time>2021-04-15T07:18:42.000Z</time>
      </trkpt>
      <trkpt lat="47.26355" lon="-2.31701">
        <ele>-0.60000002384186</ele>
        <time>2021-04-15T07:18:43.000Z</time>
      </trkpt>
      <trkpt lat="47.26337" lon="-2.31711">
        <ele>-0.60000002384186</ele>
        <time>2021-04-15T07:18:46.000Z</time>
      </trkpt>
      <trkpt lat="47.263" lon="-2.31733">
        <ele>-0.60000002384186</ele>
        <time>2021-04-15T07:18:52.000Z</time>
      </trkpt>
      <trkpt lat="47.26287" lon="-2.31738">
        <ele>-1</ele>
        <time>2021-04-15T07:18:54.000Z</time>
      </trkpt>
      <trkpt lat="47.26281" lon="-2.31741">
        <ele>-1.3999999761581</ele>
        <time>2021-04-15T07:18:55.000Z</time>
      </trkpt>
      <trkpt lat="47.26275" lon="-2.31745">
        <ele>-1.7999999523163</ele>
        <time>2021-04-15T07:18:56.000Z</time>
      </trkpt>
      <trkpt lat="47.2627" lon="-2.31747">
        <ele>-2.2000000476837</ele>
        <time>2021-04-15T07:18:57.000Z</time>
      </trkpt>
      <trkpt lat="47.26265" lon="-2.31751">
        <ele>-2.5999999046326</ele>
        <time>2021-04-15T07:18:58.000Z</time>
      </trkpt>
      <trkpt lat="47.26262" lon="-2.31755">
        <ele>-3</ele>
        <time>2021-04-15T07:18:59.000Z</time>
      </trkpt>
      <trkpt lat="47.2626" lon="-2.3176">
        <ele>-3.5999999046326</ele>
        <time>2021-04-15T07:19:00.000Z</time>
      </trkpt>
      <trkpt lat="47.26259" lon="-2.31768">
        <ele>-4</ele>
        <time>2021-04-15T07:19:01.000Z</time>
      </trkpt>
      <trkpt lat="47.2626" lon="-2.31775">
        <ele>-4.4000000953674</ele>
        <time>2021-04-15T07:19:02.000Z</time>
      </trkpt>
      <trkpt lat="47.2626" lon="-2.31783">
        <ele>-5</ele>
        <time>2021-04-15T07:19:03.000Z</time>
      </trkpt>
      <trkpt lat="47.26261" lon="-2.31813">
        <ele>-5</ele>
        <time>2021-04-15T07:19:07.000Z</time>
      </trkpt>
      <trkpt lat="47.26262" lon="-2.31843">
        <ele>-5</ele>
        <time>2021-04-15T07:19:11.000Z</time>
      </trkpt>
      <trkpt lat="47.2626" lon="-2.31858">
        <ele>-5</ele>
        <time>2021-04-15T07:19:13.000Z</time>
      </trkpt>
      <trkpt lat="47.26258" lon="-2.31898">
        <ele>-5</ele>
        <time>2021-04-15T07:19:18.000Z</time>
      </trkpt>
      <trkpt lat="47.26258" lon="-2.31903">
        <ele>-5</ele>
        <time>2021-04-15T07:19:19.000Z</time>
      </trkpt>
      <trkpt lat="47.26255" lon="-2.31911">
        <ele>-5</ele>
        <time>2021-04-15T07:19:21.000Z</time>
      </trkpt>
      <trkpt lat="47.26252" lon="-2.31914">
        <ele>-5</ele>
        <time>2021-04-15T07:19:23.000Z</time>
      </trkpt>
      <trkpt lat="47.26247" lon="-2.31919">
        <ele>-5</ele>
        <time>2021-04-15T07:19:25.000Z</time>
      </trkpt>
      <trkpt lat="47.26241" lon="-2.31925">
        <ele>-5</ele>
        <time>2021-04-15T07:19:27.000Z</time>
      </trkpt>
      <trkpt lat="47.26232" lon="-2.31938">
        <ele>-5</ele>
        <time>2021-04-15T07:19:30.000Z</time>
      </trkpt>
      <trkpt lat="47.26229" lon="-2.31943">
        <ele>-5</ele>
        <time>2021-04-15T07:19:31.000Z</time>
      </trkpt>
      <trkpt lat="47.2622" lon="-2.3196">
        <ele>-5</ele>
        <time>2021-04-15T07:19:33.000Z</time>
      </trkpt>
      <trkpt lat="47.26212" lon="-2.31972">
        <ele>-5</ele>
        <time>2021-04-15T07:19:37.000Z</time>
      </trkpt>
      <trkpt lat="47.26208" lon="-2.31985">
        <ele>-5</ele>
        <time>2021-04-15T07:19:39.000Z</time>
      </trkpt>
      <trkpt lat="47.262" lon="-2.31997">
        <ele>-5</ele>
        <time>2021-04-15T07:19:42.000Z</time>
      </trkpt>
      <trkpt lat="47.26189" lon="-2.32007">
        <ele>-5</ele>
        <time>2021-04-15T07:19:46.000Z</time>
      </trkpt>
      <trkpt lat="47.26171" lon="-2.32024">
        <ele>-5</ele>
        <time>2021-04-15T07:19:51.000Z</time>
      </trkpt>
      <trkpt lat="47.26169" lon="-2.32029">
        <ele>-5</ele>
        <time>2021-04-15T07:19:52.000Z</time>
      </trkpt>
      <trkpt lat="47.26168" lon="-2.32033">
        <ele>-5.4000000953674</ele>
        <time>2021-04-15T07:19:53.000Z</time>
      </trkpt>
      <trkpt lat="47.26167" lon="-2.32038">
        <ele>-5.8000001907349</ele>
        <time>2021-04-15T07:19:54.000Z</time>
      </trkpt>
      <trkpt lat="47.26166" lon="-2.32042">
        <ele>-6.1999998092651</ele>
        <time>2021-04-15T07:19:55.000Z</time>
      </trkpt>
      <trkpt lat="47.26164" lon="-2.32044">
        <ele>-6.5999999046326</ele>
        <time>2021-04-15T07:19:56.000Z</time>
      </trkpt>
      <trkpt lat="47.26162" lon="-2.32044">
        <ele>-7</ele>
        <time>2021-04-15T07:19:57.000Z</time>
      </trkpt>
      <trkpt lat="47.26154" lon="-2.32046">
        <ele>-7</ele>
        <time>2021-04-15T07:20:00.000Z</time>
      </trkpt>
      <trkpt lat="47.2615" lon="-2.32048">
        <ele>-7</ele>
        <time>2021-04-15T07:20:01.000Z</time>
      </trkpt>
      <trkpt lat="47.26145" lon="-2.3205">
        <ele>-7</ele>
        <time>2021-04-15T07:20:02.000Z</time>
      </trkpt>
      <trkpt lat="47.26137" lon="-2.32055">
        <ele>-7</ele>
        <time>2021-04-15T07:20:04.000Z</time>
      </trkpt>
      <trkpt lat="47.26129" lon="-2.32066">
        <ele>-7</ele>
        <time>2021-04-15T07:20:06.000Z</time>
      </trkpt>
      <trkpt lat="47.26122" lon="-2.32088">
        <ele>-7</ele>
        <time>2021-04-15T07:20:09.000Z</time>
      </trkpt>
      <trkpt lat="47.26117" lon="-2.32104">
        <ele>-7</ele>
        <time>2021-04-15T07:20:11.000Z</time>
      </trkpt>
      <trkpt lat="47.26094" lon="-2.32175">
        <ele>-7</ele>
        <time>2021-04-15T07:20:20.000Z</time>
      </trkpt>
      <trkpt lat="47.26088" lon="-2.3219">
        <ele>-7</ele>
        <time>2021-04-15T07:20:22.000Z</time>
      </trkpt>
      <trkpt lat="47.26073" lon="-2.32226">
        <ele>-7</ele>
        <time>2021-04-15T07:20:27.000Z</time>
      </trkpt>
      <trkpt lat="47.26066" lon="-2.32239">
        <ele>-7</ele>
        <time>2021-04-15T07:20:29.000Z</time>
      </trkpt>
      <trkpt lat="47.26048" lon="-2.32264">
        <ele>-7</ele>
        <time>2021-04-15T07:20:33.000Z</time>
      </trkpt>
      <trkpt lat="47.26015" lon="-2.32303">
        <ele>-7</ele>
        <time>2021-04-15T07:20:40.000Z</time>
      </trkpt>
      <trkpt lat="47.25976" lon="-2.32349">
        <ele>-7</ele>
        <time>2021-04-15T07:20:48.000Z</time>
      </trkpt>
      <trkpt lat="47.25931" lon="-2.32405">
        <ele>-7</ele>
        <time>2021-04-15T07:20:57.000Z</time>
      </trkpt>
      <trkpt lat="47.25895" lon="-2.32456">
        <ele>-7</ele>
        <time>2021-04-15T07:21:05.000Z</time>
      </trkpt>
      <trkpt lat="47.25869" lon="-2.3249">
        <ele>-7</ele>
        <time>2021-04-15T07:21:11.000Z</time>
      </trkpt>
      <trkpt lat="47.25869" lon="-2.325">
        <ele>-7</ele>
        <time>2021-04-15T07:21:13.000Z</time>
      </trkpt>
      <trkpt lat="47.25877" lon="-2.32512">
        <ele>-7</ele>
        <time>2021-04-15T07:21:16.000Z</time>
      </trkpt>
      <trkpt lat="47.25892" lon="-2.32535">
        <ele>-7</ele>
        <time>2021-04-15T07:21:20.000Z</time>
      </trkpt>
      <trkpt lat="47.25895" lon="-2.32542">
        <ele>-7</ele>
        <time>2021-04-15T07:21:21.000Z</time>
      </trkpt>
      <trkpt lat="47.25897" lon="-2.3255">
        <ele>-7</ele>
        <time>2021-04-15T07:21:22.000Z</time>
      </trkpt>
      <trkpt lat="47.25907" lon="-2.3258">
        <ele>-7</ele>
        <time>2021-04-15T07:21:26.000Z</time>
      </trkpt>
      <trkpt lat="47.25925" lon="-2.32645">
        <ele>-7</ele>
        <time>2021-04-15T07:21:34.000Z</time>
      </trkpt>
      <trkpt lat="47.25928" lon="-2.32667">
        <ele>-7</ele>
        <time>2021-04-15T07:21:37.000Z</time>
      </trkpt>
      <trkpt lat="47.25928" lon="-2.32682">
        <ele>-7</ele>
        <time>2021-04-15T07:21:39.000Z</time>
      </trkpt>
      <trkpt lat="47.25929" lon="-2.32688">
        <ele>-7</ele>
        <time>2021-04-15T07:21:40.000Z</time>
      </trkpt>
      <trkpt lat="47.25934" lon="-2.32692">
        <ele>-7</ele>
        <time>2021-04-15T07:21:42.000Z</time>
      </trkpt>
      <trkpt lat="47.25942" lon="-2.32693">
        <ele>-7</ele>
        <time>2021-04-15T07:21:44.000Z</time>
      </trkpt>
      <trkpt lat="47.25946" lon="-2.32694">
        <ele>-7</ele>
        <time>2021-04-15T07:21:45.000Z</time>
      </trkpt>
      <trkpt lat="47.25955" lon="-2.32694">
        <ele>-7</ele>
        <time>2021-04-15T07:21:47.000Z</time>
      </trkpt>
      <trkpt lat="47.25989" lon="-2.32686">
        <ele>-7</ele>
        <time>2021-04-15T07:21:53.000Z</time>
      </trkpt>
      <trkpt lat="47.26043" lon="-2.32663">
        <ele>-7</ele>
        <time>2021-04-15T07:22:00.000Z</time>
      </trkpt>
      <trkpt lat="47.26051" lon="-2.3266">
        <ele>-7</ele>
        <time>2021-04-15T07:22:01.000Z</time>
      </trkpt>
      <trkpt lat="47.26065" lon="-2.32654">
        <ele>-6.5999999046326</ele>
        <time>2021-04-15T07:22:03.000Z</time>
      </trkpt>
      <trkpt lat="47.26071" lon="-2.32652">
        <ele>-6.1999998092651</ele>
        <time>2021-04-15T07:22:04.000Z</time>
      </trkpt>
      <trkpt lat="47.26077" lon="-2.3265">
        <ele>-5.8000001907349</ele>
        <time>2021-04-15T07:22:05.000Z</time>
      </trkpt>
      <trkpt lat="47.26082" lon="-2.32649">
        <ele>-5.4000000953674</ele>
        <time>2021-04-15T07:22:06.000Z</time>
      </trkpt>
      <trkpt lat="47.26088" lon="-2.32647">
        <ele>-4.8000001907349</ele>
        <time>2021-04-15T07:22:07.000Z</time>
      </trkpt>
      <trkpt lat="47.26093" lon="-2.32647">
        <ele>-4.8000001907349</ele>
        <time>2021-04-15T07:22:08.000Z</time>
      </trkpt>
      <trkpt lat="47.26131" lon="-2.32644">
        <ele>-4.8000001907349</ele>
        <time>2021-04-15T07:22:15.000Z</time>
      </trkpt>
      <trkpt lat="47.26137" lon="-2.32645">
        <ele>-4.8000001907349</ele>
        <time>2021-04-15T07:22:16.000Z</time>
      </trkpt>
      <trkpt lat="47.26158" lon="-2.32654">
        <ele>-4.8000001907349</ele>
        <time>2021-04-15T07:22:20.000Z</time>
      </trkpt>
      <trkpt lat="47.26167" lon="-2.3266">
        <ele>-4.8000001907349</ele>
        <time>2021-04-15T07:22:22.000Z</time>
      </trkpt>
      <trkpt lat="47.26198" lon="-2.32682">
        <ele>-4.8000001907349</ele>
        <time>2021-04-15T07:22:28.000Z</time>
      </trkpt>
      <trkpt lat="47.26202" lon="-2.32687">
        <ele>-4.8000001907349</ele>
        <time>2021-04-15T07:22:29.000Z</time>
      </trkpt>
      <trkpt lat="47.26238" lon="-2.32737">
        <ele>-4.8000001907349</ele>
        <time>2021-04-15T07:22:37.000Z</time>
      </trkpt>
      <trkpt lat="47.26272" lon="-2.32796">
        <ele>-4.8000001907349</ele>
        <time>2021-04-15T07:22:45.000Z</time>
      </trkpt>
      <trkpt lat="47.26282" lon="-2.32822">
        <ele>-5.1999998092651</ele>
        <time>2021-04-15T07:22:48.000Z</time>
      </trkpt>
      <trkpt lat="47.26284" lon="-2.32832">
        <ele>-5.5999999046326</ele>
        <time>2021-04-15T07:22:49.000Z</time>
      </trkpt>
      <trkpt lat="47.26287" lon="-2.32841">
        <ele>-6</ele>
        <time>2021-04-15T07:22:50.000Z</time>
      </trkpt>
      <trkpt lat="47.26291" lon="-2.32849">
        <ele>-6.5999999046326</ele>
        <time>2021-04-15T07:22:51.000Z</time>
      </trkpt>
      <trkpt lat="47.26295" lon="-2.32857">
        <ele>-7</ele>
        <time>2021-04-15T07:22:52.000Z</time>
      </trkpt>
      <trkpt lat="47.26305" lon="-2.32867">
        <ele>-7</ele>
        <time>2021-04-15T07:22:54.000Z</time>
      </trkpt>
      <trkpt lat="47.26321" lon="-2.32878">
        <ele>-7</ele>
        <time>2021-04-15T07:22:57.000Z</time>
      </trkpt>
      <trkpt lat="47.26324" lon="-2.32886">
        <ele>-7</ele>
        <time>2021-04-15T07:22:58.000Z</time>
      </trkpt>
      <trkpt lat="47.26329" lon="-2.32903">
        <ele>-7</ele>
        <time>2021-04-15T07:23:00.000Z</time>
      </trkpt>
      <trkpt lat="47.26352" lon="-2.32971">
        <ele>-7</ele>
        <time>2021-04-15T07:23:08.000Z</time>
      </trkpt>
      <trkpt lat="47.26356" lon="-2.32978">
        <ele>-7</ele>
        <time>2021-04-15T07:23:09.000Z</time>
      </trkpt>
      <trkpt lat="47.26368" lon="-2.32999">
        <ele>-7</ele>
        <time>2021-04-15T07:23:12.000Z</time>
      </trkpt>
      <trkpt lat="47.2637" lon="-2.33034">
        <ele>-7</ele>
        <time>2021-04-15T07:23:16.000Z</time>
      </trkpt>
      <trkpt lat="47.26373" lon="-2.3311">
        <ele>-7</ele>
        <time>2021-04-15T07:23:24.000Z</time>
      </trkpt>
      <trkpt lat="47.26378" lon="-2.33185">
        <ele>-7</ele>
        <time>2021-04-15T07:23:32.000Z</time>
      </trkpt>
      <trkpt lat="47.26382" lon="-2.33241">
        <ele>-7</ele>
        <time>2021-04-15T07:23:38.000Z</time>
      </trkpt>
      <trkpt lat="47.26387" lon="-2.33259">
        <ele>-7</ele>
        <time>2021-04-15T07:23:40.000Z</time>
      </trkpt>
      <trkpt lat="47.26402" lon="-2.33271">
        <ele>-7</ele>
        <time>2021-04-15T07:23:43.000Z</time>
      </trkpt>
      <trkpt lat="47.26414" lon="-2.33272">
        <ele>-7</ele>
        <time>2021-04-15T07:23:45.000Z</time>
      </trkpt>
      <trkpt lat="47.26432" lon="-2.33272">
        <ele>-7</ele>
        <time>2021-04-15T07:23:48.000Z</time>
      </trkpt>
      <trkpt lat="47.2646" lon="-2.33277">
        <ele>-7</ele>
        <time>2021-04-15T07:23:53.000Z</time>
      </trkpt>
      <trkpt lat="47.26466" lon="-2.33279">
        <ele>-7</ele>
        <time>2021-04-15T07:23:54.000Z</time>
      </trkpt>
      <trkpt lat="47.26498" lon="-2.33283">
        <ele>-7</ele>
        <time>2021-04-15T07:24:00.000Z</time>
      </trkpt>
      <trkpt lat="47.26507" lon="-2.33286">
        <ele>-7</ele>
        <time>2021-04-15T07:24:02.000Z</time>
      </trkpt>
      <trkpt lat="47.26517" lon="-2.33292">
        <ele>-7</ele>
        <time>2021-04-15T07:24:04.000Z</time>
      </trkpt>
      <trkpt lat="47.26532" lon="-2.33292">
        <ele>-7</ele>
        <time>2021-04-15T07:24:07.000Z</time>
      </trkpt>
      <trkpt lat="47.26541" lon="-2.33303">
        <ele>-7</ele>
        <time>2021-04-15T07:24:10.000Z</time>
      </trkpt>
      <trkpt lat="47.26547" lon="-2.33299">
        <ele>-7</ele>
        <time>2021-04-15T07:24:12.000Z</time>
      </trkpt>
      <trkpt lat="47.26559" lon="-2.33284">
        <ele>-7</ele>
        <time>2021-04-15T07:24:16.000Z</time>
      </trkpt>
      <trkpt lat="47.26589" lon="-2.33252">
        <ele>-7</ele>
        <time>2021-04-15T07:24:23.000Z</time>
      </trkpt>
      <trkpt lat="47.26625" lon="-2.33214">
        <ele>-7</ele>
        <time>2021-04-15T07:24:31.000Z</time>
      </trkpt>
      <trkpt lat="47.26638" lon="-2.33201">
        <ele>-6.4000000953674</ele>
        <time>2021-04-15T07:24:34.000Z</time>
      </trkpt>
      <trkpt lat="47.26642" lon="-2.33196">
        <ele>-6</ele>
        <time>2021-04-15T07:24:35.000Z</time>
      </trkpt>
      <trkpt lat="47.26646" lon="-2.33191">
        <ele>-5.1999998092651</ele>
        <time>2021-04-15T07:24:36.000Z</time>
      </trkpt>
      <trkpt lat="47.2665" lon="-2.33187">
        <ele>-4.5999999046326</ele>
        <time>2021-04-15T07:24:37.000Z</time>
      </trkpt>
      <trkpt lat="47.26679" lon="-2.33155">
        <ele>-4.5999999046326</ele>
        <time>2021-04-15T07:24:44.000Z</time>
      </trkpt>
      <trkpt lat="47.26688" lon="-2.33147">
        <ele>-4.5999999046326</ele>
        <time>2021-04-15T07:24:46.000Z</time>
      </trkpt>
      <trkpt lat="47.26704" lon="-2.33128">
        <ele>-4.5999999046326</ele>
        <time>2021-04-15T07:24:50.000Z</time>
      </trkpt>
      <trkpt lat="47.26729" lon="-2.33102">
        <ele>-4.5999999046326</ele>
        <time>2021-04-15T07:24:56.000Z</time>
      </trkpt>
      <trkpt lat="47.26737" lon="-2.33094">
        <ele>-4.5999999046326</ele>
        <time>2021-04-15T07:24:58.000Z</time>
      </trkpt>
      <trkpt lat="47.26745" lon="-2.33087">
        <ele>-4.5999999046326</ele>
        <time>2021-04-15T07:25:00.000Z</time>
      </trkpt>
      <trkpt lat="47.26749" lon="-2.33088">
        <ele>-4.5999999046326</ele>
        <time>2021-04-15T07:25:01.000Z</time>
      </trkpt>
      <trkpt lat="47.26761" lon="-2.33105">
        <ele>-5.1999998092651</ele>
        <time>2021-04-15T07:25:04.000Z</time>
      </trkpt>
      <trkpt lat="47.26764" lon="-2.33113">
        <ele>-5.5999999046326</ele>
        <time>2021-04-15T07:25:05.000Z</time>
      </trkpt>
      <trkpt lat="47.26765" lon="-2.33121">
        <ele>-6.1999998092651</ele>
        <time>2021-04-15T07:25:06.000Z</time>
      </trkpt>
      <trkpt lat="47.26766" lon="-2.3313">
        <ele>-6.5999999046326</ele>
        <time>2021-04-15T07:25:07.000Z</time>
      </trkpt>
      <trkpt lat="47.26766" lon="-2.33138">
        <ele>-7.1999998092651</ele>
        <time>2021-04-15T07:25:08.000Z</time>
      </trkpt>
      <trkpt lat="47.26761" lon="-2.33163">
        <ele>-7.1999998092651</ele>
        <time>2021-04-15T07:25:11.000Z</time>
      </trkpt>
      <trkpt lat="47.26759" lon="-2.33171">
        <ele>-7.1999998092651</ele>
        <time>2021-04-15T07:25:12.000Z</time>
      </trkpt>
      <trkpt lat="47.26745" lon="-2.33223">
        <ele>-7.1999998092651</ele>
        <time>2021-04-15T07:25:19.000Z</time>
      </trkpt>
      <trkpt lat="47.26736" lon="-2.33263">
        <ele>-7.1999998092651</ele>
        <time>2021-04-15T07:25:24.000Z</time>
      </trkpt>
      <trkpt lat="47.26735" lon="-2.33272">
        <ele>-7.1999998092651</ele>
        <time>2021-04-15T07:25:25.000Z</time>
      </trkpt>
      <trkpt lat="47.26742" lon="-2.33305">
        <ele>-7.1999998092651</ele>
        <time>2021-04-15T07:25:29.000Z</time>
      </trkpt>
      <trkpt lat="47.26754" lon="-2.33355">
        <ele>-7.1999998092651</ele>
        <time>2021-04-15T07:25:35.000Z</time>
      </trkpt>
      <trkpt lat="47.26756" lon="-2.33373">
        <ele>-7.1999998092651</ele>
        <time>2021-04-15T07:25:37.000Z</time>
      </trkpt>
      <trkpt lat="47.26763" lon="-2.33445">
        <ele>-7.1999998092651</ele>
        <time>2021-04-15T07:25:45.000Z</time>
      </trkpt>
      <trkpt lat="47.26774" lon="-2.33512">
        <ele>-7.1999998092651</ele>
        <time>2021-04-15T07:25:53.000Z</time>
      </trkpt>
      <trkpt lat="47.26781" lon="-2.33572">
        <ele>-7.1999998092651</ele>
        <time>2021-04-15T07:26:00.000Z</time>
      </trkpt>
      <trkpt lat="47.26781" lon="-2.33639">
        <ele>-7.1999998092651</ele>
        <time>2021-04-15T07:26:08.000Z</time>
      </trkpt>
      <trkpt lat="47.2678" lon="-2.33677">
        <ele>-6.8000001907349</ele>
        <time>2021-04-15T07:26:13.000Z</time>
      </trkpt>
      <trkpt lat="47.2678" lon="-2.33684">
        <ele>-6.4000000953674</ele>
        <time>2021-04-15T07:26:14.000Z</time>
      </trkpt>
      <trkpt lat="47.2678" lon="-2.33691">
        <ele>-5.5999999046326</ele>
        <time>2021-04-15T07:26:15.000Z</time>
      </trkpt>
      <trkpt lat="47.26781" lon="-2.33698">
        <ele>-5.1999998092651</ele>
        <time>2021-04-15T07:26:16.000Z</time>
      </trkpt>
      <trkpt lat="47.26782" lon="-2.33705">
        <ele>-5.1999998092651</ele>
        <time>2021-04-15T07:26:17.000Z</time>
      </trkpt>
      <trkpt lat="47.26788" lon="-2.33716">
        <ele>-5.1999998092651</ele>
        <time>2021-04-15T07:26:19.000Z</time>
      </trkpt>
      <trkpt lat="47.26792" lon="-2.3372">
        <ele>-4.8000001907349</ele>
        <time>2021-04-15T07:26:20.000Z</time>
      </trkpt>
      <trkpt lat="47.26796" lon="-2.33725">
        <ele>-4.1999998092651</ele>
        <time>2021-04-15T07:26:21.000Z</time>
      </trkpt>
      <trkpt lat="47.26801" lon="-2.33728">
        <ele>-3.7999999523163</ele>
        <time>2021-04-15T07:26:22.000Z</time>
      </trkpt>
      <trkpt lat="47.26805" lon="-2.33732">
        <ele>-3.4000000953674</ele>
        <time>2021-04-15T07:26:23.000Z</time>
      </trkpt>
      <trkpt lat="47.2681" lon="-2.33736">
        <ele>-3</ele>
        <time>2021-04-15T07:26:24.000Z</time>
      </trkpt>
      <trkpt lat="47.26836" lon="-2.33765">
        <ele>-3</ele>
        <time>2021-04-15T07:26:30.000Z</time>
      </trkpt>
      <trkpt lat="47.26849" lon="-2.33779">
        <ele>-3</ele>
        <time>2021-04-15T07:26:33.000Z</time>
      </trkpt>
      <trkpt lat="47.2686" lon="-2.33784">
        <ele>-3</ele>
        <time>2021-04-15T07:26:35.000Z</time>
      </trkpt>
      <trkpt lat="47.26897" lon="-2.33801">
        <ele>-3</ele>
        <time>2021-04-15T07:26:42.000Z</time>
      </trkpt>
      <trkpt lat="47.26909" lon="-2.33821">
        <ele>-3</ele>
        <time>2021-04-15T07:26:45.000Z</time>
      </trkpt>
      <trkpt lat="47.26913" lon="-2.33836">
        <ele>-3</ele>
        <time>2021-04-15T07:26:47.000Z</time>
      </trkpt>
      <trkpt lat="47.26917" lon="-2.33859">
        <ele>-3</ele>
        <time>2021-04-15T07:26:50.000Z</time>
      </trkpt>
      <trkpt lat="47.26934" lon="-2.33937">
        <ele>-3</ele>
        <time>2021-04-15T07:27:00.000Z</time>
      </trkpt>
      <trkpt lat="47.26947" lon="-2.3399">
        <ele>-2.5999999046326</ele>
        <time>2021-04-15T07:27:07.000Z</time>
      </trkpt>
      <trkpt lat="47.26949" lon="-2.33997">
        <ele>-2.2000000476837</ele>
        <time>2021-04-15T07:27:08.000Z</time>
      </trkpt>
      <trkpt lat="47.2695" lon="-2.34004">
        <ele>-1.7999999523163</ele>
        <time>2021-04-15T07:27:09.000Z</time>
      </trkpt>
      <trkpt lat="47.26952" lon="-2.34012">
        <ele>-1.3999999761581</ele>
        <time>2021-04-15T07:27:10.000Z</time>
      </trkpt>
      <trkpt lat="47.26953" lon="-2.3402">
        <ele>-0.80000001192093</ele>
        <time>2021-04-15T07:27:11.000Z</time>
      </trkpt>
      <trkpt lat="47.26959" lon="-2.34043">
        <ele>-0.80000001192093</ele>
        <time>2021-04-15T07:27:14.000Z</time>
      </trkpt>
      <trkpt lat="47.26974" lon="-2.34105">
        <ele>-0.80000001192093</ele>
        <time>2021-04-15T07:27:22.000Z</time>
      </trkpt>
      <trkpt lat="47.26988" lon="-2.34176">
        <ele>-0.80000001192093</ele>
        <time>2021-04-15T07:27:31.000Z</time>
      </trkpt>
      <trkpt lat="47.27004" lon="-2.34246">
        <ele>-0.80000001192093</ele>
        <time>2021-04-15T07:27:40.000Z</time>
      </trkpt>
      <trkpt lat="47.27012" lon="-2.34299">
        <ele>-0.80000001192093</ele>
        <time>2021-04-15T07:27:47.000Z</time>
      </trkpt>
      <trkpt lat="47.27012" lon="-2.34306">
        <ele>-0.80000001192093</ele>
        <time>2021-04-15T07:27:48.000Z</time>
      </trkpt>
      <trkpt lat="47.27012" lon="-2.34312">
        <ele>-0.80000001192093</ele>
        <time>2021-04-15T07:27:49.000Z</time>
      </trkpt>
      <trkpt lat="47.27017" lon="-2.34321">
        <ele>-0.80000001192093</ele>
        <time>2021-04-15T07:27:51.000Z</time>
      </trkpt>
      <trkpt lat="47.27028" lon="-2.34325">
        <ele>-0.80000001192093</ele>
        <time>2021-04-15T07:27:54.000Z</time>
      </trkpt>
      <trkpt lat="47.27038" lon="-2.34324">
        <ele>-0.40000000596046</ele>
        <time>2021-04-15T07:27:56.000Z</time>
      </trkpt>
      <trkpt lat="47.27043" lon="-2.34324">
        <ele>10.5</ele>
        <time>2021-04-15T07:27:57.000Z</time>
      </trkpt>
      <trkpt lat="47.27048" lon="-2.34323">
        <ele>0.60000002384186</ele>
        <time>2021-04-15T07:27:58.000Z</time>
      </trkpt>
      <trkpt lat="47.27053" lon="-2.34323">
        <ele>1</ele>
        <time>2021-04-15T07:27:59.000Z</time>
      </trkpt>
      <trkpt lat="47.27058" lon="-2.34323">
        <ele>1.3999999761581</ele>
        <time>2021-04-15T07:28:00.000Z</time>
      </trkpt>
      <trkpt lat="47.27063" lon="-2.34322">
        <ele>1.3999999761581</ele>
        <time>2021-04-15T07:28:01.000Z</time>
      </trkpt>
      <trkpt lat="47.27068" lon="-2.34323">
        <ele>1.3999999761581</ele>
        <time>2021-04-15T07:28:02.000Z</time>
      </trkpt>
      <trkpt lat="47.27088" lon="-2.34325">
        <ele>1.3999999761581</ele>
        <time>2021-04-15T07:28:06.000Z</time>
      </trkpt>
      <trkpt lat="47.27098" lon="-2.34326">
        <ele>1.7999999523163</ele>
        <time>2021-04-15T07:28:08.000Z</time>
      </trkpt>
      <trkpt lat="47.27102" lon="-2.34326">
        <ele>2.4000000953674</ele>
        <time>2021-04-15T07:28:09.000Z</time>
      </trkpt>
      <trkpt lat="47.27106" lon="-2.34327">
        <ele>2.7999999523163</ele>
        <time>2021-04-15T07:28:10.000Z</time>
      </trkpt>
      <trkpt lat="47.27111" lon="-2.34327">
        <ele>3.4000000953674</ele>
        <time>2021-04-15T07:28:11.000Z</time>
      </trkpt>
      <trkpt lat="47.27115" lon="-2.34327">
        <ele>3.7999999523163</ele>
        <time>2021-04-15T07:28:12.000Z</time>
      </trkpt>
      <trkpt lat="47.27125" lon="-2.34328">
        <ele>3.7999999523163</ele>
        <time>2021-04-15T07:28:14.000Z</time>
      </trkpt>
      <trkpt lat="47.27132" lon="-2.34338">
        <ele>3.7999999523163</ele>
        <time>2021-04-15T07:28:16.000Z</time>
      </trkpt>
      <trkpt lat="47.27137" lon="-2.3436">
        <ele>3.7999999523163</ele>
        <time>2021-04-15T07:28:19.000Z</time>
      </trkpt>
      <trkpt lat="47.27138" lon="-2.34368">
        <ele>3.7999999523163</ele>
        <time>2021-04-15T07:28:20.000Z</time>
      </trkpt>
      <trkpt lat="47.27154" lon="-2.34435">
        <ele>3.7999999523163</ele>
        <time>2021-04-15T07:28:28.000Z</time>
      </trkpt>
      <trkpt lat="47.27171" lon="-2.34502">
        <ele>3.7999999523163</ele>
        <time>2021-04-15T07:28:36.000Z</time>
      </trkpt>
      <trkpt lat="47.27183" lon="-2.34559">
        <ele>3.7999999523163</ele>
        <time>2021-04-15T07:28:43.000Z</time>
      </trkpt>
      <trkpt lat="47.27194" lon="-2.34616">
        <ele>3.7999999523163</ele>
        <time>2021-04-15T07:28:50.000Z</time>
      </trkpt>
      <trkpt lat="47.27197" lon="-2.34631">
        <ele>3.7999999523163</ele>
        <time>2021-04-15T07:28:52.000Z</time>
      </trkpt>
      <trkpt lat="47.2721" lon="-2.34687">
        <ele>3.7999999523163</ele>
        <time>2021-04-15T07:28:59.000Z</time>
      </trkpt>
      <trkpt lat="47.27212" lon="-2.34695">
        <ele>4.1999998092651</ele>
        <time>2021-04-15T07:29:00.000Z</time>
      </trkpt>
      <trkpt lat="47.27214" lon="-2.34704">
        <ele>4.5999999046326</ele>
        <time>2021-04-15T07:29:01.000Z</time>
      </trkpt>
      <trkpt lat="47.27215" lon="-2.34712">
        <ele>5</ele>
        <time>2021-04-15T07:29:02.000Z</time>
      </trkpt>
      <trkpt lat="47.27217" lon="-2.3472">
        <ele>5.4000000953674</ele>
        <time>2021-04-15T07:29:03.000Z</time>
      </trkpt>
      <trkpt lat="47.27219" lon="-2.34728">
        <ele>6</ele>
        <time>2021-04-15T07:29:04.000Z</time>
      </trkpt>
      <trkpt lat="47.27224" lon="-2.34751">
        <ele>6</ele>
        <time>2021-04-15T07:29:07.000Z</time>
      </trkpt>
      <trkpt lat="47.27233" lon="-2.34789">
        <ele>6</ele>
        <time>2021-04-15T07:29:12.000Z</time>
      </trkpt>
      <trkpt lat="47.27237" lon="-2.34804">
        <ele>6</ele>
        <time>2021-04-15T07:29:14.000Z</time>
      </trkpt>
      <trkpt lat="47.27248" lon="-2.34851">
        <ele>6</ele>
        <time>2021-04-15T07:29:20.000Z</time>
      </trkpt>
      <trkpt lat="47.27262" lon="-2.34905">
        <ele>6</ele>
        <time>2021-04-15T07:29:26.000Z</time>
      </trkpt>
      <trkpt lat="47.27264" lon="-2.34914">
        <ele>6.4000000953674</ele>
        <time>2021-04-15T07:29:27.000Z</time>
      </trkpt>
      <trkpt lat="47.27265" lon="-2.34923">
        <ele>6.8000001907349</ele>
        <time>2021-04-15T07:29:28.000Z</time>
      </trkpt>
      <trkpt lat="47.27268" lon="-2.34932">
        <ele>7.1999998092651</ele>
        <time>2021-04-15T07:29:29.000Z</time>
      </trkpt>
      <trkpt lat="47.2727" lon="-2.34941">
        <ele>7.5999999046326</ele>
        <time>2021-04-15T07:29:30.000Z</time>
      </trkpt>
      <trkpt lat="47.27272" lon="-2.3495">
        <ele>8</ele>
        <time>2021-04-15T07:29:31.000Z</time>
      </trkpt>
      <trkpt lat="47.27279" lon="-2.34978">
        <ele>8</ele>
        <time>2021-04-15T07:29:34.000Z</time>
      </trkpt>
      <trkpt lat="47.27298" lon="-2.35057">
        <ele>8</ele>
        <time>2021-04-15T07:29:43.000Z</time>
      </trkpt>
      <trkpt lat="47.27314" lon="-2.35126">
        <ele>8</ele>
        <time>2021-04-15T07:29:51.000Z</time>
      </trkpt>
      <trkpt lat="47.27327" lon="-2.35188">
        <ele>7.5999999046326</ele>
        <time>2021-04-15T07:29:58.000Z</time>
      </trkpt>
      <trkpt lat="47.27329" lon="-2.35197">
        <ele>7.1999998092651</ele>
        <time>2021-04-15T07:29:59.000Z</time>
      </trkpt>
      <trkpt lat="47.27331" lon="-2.35206">
        <ele>6.5999999046326</ele>
        <time>2021-04-15T07:30:00.000Z</time>
      </trkpt>
      <trkpt lat="47.27332" lon="-2.35216">
        <ele>6.1999998092651</ele>
        <time>2021-04-15T07:30:01.000Z</time>
      </trkpt>
      <trkpt lat="47.27334" lon="-2.35226">
        <ele>5.8000001907349</ele>
        <time>2021-04-15T07:30:02.000Z</time>
      </trkpt>
      <trkpt lat="47.27348" lon="-2.35282">
        <ele>5.8000001907349</ele>
        <time>2021-04-15T07:30:08.000Z</time>
      </trkpt>
      <trkpt lat="47.27361" lon="-2.3534">
        <ele>5.8000001907349</ele>
        <time>2021-04-15T07:30:14.000Z</time>
      </trkpt>
      <trkpt lat="47.27373" lon="-2.35392">
        <ele>5.4000000953674</ele>
        <time>2021-04-15T07:30:19.000Z</time>
      </trkpt>
      <trkpt lat="47.27375" lon="-2.35403">
        <ele>5</ele>
        <time>2021-04-15T07:30:20.000Z</time>
      </trkpt>
      <trkpt lat="47.27377" lon="-2.35414">
        <ele>4.5999999046326</ele>
        <time>2021-04-15T07:30:21.000Z</time>
      </trkpt>
      <trkpt lat="47.27379" lon="-2.35424">
        <ele>3.7999999523163</ele>
        <time>2021-04-15T07:30:22.000Z</time>
      </trkpt>
      <trkpt lat="47.27394" lon="-2.355">
        <ele>3.4000000953674</ele>
        <time>2021-04-15T07:30:29.000Z</time>
      </trkpt>
      <trkpt lat="47.27396" lon="-2.3551">
        <ele>2.7999999523163</ele>
        <time>2021-04-15T07:30:30.000Z</time>
      </trkpt>
      <trkpt lat="47.27398" lon="-2.35521">
        <ele>2.4000000953674</ele>
        <time>2021-04-15T07:30:31.000Z</time>
      </trkpt>
      <trkpt lat="47.27401" lon="-2.35531">
        <ele>2</ele>
        <time>2021-04-15T07:30:32.000Z</time>
      </trkpt>
      <trkpt lat="47.27403" lon="-2.35542">
        <ele>1.6000000238419</ele>
        <time>2021-04-15T07:30:33.000Z</time>
      </trkpt>
      <trkpt lat="47.27408" lon="-2.35575">
        <ele>1.6000000238419</ele>
        <time>2021-04-15T07:30:36.000Z</time>
      </trkpt>
      <trkpt lat="47.27421" lon="-2.35656">
        <ele>1.6000000238419</ele>
        <time>2021-04-15T07:30:44.000Z</time>
      </trkpt>
      <trkpt lat="47.27425" lon="-2.35663">
        <ele>1.2000000476837</ele>
        <time>2021-04-15T07:30:45.000Z</time>
      </trkpt>
      <trkpt lat="47.27431" lon="-2.35669">
        <ele>0.40000000596046</ele>
        <time>2021-04-15T07:30:46.000Z</time>
      </trkpt>
      <trkpt lat="47.27436" lon="-2.35673">
        <ele>5.8</ele>
        <time>2021-04-15T07:30:47.000Z</time>
      </trkpt>
      <trkpt lat="47.27442" lon="-2.35675">
        <ele>-0.40000000596046</ele>
        <time>2021-04-15T07:30:48.000Z</time>
      </trkpt>
      <trkpt lat="47.27455" lon="-2.35679">
        <ele>-0.40000000596046</ele>
        <time>2021-04-15T07:30:50.000Z</time>
      </trkpt>
      <trkpt lat="47.27461" lon="-2.35681">
        <ele>-0.40000000596046</ele>
        <time>2021-04-15T07:30:51.000Z</time>
      </trkpt>
      <trkpt lat="47.27506" lon="-2.35688">
        <ele>-0.40000000596046</ele>
        <time>2021-04-15T07:30:58.000Z</time>
      </trkpt>
      <trkpt lat="47.27556" lon="-2.35698">
        <ele>-0.40000000596046</ele>
        <time>2021-04-15T07:31:06.000Z</time>
      </trkpt>
      <trkpt lat="47.27598" lon="-2.35708">
        <ele>-0.40000000596046</ele>
        <time>2021-04-15T07:31:13.000Z</time>
      </trkpt>
      <trkpt lat="47.27609" lon="-2.35711">
        <ele>8.5</ele>
        <time>2021-04-15T07:31:15.000Z</time>
      </trkpt>
      <trkpt lat="47.27615" lon="-2.35712">
        <ele>0.60000002384186</ele>
        <time>2021-04-15T07:31:16.000Z</time>
      </trkpt>
      <trkpt lat="47.27621" lon="-2.35713">
        <ele>1</ele>
        <time>2021-04-15T07:31:17.000Z</time>
      </trkpt>
      <trkpt lat="47.27627" lon="-2.35713">
        <ele>1.3999999761581</ele>
        <time>2021-04-15T07:31:18.000Z</time>
      </trkpt>
      <trkpt lat="47.27633" lon="-2.35715">
        <ele>1.7999999523163</ele>
        <time>2021-04-15T07:31:19.000Z</time>
      </trkpt>
      <trkpt lat="47.27666" lon="-2.35722">
        <ele>1.7999999523163</ele>
        <time>2021-04-15T07:31:25.000Z</time>
      </trkpt>
      <trkpt lat="47.27682" lon="-2.35726">
        <ele>1.7999999523163</ele>
        <time>2021-04-15T07:31:28.000Z</time>
      </trkpt>
      <trkpt lat="47.27693" lon="-2.35727">
        <ele>1.7999999523163</ele>
        <time>2021-04-15T07:31:30.000Z</time>
      </trkpt>
      <trkpt lat="47.27698" lon="-2.35725">
        <ele>1.7999999523163</ele>
        <time>2021-04-15T07:31:31.000Z</time>
      </trkpt>
      <trkpt lat="47.27708" lon="-2.35718">
        <ele>1.7999999523163</ele>
        <time>2021-04-15T07:31:33.000Z</time>
      </trkpt>
      <trkpt lat="47.27712" lon="-2.35713">
        <ele>2.4000000953674</ele>
        <time>2021-04-15T07:31:34.000Z</time>
      </trkpt>
      <trkpt lat="47.27717" lon="-2.35709">
        <ele>2.7999999523163</ele>
        <time>2021-04-15T07:31:35.000Z</time>
      </trkpt>
      <trkpt lat="47.27721" lon="-2.35705">
        <ele>3.5999999046326</ele>
        <time>2021-04-15T07:31:36.000Z</time>
      </trkpt>
      <trkpt lat="47.27724" lon="-2.35699">
        <ele>4.1999998092651</ele>
        <time>2021-04-15T07:31:37.000Z</time>
      </trkpt>
      <trkpt lat="47.27728" lon="-2.35694">
        <ele>4.1999998092651</ele>
        <time>2021-04-15T07:31:38.000Z</time>
      </trkpt>
      <trkpt lat="47.27737" lon="-2.35678">
        <ele>4.1999998092651</ele>
        <time>2021-04-15T07:31:41.000Z</time>
      </trkpt>
      <trkpt lat="47.27748" lon="-2.35661">
        <ele>4.1999998092651</ele>
        <time>2021-04-15T07:31:44.000Z</time>
      </trkpt>
      <trkpt lat="47.27763" lon="-2.35639">
        <ele>4.5999999046326</ele>
        <time>2021-04-15T07:31:48.000Z</time>
      </trkpt>
      <trkpt lat="47.27767" lon="-2.35635">
        <ele>5</ele>
        <time>2021-04-15T07:31:49.000Z</time>
      </trkpt>
      <trkpt lat="47.27771" lon="-2.3563">
        <ele>5.4000000953674</ele>
        <time>2021-04-15T07:31:50.000Z</time>
      </trkpt>
      <trkpt lat="47.27776" lon="-2.35627">
        <ele>5.8000001907349</ele>
        <time>2021-04-15T07:31:51.000Z</time>
      </trkpt>
      <trkpt lat="47.2778" lon="-2.35623">
        <ele>6.1999998092651</ele>
        <time>2021-04-15T07:31:52.000Z</time>
      </trkpt>
      <trkpt lat="47.27784" lon="-2.3562">
        <ele>6.1999998092651</ele>
        <time>2021-04-15T07:31:53.000Z</time>
      </trkpt>
      <trkpt lat="47.27804" lon="-2.35611">
        <ele>6.1999998092651</ele>
        <time>2021-04-15T07:31:57.000Z</time>
      </trkpt>
      <trkpt lat="47.27831" lon="-2.35602">
        <ele>6.5999999046326</ele>
        <time>2021-04-15T07:32:03.000Z</time>
      </trkpt>
      <trkpt lat="47.27836" lon="-2.35601">
        <ele>7</ele>
        <time>2021-04-15T07:32:04.000Z</time>
      </trkpt>
      <trkpt lat="47.27841" lon="-2.356">
        <ele>7.4000000953674</ele>
        <time>2021-04-15T07:32:05.000Z</time>
      </trkpt>
      <trkpt lat="47.27845" lon="-2.35599">
        <ele>7.8000001907349</ele>
        <time>2021-04-15T07:32:06.000Z</time>
      </trkpt>
      <trkpt lat="47.2785" lon="-2.35597">
        <ele>8.1999998092651</ele>
        <time>2021-04-15T07:32:07.000Z</time>
      </trkpt>
      <trkpt lat="47.27867" lon="-2.35593">
        <ele>8.1999998092651</ele>
        <time>2021-04-15T07:32:11.000Z</time>
      </trkpt>
      <trkpt lat="47.27881" lon="-2.3559">
        <ele>8.1999998092651</ele>
        <time>2021-04-15T07:32:14.000Z</time>
      </trkpt>
      <trkpt lat="47.27897" lon="-2.35585">
        <ele>8.1999998092651</ele>
        <time>2021-04-15T07:32:18.000Z</time>
      </trkpt>
      <trkpt lat="47.27926" lon="-2.35583">
        <ele>9.1999998092651</ele>
        <time>2021-04-15T07:32:25.000Z</time>
      </trkpt>
      <trkpt lat="47.27931" lon="-2.35586">
        <ele>9.6000003814697</ele>
        <time>2021-04-15T07:32:26.000Z</time>
      </trkpt>
      <trkpt lat="47.27935" lon="-2.35587">
        <ele>10</ele>
        <time>2021-04-15T07:32:27.000Z</time>
      </trkpt>
      <trkpt lat="47.27939" lon="-2.35587">
        <ele>10.39999961853</ele>
        <time>2021-04-15T07:32:28.000Z</time>
      </trkpt>
      <trkpt lat="47.27943" lon="-2.35586">
        <ele>10.39999961853</ele>
        <time>2021-04-15T07:32:29.000Z</time>
      </trkpt>
      <trkpt lat="47.27947" lon="-2.35585">
        <ele>10.39999961853</ele>
        <time>2021-04-15T07:32:30.000Z</time>
      </trkpt>
      <trkpt lat="47.27969" lon="-2.35581">
        <ele>10.39999961853</ele>
        <time>2021-04-15T07:32:36.000Z</time>
      </trkpt>
      <trkpt lat="47.27991" lon="-2.35581">
        <ele>10.39999961853</ele>
        <time>2021-04-15T07:32:42.000Z</time>
      </trkpt>
      <trkpt lat="47.28013" lon="-2.35575">
        <ele>10.39999961853</ele>
        <time>2021-04-15T07:32:48.000Z</time>
      </trkpt>
      <trkpt lat="47.28035" lon="-2.3557">
        <ele>10.39999961853</ele>
        <time>2021-04-15T07:32:54.000Z</time>
      </trkpt>
      <trkpt lat="47.28046" lon="-2.35573">
        <ele>10.800000190735</ele>
        <time>2021-04-15T07:32:57.000Z</time>
      </trkpt>
      <trkpt lat="47.28049" lon="-2.35574">
        <ele>11.199999809265</ele>
        <time>2021-04-15T07:32:58.000Z</time>
      </trkpt>
      <trkpt lat="47.28053" lon="-2.35575">
        <ele>11.60000038147</ele>
        <time>2021-04-15T07:32:59.000Z</time>
      </trkpt>
      <trkpt lat="47.28055" lon="-2.35577">
        <ele>12</ele>
        <time>2021-04-15T07:33:00.000Z</time>
      </trkpt>
      <trkpt lat="47.28057" lon="-2.35578">
        <ele>12.60000038147</ele>
        <time>2021-04-15T07:33:01.000Z</time>
      </trkpt>
      <trkpt lat="47.28068" lon="-2.35589">
        <ele>12.60000038147</ele>
        <time>2021-04-15T07:33:06.000Z</time>
      </trkpt>
      <trkpt lat="47.28072" lon="-2.35605">
        <ele>12.60000038147</ele>
        <time>2021-04-15T07:33:11.000Z</time>
      </trkpt>
      <trkpt lat="47.28072" lon="-2.3561">
        <ele>12.60000038147</ele>
        <time>2021-04-15T07:33:15.000Z</time>
      </trkpt>
      <trkpt lat="47.28072" lon="-2.3561">
        <ele>12.60000038147</ele>
        <time>2021-04-15T07:33:16.000Z</time>
      </trkpt>
      <trkpt lat="47.28074" lon="-2.35606">
        <ele>12.60000038147</ele>
        <time>2021-04-15T07:38:23.000Z</time>
      </trkpt>
      <trkpt lat="47.28073" lon="-2.35609">
        <ele>12.60000038147</ele>
        <time>2021-04-15T07:38:25.000Z</time>
      </trkpt>
      <trkpt lat="47.28077" lon="-2.3562">
        <ele>12.60000038147</ele>
        <time>2021-04-15T07:38:29.000Z</time>
      </trkpt>
      <trkpt lat="47.28078" lon="-2.35638">
        <ele>13</ele>
        <time>2021-04-15T07:38:35.000Z</time>
      </trkpt>
      <trkpt lat="47.28078" lon="-2.35641">
        <ele>13.39999961853</ele>
        <time>2021-04-15T07:38:36.000Z</time>
      </trkpt>
      <trkpt lat="47.2808" lon="-2.35644">
        <ele>14</ele>
        <time>2021-04-15T07:38:37.000Z</time>
      </trkpt>
      <trkpt lat="47.2808" lon="-2.35646">
        <ele>14.39999961853</ele>
        <time>2021-04-15T07:38:38.000Z</time>
      </trkpt>
      <trkpt lat="47.28081" lon="-2.35649">
        <ele>14.800000190735</ele>
        <time>2021-04-15T07:38:39.000Z</time>
      </trkpt>
      <trkpt lat="47.28083" lon="-2.35655">
        <ele>14.800000190735</ele>
        <time>2021-04-15T07:38:41.000Z</time>
      </trkpt>
      <trkpt lat="47.28083" lon="-2.35658">
        <ele>15.39999961853</ele>
        <time>2021-04-15T07:38:42.000Z</time>
      </trkpt>
      <trkpt lat="47.28084" lon="-2.35662">
        <ele>15.800000190735</ele>
        <time>2021-04-15T07:38:43.000Z</time>
      </trkpt>
      <trkpt lat="47.28085" lon="-2.35666">
        <ele>16.200000762939</ele>
        <time>2021-04-15T07:38:44.000Z</time>
      </trkpt>
      <trkpt lat="47.28086" lon="-2.35668">
        <ele>16.60000038147</ele>
        <time>2021-04-15T07:38:45.000Z</time>
      </trkpt>
      <trkpt lat="47.28087" lon="-2.35671">
        <ele>17.200000762939</ele>
        <time>2021-04-15T07:38:46.000Z</time>
      </trkpt>
      <trkpt lat="47.28088" lon="-2.35674">
        <ele>17.200000762939</ele>
        <time>2021-04-15T07:38:47.000Z</time>
      </trkpt>
      <trkpt lat="47.28094" lon="-2.35695">
        <ele>17.60000038147</ele>
        <time>2021-04-15T07:38:53.000Z</time>
      </trkpt>
      <trkpt lat="47.28096" lon="-2.35699">
        <ele>18</ele>
        <time>2021-04-15T07:38:54.000Z</time>
      </trkpt>
      <trkpt lat="47.28096" lon="-2.35703">
        <ele>18.39999961853</ele>
        <time>2021-04-15T07:38:55.000Z</time>
      </trkpt>
      <trkpt lat="47.28097" lon="-2.35707">
        <ele>18.799999237061</ele>
        <time>2021-04-15T07:38:56.000Z</time>
      </trkpt>
      <trkpt lat="47.28097" lon="-2.3571">
        <ele>19.200000762939</ele>
        <time>2021-04-15T07:38:57.000Z</time>
      </trkpt>
      <trkpt lat="47.28094" lon="-2.35723">
        <ele>19.200000762939</ele>
        <time>2021-04-15T07:39:00.000Z</time>
      </trkpt>
      <trkpt lat="47.2809" lon="-2.35751">
        <ele>19.200000762939</ele>
        <time>2021-04-15T07:39:04.000Z</time>
      </trkpt>
      <trkpt lat="47.28083" lon="-2.35781">
        <ele>19.200000762939</ele>
        <time>2021-04-15T07:39:08.000Z</time>
      </trkpt>
      <trkpt lat="47.28082" lon="-2.35789">
        <ele>19.200000762939</ele>
        <time>2021-04-15T07:39:09.000Z</time>
      </trkpt>
      <trkpt lat="47.28083" lon="-2.35798">
        <ele>18.60000038147</ele>
        <time>2021-04-15T07:39:10.000Z</time>
      </trkpt>
      <trkpt lat="47.28084" lon="-2.35804">
        <ele>18.200000762939</ele>
        <time>2021-04-15T07:39:11.000Z</time>
      </trkpt>
      <trkpt lat="47.28085" lon="-2.3581">
        <ele>17.60000038147</ele>
        <time>2021-04-15T07:39:12.000Z</time>
      </trkpt>
      <trkpt lat="47.28086" lon="-2.35816">
        <ele>17.200000762939</ele>
        <time>2021-04-15T07:39:13.000Z</time>
      </trkpt>
      <trkpt lat="47.28091" lon="-2.35824">
        <ele>16.60000038147</ele>
        <time>2021-04-15T07:39:14.000Z</time>
      </trkpt>
      <trkpt lat="47.28097" lon="-2.35833">
        <ele>16.60000038147</ele>
        <time>2021-04-15T07:39:16.000Z</time>
      </trkpt>
      <trkpt lat="47.28115" lon="-2.35855">
        <ele>16.60000038147</ele>
        <time>2021-04-15T07:39:21.000Z</time>
      </trkpt>
      <trkpt lat="47.28126" lon="-2.35871">
        <ele>16.60000038147</ele>
        <time>2021-04-15T07:39:24.000Z</time>
      </trkpt>
      <trkpt lat="47.28132" lon="-2.3588">
        <ele>16.60000038147</ele>
        <time>2021-04-15T07:39:26.000Z</time>
      </trkpt>
      <trkpt lat="47.2815" lon="-2.35902">
        <ele>16.60000038147</ele>
        <time>2021-04-15T07:39:32.000Z</time>
      </trkpt>
      <trkpt lat="47.28169" lon="-2.35927">
        <ele>16.60000038147</ele>
        <time>2021-04-15T07:39:38.000Z</time>
      </trkpt>
      <trkpt lat="47.28171" lon="-2.35932">
        <ele>16.200000762939</ele>
        <time>2021-04-15T07:39:39.000Z</time>
      </trkpt>
      <trkpt lat="47.28174" lon="-2.35936">
        <ele>15.60000038147</ele>
        <time>2021-04-15T07:39:40.000Z</time>
      </trkpt>
      <trkpt lat="47.28176" lon="-2.35941">
        <ele>15.199999809265</ele>
        <time>2021-04-15T07:39:41.000Z</time>
      </trkpt>
      <trkpt lat="47.28178" lon="-2.35946">
        <ele>14.800000190735</ele>
        <time>2021-04-15T07:39:42.000Z</time>
      </trkpt>
      <trkpt lat="47.2818" lon="-2.35952">
        <ele>14.39999961853</ele>
        <time>2021-04-15T07:39:43.000Z</time>
      </trkpt>
      <trkpt lat="47.28182" lon="-2.35958">
        <ele>14.39999961853</ele>
        <time>2021-04-15T07:39:44.000Z</time>
      </trkpt>
      <trkpt lat="47.28185" lon="-2.35965">
        <ele>14.39999961853</ele>
        <time>2021-04-15T07:39:45.000Z</time>
      </trkpt>
      <trkpt lat="47.28193" lon="-2.3598">
        <ele>14.39999961853</ele>
        <time>2021-04-15T07:39:48.000Z</time>
      </trkpt>
      <trkpt lat="47.28198" lon="-2.35996">
        <ele>14.39999961853</ele>
        <time>2021-04-15T07:39:50.000Z</time>
      </trkpt>
      <trkpt lat="47.28201" lon="-2.36001">
        <ele>14</ele>
        <time>2021-04-15T07:39:51.000Z</time>
      </trkpt>
      <trkpt lat="47.28203" lon="-2.36008">
        <ele>13.60000038147</ele>
        <time>2021-04-15T07:39:52.000Z</time>
      </trkpt>
      <trkpt lat="47.28206" lon="-2.36014">
        <ele>13.199999809265</ele>
        <time>2021-04-15T07:39:53.000Z</time>
      </trkpt>
      <trkpt lat="47.28207" lon="-2.36021">
        <ele>12.60000038147</ele>
        <time>2021-04-15T07:39:54.000Z</time>
      </trkpt>
      <trkpt lat="47.2821" lon="-2.36026">
        <ele>12.199999809265</ele>
        <time>2021-04-15T07:39:55.000Z</time>
      </trkpt>
      <trkpt lat="47.28212" lon="-2.36033">
        <ele>12.199999809265</ele>
        <time>2021-04-15T07:39:56.000Z</time>
      </trkpt>
      <trkpt lat="47.28222" lon="-2.36067">
        <ele>12.199999809265</ele>
        <time>2021-04-15T07:40:01.000Z</time>
      </trkpt>
      <trkpt lat="47.28226" lon="-2.36078">
        <ele>12.199999809265</ele>
        <time>2021-04-15T07:40:03.000Z</time>
      </trkpt>
      <trkpt lat="47.28231" lon="-2.36101">
        <ele>12.800000190735</ele>
        <time>2021-04-15T07:40:08.000Z</time>
      </trkpt>
      <trkpt lat="47.28232" lon="-2.36104">
        <ele>13.199999809265</ele>
        <time>2021-04-15T07:40:09.000Z</time>
      </trkpt>
      <trkpt lat="47.28234" lon="-2.36109">
        <ele>13.60000038147</ele>
        <time>2021-04-15T07:40:10.000Z</time>
      </trkpt>
      <trkpt lat="47.28236" lon="-2.36113">
        <ele>14</ele>
        <time>2021-04-15T07:40:11.000Z</time>
      </trkpt>
      <trkpt lat="47.28238" lon="-2.36119">
        <ele>14.39999961853</ele>
        <time>2021-04-15T07:40:12.000Z</time>
      </trkpt>
      <trkpt lat="47.28241" lon="-2.36131">
        <ele>14.39999961853</ele>
        <time>2021-04-15T07:40:13.000Z</time>
      </trkpt>
      <trkpt lat="47.28256" lon="-2.36177">
        <ele>14.39999961853</ele>
        <time>2021-04-15T07:40:19.000Z</time>
      </trkpt>
      <trkpt lat="47.28258" lon="-2.36184">
        <ele>14</ele>
        <time>2021-04-15T07:40:20.000Z</time>
      </trkpt>
      <trkpt lat="47.2826" lon="-2.36191">
        <ele>13.60000038147</ele>
        <time>2021-04-15T07:40:21.000Z</time>
      </trkpt>
      <trkpt lat="47.28263" lon="-2.36199">
        <ele>13.199999809265</ele>
        <time>2021-04-15T07:40:22.000Z</time>
      </trkpt>
      <trkpt lat="47.28266" lon="-2.36205">
        <ele>12.60000038147</ele>
        <time>2021-04-15T07:40:23.000Z</time>
      </trkpt>
      <trkpt lat="47.28268" lon="-2.36211">
        <ele>12.199999809265</ele>
        <time>2021-04-15T07:40:24.000Z</time>
      </trkpt>
      <trkpt lat="47.28286" lon="-2.36239">
        <ele>12.199999809265</ele>
        <time>2021-04-15T07:40:30.000Z</time>
      </trkpt>
      <trkpt lat="47.28302" lon="-2.36244">
        <ele>12.199999809265</ele>
        <time>2021-04-15T07:40:34.000Z</time>
      </trkpt>
      <trkpt lat="47.28309" lon="-2.36245">
        <ele>12.199999809265</ele>
        <time>2021-04-15T07:40:36.000Z</time>
      </trkpt>
      <trkpt lat="47.28316" lon="-2.36249">
        <ele>12.199999809265</ele>
        <time>2021-04-15T07:40:38.000Z</time>
      </trkpt>
      <trkpt lat="47.28329" lon="-2.36255">
        <ele>12.60000038147</ele>
        <time>2021-04-15T07:40:41.000Z</time>
      </trkpt>
      <trkpt lat="47.28333" lon="-2.36258">
        <ele>13.199999809265</ele>
        <time>2021-04-15T07:40:42.000Z</time>
      </trkpt>
      <trkpt lat="47.28338" lon="-2.3626">
        <ele>13.60000038147</ele>
        <time>2021-04-15T07:40:43.000Z</time>
      </trkpt>
      <trkpt lat="47.28341" lon="-2.36261">
        <ele>14</ele>
        <time>2021-04-15T07:40:44.000Z</time>
      </trkpt>
      <trkpt lat="47.28344" lon="-2.36262">
        <ele>14.39999961853</ele>
        <time>2021-04-15T07:40:45.000Z</time>
      </trkpt>
      <trkpt lat="47.28346" lon="-2.36263">
        <ele>14.39999961853</ele>
        <time>2021-04-15T07:40:46.000Z</time>
      </trkpt>
      <trkpt lat="47.28353" lon="-2.36269">
        <ele>14.39999961853</ele>
        <time>2021-04-15T07:40:51.000Z</time>
      </trkpt>
      <trkpt lat="47.28354" lon="-2.36272">
        <ele>14.39999961853</ele>
        <time>2021-04-15T07:40:52.000Z</time>
      </trkpt>
      <trkpt lat="47.28353" lon="-2.36282">
        <ele>14.39999961853</ele>
        <time>2021-04-15T07:40:56.000Z</time>
      </trkpt>
      <trkpt lat="47.28353" lon="-2.36284">
        <ele>14.39999961853</ele>
        <time>2021-04-15T07:40:57.000Z</time>
      </trkpt>
      <trkpt lat="47.28354" lon="-2.36289">
        <ele>14.39999961853</ele>
        <time>2021-04-15T07:41:00.000Z</time>
      </trkpt>
      <trkpt lat="47.28355" lon="-2.36294">
        <ele>14.800000190735</ele>
        <time>2021-04-15T07:41:02.000Z</time>
      </trkpt>
      <trkpt lat="47.28356" lon="-2.36296">
        <ele>15.199999809265</ele>
        <time>2021-04-15T07:41:03.000Z</time>
      </trkpt>
      <trkpt lat="47.28357" lon="-2.36297">
        <ele>15.60000038147</ele>
        <time>2021-04-15T07:41:04.000Z</time>
      </trkpt>
      <trkpt lat="47.28359" lon="-2.36298">
        <ele>16</ele>
        <time>2021-04-15T07:41:05.000Z</time>
      </trkpt>
      <trkpt lat="47.28361" lon="-2.36298">
        <ele>16.39999961853</ele>
        <time>2021-04-15T07:41:06.000Z</time>
      </trkpt>
      <trkpt lat="47.28364" lon="-2.363">
        <ele>16.39999961853</ele>
        <time>2021-04-15T07:41:08.000Z</time>
      </trkpt>
      <trkpt lat="47.2837" lon="-2.36305">
        <ele>16.39999961853</ele>
        <time>2021-04-15T07:41:11.000Z</time>
      </trkpt>
      <trkpt lat="47.28376" lon="-2.36311">
        <ele>16.39999961853</ele>
        <time>2021-04-15T07:41:14.000Z</time>
      </trkpt>
      <trkpt lat="47.28381" lon="-2.36318">
        <ele>16.799999237061</ele>
        <time>2021-04-15T07:41:16.000Z</time>
      </trkpt>
      <trkpt lat="47.28383" lon="-2.36319">
        <ele>17.200000762939</ele>
        <time>2021-04-15T07:41:17.000Z</time>
      </trkpt>
      <trkpt lat="47.28386" lon="-2.36323">
        <ele>17.60000038147</ele>
        <time>2021-04-15T07:41:18.000Z</time>
      </trkpt>
      <trkpt lat="47.28389" lon="-2.36326">
        <ele>18</ele>
        <time>2021-04-15T07:41:19.000Z</time>
      </trkpt>
      <trkpt lat="47.28391" lon="-2.36328">
        <ele>18.39999961853</ele>
        <time>2021-04-15T07:41:20.000Z</time>
      </trkpt>
      <trkpt lat="47.28408" lon="-2.36355">
        <ele>18.39999961853</ele>
        <time>2021-04-15T07:41:27.000Z</time>
      </trkpt>
      <trkpt lat="47.28428" lon="-2.3637">
        <ele>18.39999961853</ele>
        <time>2021-04-15T07:41:33.000Z</time>
      </trkpt>
      <trkpt lat="47.28446" lon="-2.36385">
        <ele>18.39999961853</ele>
        <time>2021-04-15T07:41:39.000Z</time>
      </trkpt>
      <trkpt lat="47.28452" lon="-2.3639">
        <ele>19</ele>
        <time>2021-04-15T07:41:42.000Z</time>
      </trkpt>
      <trkpt lat="47.28453" lon="-2.3639">
        <ele>19.39999961853</ele>
        <time>2021-04-15T07:41:43.000Z</time>
      </trkpt>
      <trkpt lat="47.28454" lon="-2.36389">
        <ele>19.799999237061</ele>
        <time>2021-04-15T07:41:44.000Z</time>
      </trkpt>
      <trkpt lat="47.28455" lon="-2.36388">
        <ele>20.200000762939</ele>
        <time>2021-04-15T07:41:45.000Z</time>
      </trkpt>
      <trkpt lat="47.28456" lon="-2.36386">
        <ele>20.799999237061</ele>
        <time>2021-04-15T07:41:46.000Z</time>
      </trkpt>
      <trkpt lat="47.28458" lon="-2.36379">
        <ele>20.799999237061</ele>
        <time>2021-04-15T07:41:48.000Z</time>
      </trkpt>
      <trkpt lat="47.28458" lon="-2.36373">
        <ele>20.799999237061</ele>
        <time>2021-04-15T07:41:50.000Z</time>
      </trkpt>
      <trkpt lat="47.28456" lon="-2.36347">
        <ele>20.799999237061</ele>
        <time>2021-04-15T07:41:57.000Z</time>
      </trkpt>
      <trkpt lat="47.28461" lon="-2.36312">
        <ele>20.799999237061</ele>
        <time>2021-04-15T07:42:03.000Z</time>
      </trkpt>
      <trkpt lat="47.2846" lon="-2.3628">
        <ele>20.799999237061</ele>
        <time>2021-04-15T07:42:09.000Z</time>
      </trkpt>
      <trkpt lat="47.28457" lon="-2.36254">
        <ele>20.799999237061</ele>
        <time>2021-04-15T07:42:15.000Z</time>
      </trkpt>
      <trkpt lat="47.28453" lon="-2.36227">
        <ele>20.799999237061</ele>
        <time>2021-04-15T07:42:21.000Z</time>
      </trkpt>
      <trkpt lat="47.28458" lon="-2.36209">
        <ele>21.200000762939</ele>
        <time>2021-04-15T07:42:25.000Z</time>
      </trkpt>
      <trkpt lat="47.2846" lon="-2.36203">
        <ele>21.60000038147</ele>
        <time>2021-04-15T07:42:26.000Z</time>
      </trkpt>
      <trkpt lat="47.28463" lon="-2.36197">
        <ele>22</ele>
        <time>2021-04-15T07:42:27.000Z</time>
      </trkpt>
      <trkpt lat="47.28465" lon="-2.36193">
        <ele>22.39999961853</ele>
        <time>2021-04-15T07:42:28.000Z</time>
      </trkpt>
      <trkpt lat="47.28468" lon="-2.36189">
        <ele>22.799999237061</ele>
        <time>2021-04-15T07:42:29.000Z</time>
      </trkpt>
      <trkpt lat="47.28477" lon="-2.36177">
        <ele>22.799999237061</ele>
        <time>2021-04-15T07:42:33.000Z</time>
      </trkpt>
      <trkpt lat="47.28483" lon="-2.3617">
        <ele>23.200000762939</ele>
        <time>2021-04-15T07:42:37.000Z</time>
      </trkpt>
      <trkpt lat="47.28484" lon="-2.36168">
        <ele>23.60000038147</ele>
        <time>2021-04-15T07:42:38.000Z</time>
      </trkpt>
      <trkpt lat="47.28485" lon="-2.36166">
        <ele>24.39999961853</ele>
        <time>2021-04-15T07:42:39.000Z</time>
      </trkpt>
      <trkpt lat="47.28487" lon="-2.36165">
        <ele>25</ele>
        <time>2021-04-15T07:42:40.000Z</time>
      </trkpt>
      <trkpt lat="47.28499" lon="-2.36154">
        <ele>25</ele>
        <time>2021-04-15T07:42:46.000Z</time>
      </trkpt>
      <trkpt lat="47.28505" lon="-2.3615">
        <ele>25.39999961853</ele>
        <time>2021-04-15T07:42:50.000Z</time>
      </trkpt>
      <trkpt lat="47.28507" lon="-2.3615">
        <ele>25.799999237061</ele>
        <time>2021-04-15T07:42:51.000Z</time>
      </trkpt>
      <trkpt lat="47.28509" lon="-2.36151">
        <ele>26.200000762939</ele>
        <time>2021-04-15T07:42:52.000Z</time>
      </trkpt>
      <trkpt lat="47.28511" lon="-2.36151">
        <ele>26.60000038147</ele>
        <time>2021-04-15T07:42:53.000Z</time>
      </trkpt>
      <trkpt lat="47.28513" lon="-2.36151">
        <ele>27</ele>
        <time>2021-04-15T07:42:54.000Z</time>
      </trkpt>
      <trkpt lat="47.28519" lon="-2.36153">
        <ele>27</ele>
        <time>2021-04-15T07:42:58.000Z</time>
      </trkpt>
      <trkpt lat="47.28527" lon="-2.36152">
        <ele>27.39999961853</ele>
        <time>2021-04-15T07:43:02.000Z</time>
      </trkpt>
      <trkpt lat="47.28529" lon="-2.36152">
        <ele>28</ele>
        <time>2021-04-15T07:43:03.000Z</time>
      </trkpt>
      <trkpt lat="47.28531" lon="-2.36152">
        <ele>28.799999237061</ele>
        <time>2021-04-15T07:43:04.000Z</time>
      </trkpt>
      <trkpt lat="47.28534" lon="-2.36154">
        <ele>29.200000762939</ele>
        <time>2021-04-15T07:43:05.000Z</time>
      </trkpt>
      <trkpt lat="47.2854" lon="-2.36158">
        <ele>29.60000038147</ele>
        <time>2021-04-15T07:43:08.000Z</time>
      </trkpt>
      <trkpt lat="47.28543" lon="-2.36159">
        <ele>30</ele>
        <time>2021-04-15T07:43:09.000Z</time>
      </trkpt>
      <trkpt lat="47.28544" lon="-2.36159">
        <ele>30.39999961853</ele>
        <time>2021-04-15T07:43:10.000Z</time>
      </trkpt>
      <trkpt lat="47.28546" lon="-2.36159">
        <ele>30.799999237061</ele>
        <time>2021-04-15T07:43:11.000Z</time>
      </trkpt>
      <trkpt lat="47.28548" lon="-2.36158">
        <ele>31.39999961853</ele>
        <time>2021-04-15T07:43:12.000Z</time>
      </trkpt>
      <trkpt lat="47.28554" lon="-2.36154">
        <ele>31.799999237061</ele>
        <time>2021-04-15T07:43:15.000Z</time>
      </trkpt>
      <trkpt lat="47.28556" lon="-2.36152">
        <ele>32.200000762939</ele>
        <time>2021-04-15T07:43:16.000Z</time>
      </trkpt>
      <trkpt lat="47.28557" lon="-2.36151">
        <ele>32.599998474121</ele>
        <time>2021-04-15T07:43:17.000Z</time>
      </trkpt>
      <trkpt lat="47.28559" lon="-2.36151">
        <ele>33</ele>
        <time>2021-04-15T07:43:18.000Z</time>
      </trkpt>
      <trkpt lat="47.2856" lon="-2.3615">
        <ele>33.400001525879</ele>
        <time>2021-04-15T07:43:19.000Z</time>
      </trkpt>
      <trkpt lat="47.28564" lon="-2.36148">
        <ele>33.799999237061</ele>
        <time>2021-04-15T07:43:21.000Z</time>
      </trkpt>
      <trkpt lat="47.28565" lon="-2.36148">
        <ele>34.400001525879</ele>
        <time>2021-04-15T07:43:22.000Z</time>
      </trkpt>
      <trkpt lat="47.28567" lon="-2.36147">
        <ele>34.799999237061</ele>
        <time>2021-04-15T07:43:23.000Z</time>
      </trkpt>
      <trkpt lat="47.28569" lon="-2.36147">
        <ele>35.200000762939</ele>
        <time>2021-04-15T07:43:24.000Z</time>
      </trkpt>
      <trkpt lat="47.28571" lon="-2.36147">
        <ele>35.599998474121</ele>
        <time>2021-04-15T07:43:25.000Z</time>
      </trkpt>
      <trkpt lat="47.28577" lon="-2.36148">
        <ele>36</ele>
        <time>2021-04-15T07:43:28.000Z</time>
      </trkpt>
      <trkpt lat="47.2858" lon="-2.36149">
        <ele>36.799999237061</ele>
        <time>2021-04-15T07:43:29.000Z</time>
      </trkpt>
      <trkpt lat="47.28583" lon="-2.36149">
        <ele>37.200000762939</ele>
        <time>2021-04-15T07:43:30.000Z</time>
      </trkpt>
      <trkpt lat="47.28586" lon="-2.3615">
        <ele>37.599998474121</ele>
        <time>2021-04-15T07:43:31.000Z</time>
      </trkpt>
      <trkpt lat="47.28598" lon="-2.36152">
        <ele>37.599998474121</ele>
        <time>2021-04-15T07:43:35.000Z</time>
      </trkpt>
      <trkpt lat="47.28609" lon="-2.36146">
        <ele>37.599998474121</ele>
        <time>2021-04-15T07:43:40.000Z</time>
      </trkpt>
      <trkpt lat="47.28621" lon="-2.36136">
        <ele>37.599998474121</ele>
        <time>2021-04-15T07:43:46.000Z</time>
      </trkpt>
      <trkpt lat="47.2863" lon="-2.36132">
        <ele>37.599998474121</ele>
        <time>2021-04-15T07:43:51.000Z</time>
      </trkpt>
      <trkpt lat="47.28639" lon="-2.36118">
        <ele>37.599998474121</ele>
        <time>2021-04-15T07:43:56.000Z</time>
      </trkpt>
      <trkpt lat="47.28641" lon="-2.36115">
        <ele>37.200000762939</ele>
        <time>2021-04-15T07:43:57.000Z</time>
      </trkpt>
      <trkpt lat="47.28643" lon="-2.36112">
        <ele>36.799999237061</ele>
        <time>2021-04-15T07:43:58.000Z</time>
      </trkpt>
      <trkpt lat="47.28645" lon="-2.36109">
        <ele>36.400001525879</ele>
        <time>2021-04-15T07:43:59.000Z</time>
      </trkpt>
      <trkpt lat="47.28646" lon="-2.36105">
        <ele>35.799999237061</ele>
        <time>2021-04-15T07:44:00.000Z</time>
      </trkpt>
      <trkpt lat="47.28648" lon="-2.36101">
        <ele>35.200000762939</ele>
        <time>2021-04-15T07:44:01.000Z</time>
      </trkpt>
      <trkpt lat="47.28649" lon="-2.36095">
        <ele>34.400001525879</ele>
        <time>2021-04-15T07:44:02.000Z</time>
      </trkpt>
      <trkpt lat="47.28649" lon="-2.3609">
        <ele>33.799999237061</ele>
        <time>2021-04-15T07:44:03.000Z</time>
      </trkpt>
      <trkpt lat="47.28648" lon="-2.36085">
        <ele>33.200000762939</ele>
        <time>2021-04-15T07:44:04.000Z</time>
      </trkpt>
      <trkpt lat="47.28646" lon="-2.3608">
        <ele>32.400001525879</ele>
        <time>2021-04-15T07:44:05.000Z</time>
      </trkpt>
      <trkpt lat="47.28645" lon="-2.36075">
        <ele>31.60000038147</ele>
        <time>2021-04-15T07:44:06.000Z</time>
      </trkpt>
      <trkpt lat="47.28644" lon="-2.36066">
        <ele>31</ele>
        <time>2021-04-15T07:44:07.000Z</time>
      </trkpt>
      <trkpt lat="47.28642" lon="-2.36057">
        <ele>30.200000762939</ele>
        <time>2021-04-15T07:44:08.000Z</time>
      </trkpt>
      <trkpt lat="47.28641" lon="-2.3605">
        <ele>29.39999961853</ele>
        <time>2021-04-15T07:44:09.000Z</time>
      </trkpt>
      <trkpt lat="47.28639" lon="-2.36043">
        <ele>28.60000038147</ele>
        <time>2021-04-15T07:44:10.000Z</time>
      </trkpt>
      <trkpt lat="47.28636" lon="-2.36036">
        <ele>28.60000038147</ele>
        <time>2021-04-15T07:44:11.000Z</time>
      </trkpt>
      <trkpt lat="47.28622" lon="-2.35998">
        <ele>28.60000038147</ele>
        <time>2021-04-15T07:44:17.000Z</time>
      </trkpt>
      <trkpt lat="47.28608" lon="-2.35961">
        <ele>28.200000762939</ele>
        <time>2021-04-15T07:44:23.000Z</time>
      </trkpt>
      <trkpt lat="47.28606" lon="-2.35956">
        <ele>27.799999237061</ele>
        <time>2021-04-15T07:44:24.000Z</time>
      </trkpt>
      <trkpt lat="47.28603" lon="-2.35952">
        <ele>27.39999961853</ele>
        <time>2021-04-15T07:44:25.000Z</time>
      </trkpt>
      <trkpt lat="47.286" lon="-2.35949">
        <ele>27</ele>
        <time>2021-04-15T07:44:26.000Z</time>
      </trkpt>
      <trkpt lat="47.28598" lon="-2.35946">
        <ele>26.60000038147</ele>
        <time>2021-04-15T07:44:27.000Z</time>
      </trkpt>
      <trkpt lat="47.28595" lon="-2.35944">
        <ele>26.60000038147</ele>
        <time>2021-04-15T07:44:28.000Z</time>
      </trkpt>
      <trkpt lat="47.2859" lon="-2.35933">
        <ele>26.60000038147</ele>
        <time>2021-04-15T07:44:31.000Z</time>
      </trkpt>
      <trkpt lat="47.2859" lon="-2.35926">
        <ele>26.60000038147</ele>
        <time>2021-04-15T07:44:33.000Z</time>
      </trkpt>
      <trkpt lat="47.28587" lon="-2.35905">
        <ele>26.60000038147</ele>
        <time>2021-04-15T07:44:38.000Z</time>
      </trkpt>
      <trkpt lat="47.28577" lon="-2.35881">
        <ele>25.799999237061</ele>
        <time>2021-04-15T07:44:43.000Z</time>
      </trkpt>
      <trkpt lat="47.28575" lon="-2.35876">
        <ele>25.39999961853</ele>
        <time>2021-04-15T07:44:44.000Z</time>
      </trkpt>
      <trkpt lat="47.28573" lon="-2.35871">
        <ele>25</ele>
        <time>2021-04-15T07:44:45.000Z</time>
      </trkpt>
      <trkpt lat="47.28571" lon="-2.35866">
        <ele>24.39999961853</ele>
        <time>2021-04-15T07:44:46.000Z</time>
      </trkpt>
      <trkpt lat="47.28566" lon="-2.35845">
        <ele>24.39999961853</ele>
        <time>2021-04-15T07:44:50.000Z</time>
      </trkpt>
      <trkpt lat="47.28565" lon="-2.35826">
        <ele>24.39999961853</ele>
        <time>2021-04-15T07:44:55.000Z</time>
      </trkpt>
      <trkpt lat="47.28561" lon="-2.35816">
        <ele>24.39999961853</ele>
        <time>2021-04-15T07:45:00.000Z</time>
      </trkpt>
      <trkpt lat="47.28558" lon="-2.35802">
        <ele>24</ele>
        <time>2021-04-15T07:45:05.000Z</time>
      </trkpt>
      <trkpt lat="47.28558" lon="-2.35801">
        <ele>23.60000038147</ele>
        <time>2021-04-15T07:45:06.000Z</time>
      </trkpt>
      <trkpt lat="47.28558" lon="-2.358">
        <ele>23.200000762939</ele>
        <time>2021-04-15T07:45:07.000Z</time>
      </trkpt>
      <trkpt lat="47.28557" lon="-2.35799">
        <ele>22.39999961853</ele>
        <time>2021-04-15T07:45:08.000Z</time>
      </trkpt>
      <trkpt lat="47.28556" lon="-2.3579">
        <ele>22.39999961853</ele>
        <time>2021-04-15T07:45:13.000Z</time>
      </trkpt>
      <trkpt lat="47.28554" lon="-2.35771">
        <ele>22.39999961853</ele>
        <time>2021-04-15T07:45:17.000Z</time>
      </trkpt>
      <trkpt lat="47.2854" lon="-2.35738">
        <ele>22.39999961853</ele>
        <time>2021-04-15T07:45:24.000Z</time>
      </trkpt>
      <trkpt lat="47.28522" lon="-2.35697">
        <ele>22.39999961853</ele>
        <time>2021-04-15T07:45:32.000Z</time>
      </trkpt>
      <trkpt lat="47.28501" lon="-2.35664">
        <ele>22.39999961853</ele>
        <time>2021-04-15T07:45:38.000Z</time>
      </trkpt>
      <trkpt lat="47.28475" lon="-2.35644">
        <ele>22.39999961853</ele>
        <time>2021-04-15T07:45:44.000Z</time>
      </trkpt>
      <trkpt lat="47.28452" lon="-2.35622">
        <ele>22.39999961853</ele>
        <time>2021-04-15T07:45:50.000Z</time>
      </trkpt>
      <trkpt lat="47.28436" lon="-2.35594">
        <ele>22.39999961853</ele>
        <time>2021-04-15T07:45:56.000Z</time>
      </trkpt>
      <trkpt lat="47.28418" lon="-2.35556">
        <ele>22.39999961853</ele>
        <time>2021-04-15T07:46:03.000Z</time>
      </trkpt>
      <trkpt lat="47.28405" lon="-2.35527">
        <ele>22.39999961853</ele>
        <time>2021-04-15T07:46:08.000Z</time>
      </trkpt>
      <trkpt lat="47.28405" lon="-2.35493">
        <ele>22.39999961853</ele>
        <time>2021-04-15T07:46:14.000Z</time>
      </trkpt>
      <trkpt lat="47.28407" lon="-2.35465">
        <ele>22.39999961853</ele>
        <time>2021-04-15T07:46:20.000Z</time>
      </trkpt>
      <trkpt lat="47.28407" lon="-2.35457">
        <ele>23.39999961853</ele>
        <time>2021-04-15T07:46:22.000Z</time>
      </trkpt>
      <trkpt lat="47.28407" lon="-2.35451">
        <ele>23.799999237061</ele>
        <time>2021-04-15T07:46:23.000Z</time>
      </trkpt>
      <trkpt lat="47.28407" lon="-2.35446">
        <ele>24.200000762939</ele>
        <time>2021-04-15T07:46:24.000Z</time>
      </trkpt>
      <trkpt lat="47.28406" lon="-2.35441">
        <ele>24.60000038147</ele>
        <time>2021-04-15T07:46:25.000Z</time>
      </trkpt>
      <trkpt lat="47.284" lon="-2.35424">
        <ele>24.60000038147</ele>
        <time>2021-04-15T07:46:31.000Z</time>
      </trkpt>
      <trkpt lat="47.28395" lon="-2.35422">
        <ele>24.60000038147</ele>
        <time>2021-04-15T07:46:35.000Z</time>
      </trkpt>
      <trkpt lat="47.28392" lon="-2.35418">
        <ele>24.60000038147</ele>
        <time>2021-04-15T07:47:01.000Z</time>
      </trkpt>
      <trkpt lat="47.28381" lon="-2.35405">
        <ele>24.60000038147</ele>
        <time>2021-04-15T07:47:06.000Z</time>
      </trkpt>
      <trkpt lat="47.28368" lon="-2.35379">
        <ele>24.60000038147</ele>
        <time>2021-04-15T07:47:11.000Z</time>
      </trkpt>
      <trkpt lat="47.28366" lon="-2.35374">
        <ele>23.39999961853</ele>
        <time>2021-04-15T07:47:12.000Z</time>
      </trkpt>
      <trkpt lat="47.28363" lon="-2.35369">
        <ele>22.799999237061</ele>
        <time>2021-04-15T07:47:13.000Z</time>
      </trkpt>
      <trkpt lat="47.28361" lon="-2.35365">
        <ele>22.200000762939</ele>
        <time>2021-04-15T07:47:14.000Z</time>
      </trkpt>
      <trkpt lat="47.28359" lon="-2.35362">
        <ele>21.60000038147</ele>
        <time>2021-04-15T07:47:15.000Z</time>
      </trkpt>
      <trkpt lat="47.28357" lon="-2.35357">
        <ele>20.799999237061</ele>
        <time>2021-04-15T07:47:16.000Z</time>
      </trkpt>
      <trkpt lat="47.28356" lon="-2.3535">
        <ele>20.200000762939</ele>
        <time>2021-04-15T07:47:17.000Z</time>
      </trkpt>
      <trkpt lat="47.28354" lon="-2.35342">
        <ele>19.60000038147</ele>
        <time>2021-04-15T07:47:18.000Z</time>
      </trkpt>
      <trkpt lat="47.28347" lon="-2.3531">
        <ele>19.60000038147</ele>
        <time>2021-04-15T07:47:23.000Z</time>
      </trkpt>
      <trkpt lat="47.28346" lon="-2.35299">
        <ele>19.60000038147</ele>
        <time>2021-04-15T07:47:25.000Z</time>
      </trkpt>
      <trkpt lat="47.28349" lon="-2.35293">
        <ele>19.60000038147</ele>
        <time>2021-04-15T07:47:26.000Z</time>
      </trkpt>
      <trkpt lat="47.28366" lon="-2.35268">
        <ele>19.60000038147</ele>
        <time>2021-04-15T07:47:31.000Z</time>
      </trkpt>
      <trkpt lat="47.28386" lon="-2.35234">
        <ele>19.60000038147</ele>
        <time>2021-04-15T07:47:37.000Z</time>
      </trkpt>
      <trkpt lat="47.28387" lon="-2.35227">
        <ele>19.60000038147</ele>
        <time>2021-04-15T07:47:38.000Z</time>
      </trkpt>
      <trkpt lat="47.28384" lon="-2.35206">
        <ele>19.60000038147</ele>
        <time>2021-04-15T07:47:41.000Z</time>
      </trkpt>
      <trkpt lat="47.28382" lon="-2.35199">
        <ele>19.60000038147</ele>
        <time>2021-04-15T07:47:42.000Z</time>
      </trkpt>
      <trkpt lat="47.28372" lon="-2.35172">
        <ele>19.60000038147</ele>
        <time>2021-04-15T07:47:46.000Z</time>
      </trkpt>
      <trkpt lat="47.28351" lon="-2.35122">
        <ele>19.60000038147</ele>
        <time>2021-04-15T07:47:54.000Z</time>
      </trkpt>
      <trkpt lat="47.2834" lon="-2.35097">
        <ele>19.60000038147</ele>
        <time>2021-04-15T07:47:58.000Z</time>
      </trkpt>
      <trkpt lat="47.28332" lon="-2.35089">
        <ele>19.60000038147</ele>
        <time>2021-04-15T07:48:00.000Z</time>
      </trkpt>
      <trkpt lat="47.28317" lon="-2.35081">
        <ele>19.60000038147</ele>
        <time>2021-04-15T07:48:03.000Z</time>
      </trkpt>
      <trkpt lat="47.28312" lon="-2.35079">
        <ele>19.60000038147</ele>
        <time>2021-04-15T07:48:04.000Z</time>
      </trkpt>
      <trkpt lat="47.28306" lon="-2.35078">
        <ele>19.60000038147</ele>
        <time>2021-04-15T07:48:05.000Z</time>
      </trkpt>
      <trkpt lat="47.28286" lon="-2.35071">
        <ele>19.60000038147</ele>
        <time>2021-04-15T07:48:09.000Z</time>
      </trkpt>
      <trkpt lat="47.28276" lon="-2.35063">
        <ele>19.60000038147</ele>
        <time>2021-04-15T07:48:11.000Z</time>
      </trkpt>
      <trkpt lat="47.28267" lon="-2.35053">
        <ele>19.60000038147</ele>
        <time>2021-04-15T07:48:13.000Z</time>
      </trkpt>
      <trkpt lat="47.28249" lon="-2.35029">
        <ele>19.60000038147</ele>
        <time>2021-04-15T07:48:17.000Z</time>
      </trkpt>
      <trkpt lat="47.28226" lon="-2.3499">
        <ele>19.60000038147</ele>
        <time>2021-04-15T07:48:23.000Z</time>
      </trkpt>
      <trkpt lat="47.28215" lon="-2.34969">
        <ele>20</ele>
        <time>2021-04-15T07:48:26.000Z</time>
      </trkpt>
      <trkpt lat="47.28212" lon="-2.34962">
        <ele>20.39999961853</ele>
        <time>2021-04-15T07:48:27.000Z</time>
      </trkpt>
      <trkpt lat="47.28208" lon="-2.34955">
        <ele>20.799999237061</ele>
        <time>2021-04-15T07:48:28.000Z</time>
      </trkpt>
      <trkpt lat="47.28206" lon="-2.34947">
        <ele>21.200000762939</ele>
        <time>2021-04-15T07:48:29.000Z</time>
      </trkpt>
      <trkpt lat="47.28203" lon="-2.34939">
        <ele>21.799999237061</ele>
        <time>2021-04-15T07:48:30.000Z</time>
      </trkpt>
      <trkpt lat="47.28188" lon="-2.34877">
        <ele>21.799999237061</ele>
        <time>2021-04-15T07:48:38.000Z</time>
      </trkpt>
      <trkpt lat="47.28179" lon="-2.34828">
        <ele>21.200000762939</ele>
        <time>2021-04-15T07:48:44.000Z</time>
      </trkpt>
      <trkpt lat="47.28178" lon="-2.3482">
        <ele>20.799999237061</ele>
        <time>2021-04-15T07:48:45.000Z</time>
      </trkpt>
      <trkpt lat="47.28179" lon="-2.34811">
        <ele>20.39999961853</ele>
        <time>2021-04-15T07:48:46.000Z</time>
      </trkpt>
      <trkpt lat="47.2818" lon="-2.34803">
        <ele>20</ele>
        <time>2021-04-15T07:48:47.000Z</time>
      </trkpt>
      <trkpt lat="47.28181" lon="-2.34795">
        <ele>19.39999961853</ele>
        <time>2021-04-15T07:48:48.000Z</time>
      </trkpt>
      <trkpt lat="47.28187" lon="-2.34772">
        <ele>19.39999961853</ele>
        <time>2021-04-15T07:48:51.000Z</time>
      </trkpt>
      <trkpt lat="47.28204" lon="-2.34732">
        <ele>19.39999961853</ele>
        <time>2021-04-15T07:48:57.000Z</time>
      </trkpt>
      <trkpt lat="47.28211" lon="-2.34721">
        <ele>19.39999961853</ele>
        <time>2021-04-15T07:48:59.000Z</time>
      </trkpt>
      <trkpt lat="47.28223" lon="-2.34704">
        <ele>19.39999961853</ele>
        <time>2021-04-15T07:49:02.000Z</time>
      </trkpt>
      <trkpt lat="47.28249" lon="-2.34667">
        <ele>19.39999961853</ele>
        <time>2021-04-15T07:49:09.000Z</time>
      </trkpt>
      <trkpt lat="47.28271" lon="-2.34635">
        <ele>20.200000762939</ele>
        <time>2021-04-15T07:49:15.000Z</time>
      </trkpt>
      <trkpt lat="47.28275" lon="-2.34629">
        <ele>20.60000038147</ele>
        <time>2021-04-15T07:49:16.000Z</time>
      </trkpt>
      <trkpt lat="47.28279" lon="-2.34624">
        <ele>21</ele>
        <time>2021-04-15T07:49:17.000Z</time>
      </trkpt>
      <trkpt lat="47.28283" lon="-2.34619">
        <ele>21.39999961853</ele>
        <time>2021-04-15T07:49:18.000Z</time>
      </trkpt>
      <trkpt lat="47.28309" lon="-2.3458">
        <ele>21.39999961853</ele>
        <time>2021-04-15T07:49:25.000Z</time>
      </trkpt>
      <trkpt lat="47.28313" lon="-2.34574">
        <ele>22</ele>
        <time>2021-04-15T07:49:26.000Z</time>
      </trkpt>
      <trkpt lat="47.28317" lon="-2.34569">
        <ele>22.39999961853</ele>
        <time>2021-04-15T07:49:27.000Z</time>
      </trkpt>
      <trkpt lat="47.28321" lon="-2.34563">
        <ele>22.799999237061</ele>
        <time>2021-04-15T07:49:28.000Z</time>
      </trkpt>
      <trkpt lat="47.28324" lon="-2.34557">
        <ele>23.39999961853</ele>
        <time>2021-04-15T07:49:29.000Z</time>
      </trkpt>
      <trkpt lat="47.28328" lon="-2.34551">
        <ele>23.799999237061</ele>
        <time>2021-04-15T07:49:30.000Z</time>
      </trkpt>
      <trkpt lat="47.28336" lon="-2.34539">
        <ele>23.799999237061</ele>
        <time>2021-04-15T07:49:32.000Z</time>
      </trkpt>
      <trkpt lat="47.28369" lon="-2.34493">
        <ele>23.799999237061</ele>
        <time>2021-04-15T07:49:40.000Z</time>
      </trkpt>
      <trkpt lat="47.28392" lon="-2.34468">
        <ele>23.799999237061</ele>
        <time>2021-04-15T07:49:45.000Z</time>
      </trkpt>
      <trkpt lat="47.28397" lon="-2.34464">
        <ele>23.799999237061</ele>
        <time>2021-04-15T07:49:46.000Z</time>
      </trkpt>
      <trkpt lat="47.28418" lon="-2.3445">
        <ele>23.799999237061</ele>
        <time>2021-04-15T07:49:50.000Z</time>
      </trkpt>
      <trkpt lat="47.28435" lon="-2.34442">
        <ele>23.799999237061</ele>
        <time>2021-04-15T07:49:53.000Z</time>
      </trkpt>
      <trkpt lat="47.28475" lon="-2.3443">
        <ele>23.799999237061</ele>
        <time>2021-04-15T07:50:00.000Z</time>
      </trkpt>
      <trkpt lat="47.28487" lon="-2.34427">
        <ele>23.39999961853</ele>
        <time>2021-04-15T07:50:02.000Z</time>
      </trkpt>
      <trkpt lat="47.28493" lon="-2.34426">
        <ele>23</ele>
        <time>2021-04-15T07:50:03.000Z</time>
      </trkpt>
      <trkpt lat="47.28499" lon="-2.34425">
        <ele>22.200000762939</ele>
        <time>2021-04-15T07:50:04.000Z</time>
      </trkpt>
      <trkpt lat="47.28505" lon="-2.34423">
        <ele>21.799999237061</ele>
        <time>2021-04-15T07:50:05.000Z</time>
      </trkpt>
      <trkpt lat="47.28522" lon="-2.34418">
        <ele>21.799999237061</ele>
        <time>2021-04-15T07:50:08.000Z</time>
      </trkpt>
      <trkpt lat="47.28562" lon="-2.34403">
        <ele>21.799999237061</ele>
        <time>2021-04-15T07:50:15.000Z</time>
      </trkpt>
      <trkpt lat="47.28567" lon="-2.344">
        <ele>21.799999237061</ele>
        <time>2021-04-15T07:50:16.000Z</time>
      </trkpt>
      <trkpt lat="47.28577" lon="-2.34391">
        <ele>21.799999237061</ele>
        <time>2021-04-15T07:50:18.000Z</time>
      </trkpt>
      <trkpt lat="47.2859" lon="-2.34373">
        <ele>21.799999237061</ele>
        <time>2021-04-15T07:50:21.000Z</time>
      </trkpt>
      <trkpt lat="47.28599" lon="-2.34353">
        <ele>21.799999237061</ele>
        <time>2021-04-15T07:50:24.000Z</time>
      </trkpt>
      <trkpt lat="47.28604" lon="-2.34339">
        <ele>21.799999237061</ele>
        <time>2021-04-15T07:50:26.000Z</time>
      </trkpt>
      <trkpt lat="47.28615" lon="-2.34299">
        <ele>21.799999237061</ele>
        <time>2021-04-15T07:50:32.000Z</time>
      </trkpt>
      <trkpt lat="47.28627" lon="-2.34254">
        <ele>21.799999237061</ele>
        <time>2021-04-15T07:50:40.000Z</time>
      </trkpt>
      <trkpt lat="47.28635" lon="-2.34232">
        <ele>21.799999237061</ele>
        <time>2021-04-15T07:50:45.000Z</time>
      </trkpt>
      <trkpt lat="47.28639" lon="-2.34197">
        <ele>21.799999237061</ele>
        <time>2021-04-15T07:50:50.000Z</time>
      </trkpt>
      <trkpt lat="47.28639" lon="-2.34165">
        <ele>21.799999237061</ele>
        <time>2021-04-15T07:50:54.000Z</time>
      </trkpt>
      <trkpt lat="47.28636" lon="-2.34149">
        <ele>21.799999237061</ele>
        <time>2021-04-15T07:50:56.000Z</time>
      </trkpt>
      <trkpt lat="47.28626" lon="-2.34088">
        <ele>21.799999237061</ele>
        <time>2021-04-15T07:51:03.000Z</time>
      </trkpt>
      <trkpt lat="47.28614" lon="-2.3403">
        <ele>21.799999237061</ele>
        <time>2021-04-15T07:51:10.000Z</time>
      </trkpt>
      <trkpt lat="47.28612" lon="-2.34015">
        <ele>21.799999237061</ele>
        <time>2021-04-15T07:51:12.000Z</time>
      </trkpt>
      <trkpt lat="47.28607" lon="-2.34005">
        <ele>21.799999237061</ele>
        <time>2021-04-15T07:51:14.000Z</time>
      </trkpt>
      <trkpt lat="47.28595" lon="-2.34001">
        <ele>21.799999237061</ele>
        <time>2021-04-15T07:51:17.000Z</time>
      </trkpt>
      <trkpt lat="47.28591" lon="-2.34002">
        <ele>21.200000762939</ele>
        <time>2021-04-15T07:51:18.000Z</time>
      </trkpt>
      <trkpt lat="47.28587" lon="-2.34004">
        <ele>20.799999237061</ele>
        <time>2021-04-15T07:51:19.000Z</time>
      </trkpt>
      <trkpt lat="47.28582" lon="-2.34006">
        <ele>20.39999961853</ele>
        <time>2021-04-15T07:51:20.000Z</time>
      </trkpt>
      <trkpt lat="47.28578" lon="-2.34008">
        <ele>20</ele>
        <time>2021-04-15T07:51:21.000Z</time>
      </trkpt>
      <trkpt lat="47.28574" lon="-2.34011">
        <ele>19.60000038147</ele>
        <time>2021-04-15T07:51:22.000Z</time>
      </trkpt>
      <trkpt lat="47.28565" lon="-2.34016">
        <ele>19.60000038147</ele>
        <time>2021-04-15T07:51:24.000Z</time>
      </trkpt>
      <trkpt lat="47.28556" lon="-2.34022">
        <ele>19.60000038147</ele>
        <time>2021-04-15T07:51:26.000Z</time>
      </trkpt>
      <trkpt lat="47.28545" lon="-2.34037">
        <ele>19.60000038147</ele>
        <time>2021-04-15T07:51:29.000Z</time>
      </trkpt>
      <trkpt lat="47.28542" lon="-2.34044">
        <ele>19.60000038147</ele>
        <time>2021-04-15T07:51:30.000Z</time>
      </trkpt>
      <trkpt lat="47.28536" lon="-2.34057">
        <ele>19.60000038147</ele>
        <time>2021-04-15T07:51:32.000Z</time>
      </trkpt>
      <trkpt lat="47.28531" lon="-2.34072">
        <ele>19.60000038147</ele>
        <time>2021-04-15T07:51:34.000Z</time>
      </trkpt>
      <trkpt lat="47.28529" lon="-2.34087">
        <ele>19.60000038147</ele>
        <time>2021-04-15T07:51:36.000Z</time>
      </trkpt>
      <trkpt lat="47.28526" lon="-2.3411">
        <ele>19.200000762939</ele>
        <time>2021-04-15T07:51:39.000Z</time>
      </trkpt>
      <trkpt lat="47.28525" lon="-2.34118">
        <ele>18.799999237061</ele>
        <time>2021-04-15T07:51:40.000Z</time>
      </trkpt>
      <trkpt lat="47.28526" lon="-2.34126">
        <ele>18.39999961853</ele>
        <time>2021-04-15T07:51:41.000Z</time>
      </trkpt>
      <trkpt lat="47.28527" lon="-2.34133">
        <ele>18</ele>
        <time>2021-04-15T07:51:42.000Z</time>
      </trkpt>
      <trkpt lat="47.28529" lon="-2.3414">
        <ele>17.60000038147</ele>
        <time>2021-04-15T07:51:43.000Z</time>
      </trkpt>
      <trkpt lat="47.28531" lon="-2.34148">
        <ele>17.60000038147</ele>
        <time>2021-04-15T07:51:44.000Z</time>
      </trkpt>
      <trkpt lat="47.28533" lon="-2.34155">
        <ele>17.60000038147</ele>
        <time>2021-04-15T07:51:45.000Z</time>
      </trkpt>
      <trkpt lat="47.2854" lon="-2.34181">
        <ele>17.60000038147</ele>
        <time>2021-04-15T07:51:49.000Z</time>
      </trkpt>
      <trkpt lat="47.28548" lon="-2.34208">
        <ele>17.60000038147</ele>
        <time>2021-04-15T07:51:53.000Z</time>
      </trkpt>
      <trkpt lat="47.28547" lon="-2.34214">
        <ele>17.60000038147</ele>
        <time>2021-04-15T07:51:54.000Z</time>
      </trkpt>
      <trkpt lat="47.2854" lon="-2.3422">
        <ele>17.60000038147</ele>
        <time>2021-04-15T07:51:56.000Z</time>
      </trkpt>
      <trkpt lat="47.28525" lon="-2.34219">
        <ele>17.60000038147</ele>
        <time>2021-04-15T07:51:59.000Z</time>
      </trkpt>
      <trkpt lat="47.2852" lon="-2.34218">
        <ele>17.60000038147</ele>
        <time>2021-04-15T07:52:00.000Z</time>
      </trkpt>
      <trkpt lat="47.28478" lon="-2.34209">
        <ele>17.60000038147</ele>
        <time>2021-04-15T07:52:07.000Z</time>
      </trkpt>
      <trkpt lat="47.28446" lon="-2.34195">
        <ele>17.60000038147</ele>
        <time>2021-04-15T07:52:13.000Z</time>
      </trkpt>
      <trkpt lat="47.28442" lon="-2.34181">
        <ele>17.60000038147</ele>
        <time>2021-04-15T07:52:15.000Z</time>
      </trkpt>
      <trkpt lat="47.28442" lon="-2.3415">
        <ele>17.60000038147</ele>
        <time>2021-04-15T07:52:19.000Z</time>
      </trkpt>
      <trkpt lat="47.28439" lon="-2.34134">
        <ele>18</ele>
        <time>2021-04-15T07:52:21.000Z</time>
      </trkpt>
      <trkpt lat="47.28438" lon="-2.34125">
        <ele>18.60000038147</ele>
        <time>2021-04-15T07:52:22.000Z</time>
      </trkpt>
      <trkpt lat="47.28436" lon="-2.34116">
        <ele>19</ele>
        <time>2021-04-15T07:52:23.000Z</time>
      </trkpt>
      <trkpt lat="47.28435" lon="-2.34108">
        <ele>19.39999961853</ele>
        <time>2021-04-15T07:52:24.000Z</time>
      </trkpt>
      <trkpt lat="47.28433" lon="-2.341">
        <ele>19.799999237061</ele>
        <time>2021-04-15T07:52:25.000Z</time>
      </trkpt>
      <trkpt lat="47.28431" lon="-2.34092">
        <ele>19.799999237061</ele>
        <time>2021-04-15T07:52:26.000Z</time>
      </trkpt>
      <trkpt lat="47.28426" lon="-2.3407">
        <ele>19.799999237061</ele>
        <time>2021-04-15T07:52:29.000Z</time>
      </trkpt>
      <trkpt lat="47.28425" lon="-2.34062">
        <ele>19.39999961853</ele>
        <time>2021-04-15T07:52:30.000Z</time>
      </trkpt>
      <trkpt lat="47.28424" lon="-2.34055">
        <ele>19</ele>
        <time>2021-04-15T07:52:31.000Z</time>
      </trkpt>
      <trkpt lat="47.28422" lon="-2.34048">
        <ele>18.60000038147</ele>
        <time>2021-04-15T07:52:32.000Z</time>
      </trkpt>
      <trkpt lat="47.28421" lon="-2.34042">
        <ele>17.799999237061</ele>
        <time>2021-04-15T07:52:33.000Z</time>
      </trkpt>
      <trkpt lat="47.28416" lon="-2.34015">
        <ele>17.799999237061</ele>
        <time>2021-04-15T07:52:37.000Z</time>
      </trkpt>
      <trkpt lat="47.28411" lon="-2.33998">
        <ele>17.799999237061</ele>
        <time>2021-04-15T07:52:40.000Z</time>
      </trkpt>
      <trkpt lat="47.284" lon="-2.33989">
        <ele>17.799999237061</ele>
        <time>2021-04-15T07:52:43.000Z</time>
      </trkpt>
      <trkpt lat="47.28386" lon="-2.33993">
        <ele>17.799999237061</ele>
        <time>2021-04-15T07:52:46.000Z</time>
      </trkpt>
      <trkpt lat="47.28353" lon="-2.3401">
        <ele>17.799999237061</ele>
        <time>2021-04-15T07:52:53.000Z</time>
      </trkpt>
      <trkpt lat="47.28347" lon="-2.34013">
        <ele>17.39999961853</ele>
        <time>2021-04-15T07:52:56.000Z</time>
      </trkpt>
      <trkpt lat="47.28346" lon="-2.34013">
        <ele>16.60000038147</ele>
        <time>2021-04-15T07:52:57.000Z</time>
      </trkpt>
      <trkpt lat="47.28344" lon="-2.34014">
        <ele>16.200000762939</ele>
        <time>2021-04-15T07:52:58.000Z</time>
      </trkpt>
      <trkpt lat="47.28343" lon="-2.34014">
        <ele>15.800000190735</ele>
        <time>2021-04-15T07:52:59.000Z</time>
      </trkpt>
      <trkpt lat="47.28337" lon="-2.34008">
        <ele>15.800000190735</ele>
        <time>2021-04-15T07:53:03.000Z</time>
      </trkpt>
      <trkpt lat="47.28328" lon="-2.33992">
        <ele>15.800000190735</ele>
        <time>2021-04-15T07:53:07.000Z</time>
      </trkpt>
      <trkpt lat="47.28311" lon="-2.3395">
        <ele>15.800000190735</ele>
        <time>2021-04-15T07:53:14.000Z</time>
      </trkpt>
      <trkpt lat="47.28292" lon="-2.33903">
        <ele>15.800000190735</ele>
        <time>2021-04-15T07:53:21.000Z</time>
      </trkpt>
      <trkpt lat="47.2827" lon="-2.33852">
        <ele>15.800000190735</ele>
        <time>2021-04-15T07:53:28.000Z</time>
      </trkpt>
      <trkpt lat="47.28257" lon="-2.33824">
        <ele>15.800000190735</ele>
        <time>2021-04-15T07:53:32.000Z</time>
      </trkpt>
      <trkpt lat="47.28248" lon="-2.33815">
        <ele>15.39999961853</ele>
        <time>2021-04-15T07:53:34.000Z</time>
      </trkpt>
      <trkpt lat="47.28243" lon="-2.33812">
        <ele>15</ele>
        <time>2021-04-15T07:53:35.000Z</time>
      </trkpt>
      <trkpt lat="47.28237" lon="-2.33809">
        <ele>14.60000038147</ele>
        <time>2021-04-15T07:53:36.000Z</time>
      </trkpt>
      <trkpt lat="47.28232" lon="-2.33806">
        <ele>14</ele>
        <time>2021-04-15T07:53:37.000Z</time>
      </trkpt>
      <trkpt lat="47.28226" lon="-2.33804">
        <ele>13.60000038147</ele>
        <time>2021-04-15T07:53:38.000Z</time>
      </trkpt>
      <trkpt lat="47.28219" lon="-2.33802">
        <ele>13.60000038147</ele>
        <time>2021-04-15T07:53:39.000Z</time>
      </trkpt>
      <trkpt lat="47.28202" lon="-2.33795">
        <ele>13.60000038147</ele>
        <time>2021-04-15T07:53:42.000Z</time>
      </trkpt>
      <trkpt lat="47.28192" lon="-2.33787">
        <ele>13.60000038147</ele>
        <time>2021-04-15T07:53:44.000Z</time>
      </trkpt>
      <trkpt lat="47.28158" lon="-2.3375">
        <ele>13.60000038147</ele>
        <time>2021-04-15T07:53:51.000Z</time>
      </trkpt>
      <trkpt lat="47.2814" lon="-2.33727">
        <ele>13.60000038147</ele>
        <time>2021-04-15T07:53:55.000Z</time>
      </trkpt>
      <trkpt lat="47.28133" lon="-2.33715">
        <ele>13.60000038147</ele>
        <time>2021-04-15T07:53:57.000Z</time>
      </trkpt>
      <trkpt lat="47.28123" lon="-2.33697">
        <ele>13.60000038147</ele>
        <time>2021-04-15T07:54:00.000Z</time>
      </trkpt>
      <trkpt lat="47.2812" lon="-2.33692">
        <ele>13.199999809265</ele>
        <time>2021-04-15T07:54:01.000Z</time>
      </trkpt>
      <trkpt lat="47.28115" lon="-2.33687">
        <ele>12.800000190735</ele>
        <time>2021-04-15T07:54:02.000Z</time>
      </trkpt>
      <trkpt lat="47.28111" lon="-2.33683">
        <ele>12.39999961853</ele>
        <time>2021-04-15T07:54:03.000Z</time>
      </trkpt>
      <trkpt lat="47.28108" lon="-2.33679">
        <ele>12</ele>
        <time>2021-04-15T07:54:04.000Z</time>
      </trkpt>
      <trkpt lat="47.28104" lon="-2.33675">
        <ele>11.60000038147</ele>
        <time>2021-04-15T07:54:05.000Z</time>
      </trkpt>
      <trkpt lat="47.28097" lon="-2.33662">
        <ele>11.60000038147</ele>
        <time>2021-04-15T07:54:08.000Z</time>
      </trkpt>
      <trkpt lat="47.28089" lon="-2.33638">
        <ele>11.60000038147</ele>
        <time>2021-04-15T07:54:13.000Z</time>
      </trkpt>
      <trkpt lat="47.28087" lon="-2.33608">
        <ele>11.60000038147</ele>
        <time>2021-04-15T07:54:17.000Z</time>
      </trkpt>
      <trkpt lat="47.28085" lon="-2.33594">
        <ele>11.60000038147</ele>
        <time>2021-04-15T07:54:19.000Z</time>
      </trkpt>
      <trkpt lat="47.28079" lon="-2.33567">
        <ele>11.60000038147</ele>
        <time>2021-04-15T07:54:23.000Z</time>
      </trkpt>
      <trkpt lat="47.28075" lon="-2.33537">
        <ele>11.60000038147</ele>
        <time>2021-04-15T07:54:29.000Z</time>
      </trkpt>
      <trkpt lat="47.28079" lon="-2.33516">
        <ele>11.60000038147</ele>
        <time>2021-04-15T07:54:34.000Z</time>
      </trkpt>
      <trkpt lat="47.28098" lon="-2.33478">
        <ele>11.60000038147</ele>
        <time>2021-04-15T07:54:41.000Z</time>
      </trkpt>
      <trkpt lat="47.28113" lon="-2.33445">
        <ele>11.199999809265</ele>
        <time>2021-04-15T07:54:46.000Z</time>
      </trkpt>
      <trkpt lat="47.28116" lon="-2.33439">
        <ele>10.60000038147</ele>
        <time>2021-04-15T07:54:47.000Z</time>
      </trkpt>
      <trkpt lat="47.28119" lon="-2.33432">
        <ele>10.199999809265</ele>
        <time>2021-04-15T07:54:48.000Z</time>
      </trkpt>
      <trkpt lat="47.28122" lon="-2.33425">
        <ele>9.8000001907349</ele>
        <time>2021-04-15T07:54:49.000Z</time>
      </trkpt>
      <trkpt lat="47.28125" lon="-2.33419">
        <ele>9.3999996185303</ele>
        <time>2021-04-15T07:54:50.000Z</time>
      </trkpt>
      <trkpt lat="47.28148" lon="-2.33367">
        <ele>9.3999996185303</ele>
        <time>2021-04-15T07:54:58.000Z</time>
      </trkpt>
      <trkpt lat="47.28174" lon="-2.33309">
        <ele>9</ele>
        <time>2021-04-15T07:55:06.000Z</time>
      </trkpt>
      <trkpt lat="47.28176" lon="-2.33301">
        <ele>8.6000003814697</ele>
        <time>2021-04-15T07:55:07.000Z</time>
      </trkpt>
      <trkpt lat="47.28178" lon="-2.33292">
        <ele>8</ele>
        <time>2021-04-15T07:55:08.000Z</time>
      </trkpt>
      <trkpt lat="47.2818" lon="-2.33284">
        <ele>7.5999999046326</ele>
        <time>2021-04-15T07:55:09.000Z</time>
      </trkpt>
      <trkpt lat="47.28181" lon="-2.33275">
        <ele>7.1999998092651</ele>
        <time>2021-04-15T07:55:10.000Z</time>
      </trkpt>
      <trkpt lat="47.28184" lon="-2.33258">
        <ele>7.1999998092651</ele>
        <time>2021-04-15T07:55:12.000Z</time>
      </trkpt>
      <trkpt lat="47.28187" lon="-2.33225">
        <ele>7.1999998092651</ele>
        <time>2021-04-15T07:55:16.000Z</time>
      </trkpt>
      <trkpt lat="47.28187" lon="-2.33218">
        <ele>7.1999998092651</ele>
        <time>2021-04-15T07:55:17.000Z</time>
      </trkpt>
      <trkpt lat="47.28187" lon="-2.33196">
        <ele>6.8000001907349</ele>
        <time>2021-04-15T07:55:20.000Z</time>
      </trkpt>
      <trkpt lat="47.28187" lon="-2.33189">
        <ele>6.4000000953674</ele>
        <time>2021-04-15T07:55:21.000Z</time>
      </trkpt>
      <trkpt lat="47.28187" lon="-2.33183">
        <ele>6</ele>
        <time>2021-04-15T07:55:22.000Z</time>
      </trkpt>
      <trkpt lat="47.28187" lon="-2.33177">
        <ele>5.5999999046326</ele>
        <time>2021-04-15T07:55:23.000Z</time>
      </trkpt>
      <trkpt lat="47.28187" lon="-2.33171">
        <ele>5</ele>
        <time>2021-04-15T07:55:24.000Z</time>
      </trkpt>
      <trkpt lat="47.28187" lon="-2.33126">
        <ele>5</ele>
        <time>2021-04-15T07:55:31.000Z</time>
      </trkpt>
      <trkpt lat="47.28192" lon="-2.33099">
        <ele>5</ele>
        <time>2021-04-15T07:55:35.000Z</time>
      </trkpt>
      <trkpt lat="47.28195" lon="-2.33092">
        <ele>5</ele>
        <time>2021-04-15T07:55:36.000Z</time>
      </trkpt>
      <trkpt lat="47.28212" lon="-2.33058">
        <ele>5</ele>
        <time>2021-04-15T07:55:41.000Z</time>
      </trkpt>
      <trkpt lat="47.2822" lon="-2.33046">
        <ele>5</ele>
        <time>2021-04-15T07:55:43.000Z</time>
      </trkpt>
      <trkpt lat="47.28235" lon="-2.33031">
        <ele>5</ele>
        <time>2021-04-15T07:55:46.000Z</time>
      </trkpt>
      <trkpt lat="47.28269" lon="-2.33006">
        <ele>5</ele>
        <time>2021-04-15T07:55:52.000Z</time>
      </trkpt>
      <trkpt lat="47.28308" lon="-2.32975">
        <ele>5</ele>
        <time>2021-04-15T07:55:59.000Z</time>
      </trkpt>
      <trkpt lat="47.28341" lon="-2.32946">
        <ele>5</ele>
        <time>2021-04-15T07:56:06.000Z</time>
      </trkpt>
      <trkpt lat="47.2835" lon="-2.32935">
        <ele>5</ele>
        <time>2021-04-15T07:56:08.000Z</time>
      </trkpt>
      <trkpt lat="47.28358" lon="-2.32914">
        <ele>5</ele>
        <time>2021-04-15T07:56:11.000Z</time>
      </trkpt>
      <trkpt lat="47.2836" lon="-2.32889">
        <ele>5</ele>
        <time>2021-04-15T07:56:15.000Z</time>
      </trkpt>
      <trkpt lat="47.2836" lon="-2.3287">
        <ele>5</ele>
        <time>2021-04-15T07:56:18.000Z</time>
      </trkpt>
      <trkpt lat="47.28361" lon="-2.32855">
        <ele>5</ele>
        <time>2021-04-15T07:56:20.000Z</time>
      </trkpt>
      <trkpt lat="47.28364" lon="-2.32803">
        <ele>5</ele>
        <time>2021-04-15T07:56:27.000Z</time>
      </trkpt>
      <trkpt lat="47.28374" lon="-2.32744">
        <ele>5</ele>
        <time>2021-04-15T07:56:35.000Z</time>
      </trkpt>
      <trkpt lat="47.28386" lon="-2.32697">
        <ele>5</ele>
        <time>2021-04-15T07:56:41.000Z</time>
      </trkpt>
      <trkpt lat="47.28397" lon="-2.32643">
        <ele>5</ele>
        <time>2021-04-15T07:56:48.000Z</time>
      </trkpt>
      <trkpt lat="47.28403" lon="-2.32614">
        <ele>5</ele>
        <time>2021-04-15T07:56:53.000Z</time>
      </trkpt>
      <trkpt lat="47.28397" lon="-2.32608">
        <ele>5</ele>
        <time>2021-04-15T07:56:56.000Z</time>
      </trkpt>
      <trkpt lat="47.28392" lon="-2.32596">
        <ele>5</ele>
        <time>2021-04-15T07:56:59.000Z</time>
      </trkpt>
      <trkpt lat="47.28384" lon="-2.32587">
        <ele>5</ele>
        <time>2021-04-15T07:57:02.000Z</time>
      </trkpt>
      <trkpt lat="47.28381" lon="-2.32588">
        <ele>5</ele>
        <time>2021-04-15T07:57:03.000Z</time>
      </trkpt>
      <trkpt lat="47.28363" lon="-2.32585">
        <ele>5</ele>
        <time>2021-04-15T07:57:08.000Z</time>
      </trkpt>
      <trkpt lat="47.28358" lon="-2.32569">
        <ele>5</ele>
        <time>2021-04-15T07:57:12.000Z</time>
      </trkpt>
      <trkpt lat="47.28357" lon="-2.32556">
        <ele>5</ele>
        <time>2021-04-15T07:57:15.000Z</time>
      </trkpt>
      <trkpt lat="47.28356" lon="-2.32546">
        <ele>5</ele>
        <time>2021-04-15T07:57:17.000Z</time>
      </trkpt>
      <trkpt lat="47.28344" lon="-2.32537">
        <ele>5</ele>
        <time>2021-04-15T07:57:21.000Z</time>
      </trkpt>
      <trkpt lat="47.2834" lon="-2.32536">
        <ele>5</ele>
        <time>2021-04-15T07:57:22.000Z</time>
      </trkpt>
      <trkpt lat="47.28335" lon="-2.32535">
        <ele>5.4000000953674</ele>
        <time>2021-04-15T07:57:23.000Z</time>
      </trkpt>
      <trkpt lat="47.2833" lon="-2.32533">
        <ele>5.8000001907349</ele>
        <time>2021-04-15T07:57:24.000Z</time>
      </trkpt>
      <trkpt lat="47.28324" lon="-2.32532">
        <ele>6.4000000953674</ele>
        <time>2021-04-15T07:57:25.000Z</time>
      </trkpt>
      <trkpt lat="47.28319" lon="-2.32531">
        <ele>6.8000001907349</ele>
        <time>2021-04-15T07:57:26.000Z</time>
      </trkpt>
      <trkpt lat="47.28313" lon="-2.3253">
        <ele>7.1999998092651</ele>
        <time>2021-04-15T07:57:27.000Z</time>
      </trkpt>
      <trkpt lat="47.28275" lon="-2.32525">
        <ele>7.1999998092651</ele>
        <time>2021-04-15T07:57:34.000Z</time>
      </trkpt>
      <trkpt lat="47.2827" lon="-2.32523">
        <ele>7.1999998092651</ele>
        <time>2021-04-15T07:57:35.000Z</time>
      </trkpt>
      <trkpt lat="47.28257" lon="-2.32511">
        <ele>7.1999998092651</ele>
        <time>2021-04-15T07:57:38.000Z</time>
      </trkpt>
      <trkpt lat="47.28248" lon="-2.325">
        <ele>7.1999998092651</ele>
        <time>2021-04-15T07:57:40.000Z</time>
      </trkpt>
      <trkpt lat="47.2823" lon="-2.3248">
        <ele>7.1999998092651</ele>
        <time>2021-04-15T07:57:44.000Z</time>
      </trkpt>
      <trkpt lat="47.2822" lon="-2.32471">
        <ele>7.1999998092651</ele>
        <time>2021-04-15T07:57:46.000Z</time>
      </trkpt>
      <trkpt lat="47.28203" lon="-2.32462">
        <ele>7.1999998092651</ele>
        <time>2021-04-15T07:57:49.000Z</time>
      </trkpt>
      <trkpt lat="47.28174" lon="-2.32456">
        <ele>7.1999998092651</ele>
        <time>2021-04-15T07:57:54.000Z</time>
      </trkpt>
      <trkpt lat="47.28145" lon="-2.32456">
        <ele>7.1999998092651</ele>
        <time>2021-04-15T07:57:59.000Z</time>
      </trkpt>
      <trkpt lat="47.2813" lon="-2.32457">
        <ele>7.1999998092651</ele>
        <time>2021-04-15T07:58:02.000Z</time>
      </trkpt>
      <trkpt lat="47.28121" lon="-2.32455">
        <ele>7.1999998092651</ele>
        <time>2021-04-15T07:58:04.000Z</time>
      </trkpt>
      <trkpt lat="47.28103" lon="-2.32447">
        <ele>7.1999998092651</ele>
        <time>2021-04-15T07:58:09.000Z</time>
      </trkpt>
      <trkpt lat="47.28096" lon="-2.32442">
        <ele>7.5999999046326</ele>
        <time>2021-04-15T07:58:11.000Z</time>
      </trkpt>
      <trkpt lat="47.28093" lon="-2.3244">
        <ele>8</ele>
        <time>2021-04-15T07:58:12.000Z</time>
      </trkpt>
      <trkpt lat="47.28088" lon="-2.32437">
        <ele>8.3999996185303</ele>
        <time>2021-04-15T07:58:13.000Z</time>
      </trkpt>
      <trkpt lat="47.28083" lon="-2.32435">
        <ele>8.8000001907349</ele>
        <time>2021-04-15T07:58:14.000Z</time>
      </trkpt>
      <trkpt lat="47.28078" lon="-2.32434">
        <ele>9.1999998092651</ele>
        <time>2021-04-15T07:58:15.000Z</time>
      </trkpt>
      <trkpt lat="47.28055" lon="-2.32432">
        <ele>9.1999998092651</ele>
        <time>2021-04-15T07:58:19.000Z</time>
      </trkpt>
      <trkpt lat="47.28015" lon="-2.32425">
        <ele>9.1999998092651</ele>
        <time>2021-04-15T07:58:26.000Z</time>
      </trkpt>
      <trkpt lat="47.27983" lon="-2.32415">
        <ele>9.1999998092651</ele>
        <time>2021-04-15T07:58:32.000Z</time>
      </trkpt>
      <trkpt lat="47.27964" lon="-2.32409">
        <ele>9.1999998092651</ele>
        <time>2021-04-15T07:58:37.000Z</time>
      </trkpt>
      <trkpt lat="47.27948" lon="-2.32405">
        <ele>9.1999998092651</ele>
        <time>2021-04-15T07:58:42.000Z</time>
      </trkpt>
      <trkpt lat="47.27943" lon="-2.32403">
        <ele>9.1999998092651</ele>
        <time>2021-04-15T07:58:47.000Z</time>
      </trkpt>
      <trkpt lat="47.279" lon="-2.32407">
        <ele>11.60000038147</ele>
        <time>2021-04-15T08:00:52.000Z</time>
      </trkpt>
      <trkpt lat="47.27898" lon="-2.32412">
        <ele>11.60000038147</ele>
        <time>2021-04-15T08:00:54.000Z</time>
      </trkpt>
      <trkpt lat="47.27897" lon="-2.32414">
        <ele>11.60000038147</ele>
        <time>2021-04-15T08:00:55.000Z</time>
      </trkpt>
      <trkpt lat="47.27889" lon="-2.32427">
        <ele>11.60000038147</ele>
        <time>2021-04-15T08:00:59.000Z</time>
      </trkpt>
      <trkpt lat="47.27887" lon="-2.32432">
        <ele>11.60000038147</ele>
        <time>2021-04-15T08:01:00.000Z</time>
      </trkpt>
      <trkpt lat="47.27878" lon="-2.32446">
        <ele>11.60000038147</ele>
        <time>2021-04-15T08:01:04.000Z</time>
      </trkpt>
      <trkpt lat="47.27875" lon="-2.32448">
        <ele>11.60000038147</ele>
        <time>2021-04-15T08:01:05.000Z</time>
      </trkpt>
      <trkpt lat="47.27857" lon="-2.32465">
        <ele>11.60000038147</ele>
        <time>2021-04-15T08:01:10.000Z</time>
      </trkpt>
      <trkpt lat="47.27848" lon="-2.32483">
        <ele>11.60000038147</ele>
        <time>2021-04-15T08:01:15.000Z</time>
      </trkpt>
      <trkpt lat="47.27843" lon="-2.32494">
        <ele>11.60000038147</ele>
        <time>2021-04-15T08:01:20.000Z</time>
      </trkpt>
      <trkpt lat="47.27835" lon="-2.3251">
        <ele>11.60000038147</ele>
        <time>2021-04-15T08:01:24.000Z</time>
      </trkpt>
      <trkpt lat="47.27819" lon="-2.32535">
        <ele>11.60000038147</ele>
        <time>2021-04-15T08:01:29.000Z</time>
      </trkpt>
      <trkpt lat="47.278" lon="-2.32562">
        <ele>11.60000038147</ele>
        <time>2021-04-15T08:01:34.000Z</time>
      </trkpt>
      <trkpt lat="47.27782" lon="-2.32592">
        <ele>11.60000038147</ele>
        <time>2021-04-15T08:01:39.000Z</time>
      </trkpt>
      <trkpt lat="47.27779" lon="-2.32599">
        <ele>11.60000038147</ele>
        <time>2021-04-15T08:01:40.000Z</time>
      </trkpt>
      <trkpt lat="47.27764" lon="-2.32627">
        <ele>11.60000038147</ele>
        <time>2021-04-15T08:01:44.000Z</time>
      </trkpt>
      <trkpt lat="47.27761" lon="-2.32635">
        <ele>11.60000038147</ele>
        <time>2021-04-15T08:01:45.000Z</time>
      </trkpt>
      <trkpt lat="47.27754" lon="-2.32661">
        <ele>11</ele>
        <time>2021-04-15T08:01:48.000Z</time>
      </trkpt>
      <trkpt lat="47.2775" lon="-2.3267">
        <ele>10.60000038147</ele>
        <time>2021-04-15T08:01:49.000Z</time>
      </trkpt>
      <trkpt lat="47.27746" lon="-2.32678">
        <ele>9.8000001907349</ele>
        <time>2021-04-15T08:01:50.000Z</time>
      </trkpt>
      <trkpt lat="47.27742" lon="-2.32685">
        <ele>9.1999998092651</ele>
        <time>2021-04-15T08:01:51.000Z</time>
      </trkpt>
      <trkpt lat="47.27738" lon="-2.32691">
        <ele>8.1999998092651</ele>
        <time>2021-04-15T08:01:52.000Z</time>
      </trkpt>
      <trkpt lat="47.27734" lon="-2.32697">
        <ele>7.4000000953674</ele>
        <time>2021-04-15T08:01:53.000Z</time>
      </trkpt>
      <trkpt lat="47.27731" lon="-2.32703">
        <ele>6.5999999046326</ele>
        <time>2021-04-15T08:01:54.000Z</time>
      </trkpt>
      <trkpt lat="47.27728" lon="-2.32707">
        <ele>5.8000001907349</ele>
        <time>2021-04-15T08:01:55.000Z</time>
      </trkpt>
      <trkpt lat="47.27724" lon="-2.32709">
        <ele>5</ele>
        <time>2021-04-15T08:01:56.000Z</time>
      </trkpt>
      <trkpt lat="47.27722" lon="-2.32713">
        <ele>4.1999998092651</ele>
        <time>2021-04-15T08:01:57.000Z</time>
      </trkpt>
      <trkpt lat="47.27719" lon="-2.32716">
        <ele>3.2000000476837</ele>
        <time>2021-04-15T08:01:58.000Z</time>
      </trkpt>
      <trkpt lat="47.27716" lon="-2.32719">
        <ele>2.4000000953674</ele>
        <time>2021-04-15T08:01:59.000Z</time>
      </trkpt>
      <trkpt lat="47.2771" lon="-2.32723">
        <ele>2.4000000953674</ele>
        <time>2021-04-15T08:02:01.000Z</time>
      </trkpt>
      <trkpt lat="47.27708" lon="-2.32725">
        <ele>2.4000000953674</ele>
        <time>2021-04-15T08:02:02.000Z</time>
      </trkpt>
      <trkpt lat="47.27705" lon="-2.32726">
        <ele>2.4000000953674</ele>
        <time>2021-04-15T08:02:05.000Z</time>
      </trkpt>
      <trkpt lat="47.27702" lon="-2.32728">
        <ele>2.4000000953674</ele>
        <time>2021-04-15T08:02:21.000Z</time>
      </trkpt>
      <trkpt lat="47.27689" lon="-2.32728">
        <ele>2.4000000953674</ele>
        <time>2021-04-15T08:02:26.000Z</time>
      </trkpt>
      <trkpt lat="47.2767" lon="-2.3272">
        <ele>2.4000000953674</ele>
        <time>2021-04-15T08:02:32.000Z</time>
      </trkpt>
      <trkpt lat="47.27649" lon="-2.3271">
        <ele>2.4000000953674</ele>
        <time>2021-04-15T08:02:38.000Z</time>
      </trkpt>
      <trkpt lat="47.27634" lon="-2.32697">
        <ele>2.4000000953674</ele>
        <time>2021-04-15T08:02:43.000Z</time>
      </trkpt>
      <trkpt lat="47.27622" lon="-2.32694">
        <ele>2.4000000953674</ele>
        <time>2021-04-15T08:02:48.000Z</time>
      </trkpt>
      <trkpt lat="47.27614" lon="-2.32709">
        <ele>2.4000000953674</ele>
        <time>2021-04-15T08:02:53.000Z</time>
      </trkpt>
      <trkpt lat="47.27605" lon="-2.32728">
        <ele>2.4000000953674</ele>
        <time>2021-04-15T08:03:00.000Z</time>
      </trkpt>
      <trkpt lat="47.27604" lon="-2.32741">
        <ele>3</ele>
        <time>2021-04-15T08:03:04.000Z</time>
      </trkpt>
      <trkpt lat="47.27603" lon="-2.32744">
        <ele>3.4000000953674</ele>
        <time>2021-04-15T08:03:05.000Z</time>
      </trkpt>
      <trkpt lat="47.27603" lon="-2.32746">
        <ele>3.7999999523163</ele>
        <time>2021-04-15T08:03:06.000Z</time>
      </trkpt>
      <trkpt lat="47.27602" lon="-2.32749">
        <ele>4.4000000953674</ele>
        <time>2021-04-15T08:03:07.000Z</time>
      </trkpt>
      <trkpt lat="47.27602" lon="-2.32752">
        <ele>4.8000001907349</ele>
        <time>2021-04-15T08:03:08.000Z</time>
      </trkpt>
      <trkpt lat="47.27601" lon="-2.32755">
        <ele>5.1999998092651</ele>
        <time>2021-04-15T08:03:09.000Z</time>
      </trkpt>
      <trkpt lat="47.276" lon="-2.32758">
        <ele>5.8000001907349</ele>
        <time>2021-04-15T08:03:10.000Z</time>
      </trkpt>
      <trkpt lat="47.27598" lon="-2.32762">
        <ele>6.1999998092651</ele>
        <time>2021-04-15T08:03:11.000Z</time>
      </trkpt>
      <trkpt lat="47.27595" lon="-2.32765">
        <ele>6.5999999046326</ele>
        <time>2021-04-15T08:03:12.000Z</time>
      </trkpt>
      <trkpt lat="47.27594" lon="-2.32769">
        <ele>7</ele>
        <time>2021-04-15T08:03:13.000Z</time>
      </trkpt>
      <trkpt lat="47.27584" lon="-2.32793">
        <ele>7</ele>
        <time>2021-04-15T08:03:19.000Z</time>
      </trkpt>
      <trkpt lat="47.27577" lon="-2.32808">
        <ele>7.5999999046326</ele>
        <time>2021-04-15T08:03:23.000Z</time>
      </trkpt>
      <trkpt lat="47.27575" lon="-2.32811">
        <ele>8</ele>
        <time>2021-04-15T08:03:24.000Z</time>
      </trkpt>
      <trkpt lat="47.27574" lon="-2.32814">
        <ele>8.3999996185303</ele>
        <time>2021-04-15T08:03:25.000Z</time>
      </trkpt>
      <trkpt lat="47.27572" lon="-2.32817">
        <ele>8.8000001907349</ele>
        <time>2021-04-15T08:03:26.000Z</time>
      </trkpt>
      <trkpt lat="47.2757" lon="-2.3282">
        <ele>9.1999998092651</ele>
        <time>2021-04-15T08:03:27.000Z</time>
      </trkpt>
      <trkpt lat="47.27566" lon="-2.32828">
        <ele>9.1999998092651</ele>
        <time>2021-04-15T08:03:30.000Z</time>
      </trkpt>
      <trkpt lat="47.27555" lon="-2.32848">
        <ele>9.1999998092651</ele>
        <time>2021-04-15T08:03:36.000Z</time>
      </trkpt>
      <trkpt lat="47.27553" lon="-2.3286">
        <ele>9.1999998092651</ele>
        <time>2021-04-15T08:03:39.000Z</time>
      </trkpt>
      <trkpt lat="47.27556" lon="-2.32867">
        <ele>9.8000001907349</ele>
        <time>2021-04-15T08:03:41.000Z</time>
      </trkpt>
      <trkpt lat="47.27557" lon="-2.32869">
        <ele>10.199999809265</ele>
        <time>2021-04-15T08:03:42.000Z</time>
      </trkpt>
      <trkpt lat="47.27559" lon="-2.32871">
        <ele>10.60000038147</ele>
        <time>2021-04-15T08:03:43.000Z</time>
      </trkpt>
      <trkpt lat="47.2756" lon="-2.32873">
        <ele>11</ele>
        <time>2021-04-15T08:03:44.000Z</time>
      </trkpt>
      <trkpt lat="47.27562" lon="-2.32875">
        <ele>11.39999961853</ele>
        <time>2021-04-15T08:03:45.000Z</time>
      </trkpt>
      <trkpt lat="47.27566" lon="-2.32881">
        <ele>11.39999961853</ele>
        <time>2021-04-15T08:03:47.000Z</time>
      </trkpt>
      <trkpt lat="47.2757" lon="-2.32902">
        <ele>11.39999961853</ele>
        <time>2021-04-15T08:03:52.000Z</time>
      </trkpt>
      <trkpt lat="47.27561" lon="-2.32926">
        <ele>11.39999961853</ele>
        <time>2021-04-15T08:03:57.000Z</time>
      </trkpt>
      <trkpt lat="47.27551" lon="-2.32953">
        <ele>11.39999961853</ele>
        <time>2021-04-15T08:04:04.000Z</time>
      </trkpt>
      <trkpt lat="47.27552" lon="-2.32961">
        <ele>11.39999961853</ele>
        <time>2021-04-15T08:04:06.000Z</time>
      </trkpt>
      <trkpt lat="47.27555" lon="-2.32965">
        <ele>11.39999961853</ele>
        <time>2021-04-15T08:04:08.000Z</time>
      </trkpt>
      <trkpt lat="47.27555" lon="-2.32973">
        <ele>11.800000190735</ele>
        <time>2021-04-15T08:04:10.000Z</time>
      </trkpt>
      <trkpt lat="47.27554" lon="-2.32975">
        <ele>12.199999809265</ele>
        <time>2021-04-15T08:04:11.000Z</time>
      </trkpt>
      <trkpt lat="47.27552" lon="-2.32975">
        <ele>12.60000038147</ele>
        <time>2021-04-15T08:04:12.000Z</time>
      </trkpt>
      <trkpt lat="47.27551" lon="-2.32975">
        <ele>13</ele>
        <time>2021-04-15T08:04:13.000Z</time>
      </trkpt>
      <trkpt lat="47.27549" lon="-2.32975">
        <ele>13.39999961853</ele>
        <time>2021-04-15T08:04:14.000Z</time>
      </trkpt>
      <trkpt lat="47.27543" lon="-2.32976">
        <ele>13.39999961853</ele>
        <time>2021-04-15T08:04:16.000Z</time>
      </trkpt>
      <trkpt lat="47.27533" lon="-2.32975">
        <ele>13.800000190735</ele>
        <time>2021-04-15T08:04:20.000Z</time>
      </trkpt>
      <trkpt lat="47.27532" lon="-2.32974">
        <ele>14.199999809265</ele>
        <time>2021-04-15T08:04:21.000Z</time>
      </trkpt>
      <trkpt lat="47.2753" lon="-2.32973">
        <ele>14.60000038147</ele>
        <time>2021-04-15T08:04:22.000Z</time>
      </trkpt>
      <trkpt lat="47.27528" lon="-2.32972">
        <ele>15</ele>
        <time>2021-04-15T08:04:23.000Z</time>
      </trkpt>
      <trkpt lat="47.27526" lon="-2.32972">
        <ele>15.39999961853</ele>
        <time>2021-04-15T08:04:24.000Z</time>
      </trkpt>
      <trkpt lat="47.27521" lon="-2.32971">
        <ele>15.39999961853</ele>
        <time>2021-04-15T08:04:27.000Z</time>
      </trkpt>
      <trkpt lat="47.27512" lon="-2.32974">
        <ele>15.39999961853</ele>
        <time>2021-04-15T08:04:33.000Z</time>
      </trkpt>
      <trkpt lat="47.27497" lon="-2.32982">
        <ele>15.39999961853</ele>
        <time>2021-04-15T08:04:38.000Z</time>
      </trkpt>
      <trkpt lat="47.27489" lon="-2.32997">
        <ele>15.39999961853</ele>
        <time>2021-04-15T08:04:41.000Z</time>
      </trkpt>
      <trkpt lat="47.27486" lon="-2.33007">
        <ele>15.39999961853</ele>
        <time>2021-04-15T08:04:43.000Z</time>
      </trkpt>
      <trkpt lat="47.2748" lon="-2.33019">
        <ele>15.39999961853</ele>
        <time>2021-04-15T08:04:46.000Z</time>
      </trkpt>
      <trkpt lat="47.27477" lon="-2.33027">
        <ele>15.39999961853</ele>
        <time>2021-04-15T08:04:48.000Z</time>
      </trkpt>
      <trkpt lat="47.27473" lon="-2.33031">
        <ele>15.39999961853</ele>
        <time>2021-04-15T08:04:50.000Z</time>
      </trkpt>
      <trkpt lat="47.27467" lon="-2.33033">
        <ele>15.39999961853</ele>
        <time>2021-04-15T08:04:52.000Z</time>
      </trkpt>
      <trkpt lat="47.2745" lon="-2.33037">
        <ele>15.39999961853</ele>
        <time>2021-04-15T08:04:57.000Z</time>
      </trkpt>
      <trkpt lat="47.27447" lon="-2.33038">
        <ele>15.39999961853</ele>
        <time>2021-04-15T08:04:58.000Z</time>
      </trkpt>
      <trkpt lat="47.27433" lon="-2.33042">
        <ele>15.39999961853</ele>
        <time>2021-04-15T08:05:04.000Z</time>
      </trkpt>
      <trkpt lat="47.27427" lon="-2.33029">
        <ele>15.39999961853</ele>
        <time>2021-04-15T08:05:07.000Z</time>
      </trkpt>
      <trkpt lat="47.27421" lon="-2.3301">
        <ele>15.39999961853</ele>
        <time>2021-04-15T08:05:10.000Z</time>
      </trkpt>
      <trkpt lat="47.27416" lon="-2.32997">
        <ele>15.39999961853</ele>
        <time>2021-04-15T08:05:12.000Z</time>
      </trkpt>
      <trkpt lat="47.27406" lon="-2.3296">
        <ele>15.39999961853</ele>
        <time>2021-04-15T08:05:17.000Z</time>
      </trkpt>
      <trkpt lat="47.27403" lon="-2.32953">
        <ele>15.39999961853</ele>
        <time>2021-04-15T08:05:18.000Z</time>
      </trkpt>
      <trkpt lat="47.27395" lon="-2.32931">
        <ele>15.39999961853</ele>
        <time>2021-04-15T08:05:21.000Z</time>
      </trkpt>
      <trkpt lat="47.27395" lon="-2.32922">
        <ele>15.39999961853</ele>
        <time>2021-04-15T08:05:23.000Z</time>
      </trkpt>
      <trkpt lat="47.27396" lon="-2.32918">
        <ele>15</ele>
        <time>2021-04-15T08:05:24.000Z</time>
      </trkpt>
      <trkpt lat="47.27397" lon="-2.32914">
        <ele>14.60000038147</ele>
        <time>2021-04-15T08:05:25.000Z</time>
      </trkpt>
      <trkpt lat="47.27399" lon="-2.32909">
        <ele>14.199999809265</ele>
        <time>2021-04-15T08:05:26.000Z</time>
      </trkpt>
      <trkpt lat="47.27401" lon="-2.32903">
        <ele>13.800000190735</ele>
        <time>2021-04-15T08:05:27.000Z</time>
      </trkpt>
      <trkpt lat="47.27403" lon="-2.32898">
        <ele>13.39999961853</ele>
        <time>2021-04-15T08:05:28.000Z</time>
      </trkpt>
      <trkpt lat="47.27411" lon="-2.32879">
        <ele>13.39999961853</ele>
        <time>2021-04-15T08:05:33.000Z</time>
      </trkpt>
      <trkpt lat="47.27421" lon="-2.32849">
        <ele>13.39999961853</ele>
        <time>2021-04-15T08:05:39.000Z</time>
      </trkpt>
      <trkpt lat="47.27427" lon="-2.32828">
        <ele>13</ele>
        <time>2021-04-15T08:05:42.000Z</time>
      </trkpt>
      <trkpt lat="47.27429" lon="-2.32821">
        <ele>12.60000038147</ele>
        <time>2021-04-15T08:05:43.000Z</time>
      </trkpt>
      <trkpt lat="47.2743" lon="-2.32814">
        <ele>12.199999809265</ele>
        <time>2021-04-15T08:05:44.000Z</time>
      </trkpt>
      <trkpt lat="47.27431" lon="-2.32807">
        <ele>11.39999961853</ele>
        <time>2021-04-15T08:05:45.000Z</time>
      </trkpt>
      <trkpt lat="47.27442" lon="-2.32762">
        <ele>11.39999961853</ele>
        <time>2021-04-15T08:05:51.000Z</time>
      </trkpt>
      <trkpt lat="47.27444" lon="-2.32754">
        <ele>11</ele>
        <time>2021-04-15T08:05:52.000Z</time>
      </trkpt>
      <trkpt lat="47.27448" lon="-2.32746">
        <ele>10.39999961853</ele>
        <time>2021-04-15T08:05:53.000Z</time>
      </trkpt>
      <trkpt lat="47.2745" lon="-2.32739">
        <ele>10</ele>
        <time>2021-04-15T08:05:54.000Z</time>
      </trkpt>
      <trkpt lat="47.27454" lon="-2.32731">
        <ele>9.6000003814697</ele>
        <time>2021-04-15T08:05:55.000Z</time>
      </trkpt>
      <trkpt lat="47.27457" lon="-2.32723">
        <ele>9</ele>
        <time>2021-04-15T08:05:56.000Z</time>
      </trkpt>
      <trkpt lat="47.2746" lon="-2.32715">
        <ele>8.6000003814697</ele>
        <time>2021-04-15T08:05:57.000Z</time>
      </trkpt>
      <trkpt lat="47.27463" lon="-2.32707">
        <ele>8.1999998092651</ele>
        <time>2021-04-15T08:05:58.000Z</time>
      </trkpt>
      <trkpt lat="47.27466" lon="-2.32699">
        <ele>7.8000001907349</ele>
        <time>2021-04-15T08:05:59.000Z</time>
      </trkpt>
      <trkpt lat="47.27469" lon="-2.32693">
        <ele>7.1999998092651</ele>
        <time>2021-04-15T08:06:00.000Z</time>
      </trkpt>
      <trkpt lat="47.27472" lon="-2.32689">
        <ele>6.8000001907349</ele>
        <time>2021-04-15T08:06:01.000Z</time>
      </trkpt>
      <trkpt lat="47.27476" lon="-2.32685">
        <ele>6.8000001907349</ele>
        <time>2021-04-15T08:06:02.000Z</time>
      </trkpt>
      <trkpt lat="47.27479" lon="-2.32681">
        <ele>6.4000000953674</ele>
        <time>2021-04-15T08:06:03.000Z</time>
      </trkpt>
      <trkpt lat="47.27485" lon="-2.32678">
        <ele>6</ele>
        <time>2021-04-15T08:06:04.000Z</time>
      </trkpt>
      <trkpt lat="47.27492" lon="-2.32673">
        <ele>5.5999999046326</ele>
        <time>2021-04-15T08:06:05.000Z</time>
      </trkpt>
      <trkpt lat="47.27499" lon="-2.32667">
        <ele>5.1999998092651</ele>
        <time>2021-04-15T08:06:06.000Z</time>
      </trkpt>
      <trkpt lat="47.27503" lon="-2.3266">
        <ele>4.8000001907349</ele>
        <time>2021-04-15T08:06:07.000Z</time>
      </trkpt>
      <trkpt lat="47.27509" lon="-2.32645">
        <ele>4.8000001907349</ele>
        <time>2021-04-15T08:06:09.000Z</time>
      </trkpt>
      <trkpt lat="47.27527" lon="-2.32615">
        <ele>4.8000001907349</ele>
        <time>2021-04-15T08:06:14.000Z</time>
      </trkpt>
      <trkpt lat="47.27532" lon="-2.3261">
        <ele>4.8000001907349</ele>
        <time>2021-04-15T08:06:15.000Z</time>
      </trkpt>
      <trkpt lat="47.27542" lon="-2.32599">
        <ele>4.8000001907349</ele>
        <time>2021-04-15T08:06:17.000Z</time>
      </trkpt>
      <trkpt lat="47.27549" lon="-2.32587">
        <ele>4.8000001907349</ele>
        <time>2021-04-15T08:06:19.000Z</time>
      </trkpt>
      <trkpt lat="47.27552" lon="-2.32581">
        <ele>4.4000000953674</ele>
        <time>2021-04-15T08:06:20.000Z</time>
      </trkpt>
      <trkpt lat="47.27554" lon="-2.32576">
        <ele>3.7999999523163</ele>
        <time>2021-04-15T08:06:21.000Z</time>
      </trkpt>
      <trkpt lat="47.27553" lon="-2.32571">
        <ele>3.4000000953674</ele>
        <time>2021-04-15T08:06:22.000Z</time>
      </trkpt>
      <trkpt lat="47.27551" lon="-2.32565">
        <ele>3</ele>
        <time>2021-04-15T08:06:23.000Z</time>
      </trkpt>
      <trkpt lat="47.27549" lon="-2.32559">
        <ele>2.5999999046326</ele>
        <time>2021-04-15T08:06:24.000Z</time>
      </trkpt>
      <trkpt lat="47.27544" lon="-2.32538">
        <ele>3</ele>
        <time>2021-04-15T08:06:27.000Z</time>
      </trkpt>
      <trkpt lat="47.27543" lon="-2.32532">
        <ele>3.4000000953674</ele>
        <time>2021-04-15T08:06:28.000Z</time>
      </trkpt>
      <trkpt lat="47.27543" lon="-2.32526">
        <ele>3.7999999523163</ele>
        <time>2021-04-15T08:06:29.000Z</time>
      </trkpt>
      <trkpt lat="47.27544" lon="-2.32521">
        <ele>4.1999998092651</ele>
        <time>2021-04-15T08:06:30.000Z</time>
      </trkpt>
      <trkpt lat="47.27545" lon="-2.32516">
        <ele>4.5999999046326</ele>
        <time>2021-04-15T08:06:31.000Z</time>
      </trkpt>
      <trkpt lat="47.27546" lon="-2.3251">
        <ele>5.1999998092651</ele>
        <time>2021-04-15T08:06:32.000Z</time>
      </trkpt>
      <trkpt lat="47.27546" lon="-2.32504">
        <ele>5.5999999046326</ele>
        <time>2021-04-15T08:06:33.000Z</time>
      </trkpt>
      <trkpt lat="47.27547" lon="-2.32499">
        <ele>6.5999999046326</ele>
        <time>2021-04-15T08:06:34.000Z</time>
      </trkpt>
      <trkpt lat="47.27549" lon="-2.32494">
        <ele>7.1999998092651</ele>
        <time>2021-04-15T08:06:35.000Z</time>
      </trkpt>
      <trkpt lat="47.2755" lon="-2.32489">
        <ele>7.5999999046326</ele>
        <time>2021-04-15T08:06:36.000Z</time>
      </trkpt>
      <trkpt lat="47.27551" lon="-2.32483">
        <ele>8</ele>
        <time>2021-04-15T08:06:37.000Z</time>
      </trkpt>
      <trkpt lat="47.27553" lon="-2.32478">
        <ele>8.3999996185303</ele>
        <time>2021-04-15T08:06:38.000Z</time>
      </trkpt>
      <trkpt lat="47.27554" lon="-2.32474">
        <ele>8.8000001907349</ele>
        <time>2021-04-15T08:06:39.000Z</time>
      </trkpt>
      <trkpt lat="47.27556" lon="-2.32469">
        <ele>9.1999998092651</ele>
        <time>2021-04-15T08:06:40.000Z</time>
      </trkpt>
      <trkpt lat="47.27558" lon="-2.32458">
        <ele>9.8000001907349</ele>
        <time>2021-04-15T08:06:42.000Z</time>
      </trkpt>
      <trkpt lat="47.27559" lon="-2.32454">
        <ele>10.199999809265</ele>
        <time>2021-04-15T08:06:43.000Z</time>
      </trkpt>
      <trkpt lat="47.2756" lon="-2.32448">
        <ele>10.60000038147</ele>
        <time>2021-04-15T08:06:44.000Z</time>
      </trkpt>
      <trkpt lat="47.27561" lon="-2.32443">
        <ele>11.199999809265</ele>
        <time>2021-04-15T08:06:45.000Z</time>
      </trkpt>
      <trkpt lat="47.27563" lon="-2.32437">
        <ele>11.60000038147</ele>
        <time>2021-04-15T08:06:46.000Z</time>
      </trkpt>
      <trkpt lat="47.27566" lon="-2.32412">
        <ele>11.60000038147</ele>
        <time>2021-04-15T08:06:51.000Z</time>
      </trkpt>
      <trkpt lat="47.27573" lon="-2.32391">
        <ele>11.60000038147</ele>
        <time>2021-04-15T08:06:55.000Z</time>
      </trkpt>
      <trkpt lat="47.27587" lon="-2.32349">
        <ele>11.60000038147</ele>
        <time>2021-04-15T08:07:02.000Z</time>
      </trkpt>
      <trkpt lat="47.27601" lon="-2.32312">
        <ele>11.60000038147</ele>
        <time>2021-04-15T08:07:09.000Z</time>
      </trkpt>
      <trkpt lat="47.27606" lon="-2.3229">
        <ele>11.60000038147</ele>
        <time>2021-04-15T08:07:14.000Z</time>
      </trkpt>
      <trkpt lat="47.27604" lon="-2.32286">
        <ele>11.60000038147</ele>
        <time>2021-04-15T08:07:15.000Z</time>
      </trkpt>
      <trkpt lat="47.2759" lon="-2.32273">
        <ele>11.60000038147</ele>
        <time>2021-04-15T08:07:19.000Z</time>
      </trkpt>
      <trkpt lat="47.27559" lon="-2.32246">
        <ele>11.60000038147</ele>
        <time>2021-04-15T08:07:25.000Z</time>
      </trkpt>
      <trkpt lat="47.27528" lon="-2.32219">
        <ele>11.199999809265</ele>
        <time>2021-04-15T08:07:30.000Z</time>
      </trkpt>
      <trkpt lat="47.27522" lon="-2.32212">
        <ele>10.800000190735</ele>
        <time>2021-04-15T08:07:31.000Z</time>
      </trkpt>
      <trkpt lat="47.27516" lon="-2.32204">
        <ele>10.39999961853</ele>
        <time>2021-04-15T08:07:32.000Z</time>
      </trkpt>
      <trkpt lat="47.2751" lon="-2.32196">
        <ele>10</ele>
        <time>2021-04-15T08:07:33.000Z</time>
      </trkpt>
      <trkpt lat="47.27505" lon="-2.32188">
        <ele>9.6000003814697</ele>
        <time>2021-04-15T08:07:34.000Z</time>
      </trkpt>
      <trkpt lat="47.27492" lon="-2.32171">
        <ele>9.6000003814697</ele>
        <time>2021-04-15T08:07:36.000Z</time>
      </trkpt>
      <trkpt lat="47.27485" lon="-2.32162">
        <ele>9.1999998092651</ele>
        <time>2021-04-15T08:07:37.000Z</time>
      </trkpt>
      <trkpt lat="47.27479" lon="-2.32155">
        <ele>8.8000001907349</ele>
        <time>2021-04-15T08:07:38.000Z</time>
      </trkpt>
      <trkpt lat="47.27473" lon="-2.32147">
        <ele>8.3999996185303</ele>
        <time>2021-04-15T08:07:39.000Z</time>
      </trkpt>
      <trkpt lat="47.27467" lon="-2.3214">
        <ele>7.8000001907349</ele>
        <time>2021-04-15T08:07:40.000Z</time>
      </trkpt>
      <trkpt lat="47.27462" lon="-2.32132">
        <ele>7.4000000953674</ele>
        <time>2021-04-15T08:07:41.000Z</time>
      </trkpt>
      <trkpt lat="47.27456" lon="-2.32124">
        <ele>7.4000000953674</ele>
        <time>2021-04-15T08:07:42.000Z</time>
      </trkpt>
      <trkpt lat="47.27423" lon="-2.32078">
        <ele>7.4000000953674</ele>
        <time>2021-04-15T08:07:49.000Z</time>
      </trkpt>
      <trkpt lat="47.27417" lon="-2.32073">
        <ele>7</ele>
        <time>2021-04-15T08:07:50.000Z</time>
      </trkpt>
      <trkpt lat="47.27412" lon="-2.32067">
        <ele>6.5999999046326</ele>
        <time>2021-04-15T08:07:51.000Z</time>
      </trkpt>
      <trkpt lat="47.27406" lon="-2.32061">
        <ele>6.1999998092651</ele>
        <time>2021-04-15T08:07:52.000Z</time>
      </trkpt>
      <trkpt lat="47.27401" lon="-2.32056">
        <ele>5.8000001907349</ele>
        <time>2021-04-15T08:07:53.000Z</time>
      </trkpt>
      <trkpt lat="47.27395" lon="-2.3205">
        <ele>5.4000000953674</ele>
        <time>2021-04-15T08:07:54.000Z</time>
      </trkpt>
      <trkpt lat="47.27389" lon="-2.32044">
        <ele>5.4000000953674</ele>
        <time>2021-04-15T08:07:55.000Z</time>
      </trkpt>
      <trkpt lat="47.27377" lon="-2.3203">
        <ele>4.8000001907349</ele>
        <time>2021-04-15T08:07:57.000Z</time>
      </trkpt>
      <trkpt lat="47.2737" lon="-2.32023">
        <ele>4.4000000953674</ele>
        <time>2021-04-15T08:07:58.000Z</time>
      </trkpt>
      <trkpt lat="47.27363" lon="-2.32016">
        <ele>4</ele>
        <time>2021-04-15T08:07:59.000Z</time>
      </trkpt>
      <trkpt lat="47.27356" lon="-2.32009">
        <ele>3.5999999046326</ele>
        <time>2021-04-15T08:08:00.000Z</time>
      </trkpt>
      <trkpt lat="47.2735" lon="-2.32003">
        <ele>3.2000000476837</ele>
        <time>2021-04-15T08:08:01.000Z</time>
      </trkpt>
      <trkpt lat="47.27343" lon="-2.31996">
        <ele>2.7999999523163</ele>
        <time>2021-04-15T08:08:02.000Z</time>
      </trkpt>
      <trkpt lat="47.27336" lon="-2.31989">
        <ele>2.4000000953674</ele>
        <time>2021-04-15T08:08:03.000Z</time>
      </trkpt>
      <trkpt lat="47.2733" lon="-2.31982">
        <ele>1.7999999523163</ele>
        <time>2021-04-15T08:08:04.000Z</time>
      </trkpt>
      <trkpt lat="47.27324" lon="-2.31976">
        <ele>1.3999999761581</ele>
        <time>2021-04-15T08:08:05.000Z</time>
      </trkpt>
      <trkpt lat="47.27317" lon="-2.31969">
        <ele>1</ele>
        <time>2021-04-15T08:08:06.000Z</time>
      </trkpt>
      <trkpt lat="47.27305" lon="-2.31958">
        <ele>1</ele>
        <time>2021-04-15T08:08:08.000Z</time>
      </trkpt>
      <trkpt lat="47.27274" lon="-2.31938">
        <ele>1</ele>
        <time>2021-04-15T08:08:13.000Z</time>
      </trkpt>
      <trkpt lat="47.2724" lon="-2.31929">
        <ele>1</ele>
        <time>2021-04-15T08:08:19.000Z</time>
      </trkpt>
      <trkpt lat="47.27227" lon="-2.31923">
        <ele>1</ele>
        <time>2021-04-15T08:08:23.000Z</time>
      </trkpt>
      <trkpt lat="47.2722" lon="-2.3192">
        <ele>1</ele>
        <time>2021-04-15T08:08:29.000Z</time>
      </trkpt>
      <trkpt lat="47.27219" lon="-2.31921">
        <ele>1</ele>
        <time>2021-04-15T08:08:30.000Z</time>
      </trkpt>
      <trkpt lat="47.27214" lon="-2.31928">
        <ele>1</ele>
        <time>2021-04-15T08:08:33.000Z</time>
      </trkpt>
      <trkpt lat="47.27211" lon="-2.31933">
        <ele>1</ele>
        <time>2021-04-15T08:08:34.000Z</time>
      </trkpt>
      <trkpt lat="47.27205" lon="-2.31942">
        <ele>1</ele>
        <time>2021-04-15T08:08:36.000Z</time>
      </trkpt>
      <trkpt lat="47.27201" lon="-2.31946">
        <ele>1</ele>
        <time>2021-04-15T08:08:37.000Z</time>
      </trkpt>
      <trkpt lat="47.27177" lon="-2.31971">
        <ele>1</ele>
        <time>2021-04-15T08:08:42.000Z</time>
      </trkpt>
      <trkpt lat="47.2717" lon="-2.31983">
        <ele>0.60000002384186</ele>
        <time>2021-04-15T08:08:44.000Z</time>
      </trkpt>
      <trkpt lat="47.27166" lon="-2.31988">
        <ele>0.20000000298023</ele>
        <time>2021-04-15T08:08:45.000Z</time>
      </trkpt>
      <trkpt lat="47.27164" lon="-2.31991">
        <ele>-0.20000000298023</ele>
        <time>2021-04-15T08:08:46.000Z</time>
      </trkpt>
      <trkpt lat="47.27161" lon="-2.31993">
        <ele>-0.60000002384186</ele>
        <time>2021-04-15T08:08:47.000Z</time>
      </trkpt>
      <trkpt lat="47.27159" lon="-2.31995">
        <ele>-1</ele>
        <time>2021-04-15T08:08:48.000Z</time>
      </trkpt>
      <trkpt lat="47.27156" lon="-2.31992">
        <ele>-1</ele>
        <time>2021-04-15T08:08:50.000Z</time>
      </trkpt>
      <trkpt lat="47.27154" lon="-2.3199">
        <ele>-1</ele>
        <time>2021-04-15T08:08:51.000Z</time>
      </trkpt>
      <trkpt lat="47.27138" lon="-2.3198">
        <ele>-1</ele>
        <time>2021-04-15T08:08:56.000Z</time>
      </trkpt>
      <trkpt lat="47.27117" lon="-2.31964">
        <ele>-1</ele>
        <time>2021-04-15T08:09:02.000Z</time>
      </trkpt>
      <trkpt lat="47.27103" lon="-2.31954">
        <ele>-1</ele>
        <time>2021-04-15T08:09:07.000Z</time>
      </trkpt>
      <trkpt lat="47.27085" lon="-2.31952">
        <ele>-1</ele>
        <time>2021-04-15T08:09:11.000Z</time>
      </trkpt>
      <trkpt lat="47.2707" lon="-2.31955">
        <ele>-0.60000002384186</ele>
        <time>2021-04-15T08:09:14.000Z</time>
      </trkpt>
      <trkpt lat="47.27065" lon="-2.31955">
        <ele>-0.20000000298023</ele>
        <time>2021-04-15T08:09:15.000Z</time>
      </trkpt>
      <trkpt lat="47.2706" lon="-2.31954">
        <ele>0.20000000298023</ele>
        <time>2021-04-15T08:09:16.000Z</time>
      </trkpt>
      <trkpt lat="47.27056" lon="-2.31953">
        <ele>0.60000002384186</ele>
        <time>2021-04-15T08:09:17.000Z</time>
      </trkpt>
      <trkpt lat="47.27051" lon="-2.31952">
        <ele>1.2000000476837</ele>
        <time>2021-04-15T08:09:18.000Z</time>
      </trkpt>
      <trkpt lat="47.27047" lon="-2.31953">
        <ele>1.2000000476837</ele>
        <time>2021-04-15T08:09:19.000Z</time>
      </trkpt>
      <trkpt lat="47.27039" lon="-2.31956">
        <ele>1.2000000476837</ele>
        <time>2021-04-15T08:09:21.000Z</time>
      </trkpt>
      <trkpt lat="47.27017" lon="-2.31969">
        <ele>1.2000000476837</ele>
        <time>2021-04-15T08:09:27.000Z</time>
      </trkpt>
      <trkpt lat="47.2701" lon="-2.31981">
        <ele>1.2000000476837</ele>
        <time>2021-04-15T08:09:29.000Z</time>
      </trkpt>
      <trkpt lat="47.2701" lon="-2.31986">
        <ele>1.2000000476837</ele>
        <time>2021-04-15T08:09:30.000Z</time>
      </trkpt>
      <trkpt lat="47.27016" lon="-2.3201">
        <ele>1.2000000476837</ele>
        <time>2021-04-15T08:09:34.000Z</time>
      </trkpt>
      <trkpt lat="47.27022" lon="-2.32049">
        <ele>1.2000000476837</ele>
        <time>2021-04-15T08:09:39.000Z</time>
      </trkpt>
      <trkpt lat="47.27023" lon="-2.32057">
        <ele>1.2000000476837</ele>
        <time>2021-04-15T08:09:40.000Z</time>
      </trkpt>
      <trkpt lat="47.27023" lon="-2.32079">
        <ele>1.2000000476837</ele>
        <time>2021-04-15T08:09:43.000Z</time>
      </trkpt>
      <trkpt lat="47.2702" lon="-2.32093">
        <ele>0.60000002384186</ele>
        <time>2021-04-15T08:09:45.000Z</time>
      </trkpt>
      <trkpt lat="47.27019" lon="-2.321">
        <ele>0.20000000298023</ele>
        <time>2021-04-15T08:09:46.000Z</time>
      </trkpt>
      <trkpt lat="47.27017" lon="-2.32107">
        <ele>-0.20000000298023</ele>
        <time>2021-04-15T08:09:47.000Z</time>
      </trkpt>
      <trkpt lat="47.27013" lon="-2.32112">
        <ele>-0.60000002384186</ele>
        <time>2021-04-15T08:09:48.000Z</time>
      </trkpt>
      <trkpt lat="47.27009" lon="-2.32116">
        <ele>-1</ele>
        <time>2021-04-15T08:09:49.000Z</time>
      </trkpt>
      <trkpt lat="47.27005" lon="-2.3212">
        <ele>-1</ele>
        <time>2021-04-15T08:09:50.000Z</time>
      </trkpt>
      <trkpt lat="47.26993" lon="-2.32142">
        <ele>-1</ele>
        <time>2021-04-15T08:09:54.000Z</time>
      </trkpt>
      <trkpt lat="47.27002" lon="-2.32163">
        <ele>-1</ele>
        <time>2021-04-15T08:09:57.000Z</time>
      </trkpt>
      <trkpt lat="47.27014" lon="-2.32183">
        <ele>-1</ele>
        <time>2021-04-15T08:10:00.000Z</time>
      </trkpt>
      <trkpt lat="47.27021" lon="-2.32195">
        <ele>-1</ele>
        <time>2021-04-15T08:10:02.000Z</time>
      </trkpt>
      <trkpt lat="47.27033" lon="-2.32221">
        <ele>-1</ele>
        <time>2021-04-15T08:10:06.000Z</time>
      </trkpt>
      <trkpt lat="47.27036" lon="-2.32236">
        <ele>-1</ele>
        <time>2021-04-15T08:10:08.000Z</time>
      </trkpt>
      <trkpt lat="47.27033" lon="-2.32269">
        <ele>-1</ele>
        <time>2021-04-15T08:10:12.000Z</time>
      </trkpt>
      <trkpt lat="47.27032" lon="-2.32279">
        <ele>-1</ele>
        <time>2021-04-15T08:10:13.000Z</time>
      </trkpt>
      <trkpt lat="47.2703" lon="-2.32296">
        <ele>-1.3999999761581</ele>
        <time>2021-04-15T08:10:15.000Z</time>
      </trkpt>
      <trkpt lat="47.2703" lon="-2.32304">
        <ele>-2.2000000476837</ele>
        <time>2021-04-15T08:10:16.000Z</time>
      </trkpt>
      <trkpt lat="47.2703" lon="-2.32314">
        <ele>-2.5999999046326</ele>
        <time>2021-04-15T08:10:17.000Z</time>
      </trkpt>
      <trkpt lat="47.27029" lon="-2.32323">
        <ele>-3</ele>
        <time>2021-04-15T08:10:18.000Z</time>
      </trkpt>
      <trkpt lat="47.27032" lon="-2.32373">
        <ele>-3</ele>
        <time>2021-04-15T08:10:24.000Z</time>
      </trkpt>
      <trkpt lat="47.27038" lon="-2.32424">
        <ele>-3</ele>
        <time>2021-04-15T08:10:30.000Z</time>
      </trkpt>
      <trkpt lat="47.27037" lon="-2.32479">
        <ele>-3</ele>
        <time>2021-04-15T08:10:36.000Z</time>
      </trkpt>
      <trkpt lat="47.27035" lon="-2.32487">
        <ele>-3</ele>
        <time>2021-04-15T08:10:37.000Z</time>
      </trkpt>
      <trkpt lat="47.27028" lon="-2.32497">
        <ele>-3</ele>
        <time>2021-04-15T08:10:39.000Z</time>
      </trkpt>
      <trkpt lat="47.27011" lon="-2.32501">
        <ele>-3</ele>
        <time>2021-04-15T08:10:42.000Z</time>
      </trkpt>
      <trkpt lat="47.26996" lon="-2.32493">
        <ele>-3</ele>
        <time>2021-04-15T08:10:45.000Z</time>
      </trkpt>
      <trkpt lat="47.26988" lon="-2.32476">
        <ele>-2.5999999046326</ele>
        <time>2021-04-15T08:10:48.000Z</time>
      </trkpt>
      <trkpt lat="47.26985" lon="-2.3247">
        <ele>-2.2000000476837</ele>
        <time>2021-04-15T08:10:49.000Z</time>
      </trkpt>
      <trkpt lat="47.26982" lon="-2.32464">
        <ele>-1.7999999523163</ele>
        <time>2021-04-15T08:10:50.000Z</time>
      </trkpt>
      <trkpt lat="47.26979" lon="-2.32458">
        <ele>-1.3999999761581</ele>
        <time>2021-04-15T08:10:51.000Z</time>
      </trkpt>
      <trkpt lat="47.26976" lon="-2.32453">
        <ele>-1</ele>
        <time>2021-04-15T08:10:52.000Z</time>
      </trkpt>
      <trkpt lat="47.26966" lon="-2.32442">
        <ele>-1</ele>
        <time>2021-04-15T08:10:55.000Z</time>
      </trkpt>
      <trkpt lat="47.26948" lon="-2.3241">
        <ele>-1</ele>
        <time>2021-04-15T08:11:02.000Z</time>
      </trkpt>
      <trkpt lat="47.26939" lon="-2.32378">
        <ele>-1</ele>
        <time>2021-04-15T08:11:08.000Z</time>
      </trkpt>
      <trkpt lat="47.26929" lon="-2.32351">
        <ele>-1</ele>
        <time>2021-04-15T08:11:14.000Z</time>
      </trkpt>
      <trkpt lat="47.2692" lon="-2.32334">
        <ele>-0.60000002384186</ele>
        <time>2021-04-15T08:11:18.000Z</time>
      </trkpt>
      <trkpt lat="47.26918" lon="-2.32328">
        <ele>7.9</ele>
        <time>2021-04-15T08:11:19.000Z</time>
      </trkpt>
      <trkpt lat="47.26917" lon="-2.32321">
        <ele>0.40000000596046</ele>
        <time>2021-04-15T08:11:20.000Z</time>
      </trkpt>
      <trkpt lat="47.26915" lon="-2.32315">
        <ele>0.80000001192093</ele>
        <time>2021-04-15T08:11:21.000Z</time>
      </trkpt>
      <trkpt lat="47.26913" lon="-2.32308">
        <ele>1.2000000476837</ele>
        <time>2021-04-15T08:11:22.000Z</time>
      </trkpt>
      <trkpt lat="47.26908" lon="-2.32295">
        <ele>1.2000000476837</ele>
        <time>2021-04-15T08:11:24.000Z</time>
      </trkpt>
      <trkpt lat="47.26894" lon="-2.32265">
        <ele>1.2000000476837</ele>
        <time>2021-04-15T08:11:29.000Z</time>
      </trkpt>
      <trkpt lat="47.26883" lon="-2.32248">
        <ele>1.6000000238419</ele>
        <time>2021-04-15T08:11:33.000Z</time>
      </trkpt>
      <trkpt lat="47.26879" lon="-2.32245">
        <ele>2</ele>
        <time>2021-04-15T08:11:34.000Z</time>
      </trkpt>
      <trkpt lat="47.26876" lon="-2.32241">
        <ele>2.4000000953674</ele>
        <time>2021-04-15T08:11:35.000Z</time>
      </trkpt>
      <trkpt lat="47.26872" lon="-2.32237">
        <ele>2.7999999523163</ele>
        <time>2021-04-15T08:11:36.000Z</time>
      </trkpt>
      <trkpt lat="47.26869" lon="-2.32232">
        <ele>3.4000000953674</ele>
        <time>2021-04-15T08:11:37.000Z</time>
      </trkpt>
      <trkpt lat="47.26861" lon="-2.32214">
        <ele>3.4000000953674</ele>
        <time>2021-04-15T08:11:40.000Z</time>
      </trkpt>
      <trkpt lat="47.26856" lon="-2.32196">
        <ele>3.7999999523163</ele>
        <time>2021-04-15T08:11:43.000Z</time>
      </trkpt>
      <trkpt lat="47.26854" lon="-2.32191">
        <ele>4.1999998092651</ele>
        <time>2021-04-15T08:11:44.000Z</time>
      </trkpt>
      <trkpt lat="47.26852" lon="-2.32187">
        <ele>4.5999999046326</ele>
        <time>2021-04-15T08:11:45.000Z</time>
      </trkpt>
      <trkpt lat="47.26849" lon="-2.32181">
        <ele>5</ele>
        <time>2021-04-15T08:11:46.000Z</time>
      </trkpt>
      <trkpt lat="47.26848" lon="-2.32175">
        <ele>5.4000000953674</ele>
        <time>2021-04-15T08:11:47.000Z</time>
      </trkpt>
      <trkpt lat="47.26839" lon="-2.32152">
        <ele>5.4000000953674</ele>
        <time>2021-04-15T08:11:51.000Z</time>
      </trkpt>
      <trkpt lat="47.26835" lon="-2.32137">
        <ele>5.4000000953674</ele>
        <time>2021-04-15T08:11:53.000Z</time>
      </trkpt>
      <trkpt lat="47.26832" lon="-2.32123">
        <ele>5.4000000953674</ele>
        <time>2021-04-15T08:11:55.000Z</time>
      </trkpt>
      <trkpt lat="47.26828" lon="-2.32109">
        <ele>5.4000000953674</ele>
        <time>2021-04-15T08:11:57.000Z</time>
      </trkpt>
      <trkpt lat="47.26826" lon="-2.32101">
        <ele>5.8000001907349</ele>
        <time>2021-04-15T08:11:58.000Z</time>
      </trkpt>
      <trkpt lat="47.26824" lon="-2.32094">
        <ele>6.1999998092651</ele>
        <time>2021-04-15T08:11:59.000Z</time>
      </trkpt>
      <trkpt lat="47.26822" lon="-2.32087">
        <ele>6.5999999046326</ele>
        <time>2021-04-15T08:12:00.000Z</time>
      </trkpt>
      <trkpt lat="47.26821" lon="-2.3208">
        <ele>7</ele>
        <time>2021-04-15T08:12:01.000Z</time>
      </trkpt>
      <trkpt lat="47.26819" lon="-2.32072">
        <ele>7.4000000953674</ele>
        <time>2021-04-15T08:12:02.000Z</time>
      </trkpt>
      <trkpt lat="47.26816" lon="-2.32058">
        <ele>7.4000000953674</ele>
        <time>2021-04-15T08:12:04.000Z</time>
      </trkpt>
      <trkpt lat="47.26805" lon="-2.32019">
        <ele>7.4000000953674</ele>
        <time>2021-04-15T08:12:10.000Z</time>
      </trkpt>
      <trkpt lat="47.26794" lon="-2.31997">
        <ele>7.4000000953674</ele>
        <time>2021-04-15T08:12:14.000Z</time>
      </trkpt>
      <trkpt lat="47.26791" lon="-2.31992">
        <ele>7.8000001907349</ele>
        <time>2021-04-15T08:12:15.000Z</time>
      </trkpt>
      <trkpt lat="47.26789" lon="-2.31987">
        <ele>8.3999996185303</ele>
        <time>2021-04-15T08:12:16.000Z</time>
      </trkpt>
      <trkpt lat="47.26786" lon="-2.31982">
        <ele>8.8000001907349</ele>
        <time>2021-04-15T08:12:17.000Z</time>
      </trkpt>
      <trkpt lat="47.26783" lon="-2.31978">
        <ele>9.1999998092651</ele>
        <time>2021-04-15T08:12:18.000Z</time>
      </trkpt>
      <trkpt lat="47.2678" lon="-2.31974">
        <ele>9.6000003814697</ele>
        <time>2021-04-15T08:12:19.000Z</time>
      </trkpt>
      <trkpt lat="47.26772" lon="-2.31961">
        <ele>9.6000003814697</ele>
        <time>2021-04-15T08:12:22.000Z</time>
      </trkpt>
      <trkpt lat="47.2676" lon="-2.31949">
        <ele>9.6000003814697</ele>
        <time>2021-04-15T08:12:27.000Z</time>
      </trkpt>
      <trkpt lat="47.26755" lon="-2.31962">
        <ele>9.6000003814697</ele>
        <time>2021-04-15T08:12:30.000Z</time>
      </trkpt>
      <trkpt lat="47.26751" lon="-2.31968">
        <ele>10</ele>
        <time>2021-04-15T08:12:32.000Z</time>
      </trkpt>
      <trkpt lat="47.26749" lon="-2.3197">
        <ele>10.39999961853</ele>
        <time>2021-04-15T08:12:33.000Z</time>
      </trkpt>
      <trkpt lat="47.26747" lon="-2.31972">
        <ele>10.800000190735</ele>
        <time>2021-04-15T08:12:34.000Z</time>
      </trkpt>
      <trkpt lat="47.26745" lon="-2.31975">
        <ele>11.199999809265</ele>
        <time>2021-04-15T08:12:35.000Z</time>
      </trkpt>
      <trkpt lat="47.26743" lon="-2.31978">
        <ele>11.60000038147</ele>
        <time>2021-04-15T08:12:36.000Z</time>
      </trkpt>
      <trkpt lat="47.26729" lon="-2.31989">
        <ele>11.60000038147</ele>
        <time>2021-04-15T08:12:41.000Z</time>
      </trkpt>
      <trkpt lat="47.26712" lon="-2.32">
        <ele>11.60000038147</ele>
        <time>2021-04-15T08:12:47.000Z</time>
      </trkpt>
      <trkpt lat="47.26706" lon="-2.32004">
        <ele>12</ele>
        <time>2021-04-15T08:12:49.000Z</time>
      </trkpt>
      <trkpt lat="47.26703" lon="-2.32007">
        <ele>12.39999961853</ele>
        <time>2021-04-15T08:12:50.000Z</time>
      </trkpt>
      <trkpt lat="47.267" lon="-2.32011">
        <ele>12.800000190735</ele>
        <time>2021-04-15T08:12:51.000Z</time>
      </trkpt>
      <trkpt lat="47.26698" lon="-2.32014">
        <ele>13.199999809265</ele>
        <time>2021-04-15T08:12:52.000Z</time>
      </trkpt>
      <trkpt lat="47.26696" lon="-2.32018">
        <ele>13.60000038147</ele>
        <time>2021-04-15T08:12:53.000Z</time>
      </trkpt>
      <trkpt lat="47.26687" lon="-2.32048">
        <ele>13.60000038147</ele>
        <time>2021-04-15T08:13:00.000Z</time>
      </trkpt>
      <trkpt lat="47.26686" lon="-2.32074">
        <ele>13.60000038147</ele>
        <time>2021-04-15T08:13:05.000Z</time>
      </trkpt>
      <trkpt lat="47.26683" lon="-2.32112">
        <ele>13.60000038147</ele>
        <time>2021-04-15T08:13:12.000Z</time>
      </trkpt>
      <trkpt lat="47.26682" lon="-2.32121">
        <ele>13.60000038147</ele>
        <time>2021-04-15T08:13:15.000Z</time>
      </trkpt>
      <trkpt lat="47.2668" lon="-2.32122">
        <ele>13.60000038147</ele>
        <time>2021-04-15T08:13:16.000Z</time>
      </trkpt>
      <trkpt lat="47.2668" lon="-2.32122">
        <ele>13.60000038147</ele>
        <time>2021-04-15T08:13:18.000Z</time>
      </trkpt>
      <trkpt lat="47.26677" lon="-2.32121">
        <ele>13.60000038147</ele>
        <time>2021-04-15T08:13:37.000Z</time>
      </trkpt>
      <trkpt lat="47.26675" lon="-2.3212">
        <ele>13.60000038147</ele>
        <time>2021-04-15T08:13:38.000Z</time>
      </trkpt>
      <trkpt lat="47.26671" lon="-2.32108">
        <ele>14</ele>
        <time>2021-04-15T08:13:41.000Z</time>
      </trkpt>
      <trkpt lat="47.2667" lon="-2.32103">
        <ele>14.39999961853</ele>
        <time>2021-04-15T08:13:42.000Z</time>
      </trkpt>
      <trkpt lat="47.26669" lon="-2.32097">
        <ele>14.800000190735</ele>
        <time>2021-04-15T08:13:43.000Z</time>
      </trkpt>
      <trkpt lat="47.26666" lon="-2.32092">
        <ele>15.39999961853</ele>
        <time>2021-04-15T08:13:44.000Z</time>
      </trkpt>
      <trkpt lat="47.26665" lon="-2.32086">
        <ele>15.800000190735</ele>
        <time>2021-04-15T08:13:45.000Z</time>
      </trkpt>
      <trkpt lat="47.26664" lon="-2.3208">
        <ele>15.800000190735</ele>
        <time>2021-04-15T08:13:46.000Z</time>
      </trkpt>
      <trkpt lat="47.26663" lon="-2.32074">
        <ele>15.800000190735</ele>
        <time>2021-04-15T08:13:47.000Z</time>
      </trkpt>
      <trkpt lat="47.26657" lon="-2.32047">
        <ele>15.800000190735</ele>
        <time>2021-04-15T08:13:52.000Z</time>
      </trkpt>
      <trkpt lat="47.26645" lon="-2.32008">
        <ele>15.800000190735</ele>
        <time>2021-04-15T08:13:59.000Z</time>
      </trkpt>
      <trkpt lat="47.26641" lon="-2.32007">
        <ele>15.800000190735</ele>
        <time>2021-04-15T08:14:00.000Z</time>
      </trkpt>
      <trkpt lat="47.26634" lon="-2.32008">
        <ele>15.800000190735</ele>
        <time>2021-04-15T08:14:02.000Z</time>
      </trkpt>
      <trkpt lat="47.26626" lon="-2.32012">
        <ele>15.800000190735</ele>
        <time>2021-04-15T08:14:04.000Z</time>
      </trkpt>
      <trkpt lat="47.26614" lon="-2.32017">
        <ele>15.800000190735</ele>
        <time>2021-04-15T08:14:07.000Z</time>
      </trkpt>
      <trkpt lat="47.26581" lon="-2.32028">
        <ele>15.800000190735</ele>
        <time>2021-04-15T08:14:14.000Z</time>
      </trkpt>
      <trkpt lat="47.26557" lon="-2.32038">
        <ele>15.199999809265</ele>
        <time>2021-04-15T08:14:19.000Z</time>
      </trkpt>
      <trkpt lat="47.26555" lon="-2.32039">
        <ele>14.800000190735</ele>
        <time>2021-04-15T08:14:20.000Z</time>
      </trkpt>
      <trkpt lat="47.26553" lon="-2.32039">
        <ele>14.39999961853</ele>
        <time>2021-04-15T08:14:21.000Z</time>
      </trkpt>
      <trkpt lat="47.26551" lon="-2.3204">
        <ele>14</ele>
        <time>2021-04-15T08:14:22.000Z</time>
      </trkpt>
      <trkpt lat="47.26548" lon="-2.32041">
        <ele>13.39999961853</ele>
        <time>2021-04-15T08:14:23.000Z</time>
      </trkpt>
      <trkpt lat="47.26546" lon="-2.32039">
        <ele>13.39999961853</ele>
        <time>2021-04-15T08:14:25.000Z</time>
      </trkpt>
      <trkpt lat="47.26544" lon="-2.32037">
        <ele>13.39999961853</ele>
        <time>2021-04-15T08:14:26.000Z</time>
      </trkpt>
      <trkpt lat="47.2654" lon="-2.32028">
        <ele>13</ele>
        <time>2021-04-15T08:14:30.000Z</time>
      </trkpt>
      <trkpt lat="47.26538" lon="-2.32024">
        <ele>12.60000038147</ele>
        <time>2021-04-15T08:14:31.000Z</time>
      </trkpt>
      <trkpt lat="47.26536" lon="-2.3202">
        <ele>12.199999809265</ele>
        <time>2021-04-15T08:14:32.000Z</time>
      </trkpt>
      <trkpt lat="47.26535" lon="-2.32018">
        <ele>11.800000190735</ele>
        <time>2021-04-15T08:14:33.000Z</time>
      </trkpt>
      <trkpt lat="47.26533" lon="-2.32014">
        <ele>11.39999961853</ele>
        <time>2021-04-15T08:14:34.000Z</time>
      </trkpt>
      <trkpt lat="47.2653" lon="-2.3201">
        <ele>11.39999961853</ele>
        <time>2021-04-15T08:14:35.000Z</time>
      </trkpt>
      <trkpt lat="47.26517" lon="-2.32003">
        <ele>11.39999961853</ele>
        <time>2021-04-15T08:14:39.000Z</time>
      </trkpt>
      <trkpt lat="47.26509" lon="-2.32003">
        <ele>11.39999961853</ele>
        <time>2021-04-15T08:14:41.000Z</time>
      </trkpt>
      <trkpt lat="47.26506" lon="-2.32004">
        <ele>10.800000190735</ele>
        <time>2021-04-15T08:14:42.000Z</time>
      </trkpt>
      <trkpt lat="47.26502" lon="-2.32004">
        <ele>10.39999961853</ele>
        <time>2021-04-15T08:14:43.000Z</time>
      </trkpt>
      <trkpt lat="47.26498" lon="-2.32004">
        <ele>10</ele>
        <time>2021-04-15T08:14:44.000Z</time>
      </trkpt>
      <trkpt lat="47.26494" lon="-2.32004">
        <ele>9.6000003814697</ele>
        <time>2021-04-15T08:14:45.000Z</time>
      </trkpt>
      <trkpt lat="47.2649" lon="-2.32004">
        <ele>9.1999998092651</ele>
        <time>2021-04-15T08:14:46.000Z</time>
      </trkpt>
      <trkpt lat="47.26486" lon="-2.32005">
        <ele>8.1999998092651</ele>
        <time>2021-04-15T08:14:47.000Z</time>
      </trkpt>
      <trkpt lat="47.26482" lon="-2.32006">
        <ele>7.8000001907349</ele>
        <time>2021-04-15T08:14:48.000Z</time>
      </trkpt>
      <trkpt lat="47.26478" lon="-2.32006">
        <ele>7.4000000953674</ele>
        <time>2021-04-15T08:14:49.000Z</time>
      </trkpt>
      <trkpt lat="47.26473" lon="-2.32007">
        <ele>7</ele>
        <time>2021-04-15T08:14:50.000Z</time>
      </trkpt>
      <trkpt lat="47.26456" lon="-2.32005">
        <ele>7</ele>
        <time>2021-04-15T08:14:53.000Z</time>
      </trkpt>
      <trkpt lat="47.26445" lon="-2.32003">
        <ele>6.5999999046326</ele>
        <time>2021-04-15T08:14:55.000Z</time>
      </trkpt>
      <trkpt lat="47.2644" lon="-2.32002">
        <ele>6.1999998092651</ele>
        <time>2021-04-15T08:14:56.000Z</time>
      </trkpt>
      <trkpt lat="47.26434" lon="-2.32003">
        <ele>5.8000001907349</ele>
        <time>2021-04-15T08:14:57.000Z</time>
      </trkpt>
      <trkpt lat="47.26429" lon="-2.32003">
        <ele>5.4000000953674</ele>
        <time>2021-04-15T08:14:58.000Z</time>
      </trkpt>
      <trkpt lat="47.26423" lon="-2.32003">
        <ele>5</ele>
        <time>2021-04-15T08:14:59.000Z</time>
      </trkpt>
      <trkpt lat="47.26417" lon="-2.32002">
        <ele>4.5999999046326</ele>
        <time>2021-04-15T08:15:00.000Z</time>
      </trkpt>
      <trkpt lat="47.26412" lon="-2.32002">
        <ele>4.1999998092651</ele>
        <time>2021-04-15T08:15:01.000Z</time>
      </trkpt>
      <trkpt lat="47.26407" lon="-2.32002">
        <ele>3.7999999523163</ele>
        <time>2021-04-15T08:15:02.000Z</time>
      </trkpt>
      <trkpt lat="47.264" lon="-2.32001">
        <ele>3.4000000953674</ele>
        <time>2021-04-15T08:15:03.000Z</time>
      </trkpt>
      <trkpt lat="47.26394" lon="-2.32001">
        <ele>3</ele>
        <time>2021-04-15T08:15:04.000Z</time>
      </trkpt>
      <trkpt lat="47.26388" lon="-2.32">
        <ele>2.4000000953674</ele>
        <time>2021-04-15T08:15:05.000Z</time>
      </trkpt>
      <trkpt lat="47.26382" lon="-2.32">
        <ele>2</ele>
        <time>2021-04-15T08:15:06.000Z</time>
      </trkpt>
      <trkpt lat="47.26377" lon="-2.31998">
        <ele>1.6000000238419</ele>
        <time>2021-04-15T08:15:07.000Z</time>
      </trkpt>
      <trkpt lat="47.26372" lon="-2.31993">
        <ele>1.2000000476837</ele>
        <time>2021-04-15T08:15:08.000Z</time>
      </trkpt>
      <trkpt lat="47.26369" lon="-2.31987">
        <ele>0.60000002384186</ele>
        <time>2021-04-15T08:15:09.000Z</time>
      </trkpt>
      <trkpt lat="47.26364" lon="-2.31972">
        <ele>0.60000002384186</ele>
        <time>2021-04-15T08:15:11.000Z</time>
      </trkpt>
      <trkpt lat="47.26361" lon="-2.31965">
        <ele>-0.20000000298023</ele>
        <time>2021-04-15T08:15:12.000Z</time>
      </trkpt>
      <trkpt lat="47.26359" lon="-2.31958">
        <ele>-0.60000002384186</ele>
        <time>2021-04-15T08:15:13.000Z</time>
      </trkpt>
      <trkpt lat="47.26356" lon="-2.31952">
        <ele>-1</ele>
        <time>2021-04-15T08:15:14.000Z</time>
      </trkpt>
      <trkpt lat="47.26353" lon="-2.31947">
        <ele>-1.6000000238419</ele>
        <time>2021-04-15T08:15:15.000Z</time>
      </trkpt>
      <trkpt lat="47.26344" lon="-2.31945">
        <ele>-1.6000000238419</ele>
        <time>2021-04-15T08:15:17.000Z</time>
      </trkpt>
      <trkpt lat="47.26324" lon="-2.31946">
        <ele>-1.6000000238419</ele>
        <time>2021-04-15T08:15:22.000Z</time>
      </trkpt>
      <trkpt lat="47.26321" lon="-2.31947">
        <ele>-1.6000000238419</ele>
        <time>2021-04-15T08:15:23.000Z</time>
      </trkpt>
      <trkpt lat="47.26317" lon="-2.31943">
        <ele>-1.6000000238419</ele>
        <time>2021-04-15T08:15:24.000Z</time>
      </trkpt>
      <trkpt lat="47.26314" lon="-2.31936">
        <ele>-1.6000000238419</ele>
        <time>2021-04-15T08:15:25.000Z</time>
      </trkpt>
      <trkpt lat="47.26309" lon="-2.31913">
        <ele>-1.6000000238419</ele>
        <time>2021-04-15T08:15:28.000Z</time>
      </trkpt>
      <trkpt lat="47.26306" lon="-2.31884">
        <ele>-1.6000000238419</ele>
        <time>2021-04-15T08:15:32.000Z</time>
      </trkpt>
      <trkpt lat="47.26306" lon="-2.3187">
        <ele>-1.6000000238419</ele>
        <time>2021-04-15T08:15:34.000Z</time>
      </trkpt>
      <trkpt lat="47.26305" lon="-2.31857">
        <ele>-1.6000000238419</ele>
        <time>2021-04-15T08:15:36.000Z</time>
      </trkpt>
      <trkpt lat="47.26305" lon="-2.31837">
        <ele>-1.6000000238419</ele>
        <time>2021-04-15T08:15:39.000Z</time>
      </trkpt>
      <trkpt lat="47.26306" lon="-2.31789">
        <ele>-1.6000000238419</ele>
        <time>2021-04-15T08:15:45.000Z</time>
      </trkpt>
      <trkpt lat="47.26303" lon="-2.31754">
        <ele>-1.6000000238419</ele>
        <time>2021-04-15T08:15:50.000Z</time>
      </trkpt>
      <trkpt lat="47.26303" lon="-2.31748">
        <ele>-1.6000000238419</ele>
        <time>2021-04-15T08:15:51.000Z</time>
      </trkpt>
      <trkpt lat="47.26301" lon="-2.31729">
        <ele>-1.6000000238419</ele>
        <time>2021-04-15T08:15:54.000Z</time>
      </trkpt>
      <trkpt lat="47.263" lon="-2.31722">
        <ele>-1.6000000238419</ele>
        <time>2021-04-15T08:15:55.000Z</time>
      </trkpt>
      <trkpt lat="47.26289" lon="-2.31706">
        <ele>-1.6000000238419</ele>
        <time>2021-04-15T08:15:58.000Z</time>
      </trkpt>
      <trkpt lat="47.26283" lon="-2.31694">
        <ele>-1.6000000238419</ele>
        <time>2021-04-15T08:16:00.000Z</time>
      </trkpt>
      <trkpt lat="47.26273" lon="-2.31674">
        <ele>-1.6000000238419</ele>
        <time>2021-04-15T08:16:04.000Z</time>
      </trkpt>
      <trkpt lat="47.26255" lon="-2.31639">
        <ele>-1.6000000238419</ele>
        <time>2021-04-15T08:16:11.000Z</time>
      </trkpt>
      <trkpt lat="47.26251" lon="-2.31635">
        <ele>-1.6000000238419</ele>
        <time>2021-04-15T08:16:12.000Z</time>
      </trkpt>
      <trkpt lat="47.26238" lon="-2.31619">
        <ele>-1.6000000238419</ele>
        <time>2021-04-15T08:16:16.000Z</time>
      </trkpt>
      <trkpt lat="47.26218" lon="-2.31602">
        <ele>-1.6000000238419</ele>
        <time>2021-04-15T08:16:22.000Z</time>
      </trkpt>
      <trkpt lat="47.2621" lon="-2.316">
        <ele>-1.6000000238419</ele>
        <time>2021-04-15T08:16:24.000Z</time>
      </trkpt>
      <trkpt lat="47.26201" lon="-2.316">
        <ele>-1.6000000238419</ele>
        <time>2021-04-15T08:16:26.000Z</time>
      </trkpt>
      <trkpt lat="47.26167" lon="-2.31605">
        <ele>-2</ele>
        <time>2021-04-15T08:16:33.000Z</time>
      </trkpt>
      <trkpt lat="47.26163" lon="-2.31608">
        <ele>-2.4000000953674</ele>
        <time>2021-04-15T08:16:34.000Z</time>
      </trkpt>
      <trkpt lat="47.26157" lon="-2.31609">
        <ele>-2.7999999523163</ele>
        <time>2021-04-15T08:16:35.000Z</time>
      </trkpt>
      <trkpt lat="47.26153" lon="-2.31611">
        <ele>-3.2000000476837</ele>
        <time>2021-04-15T08:16:36.000Z</time>
      </trkpt>
      <trkpt lat="47.26148" lon="-2.31613">
        <ele>-3.5999999046326</ele>
        <time>2021-04-15T08:16:37.000Z</time>
      </trkpt>
      <trkpt lat="47.26143" lon="-2.31614">
        <ele>-3.5999999046326</ele>
        <time>2021-04-15T08:16:38.000Z</time>
      </trkpt>
      <trkpt lat="47.26115" lon="-2.31616">
        <ele>-3.5999999046326</ele>
        <time>2021-04-15T08:16:44.000Z</time>
      </trkpt>
      <trkpt lat="47.26103" lon="-2.3161">
        <ele>-3.5999999046326</ele>
        <time>2021-04-15T08:16:47.000Z</time>
      </trkpt>
      <trkpt lat="47.26097" lon="-2.31602">
        <ele>-3.5999999046326</ele>
        <time>2021-04-15T08:16:49.000Z</time>
      </trkpt>
      <trkpt lat="47.26093" lon="-2.31596">
        <ele>-3.5999999046326</ele>
        <time>2021-04-15T08:16:51.000Z</time>
      </trkpt>
      <trkpt lat="47.26089" lon="-2.31589">
        <ele>-3.5999999046326</ele>
        <time>2021-04-15T08:16:54.000Z</time>
      </trkpt>
      <trkpt lat="47.26079" lon="-2.31581">
        <ele>-3.5999999046326</ele>
        <time>2021-04-15T08:17:00.000Z</time>
      </trkpt>
      <trkpt lat="47.26073" lon="-2.31574">
        <ele>-3.5999999046326</ele>
        <time>2021-04-15T08:17:06.000Z</time>
      </trkpt>
      <trkpt lat="47.26067" lon="-2.31556">
        <ele>-3.5999999046326</ele>
        <time>2021-04-15T08:17:11.000Z</time>
      </trkpt>
      <trkpt lat="47.26052" lon="-2.31528">
        <ele>-3.5999999046326</ele>
        <time>2021-04-15T08:17:17.000Z</time>
      </trkpt>
      <trkpt lat="47.26042" lon="-2.31513">
        <ele>-3.2000000476837</ele>
        <time>2021-04-15T08:17:21.000Z</time>
      </trkpt>
      <trkpt lat="47.26042" lon="-2.31509">
        <ele>-2.7999999523163</ele>
        <time>2021-04-15T08:17:22.000Z</time>
      </trkpt>
      <trkpt lat="47.26042" lon="-2.31505">
        <ele>-2.4000000953674</ele>
        <time>2021-04-15T08:17:23.000Z</time>
      </trkpt>
      <trkpt lat="47.26046" lon="-2.31502">
        <ele>-2</ele>
        <time>2021-04-15T08:17:24.000Z</time>
      </trkpt>
      <trkpt lat="47.2605" lon="-2.31498">
        <ele>-1.6000000238419</ele>
        <time>2021-04-15T08:17:25.000Z</time>
      </trkpt>
      <trkpt lat="47.26055" lon="-2.31494">
        <ele>-1.6000000238419</ele>
        <time>2021-04-15T08:17:26.000Z</time>
      </trkpt>
      <trkpt lat="47.26059" lon="-2.31483">
        <ele>-1.6000000238419</ele>
        <time>2021-04-15T08:17:28.000Z</time>
      </trkpt>
      <trkpt lat="47.26052" lon="-2.31471">
        <ele>-1.6000000238419</ele>
        <time>2021-04-15T08:17:31.000Z</time>
      </trkpt>
      <trkpt lat="47.26031" lon="-2.31457">
        <ele>-1.6000000238419</ele>
        <time>2021-04-15T08:17:36.000Z</time>
      </trkpt>
      <trkpt lat="47.26" lon="-2.31437">
        <ele>-1.6000000238419</ele>
        <time>2021-04-15T08:17:43.000Z</time>
      </trkpt>
      <trkpt lat="47.25997" lon="-2.31433">
        <ele>-1.6000000238419</ele>
        <time>2021-04-15T08:17:44.000Z</time>
      </trkpt>
      <trkpt lat="47.25996" lon="-2.31423">
        <ele>-1.6000000238419</ele>
        <time>2021-04-15T08:17:46.000Z</time>
      </trkpt>
      <trkpt lat="47.26006" lon="-2.31398">
        <ele>-1.2000000476837</ele>
        <time>2021-04-15T08:17:52.000Z</time>
      </trkpt>
      <trkpt lat="47.26006" lon="-2.31396">
        <ele>-0.60000002384186</ele>
        <time>2021-04-15T08:17:53.000Z</time>
      </trkpt>
      <trkpt lat="47.26007" lon="-2.31394">
        <ele>-0.20000000298023</ele>
        <time>2021-04-15T08:17:54.000Z</time>
      </trkpt>
      <trkpt lat="47.26008" lon="-2.31392">
        <ele>0.20000000298023</ele>
        <time>2021-04-15T08:17:55.000Z</time>
      </trkpt>
      <trkpt lat="47.26009" lon="-2.3139">
        <ele>0.60000002384186</ele>
        <time>2021-04-15T08:17:56.000Z</time>
      </trkpt>
      <trkpt lat="47.26013" lon="-2.31382">
        <ele>0.60000002384186</ele>
        <time>2021-04-15T08:18:00.000Z</time>
      </trkpt>
      <trkpt lat="47.26016" lon="-2.31365">
        <ele>0.60000002384186</ele>
        <time>2021-04-15T08:18:03.000Z</time>
      </trkpt>
      <trkpt lat="47.26017" lon="-2.31358">
        <ele>0.60000002384186</ele>
        <time>2021-04-15T08:18:04.000Z</time>
      </trkpt>
      <trkpt lat="47.26019" lon="-2.31344">
        <ele>1</ele>
        <time>2021-04-15T08:18:06.000Z</time>
      </trkpt>
      <trkpt lat="47.2602" lon="-2.31338">
        <ele>1.3999999761581</ele>
        <time>2021-04-15T08:18:07.000Z</time>
      </trkpt>
      <trkpt lat="47.26021" lon="-2.31332">
        <ele>1.7999999523163</ele>
        <time>2021-04-15T08:18:08.000Z</time>
      </trkpt>
      <trkpt lat="47.26022" lon="-2.31327">
        <ele>2.2000000476837</ele>
        <time>2021-04-15T08:18:09.000Z</time>
      </trkpt>
      <trkpt lat="47.26023" lon="-2.31321">
        <ele>2.5999999046326</ele>
        <time>2021-04-15T08:18:10.000Z</time>
      </trkpt>
      <trkpt lat="47.26032" lon="-2.31285">
        <ele>2.5999999046326</ele>
        <time>2021-04-15T08:18:17.000Z</time>
      </trkpt>
      <trkpt lat="47.26032" lon="-2.3128">
        <ele>3</ele>
        <time>2021-04-15T08:18:18.000Z</time>
      </trkpt>
      <trkpt lat="47.26033" lon="-2.31275">
        <ele>3.4000000953674</ele>
        <time>2021-04-15T08:18:19.000Z</time>
      </trkpt>
      <trkpt lat="47.26033" lon="-2.3127">
        <ele>3.7999999523163</ele>
        <time>2021-04-15T08:18:20.000Z</time>
      </trkpt>
      <trkpt lat="47.26031" lon="-2.31266">
        <ele>4.1999998092651</ele>
        <time>2021-04-15T08:18:21.000Z</time>
      </trkpt>
      <trkpt lat="47.26028" lon="-2.31263">
        <ele>4.5999999046326</ele>
        <time>2021-04-15T08:18:22.000Z</time>
      </trkpt>
      <trkpt lat="47.2602" lon="-2.31261">
        <ele>4.5999999046326</ele>
        <time>2021-04-15T08:18:24.000Z</time>
      </trkpt>
      <trkpt lat="47.26007" lon="-2.31259">
        <ele>4.5999999046326</ele>
        <time>2021-04-15T08:18:27.000Z</time>
      </trkpt>
      <trkpt lat="47.25979" lon="-2.31254">
        <ele>4.5999999046326</ele>
        <time>2021-04-15T08:18:33.000Z</time>
      </trkpt>
      <trkpt lat="47.2595" lon="-2.31246">
        <ele>4.5999999046326</ele>
        <time>2021-04-15T08:18:39.000Z</time>
      </trkpt>
      <trkpt lat="47.25946" lon="-2.31244">
        <ele>4.5999999046326</ele>
        <time>2021-04-15T08:18:40.000Z</time>
      </trkpt>
      <trkpt lat="47.25924" lon="-2.31224">
        <ele>4.5999999046326</ele>
        <time>2021-04-15T08:18:45.000Z</time>
      </trkpt>
      <trkpt lat="47.25914" lon="-2.31206">
        <ele>4.5999999046326</ele>
        <time>2021-04-15T08:18:48.000Z</time>
      </trkpt>
      <trkpt lat="47.25912" lon="-2.31199">
        <ele>4.5999999046326</ele>
        <time>2021-04-15T08:18:49.000Z</time>
      </trkpt>
      <trkpt lat="47.25902" lon="-2.31165">
        <ele>4.5999999046326</ele>
        <time>2021-04-15T08:18:54.000Z</time>
      </trkpt>
      <trkpt lat="47.25896" lon="-2.31154">
        <ele>4.5999999046326</ele>
        <time>2021-04-15T08:18:56.000Z</time>
      </trkpt>
      <trkpt lat="47.25884" lon="-2.31141">
        <ele>4.5999999046326</ele>
        <time>2021-04-15T08:18:59.000Z</time>
      </trkpt>
      <trkpt lat="47.25875" lon="-2.31134">
        <ele>4.5999999046326</ele>
        <time>2021-04-15T08:19:01.000Z</time>
      </trkpt>
      <trkpt lat="47.25848" lon="-2.31107">
        <ele>4.5999999046326</ele>
        <time>2021-04-15T08:19:08.000Z</time>
      </trkpt>
      <trkpt lat="47.25842" lon="-2.311">
        <ele>5</ele>
        <time>2021-04-15T08:19:10.000Z</time>
      </trkpt>
      <trkpt lat="47.2584" lon="-2.31097">
        <ele>5.5999999046326</ele>
        <time>2021-04-15T08:19:11.000Z</time>
      </trkpt>
      <trkpt lat="47.25837" lon="-2.31094">
        <ele>6</ele>
        <time>2021-04-15T08:19:12.000Z</time>
      </trkpt>
      <trkpt lat="47.25834" lon="-2.31092">
        <ele>6.4000000953674</ele>
        <time>2021-04-15T08:19:13.000Z</time>
      </trkpt>
      <trkpt lat="47.25832" lon="-2.31092">
        <ele>6.8000001907349</ele>
        <time>2021-04-15T08:19:14.000Z</time>
      </trkpt>
      <trkpt lat="47.25817" lon="-2.31105">
        <ele>6.8000001907349</ele>
        <time>2021-04-15T08:19:19.000Z</time>
      </trkpt>
      <trkpt lat="47.25794" lon="-2.31128">
        <ele>6.8000001907349</ele>
        <time>2021-04-15T08:19:25.000Z</time>
      </trkpt>
      <trkpt lat="47.2579" lon="-2.31129">
        <ele>6.8000001907349</ele>
        <time>2021-04-15T08:19:26.000Z</time>
      </trkpt>
      <trkpt lat="47.2578" lon="-2.31115">
        <ele>6.8000001907349</ele>
        <time>2021-04-15T08:19:29.000Z</time>
      </trkpt>
      <trkpt lat="47.25778" lon="-2.31109">
        <ele>6.8000001907349</ele>
        <time>2021-04-15T08:19:30.000Z</time>
      </trkpt>
      <trkpt lat="47.25767" lon="-2.31081">
        <ele>6.8000001907349</ele>
        <time>2021-04-15T08:19:35.000Z</time>
      </trkpt>
      <trkpt lat="47.2576" lon="-2.31064">
        <ele>6.8000001907349</ele>
        <time>2021-04-15T08:19:38.000Z</time>
      </trkpt>
      <trkpt lat="47.25759" lon="-2.31058">
        <ele>6.8000001907349</ele>
        <time>2021-04-15T08:19:39.000Z</time>
      </trkpt>
      <trkpt lat="47.2576" lon="-2.31052">
        <ele>7.1999998092651</ele>
        <time>2021-04-15T08:19:40.000Z</time>
      </trkpt>
      <trkpt lat="47.25761" lon="-2.31048">
        <ele>7.5999999046326</ele>
        <time>2021-04-15T08:19:41.000Z</time>
      </trkpt>
      <trkpt lat="47.25762" lon="-2.31043">
        <ele>8</ele>
        <time>2021-04-15T08:19:42.000Z</time>
      </trkpt>
      <trkpt lat="47.25763" lon="-2.31037">
        <ele>9</ele>
        <time>2021-04-15T08:19:43.000Z</time>
      </trkpt>
      <trkpt lat="47.25769" lon="-2.31013">
        <ele>9.3999996185303</ele>
        <time>2021-04-15T08:19:47.000Z</time>
      </trkpt>
      <trkpt lat="47.25771" lon="-2.31006">
        <ele>9.8000001907349</ele>
        <time>2021-04-15T08:19:48.000Z</time>
      </trkpt>
      <trkpt lat="47.25773" lon="-2.31">
        <ele>10.199999809265</ele>
        <time>2021-04-15T08:19:49.000Z</time>
      </trkpt>
      <trkpt lat="47.25774" lon="-2.30995">
        <ele>10.60000038147</ele>
        <time>2021-04-15T08:19:50.000Z</time>
      </trkpt>
      <trkpt lat="47.25776" lon="-2.30989">
        <ele>11</ele>
        <time>2021-04-15T08:19:51.000Z</time>
      </trkpt>
      <trkpt lat="47.25781" lon="-2.30968">
        <ele>11</ele>
        <time>2021-04-15T08:19:55.000Z</time>
      </trkpt>
      <trkpt lat="47.2579" lon="-2.30938">
        <ele>11</ele>
        <time>2021-04-15T08:20:01.000Z</time>
      </trkpt>
      <trkpt lat="47.25786" lon="-2.30924">
        <ele>11.39999961853</ele>
        <time>2021-04-15T08:20:04.000Z</time>
      </trkpt>
      <trkpt lat="47.25786" lon="-2.30918">
        <ele>12</ele>
        <time>2021-04-15T08:20:05.000Z</time>
      </trkpt>
      <trkpt lat="47.25786" lon="-2.30911">
        <ele>12.39999961853</ele>
        <time>2021-04-15T08:20:06.000Z</time>
      </trkpt>
      <trkpt lat="47.25786" lon="-2.30904">
        <ele>13.39999961853</ele>
        <time>2021-04-15T08:20:07.000Z</time>
      </trkpt>
      <trkpt lat="47.25787" lon="-2.30897">
        <ele>13.39999961853</ele>
        <time>2021-04-15T08:20:08.000Z</time>
      </trkpt>
      <trkpt lat="47.2579" lon="-2.30884">
        <ele>13.39999961853</ele>
        <time>2021-04-15T08:20:10.000Z</time>
      </trkpt>
      <trkpt lat="47.25797" lon="-2.30834">
        <ele>13.39999961853</ele>
        <time>2021-04-15T08:20:17.000Z</time>
      </trkpt>
      <trkpt lat="47.25799" lon="-2.30821">
        <ele>13.800000190735</ele>
        <time>2021-04-15T08:20:19.000Z</time>
      </trkpt>
      <trkpt lat="47.258" lon="-2.30814">
        <ele>14.199999809265</ele>
        <time>2021-04-15T08:20:20.000Z</time>
      </trkpt>
      <trkpt lat="47.25801" lon="-2.30807">
        <ele>14.60000038147</ele>
        <time>2021-04-15T08:20:21.000Z</time>
      </trkpt>
      <trkpt lat="47.25802" lon="-2.308">
        <ele>15</ele>
        <time>2021-04-15T08:20:22.000Z</time>
      </trkpt>
      <trkpt lat="47.25802" lon="-2.30793">
        <ele>15.39999961853</ele>
        <time>2021-04-15T08:20:23.000Z</time>
      </trkpt>
      <trkpt lat="47.25804" lon="-2.30779">
        <ele>15.39999961853</ele>
        <time>2021-04-15T08:20:25.000Z</time>
      </trkpt>
      <trkpt lat="47.25811" lon="-2.30742">
        <ele>15.39999961853</ele>
        <time>2021-04-15T08:20:31.000Z</time>
      </trkpt>
      <trkpt lat="47.25815" lon="-2.30721">
        <ele>15.39999961853</ele>
        <time>2021-04-15T08:20:35.000Z</time>
      </trkpt>
      <trkpt lat="47.25817" lon="-2.30709">
        <ele>15.39999961853</ele>
        <time>2021-04-15T08:20:37.000Z</time>
      </trkpt>
      <trkpt lat="47.25824" lon="-2.30662">
        <ele>15.39999961853</ele>
        <time>2021-04-15T08:20:44.000Z</time>
      </trkpt>
      <trkpt lat="47.25832" lon="-2.30624">
        <ele>15.39999961853</ele>
        <time>2021-04-15T08:20:50.000Z</time>
      </trkpt>
      <trkpt lat="47.25834" lon="-2.30611">
        <ele>15.800000190735</ele>
        <time>2021-04-15T08:20:52.000Z</time>
      </trkpt>
      <trkpt lat="47.25836" lon="-2.30605">
        <ele>16.200000762939</ele>
        <time>2021-04-15T08:20:53.000Z</time>
      </trkpt>
      <trkpt lat="47.25837" lon="-2.30598">
        <ele>16.60000038147</ele>
        <time>2021-04-15T08:20:54.000Z</time>
      </trkpt>
      <trkpt lat="47.25838" lon="-2.30592">
        <ele>17</ele>
        <time>2021-04-15T08:20:55.000Z</time>
      </trkpt>
      <trkpt lat="47.2584" lon="-2.30586">
        <ele>17.39999961853</ele>
        <time>2021-04-15T08:20:56.000Z</time>
      </trkpt>
      <trkpt lat="47.25841" lon="-2.3058">
        <ele>17.39999961853</ele>
        <time>2021-04-15T08:20:57.000Z</time>
      </trkpt>
      <trkpt lat="47.25857" lon="-2.30528">
        <ele>17.39999961853</ele>
        <time>2021-04-15T08:21:05.000Z</time>
      </trkpt>
      <trkpt lat="47.25872" lon="-2.30482">
        <ele>17.39999961853</ele>
        <time>2021-04-15T08:21:12.000Z</time>
      </trkpt>
      <trkpt lat="47.2589" lon="-2.30431">
        <ele>17.39999961853</ele>
        <time>2021-04-15T08:21:20.000Z</time>
      </trkpt>
      <trkpt lat="47.25899" lon="-2.30386">
        <ele>17.39999961853</ele>
        <time>2021-04-15T08:21:26.000Z</time>
      </trkpt>
      <trkpt lat="47.25899" lon="-2.30379">
        <ele>17.39999961853</ele>
        <time>2021-04-15T08:21:27.000Z</time>
      </trkpt>
      <trkpt lat="47.259" lon="-2.30364">
        <ele>17</ele>
        <time>2021-04-15T08:21:29.000Z</time>
      </trkpt>
      <trkpt lat="47.259" lon="-2.30357">
        <ele>16.60000038147</ele>
        <time>2021-04-15T08:21:30.000Z</time>
      </trkpt>
      <trkpt lat="47.25901" lon="-2.3035">
        <ele>16.200000762939</ele>
        <time>2021-04-15T08:21:31.000Z</time>
      </trkpt>
      <trkpt lat="47.25901" lon="-2.30343">
        <ele>15.800000190735</ele>
        <time>2021-04-15T08:21:32.000Z</time>
      </trkpt>
      <trkpt lat="47.259" lon="-2.30336">
        <ele>15.199999809265</ele>
        <time>2021-04-15T08:21:33.000Z</time>
      </trkpt>
      <trkpt lat="47.25899" lon="-2.30329">
        <ele>15.199999809265</ele>
        <time>2021-04-15T08:21:34.000Z</time>
      </trkpt>
      <trkpt lat="47.25889" lon="-2.30314">
        <ele>15.199999809265</ele>
        <time>2021-04-15T08:21:37.000Z</time>
      </trkpt>
      <trkpt lat="47.25873" lon="-2.30291">
        <ele>15.199999809265</ele>
        <time>2021-04-15T08:21:42.000Z</time>
      </trkpt>
      <trkpt lat="47.25879" lon="-2.30271">
        <ele>15.199999809265</ele>
        <time>2021-04-15T08:21:45.000Z</time>
      </trkpt>
      <trkpt lat="47.25886" lon="-2.3026">
        <ele>15.199999809265</ele>
        <time>2021-04-15T08:21:47.000Z</time>
      </trkpt>
      <trkpt lat="47.25889" lon="-2.30254">
        <ele>15.199999809265</ele>
        <time>2021-04-15T08:21:48.000Z</time>
      </trkpt>
      <trkpt lat="47.25892" lon="-2.3024">
        <ele>15.199999809265</ele>
        <time>2021-04-15T08:21:50.000Z</time>
      </trkpt>
      <trkpt lat="47.25892" lon="-2.30218">
        <ele>14.800000190735</ele>
        <time>2021-04-15T08:21:53.000Z</time>
      </trkpt>
      <trkpt lat="47.25891" lon="-2.30212">
        <ele>14.39999961853</ele>
        <time>2021-04-15T08:21:54.000Z</time>
      </trkpt>
      <trkpt lat="47.2589" lon="-2.30205">
        <ele>14</ele>
        <time>2021-04-15T08:21:55.000Z</time>
      </trkpt>
      <trkpt lat="47.25889" lon="-2.30199">
        <ele>13.60000038147</ele>
        <time>2021-04-15T08:21:56.000Z</time>
      </trkpt>
      <trkpt lat="47.25889" lon="-2.30192">
        <ele>13.199999809265</ele>
        <time>2021-04-15T08:21:57.000Z</time>
      </trkpt>
      <trkpt lat="47.2589" lon="-2.3018">
        <ele>13.199999809265</ele>
        <time>2021-04-15T08:21:59.000Z</time>
      </trkpt>
      <trkpt lat="47.25897" lon="-2.30173">
        <ele>13.199999809265</ele>
        <time>2021-04-15T08:22:01.000Z</time>
      </trkpt>
      <trkpt lat="47.25917" lon="-2.30168">
        <ele>13.199999809265</ele>
        <time>2021-04-15T08:22:05.000Z</time>
      </trkpt>
      <trkpt lat="47.25949" lon="-2.30162">
        <ele>13.199999809265</ele>
        <time>2021-04-15T08:22:10.000Z</time>
      </trkpt>
      <trkpt lat="47.25955" lon="-2.30158">
        <ele>12.39999961853</ele>
        <time>2021-04-15T08:22:11.000Z</time>
      </trkpt>
      <trkpt lat="47.2596" lon="-2.30154">
        <ele>11.800000190735</ele>
        <time>2021-04-15T08:22:12.000Z</time>
      </trkpt>
      <trkpt lat="47.25965" lon="-2.30149">
        <ele>11.39999961853</ele>
        <time>2021-04-15T08:22:13.000Z</time>
      </trkpt>
      <trkpt lat="47.25969" lon="-2.30143">
        <ele>11</ele>
        <time>2021-04-15T08:22:14.000Z</time>
      </trkpt>
      <trkpt lat="47.25976" lon="-2.30134">
        <ele>11</ele>
        <time>2021-04-15T08:22:16.000Z</time>
      </trkpt>
      <trkpt lat="47.25991" lon="-2.30129">
        <ele>11</ele>
        <time>2021-04-15T08:22:20.000Z</time>
      </trkpt>
      <trkpt lat="47.26004" lon="-2.30128">
        <ele>11</ele>
        <time>2021-04-15T08:22:23.000Z</time>
      </trkpt>
      <trkpt lat="47.26008" lon="-2.30128">
        <ele>11</ele>
        <time>2021-04-15T08:22:24.000Z</time>
      </trkpt>
      <trkpt lat="47.26022" lon="-2.30132">
        <ele>11</ele>
        <time>2021-04-15T08:22:28.000Z</time>
      </trkpt>
      <trkpt lat="47.26035" lon="-2.3013">
        <ele>11</ele>
        <time>2021-04-15T08:22:32.000Z</time>
      </trkpt>
      <trkpt lat="47.26043" lon="-2.30128">
        <ele>11.39999961853</ele>
        <time>2021-04-15T08:22:34.000Z</time>
      </trkpt>
      <trkpt lat="47.26047" lon="-2.30127">
        <ele>11.800000190735</ele>
        <time>2021-04-15T08:22:35.000Z</time>
      </trkpt>
      <trkpt lat="47.2605" lon="-2.30128">
        <ele>12.60000038147</ele>
        <time>2021-04-15T08:22:36.000Z</time>
      </trkpt>
      <trkpt lat="47.26054" lon="-2.3013">
        <ele>13</ele>
        <time>2021-04-15T08:22:37.000Z</time>
      </trkpt>
      <trkpt lat="47.26066" lon="-2.30139">
        <ele>13</ele>
        <time>2021-04-15T08:22:40.000Z</time>
      </trkpt>
      <trkpt lat="47.2607" lon="-2.3014">
        <ele>13</ele>
        <time>2021-04-15T08:22:41.000Z</time>
      </trkpt>
      <trkpt lat="47.26083" lon="-2.30141">
        <ele>13.39999961853</ele>
        <time>2021-04-15T08:22:44.000Z</time>
      </trkpt>
      <trkpt lat="47.26086" lon="-2.30141">
        <ele>13.800000190735</ele>
        <time>2021-04-15T08:22:45.000Z</time>
      </trkpt>
      <trkpt lat="47.26088" lon="-2.30141">
        <ele>14.199999809265</ele>
        <time>2021-04-15T08:22:46.000Z</time>
      </trkpt>
      <trkpt lat="47.2609" lon="-2.30142">
        <ele>14.60000038147</ele>
        <time>2021-04-15T08:22:47.000Z</time>
      </trkpt>
      <trkpt lat="47.26092" lon="-2.30143">
        <ele>15</ele>
        <time>2021-04-15T08:22:48.000Z</time>
      </trkpt>
      <trkpt lat="47.26098" lon="-2.30146">
        <ele>15</ele>
        <time>2021-04-15T08:22:51.000Z</time>
      </trkpt>
      <trkpt lat="47.26101" lon="-2.30145">
        <ele>15</ele>
        <time>2021-04-15T08:22:52.000Z</time>
      </trkpt>
      <trkpt lat="47.26123" lon="-2.3014">
        <ele>15.39999961853</ele>
        <time>2021-04-15T08:22:58.000Z</time>
      </trkpt>
      <trkpt lat="47.26127" lon="-2.30139">
        <ele>15.800000190735</ele>
        <time>2021-04-15T08:22:59.000Z</time>
      </trkpt>
      <trkpt lat="47.2613" lon="-2.30139">
        <ele>16.39999961853</ele>
        <time>2021-04-15T08:23:00.000Z</time>
      </trkpt>
      <trkpt lat="47.26133" lon="-2.30138">
        <ele>17.200000762939</ele>
        <time>2021-04-15T08:23:01.000Z</time>
      </trkpt>
      <trkpt lat="47.26143" lon="-2.30137">
        <ele>17.200000762939</ele>
        <time>2021-04-15T08:23:04.000Z</time>
      </trkpt>
      <trkpt lat="47.26157" lon="-2.30136">
        <ele>17.60000038147</ele>
        <time>2021-04-15T08:23:09.000Z</time>
      </trkpt>
      <trkpt lat="47.26159" lon="-2.30136">
        <ele>18</ele>
        <time>2021-04-15T08:23:10.000Z</time>
      </trkpt>
      <trkpt lat="47.26162" lon="-2.30137">
        <ele>18.60000038147</ele>
        <time>2021-04-15T08:23:11.000Z</time>
      </trkpt>
      <trkpt lat="47.26163" lon="-2.3014">
        <ele>19</ele>
        <time>2021-04-15T08:23:12.000Z</time>
      </trkpt>
      <trkpt lat="47.26165" lon="-2.30144">
        <ele>19.39999961853</ele>
        <time>2021-04-15T08:23:13.000Z</time>
      </trkpt>
      <trkpt lat="47.26173" lon="-2.30149">
        <ele>19.39999961853</ele>
        <time>2021-04-15T08:23:16.000Z</time>
      </trkpt>
      <trkpt lat="47.26179" lon="-2.30147">
        <ele>19.39999961853</ele>
        <time>2021-04-15T08:23:18.000Z</time>
      </trkpt>
      <trkpt lat="47.26195" lon="-2.30142">
        <ele>19.39999961853</ele>
        <time>2021-04-15T08:23:23.000Z</time>
      </trkpt>
      <trkpt lat="47.26201" lon="-2.30139">
        <ele>19.799999237061</ele>
        <time>2021-04-15T08:23:25.000Z</time>
      </trkpt>
      <trkpt lat="47.26204" lon="-2.30139">
        <ele>20.60000038147</ele>
        <time>2021-04-15T08:23:26.000Z</time>
      </trkpt>
      <trkpt lat="47.26208" lon="-2.30138">
        <ele>21</ele>
        <time>2021-04-15T08:23:27.000Z</time>
      </trkpt>
      <trkpt lat="47.26211" lon="-2.30136">
        <ele>21.39999961853</ele>
        <time>2021-04-15T08:23:28.000Z</time>
      </trkpt>
      <trkpt lat="47.26217" lon="-2.30134">
        <ele>21.39999961853</ele>
        <time>2021-04-15T08:23:30.000Z</time>
      </trkpt>
      <trkpt lat="47.26235" lon="-2.30129">
        <ele>21.39999961853</ele>
        <time>2021-04-15T08:23:37.000Z</time>
      </trkpt>
      <trkpt lat="47.26244" lon="-2.30131">
        <ele>21.39999961853</ele>
        <time>2021-04-15T08:23:42.000Z</time>
      </trkpt>
      <trkpt lat="47.26245" lon="-2.30133">
        <ele>21.39999961853</ele>
        <time>2021-04-15T08:23:44.000Z</time>
      </trkpt>
      <trkpt lat="47.26245" lon="-2.30133">
        <ele>21.39999961853</ele>
        <time>2021-04-15T08:23:50.000Z</time>
      </trkpt>
      <trkpt lat="47.26247" lon="-2.30135">
        <ele>21.39999961853</ele>
        <time>2021-04-15T08:23:51.000Z</time>
      </trkpt>
      <trkpt lat="47.26254" lon="-2.30152">
        <ele>21.39999961853</ele>
        <time>2021-04-15T08:23:56.000Z</time>
      </trkpt>
      <trkpt lat="47.26269" lon="-2.30174">
        <ele>21.39999961853</ele>
        <time>2021-04-15T08:24:02.000Z</time>
      </trkpt>
      <trkpt lat="47.26277" lon="-2.302">
        <ele>21.39999961853</ele>
        <time>2021-04-15T08:24:07.000Z</time>
      </trkpt>
      <trkpt lat="47.26284" lon="-2.30245">
        <ele>21.39999961853</ele>
        <time>2021-04-15T08:24:13.000Z</time>
      </trkpt>
      <trkpt lat="47.26291" lon="-2.30289">
        <ele>21.39999961853</ele>
        <time>2021-04-15T08:24:19.000Z</time>
      </trkpt>
      <trkpt lat="47.26306" lon="-2.3034">
        <ele>21.39999961853</ele>
        <time>2021-04-15T08:24:27.000Z</time>
      </trkpt>
      <trkpt lat="47.26313" lon="-2.30392">
        <ele>21.39999961853</ele>
        <time>2021-04-15T08:24:34.000Z</time>
      </trkpt>
      <trkpt lat="47.26321" lon="-2.3044">
        <ele>21.39999961853</ele>
        <time>2021-04-15T08:24:41.000Z</time>
      </trkpt>
      <trkpt lat="47.26327" lon="-2.30468">
        <ele>21.39999961853</ele>
        <time>2021-04-15T08:24:45.000Z</time>
      </trkpt>
      <trkpt lat="47.26331" lon="-2.3049">
        <ele>21.39999961853</ele>
        <time>2021-04-15T08:24:48.000Z</time>
      </trkpt>
      <trkpt lat="47.26336" lon="-2.30515">
        <ele>21.39999961853</ele>
        <time>2021-04-15T08:24:52.000Z</time>
      </trkpt>
      <trkpt lat="47.26338" lon="-2.30527">
        <ele>21.39999961853</ele>
        <time>2021-04-15T08:24:54.000Z</time>
      </trkpt>
      <trkpt lat="47.2634" lon="-2.30533">
        <ele>21.39999961853</ele>
        <time>2021-04-15T08:24:55.000Z</time>
      </trkpt>
      <trkpt lat="47.26346" lon="-2.30556">
        <ele>21.39999961853</ele>
        <time>2021-04-15T08:24:59.000Z</time>
      </trkpt>
      <trkpt lat="47.26348" lon="-2.30571">
        <ele>21.39999961853</ele>
        <time>2021-04-15T08:25:02.000Z</time>
      </trkpt>
      <trkpt lat="47.26348" lon="-2.30576">
        <ele>21</ele>
        <time>2021-04-15T08:25:03.000Z</time>
      </trkpt>
      <trkpt lat="47.26349" lon="-2.30582">
        <ele>20.200000762939</ele>
        <time>2021-04-15T08:25:04.000Z</time>
      </trkpt>
      <trkpt lat="47.2635" lon="-2.30589">
        <ele>19.799999237061</ele>
        <time>2021-04-15T08:25:05.000Z</time>
      </trkpt>
      <trkpt lat="47.26352" lon="-2.30596">
        <ele>19.39999961853</ele>
        <time>2021-04-15T08:25:06.000Z</time>
      </trkpt>
      <trkpt lat="47.26358" lon="-2.3061">
        <ele>19.39999961853</ele>
        <time>2021-04-15T08:25:08.000Z</time>
      </trkpt>
      <trkpt lat="47.26378" lon="-2.30649">
        <ele>19.39999961853</ele>
        <time>2021-04-15T08:25:15.000Z</time>
      </trkpt>
      <trkpt lat="47.26385" lon="-2.3066">
        <ele>19.39999961853</ele>
        <time>2021-04-15T08:25:17.000Z</time>
      </trkpt>
      <trkpt lat="47.26394" lon="-2.30667">
        <ele>19.39999961853</ele>
        <time>2021-04-15T08:25:19.000Z</time>
      </trkpt>
      <trkpt lat="47.26417" lon="-2.30682">
        <ele>19.39999961853</ele>
        <time>2021-04-15T08:25:25.000Z</time>
      </trkpt>
      <trkpt lat="47.26424" lon="-2.30701">
        <ele>19.39999961853</ele>
        <time>2021-04-15T08:25:29.000Z</time>
      </trkpt>
      <trkpt lat="47.26439" lon="-2.30729">
        <ele>19.39999961853</ele>
        <time>2021-04-15T08:25:35.000Z</time>
      </trkpt>
      <trkpt lat="47.26443" lon="-2.30739">
        <ele>19</ele>
        <time>2021-04-15T08:25:37.000Z</time>
      </trkpt>
      <trkpt lat="47.26445" lon="-2.30745">
        <ele>18.60000038147</ele>
        <time>2021-04-15T08:25:38.000Z</time>
      </trkpt>
      <trkpt lat="47.26447" lon="-2.30751">
        <ele>18.200000762939</ele>
        <time>2021-04-15T08:25:39.000Z</time>
      </trkpt>
      <trkpt lat="47.2645" lon="-2.30757">
        <ele>17.60000038147</ele>
        <time>2021-04-15T08:25:40.000Z</time>
      </trkpt>
      <trkpt lat="47.26453" lon="-2.30764">
        <ele>17.200000762939</ele>
        <time>2021-04-15T08:25:41.000Z</time>
      </trkpt>
      <trkpt lat="47.26468" lon="-2.30803">
        <ele>17.200000762939</ele>
        <time>2021-04-15T08:25:47.000Z</time>
      </trkpt>
      <trkpt lat="47.2647" lon="-2.30809">
        <ele>17.200000762939</ele>
        <time>2021-04-15T08:25:48.000Z</time>
      </trkpt>
      <trkpt lat="47.26472" lon="-2.30815">
        <ele>16.799999237061</ele>
        <time>2021-04-15T08:25:49.000Z</time>
      </trkpt>
      <trkpt lat="47.26474" lon="-2.30821">
        <ele>16.39999961853</ele>
        <time>2021-04-15T08:25:50.000Z</time>
      </trkpt>
      <trkpt lat="47.26476" lon="-2.30826">
        <ele>16</ele>
        <time>2021-04-15T08:25:51.000Z</time>
      </trkpt>
      <trkpt lat="47.26478" lon="-2.30831">
        <ele>15.60000038147</ele>
        <time>2021-04-15T08:25:52.000Z</time>
      </trkpt>
      <trkpt lat="47.26479" lon="-2.30837">
        <ele>15.199999809265</ele>
        <time>2021-04-15T08:25:53.000Z</time>
      </trkpt>
      <trkpt lat="47.26486" lon="-2.30852">
        <ele>14.60000038147</ele>
        <time>2021-04-15T08:25:56.000Z</time>
      </trkpt>
      <trkpt lat="47.26489" lon="-2.30857">
        <ele>14.199999809265</ele>
        <time>2021-04-15T08:25:57.000Z</time>
      </trkpt>
      <trkpt lat="47.26491" lon="-2.30862">
        <ele>13.800000190735</ele>
        <time>2021-04-15T08:25:58.000Z</time>
      </trkpt>
      <trkpt lat="47.26493" lon="-2.30867">
        <ele>13.39999961853</ele>
        <time>2021-04-15T08:25:59.000Z</time>
      </trkpt>
      <trkpt lat="47.26495" lon="-2.30871">
        <ele>12.800000190735</ele>
        <time>2021-04-15T08:26:00.000Z</time>
      </trkpt>
      <trkpt lat="47.26497" lon="-2.30875">
        <ele>12.199999809265</ele>
        <time>2021-04-15T08:26:01.000Z</time>
      </trkpt>
      <trkpt lat="47.26499" lon="-2.30879">
        <ele>11.800000190735</ele>
        <time>2021-04-15T08:26:02.000Z</time>
      </trkpt>
      <trkpt lat="47.26502" lon="-2.30881">
        <ele>11.199999809265</ele>
        <time>2021-04-15T08:26:03.000Z</time>
      </trkpt>
      <trkpt lat="47.26505" lon="-2.30881">
        <ele>10.800000190735</ele>
        <time>2021-04-15T08:26:04.000Z</time>
      </trkpt>
      <trkpt lat="47.26508" lon="-2.30879">
        <ele>10.199999809265</ele>
        <time>2021-04-15T08:26:05.000Z</time>
      </trkpt>
      <trkpt lat="47.26511" lon="-2.30876">
        <ele>9.6000003814697</ele>
        <time>2021-04-15T08:26:06.000Z</time>
      </trkpt>
      <trkpt lat="47.26514" lon="-2.30873">
        <ele>9</ele>
        <time>2021-04-15T08:26:07.000Z</time>
      </trkpt>
      <trkpt lat="47.26518" lon="-2.3087">
        <ele>8.6000003814697</ele>
        <time>2021-04-15T08:26:08.000Z</time>
      </trkpt>
      <trkpt lat="47.26521" lon="-2.30868">
        <ele>8.6000003814697</ele>
        <time>2021-04-15T08:26:09.000Z</time>
      </trkpt>
      <trkpt lat="47.26537" lon="-2.30846">
        <ele>8.6000003814697</ele>
        <time>2021-04-15T08:26:15.000Z</time>
      </trkpt>
      <trkpt lat="47.26547" lon="-2.30834">
        <ele>9</ele>
        <time>2021-04-15T08:26:19.000Z</time>
      </trkpt>
      <trkpt lat="47.26549" lon="-2.30832">
        <ele>9.3999996185303</ele>
        <time>2021-04-15T08:26:20.000Z</time>
      </trkpt>
      <trkpt lat="47.26552" lon="-2.3083">
        <ele>9.8000001907349</ele>
        <time>2021-04-15T08:26:21.000Z</time>
      </trkpt>
      <trkpt lat="47.26554" lon="-2.30827">
        <ele>10.199999809265</ele>
        <time>2021-04-15T08:26:22.000Z</time>
      </trkpt>
      <trkpt lat="47.26555" lon="-2.30823">
        <ele>10.60000038147</ele>
        <time>2021-04-15T08:26:23.000Z</time>
      </trkpt>
      <trkpt lat="47.26557" lon="-2.30819">
        <ele>10.60000038147</ele>
        <time>2021-04-15T08:26:24.000Z</time>
      </trkpt>
      <trkpt lat="47.26571" lon="-2.30792">
        <ele>10.60000038147</ele>
        <time>2021-04-15T08:26:31.000Z</time>
      </trkpt>
      <trkpt lat="47.26577" lon="-2.30784">
        <ele>11</ele>
        <time>2021-04-15T08:26:33.000Z</time>
      </trkpt>
      <trkpt lat="47.2658" lon="-2.3078">
        <ele>11.39999961853</ele>
        <time>2021-04-15T08:26:34.000Z</time>
      </trkpt>
      <trkpt lat="47.26583" lon="-2.30777">
        <ele>11.800000190735</ele>
        <time>2021-04-15T08:26:35.000Z</time>
      </trkpt>
      <trkpt lat="47.26585" lon="-2.30774">
        <ele>12.199999809265</ele>
        <time>2021-04-15T08:26:36.000Z</time>
      </trkpt>
      <trkpt lat="47.26588" lon="-2.30771">
        <ele>12.60000038147</ele>
        <time>2021-04-15T08:26:37.000Z</time>
      </trkpt>
      <trkpt lat="47.26595" lon="-2.30766">
        <ele>12.60000038147</ele>
        <time>2021-04-15T08:26:41.000Z</time>
      </trkpt>
      <trkpt lat="47.26599" lon="-2.30761">
        <ele>12.60000038147</ele>
        <time>2021-04-15T08:26:44.000Z</time>
      </trkpt>
      <trkpt lat="47.26601" lon="-2.30753">
        <ele>12.60000038147</ele>
        <time>2021-04-15T08:26:47.000Z</time>
      </trkpt>
      <trkpt lat="47.26608" lon="-2.30732">
        <ele>12.60000038147</ele>
        <time>2021-04-15T08:26:53.000Z</time>
      </trkpt>
      <trkpt lat="47.2661" lon="-2.3073">
        <ele>12.60000038147</ele>
        <time>2021-04-15T08:26:54.000Z</time>
      </trkpt>
      <trkpt lat="47.26617" lon="-2.3072">
        <ele>12.60000038147</ele>
        <time>2021-04-15T08:26:58.000Z</time>
      </trkpt>
      <trkpt lat="47.26624" lon="-2.3071">
        <ele>13</ele>
        <time>2021-04-15T08:27:02.000Z</time>
      </trkpt>
      <trkpt lat="47.26627" lon="-2.30706">
        <ele>13.60000038147</ele>
        <time>2021-04-15T08:27:03.000Z</time>
      </trkpt>
      <trkpt lat="47.26629" lon="-2.30702">
        <ele>14</ele>
        <time>2021-04-15T08:27:04.000Z</time>
      </trkpt>
      <trkpt lat="47.26631" lon="-2.30698">
        <ele>14.39999961853</ele>
        <time>2021-04-15T08:27:05.000Z</time>
      </trkpt>
      <trkpt lat="47.26633" lon="-2.30695">
        <ele>14.800000190735</ele>
        <time>2021-04-15T08:27:06.000Z</time>
      </trkpt>
      <trkpt lat="47.26635" lon="-2.30696">
        <ele>14.800000190735</ele>
        <time>2021-04-15T08:27:08.000Z</time>
      </trkpt>
      <trkpt lat="47.26639" lon="-2.30707">
        <ele>14.800000190735</ele>
        <time>2021-04-15T08:27:12.000Z</time>
      </trkpt>
      <trkpt lat="47.26642" lon="-2.30712">
        <ele>14.800000190735</ele>
        <time>2021-04-15T08:27:13.000Z</time>
      </trkpt>
      <trkpt lat="47.26654" lon="-2.30733">
        <ele>14.800000190735</ele>
        <time>2021-04-15T08:27:17.000Z</time>
      </trkpt>
      <trkpt lat="47.26659" lon="-2.30743">
        <ele>15.199999809265</ele>
        <time>2021-04-15T08:27:19.000Z</time>
      </trkpt>
      <trkpt lat="47.26662" lon="-2.30747">
        <ele>15.60000038147</ele>
        <time>2021-04-15T08:27:20.000Z</time>
      </trkpt>
      <trkpt lat="47.26666" lon="-2.30753">
        <ele>16</ele>
        <time>2021-04-15T08:27:21.000Z</time>
      </trkpt>
      <trkpt lat="47.26669" lon="-2.30758">
        <ele>16.39999961853</ele>
        <time>2021-04-15T08:27:22.000Z</time>
      </trkpt>
      <trkpt lat="47.26671" lon="-2.30764">
        <ele>17</ele>
        <time>2021-04-15T08:27:23.000Z</time>
      </trkpt>
      <trkpt lat="47.26673" lon="-2.30769">
        <ele>17</ele>
        <time>2021-04-15T08:27:24.000Z</time>
      </trkpt>
      <trkpt lat="47.26687" lon="-2.30806">
        <ele>17.39999961853</ele>
        <time>2021-04-15T08:27:30.000Z</time>
      </trkpt>
      <trkpt lat="47.2669" lon="-2.30811">
        <ele>17.799999237061</ele>
        <time>2021-04-15T08:27:31.000Z</time>
      </trkpt>
      <trkpt lat="47.26692" lon="-2.30816">
        <ele>18.60000038147</ele>
        <time>2021-04-15T08:27:32.000Z</time>
      </trkpt>
      <trkpt lat="47.26695" lon="-2.3082">
        <ele>19</ele>
        <time>2021-04-15T08:27:33.000Z</time>
      </trkpt>
      <trkpt lat="47.26699" lon="-2.30827">
        <ele>19</ele>
        <time>2021-04-15T08:27:35.000Z</time>
      </trkpt>
      <trkpt lat="47.26705" lon="-2.30837">
        <ele>19</ele>
        <time>2021-04-15T08:27:40.000Z</time>
      </trkpt>
      <trkpt lat="47.26716" lon="-2.30849">
        <ele>19</ele>
        <time>2021-04-15T08:27:47.000Z</time>
      </trkpt>
      <trkpt lat="47.26734" lon="-2.3085">
        <ele>19</ele>
        <time>2021-04-15T08:27:53.000Z</time>
      </trkpt>
      <trkpt lat="47.26755" lon="-2.30836">
        <ele>19</ele>
        <time>2021-04-15T08:27:59.000Z</time>
      </trkpt>
      <trkpt lat="47.26785" lon="-2.30813">
        <ele>19</ele>
        <time>2021-04-15T08:28:06.000Z</time>
      </trkpt>
      <trkpt lat="47.26809" lon="-2.30793">
        <ele>19</ele>
        <time>2021-04-15T08:28:12.000Z</time>
      </trkpt>
      <trkpt lat="47.26821" lon="-2.30791">
        <ele>19</ele>
        <time>2021-04-15T08:28:15.000Z</time>
      </trkpt>
      <trkpt lat="47.26824" lon="-2.30794">
        <ele>19</ele>
        <time>2021-04-15T08:28:16.000Z</time>
      </trkpt>
      <trkpt lat="47.26827" lon="-2.3081">
        <ele>19</ele>
        <time>2021-04-15T08:28:19.000Z</time>
      </trkpt>
      <trkpt lat="47.26828" lon="-2.30816">
        <ele>19</ele>
        <time>2021-04-15T08:28:20.000Z</time>
      </trkpt>
      <trkpt lat="47.2683" lon="-2.3085">
        <ele>19</ele>
        <time>2021-04-15T08:28:25.000Z</time>
      </trkpt>
      <trkpt lat="47.26836" lon="-2.30902">
        <ele>19</ele>
        <time>2021-04-15T08:28:32.000Z</time>
      </trkpt>
      <trkpt lat="47.26844" lon="-2.30951">
        <ele>19</ele>
        <time>2021-04-15T08:28:39.000Z</time>
      </trkpt>
      <trkpt lat="47.26849" lon="-2.30982">
        <ele>19</ele>
        <time>2021-04-15T08:28:44.000Z</time>
      </trkpt>
      <trkpt lat="47.26849" lon="-2.30989">
        <ele>19</ele>
        <time>2021-04-15T08:28:45.000Z</time>
      </trkpt>
      <trkpt lat="47.26853" lon="-2.31046">
        <ele>19</ele>
        <time>2021-04-15T08:28:53.000Z</time>
      </trkpt>
      <trkpt lat="47.26853" lon="-2.31075">
        <ele>19</ele>
        <time>2021-04-15T08:28:58.000Z</time>
      </trkpt>
      <trkpt lat="47.26855" lon="-2.31098">
        <ele>19</ele>
        <time>2021-04-15T08:29:03.000Z</time>
      </trkpt>
      <trkpt lat="47.26855" lon="-2.31134">
        <ele>19</ele>
        <time>2021-04-15T08:29:09.000Z</time>
      </trkpt>
      <trkpt lat="47.26854" lon="-2.31188">
        <ele>19</ele>
        <time>2021-04-15T08:29:17.000Z</time>
      </trkpt>
      <trkpt lat="47.26851" lon="-2.31239">
        <ele>19</ele>
        <time>2021-04-15T08:29:24.000Z</time>
      </trkpt>
      <trkpt lat="47.26847" lon="-2.31291">
        <ele>19</ele>
        <time>2021-04-15T08:29:31.000Z</time>
      </trkpt>
      <trkpt lat="47.26846" lon="-2.31298">
        <ele>19</ele>
        <time>2021-04-15T08:29:32.000Z</time>
      </trkpt>
      <trkpt lat="47.26836" lon="-2.31329">
        <ele>19</ele>
        <time>2021-04-15T08:29:37.000Z</time>
      </trkpt>
      <trkpt lat="47.26825" lon="-2.31341">
        <ele>19</ele>
        <time>2021-04-15T08:29:41.000Z</time>
      </trkpt>
      <trkpt lat="47.2682" lon="-2.31344">
        <ele>19</ele>
        <time>2021-04-15T08:29:42.000Z</time>
      </trkpt>
      <trkpt lat="47.26808" lon="-2.31353">
        <ele>19</ele>
        <time>2021-04-15T08:29:45.000Z</time>
      </trkpt>
      <trkpt lat="47.26774" lon="-2.31374">
        <ele>19</ele>
        <time>2021-04-15T08:29:52.000Z</time>
      </trkpt>
      <trkpt lat="47.26744" lon="-2.3139">
        <ele>19</ele>
        <time>2021-04-15T08:29:58.000Z</time>
      </trkpt>
      <trkpt lat="47.26739" lon="-2.31393">
        <ele>19</ele>
        <time>2021-04-15T08:29:59.000Z</time>
      </trkpt>
      <trkpt lat="47.26725" lon="-2.314">
        <ele>19</ele>
        <time>2021-04-15T08:30:02.000Z</time>
      </trkpt>
      <trkpt lat="47.26715" lon="-2.31407">
        <ele>19</ele>
        <time>2021-04-15T08:30:04.000Z</time>
      </trkpt>
      <trkpt lat="47.2669" lon="-2.31423">
        <ele>19</ele>
        <time>2021-04-15T08:30:09.000Z</time>
      </trkpt>
      <trkpt lat="47.26652" lon="-2.31445">
        <ele>18.60000038147</ele>
        <time>2021-04-15T08:30:16.000Z</time>
      </trkpt>
      <trkpt lat="47.26646" lon="-2.31449">
        <ele>18.200000762939</ele>
        <time>2021-04-15T08:30:17.000Z</time>
      </trkpt>
      <trkpt lat="47.26641" lon="-2.31454">
        <ele>17.799999237061</ele>
        <time>2021-04-15T08:30:18.000Z</time>
      </trkpt>
      <trkpt lat="47.26636" lon="-2.31459">
        <ele>17.39999961853</ele>
        <time>2021-04-15T08:30:19.000Z</time>
      </trkpt>
      <trkpt lat="47.26631" lon="-2.31464">
        <ele>17</ele>
        <time>2021-04-15T08:30:20.000Z</time>
      </trkpt>
      <trkpt lat="47.26617" lon="-2.31478">
        <ele>17</ele>
        <time>2021-04-15T08:30:23.000Z</time>
      </trkpt>
      <trkpt lat="47.26614" lon="-2.31483">
        <ele>17</ele>
        <time>2021-04-15T08:30:24.000Z</time>
      </trkpt>
      <trkpt lat="47.26612" lon="-2.31489">
        <ele>16</ele>
        <time>2021-04-15T08:30:25.000Z</time>
      </trkpt>
      <trkpt lat="47.26612" lon="-2.31495">
        <ele>15.39999961853</ele>
        <time>2021-04-15T08:30:26.000Z</time>
      </trkpt>
      <trkpt lat="47.26614" lon="-2.31503">
        <ele>15</ele>
        <time>2021-04-15T08:30:27.000Z</time>
      </trkpt>
      <trkpt lat="47.26617" lon="-2.31509">
        <ele>14.60000038147</ele>
        <time>2021-04-15T08:30:28.000Z</time>
      </trkpt>
      <trkpt lat="47.26619" lon="-2.31516">
        <ele>14.60000038147</ele>
        <time>2021-04-15T08:30:29.000Z</time>
      </trkpt>
      <trkpt lat="47.26631" lon="-2.31542">
        <ele>14.60000038147</ele>
        <time>2021-04-15T08:30:33.000Z</time>
      </trkpt>
      <trkpt lat="47.26633" lon="-2.31548">
        <ele>14.60000038147</ele>
        <time>2021-04-15T08:30:34.000Z</time>
      </trkpt>
      <trkpt lat="47.26649" lon="-2.31588">
        <ele>14.60000038147</ele>
        <time>2021-04-15T08:30:41.000Z</time>
      </trkpt>
      <trkpt lat="47.26672" lon="-2.31644">
        <ele>14.60000038147</ele>
        <time>2021-04-15T08:30:49.000Z</time>
      </trkpt>
      <trkpt lat="47.26692" lon="-2.31704">
        <ele>14.60000038147</ele>
        <time>2021-04-15T08:30:57.000Z</time>
      </trkpt>
      <trkpt lat="47.26709" lon="-2.31776">
        <ele>14.60000038147</ele>
        <time>2021-04-15T08:31:06.000Z</time>
      </trkpt>
      <trkpt lat="47.26727" lon="-2.31841">
        <ele>14.60000038147</ele>
        <time>2021-04-15T08:31:14.000Z</time>
      </trkpt>
      <trkpt lat="47.26734" lon="-2.31855">
        <ele>14.60000038147</ele>
        <time>2021-04-15T08:31:17.000Z</time>
      </trkpt>
      <trkpt lat="47.26746" lon="-2.31852">
        <ele>14.60000038147</ele>
        <time>2021-04-15T08:31:20.000Z</time>
      </trkpt>
      <trkpt lat="47.2675" lon="-2.31848">
        <ele>14.60000038147</ele>
        <time>2021-04-15T08:31:21.000Z</time>
      </trkpt>
      <trkpt lat="47.26773" lon="-2.3183">
        <ele>14.60000038147</ele>
        <time>2021-04-15T08:31:26.000Z</time>
      </trkpt>
      <trkpt lat="47.26804" lon="-2.31812">
        <ele>14.199999809265</ele>
        <time>2021-04-15T08:31:32.000Z</time>
      </trkpt>
      <trkpt lat="47.26808" lon="-2.3181">
        <ele>13.800000190735</ele>
        <time>2021-04-15T08:31:33.000Z</time>
      </trkpt>
      <trkpt lat="47.26812" lon="-2.31808">
        <ele>13.199999809265</ele>
        <time>2021-04-15T08:31:34.000Z</time>
      </trkpt>
      <trkpt lat="47.26815" lon="-2.31808">
        <ele>12.800000190735</ele>
        <time>2021-04-15T08:31:35.000Z</time>
      </trkpt>
      <trkpt lat="47.26817" lon="-2.3181">
        <ele>12.39999961853</ele>
        <time>2021-04-15T08:31:36.000Z</time>
      </trkpt>
      <trkpt lat="47.26819" lon="-2.31813">
        <ele>12.39999961853</ele>
        <time>2021-04-15T08:31:37.000Z</time>
      </trkpt>
      <trkpt lat="47.26821" lon="-2.31829">
        <ele>12.39999961853</ele>
        <time>2021-04-15T08:31:41.000Z</time>
      </trkpt>
      <trkpt lat="47.26825" lon="-2.31842">
        <ele>12.39999961853</ele>
        <time>2021-04-15T08:31:43.000Z</time>
      </trkpt>
      <trkpt lat="47.26829" lon="-2.31856">
        <ele>12</ele>
        <time>2021-04-15T08:31:45.000Z</time>
      </trkpt>
      <trkpt lat="47.26832" lon="-2.31863">
        <ele>11.60000038147</ele>
        <time>2021-04-15T08:31:46.000Z</time>
      </trkpt>
      <trkpt lat="47.26835" lon="-2.31871">
        <ele>11.199999809265</ele>
        <time>2021-04-15T08:31:47.000Z</time>
      </trkpt>
      <trkpt lat="47.26839" lon="-2.3188">
        <ele>10.800000190735</ele>
        <time>2021-04-15T08:31:48.000Z</time>
      </trkpt>
      <trkpt lat="47.26843" lon="-2.31887">
        <ele>10.39999961853</ele>
        <time>2021-04-15T08:31:49.000Z</time>
      </trkpt>
      <trkpt lat="47.26847" lon="-2.31893">
        <ele>10.39999961853</ele>
        <time>2021-04-15T08:31:50.000Z</time>
      </trkpt>
      <trkpt lat="47.26858" lon="-2.319">
        <ele>10</ele>
        <time>2021-04-15T08:31:52.000Z</time>
      </trkpt>
      <trkpt lat="47.26864" lon="-2.31902">
        <ele>9.6000003814697</ele>
        <time>2021-04-15T08:31:53.000Z</time>
      </trkpt>
      <trkpt lat="47.26871" lon="-2.31904">
        <ele>9</ele>
        <time>2021-04-15T08:31:54.000Z</time>
      </trkpt>
      <trkpt lat="47.26877" lon="-2.31906">
        <ele>8.6000003814697</ele>
        <time>2021-04-15T08:31:55.000Z</time>
      </trkpt>
      <trkpt lat="47.26883" lon="-2.3191">
        <ele>8.1999998092651</ele>
        <time>2021-04-15T08:31:56.000Z</time>
      </trkpt>
      <trkpt lat="47.26889" lon="-2.31915">
        <ele>8.1999998092651</ele>
        <time>2021-04-15T08:31:57.000Z</time>
      </trkpt>
      <trkpt lat="47.26899" lon="-2.3193">
        <ele>7.8000001907349</ele>
        <time>2021-04-15T08:31:59.000Z</time>
      </trkpt>
      <trkpt lat="47.26904" lon="-2.31937">
        <ele>7.4000000953674</ele>
        <time>2021-04-15T08:32:00.000Z</time>
      </trkpt>
      <trkpt lat="47.2691" lon="-2.31945">
        <ele>7</ele>
        <time>2021-04-15T08:32:01.000Z</time>
      </trkpt>
      <trkpt lat="47.26915" lon="-2.31952">
        <ele>6.4000000953674</ele>
        <time>2021-04-15T08:32:02.000Z</time>
      </trkpt>
      <trkpt lat="47.26921" lon="-2.31959">
        <ele>6</ele>
        <time>2021-04-15T08:32:03.000Z</time>
      </trkpt>
      <trkpt lat="47.26926" lon="-2.31966">
        <ele>5.5999999046326</ele>
        <time>2021-04-15T08:32:04.000Z</time>
      </trkpt>
      <trkpt lat="47.26932" lon="-2.31975">
        <ele>5.1999998092651</ele>
        <time>2021-04-15T08:32:05.000Z</time>
      </trkpt>
      <trkpt lat="47.26937" lon="-2.31983">
        <ele>4.5999999046326</ele>
        <time>2021-04-15T08:32:06.000Z</time>
      </trkpt>
      <trkpt lat="47.26942" lon="-2.31991">
        <ele>4.1999998092651</ele>
        <time>2021-04-15T08:32:07.000Z</time>
      </trkpt>
      <trkpt lat="47.26947" lon="-2.31998">
        <ele>3.5999999046326</ele>
        <time>2021-04-15T08:32:08.000Z</time>
      </trkpt>
      <trkpt lat="47.26951" lon="-2.32002">
        <ele>3.2000000476837</ele>
        <time>2021-04-15T08:32:09.000Z</time>
      </trkpt>
      <trkpt lat="47.26956" lon="-2.32003">
        <ele>2.7999999523163</ele>
        <time>2021-04-15T08:32:10.000Z</time>
      </trkpt>
      <trkpt lat="47.26962" lon="-2.32001">
        <ele>2.2000000476837</ele>
        <time>2021-04-15T08:32:11.000Z</time>
      </trkpt>
      <trkpt lat="47.26967" lon="-2.31998">
        <ele>1.7999999523163</ele>
        <time>2021-04-15T08:32:12.000Z</time>
      </trkpt>
      <trkpt lat="47.26973" lon="-2.31995">
        <ele>1.3999999761581</ele>
        <time>2021-04-15T08:32:13.000Z</time>
      </trkpt>
      <trkpt lat="47.26978" lon="-2.31992">
        <ele>1.3999999761581</ele>
        <time>2021-04-15T08:32:14.000Z</time>
      </trkpt>
      <trkpt lat="47.26989" lon="-2.31986">
        <ele>1.3999999761581</ele>
        <time>2021-04-15T08:32:16.000Z</time>
      </trkpt>
      <trkpt lat="47.27004" lon="-2.31975">
        <ele>1.3999999761581</ele>
        <time>2021-04-15T08:32:19.000Z</time>
      </trkpt>
      <trkpt lat="47.27009" lon="-2.31971">
        <ele>1</ele>
        <time>2021-04-15T08:32:20.000Z</time>
      </trkpt>
      <trkpt lat="47.27013" lon="-2.31968">
        <ele>0.40000000596046</ele>
        <time>2021-04-15T08:32:21.000Z</time>
      </trkpt>
      <trkpt lat="47.27018" lon="-2.31965">
        <ele>10.6</ele>
        <time>2021-04-15T08:32:22.000Z</time>
      </trkpt>
      <trkpt lat="47.27022" lon="-2.31962">
        <ele>-0.40000000596046</ele>
        <time>2021-04-15T08:32:23.000Z</time>
      </trkpt>
      <trkpt lat="47.27026" lon="-2.31959">
        <ele>-0.80000001192093</ele>
        <time>2021-04-15T08:32:24.000Z</time>
      </trkpt>
      <trkpt lat="47.2704" lon="-2.31952">
        <ele>-0.80000001192093</ele>
        <time>2021-04-15T08:32:29.000Z</time>
      </trkpt>
      <trkpt lat="47.27044" lon="-2.31953">
        <ele>-0.80000001192093</ele>
        <time>2021-04-15T08:32:34.000Z</time>
      </trkpt>
      <trkpt lat="47.27044" lon="-2.31953">
        <ele>-0.80000001192093</ele>
        <time>2021-04-15T08:32:35.000Z</time>
      </trkpt>
      <trkpt lat="47.27055" lon="-2.31955">
        <ele>-0.80000001192093</ele>
        <time>2021-04-15T08:33:16.000Z</time>
      </trkpt>
      <trkpt lat="47.2706" lon="-2.31956">
        <ele>-0.80000001192093</ele>
        <time>2021-04-15T08:33:18.000Z</time>
      </trkpt>
      <trkpt lat="47.27069" lon="-2.31953">
        <ele>-1.2000000476837</ele>
        <time>2021-04-15T08:33:22.000Z</time>
      </trkpt>
      <trkpt lat="47.2707" lon="-2.3195">
        <ele>-1.6000000238419</ele>
        <time>2021-04-15T08:33:23.000Z</time>
      </trkpt>
      <trkpt lat="47.27071" lon="-2.31948">
        <ele>-2</ele>
        <time>2021-04-15T08:33:24.000Z</time>
      </trkpt>
      <trkpt lat="47.27071" lon="-2.31945">
        <ele>-2.4000000953674</ele>
        <time>2021-04-15T08:33:25.000Z</time>
      </trkpt>
      <trkpt lat="47.27071" lon="-2.31943">
        <ele>-2.7999999523163</ele>
        <time>2021-04-15T08:33:26.000Z</time>
      </trkpt>
      <trkpt lat="47.27071" lon="-2.31938">
        <ele>-2.7999999523163</ele>
        <time>2021-04-15T08:33:27.000Z</time>
      </trkpt>
      <trkpt lat="47.27071" lon="-2.31934">
        <ele>-2.7999999523163</ele>
        <time>2021-04-15T08:33:28.000Z</time>
      </trkpt>
      <trkpt lat="47.27067" lon="-2.31904">
        <ele>-2.7999999523163</ele>
        <time>2021-04-15T08:33:34.000Z</time>
      </trkpt>
      <trkpt lat="47.27066" lon="-2.31885">
        <ele>-2.4000000953674</ele>
        <time>2021-04-15T08:33:38.000Z</time>
      </trkpt>
      <trkpt lat="47.27067" lon="-2.31881">
        <ele>-2</ele>
        <time>2021-04-15T08:33:39.000Z</time>
      </trkpt>
      <trkpt lat="47.27067" lon="-2.31877">
        <ele>-1.6000000238419</ele>
        <time>2021-04-15T08:33:40.000Z</time>
      </trkpt>
      <trkpt lat="47.27069" lon="-2.31873">
        <ele>-1.2000000476837</ele>
        <time>2021-04-15T08:33:41.000Z</time>
      </trkpt>
      <trkpt lat="47.27071" lon="-2.31869">
        <ele>-0.60000002384186</ele>
        <time>2021-04-15T08:33:42.000Z</time>
      </trkpt>
      <trkpt lat="47.27072" lon="-2.31864">
        <ele>-0.60000002384186</ele>
        <time>2021-04-15T08:33:43.000Z</time>
      </trkpt>
      <trkpt lat="47.27071" lon="-2.31862">
        <ele>-0.60000002384186</ele>
        <time>2021-04-15T08:33:44.000Z</time>
      </trkpt>
      <trkpt lat="47.2706" lon="-2.3185">
        <ele>-0.60000002384186</ele>
        <time>2021-04-15T08:33:49.000Z</time>
      </trkpt>
      <trkpt lat="47.27057" lon="-2.31837">
        <ele>-0.60000002384186</ele>
        <time>2021-04-15T08:33:52.000Z</time>
      </trkpt>
      <trkpt lat="47.27056" lon="-2.31832">
        <ele>-0.60000002384186</ele>
        <time>2021-04-15T08:33:53.000Z</time>
      </trkpt>
      <trkpt lat="47.27053" lon="-2.31803">
        <ele>-0.20000000298023</ele>
        <time>2021-04-15T08:33:59.000Z</time>
      </trkpt>
      <trkpt lat="47.27054" lon="-2.31798">
        <ele>0.20000000298023</ele>
        <time>2021-04-15T08:34:00.000Z</time>
      </trkpt>
      <trkpt lat="47.27054" lon="-2.31793">
        <ele>0.60000002384186</ele>
        <time>2021-04-15T08:34:01.000Z</time>
      </trkpt>
      <trkpt lat="47.27054" lon="-2.31789">
        <ele>1</ele>
        <time>2021-04-15T08:34:02.000Z</time>
      </trkpt>
      <trkpt lat="47.27054" lon="-2.31785">
        <ele>1.3999999761581</ele>
        <time>2021-04-15T08:34:03.000Z</time>
      </trkpt>
      <trkpt lat="47.27054" lon="-2.31781">
        <ele>1.3999999761581</ele>
        <time>2021-04-15T08:34:04.000Z</time>
      </trkpt>
      <trkpt lat="47.27051" lon="-2.31757">
        <ele>1.3999999761581</ele>
        <time>2021-04-15T08:34:10.000Z</time>
      </trkpt>
      <trkpt lat="47.2705" lon="-2.31738">
        <ele>1.3999999761581</ele>
        <time>2021-04-15T08:34:15.000Z</time>
      </trkpt>
      <trkpt lat="47.27042" lon="-2.31729">
        <ele>1.3999999761581</ele>
        <time>2021-04-15T08:34:19.000Z</time>
      </trkpt>
      <trkpt lat="47.27039" lon="-2.31726">
        <ele>1.7999999523163</ele>
        <time>2021-04-15T08:34:20.000Z</time>
      </trkpt>
      <trkpt lat="47.27036" lon="-2.31723">
        <ele>2.2000000476837</ele>
        <time>2021-04-15T08:34:21.000Z</time>
      </trkpt>
      <trkpt lat="47.27033" lon="-2.31721">
        <ele>2.5999999046326</ele>
        <time>2021-04-15T08:34:22.000Z</time>
      </trkpt>
      <trkpt lat="47.2703" lon="-2.31719">
        <ele>3.2000000476837</ele>
        <time>2021-04-15T08:34:23.000Z</time>
      </trkpt>
      <trkpt lat="47.27028" lon="-2.31717">
        <ele>3.5999999046326</ele>
        <time>2021-04-15T08:34:24.000Z</time>
      </trkpt>
      <trkpt lat="47.27026" lon="-2.31715">
        <ele>3.5999999046326</ele>
        <time>2021-04-15T08:34:25.000Z</time>
      </trkpt>
      <trkpt lat="47.27026" lon="-2.31713">
        <ele>3.5999999046326</ele>
        <time>2021-04-15T08:34:26.000Z</time>
      </trkpt>
      <trkpt lat="47.27026" lon="-2.31705">
        <ele>3.5999999046326</ele>
        <time>2021-04-15T08:34:29.000Z</time>
      </trkpt>
      <trkpt lat="47.27032" lon="-2.31675">
        <ele>3.5999999046326</ele>
        <time>2021-04-15T08:34:36.000Z</time>
      </trkpt>
      <trkpt lat="47.27033" lon="-2.31666">
        <ele>4</ele>
        <time>2021-04-15T08:34:39.000Z</time>
      </trkpt>
      <trkpt lat="47.27033" lon="-2.31663">
        <ele>4.4000000953674</ele>
        <time>2021-04-15T08:34:40.000Z</time>
      </trkpt>
      <trkpt lat="47.27033" lon="-2.31659">
        <ele>4.8000001907349</ele>
        <time>2021-04-15T08:34:41.000Z</time>
      </trkpt>
      <trkpt lat="47.27032" lon="-2.31656">
        <ele>5.1999998092651</ele>
        <time>2021-04-15T08:34:42.000Z</time>
      </trkpt>
      <trkpt lat="47.27032" lon="-2.31653">
        <ele>5.5999999046326</ele>
        <time>2021-04-15T08:34:43.000Z</time>
      </trkpt>
      <trkpt lat="47.2703" lon="-2.31634">
        <ele>5.5999999046326</ele>
        <time>2021-04-15T08:34:49.000Z</time>
      </trkpt>
      <trkpt lat="47.2703" lon="-2.3162">
        <ele>5.5999999046326</ele>
        <time>2021-04-15T08:34:54.000Z</time>
      </trkpt>
      <trkpt lat="47.27028" lon="-2.31612">
        <ele>6</ele>
        <time>2021-04-15T08:34:58.000Z</time>
      </trkpt>
      <trkpt lat="47.27028" lon="-2.31609">
        <ele>6.4000000953674</ele>
        <time>2021-04-15T08:34:59.000Z</time>
      </trkpt>
      <trkpt lat="47.27027" lon="-2.31607">
        <ele>6.8000001907349</ele>
        <time>2021-04-15T08:35:00.000Z</time>
      </trkpt>
      <trkpt lat="47.27028" lon="-2.31604">
        <ele>7.1999998092651</ele>
        <time>2021-04-15T08:35:01.000Z</time>
      </trkpt>
      <trkpt lat="47.27027" lon="-2.31601">
        <ele>7.5999999046326</ele>
        <time>2021-04-15T08:35:02.000Z</time>
      </trkpt>
      <trkpt lat="47.27024" lon="-2.31592">
        <ele>7.5999999046326</ele>
        <time>2021-04-15T08:35:05.000Z</time>
      </trkpt>
      <trkpt lat="47.27022" lon="-2.31581">
        <ele>8.1999998092651</ele>
        <time>2021-04-15T08:35:10.000Z</time>
      </trkpt>
      <trkpt lat="47.2702" lon="-2.31579">
        <ele>8.6000003814697</ele>
        <time>2021-04-15T08:35:11.000Z</time>
      </trkpt>
      <trkpt lat="47.27019" lon="-2.31577">
        <ele>9</ele>
        <time>2021-04-15T08:35:12.000Z</time>
      </trkpt>
      <trkpt lat="47.27018" lon="-2.31574">
        <ele>9.3999996185303</ele>
        <time>2021-04-15T08:35:13.000Z</time>
      </trkpt>
      <trkpt lat="47.27016" lon="-2.31572">
        <ele>9.8000001907349</ele>
        <time>2021-04-15T08:35:14.000Z</time>
      </trkpt>
      <trkpt lat="47.27012" lon="-2.31561">
        <ele>9.8000001907349</ele>
        <time>2021-04-15T08:35:17.000Z</time>
      </trkpt>
      <trkpt lat="47.27008" lon="-2.31542">
        <ele>9.8000001907349</ele>
        <time>2021-04-15T08:35:23.000Z</time>
      </trkpt>
      <trkpt lat="47.27005" lon="-2.31534">
        <ele>10.199999809265</ele>
        <time>2021-04-15T08:35:25.000Z</time>
      </trkpt>
      <trkpt lat="47.27004" lon="-2.3153">
        <ele>10.60000038147</ele>
        <time>2021-04-15T08:35:26.000Z</time>
      </trkpt>
      <trkpt lat="47.27004" lon="-2.31527">
        <ele>11</ele>
        <time>2021-04-15T08:35:27.000Z</time>
      </trkpt>
      <trkpt lat="47.27003" lon="-2.31523">
        <ele>11.39999961853</ele>
        <time>2021-04-15T08:35:28.000Z</time>
      </trkpt>
      <trkpt lat="47.27002" lon="-2.31519">
        <ele>12</ele>
        <time>2021-04-15T08:35:29.000Z</time>
      </trkpt>
      <trkpt lat="47.26996" lon="-2.31503">
        <ele>12</ele>
        <time>2021-04-15T08:35:34.000Z</time>
      </trkpt>
      <trkpt lat="47.26994" lon="-2.31493">
        <ele>12.39999961853</ele>
        <time>2021-04-15T08:35:36.000Z</time>
      </trkpt>
      <trkpt lat="47.26993" lon="-2.31488">
        <ele>12.800000190735</ele>
        <time>2021-04-15T08:35:37.000Z</time>
      </trkpt>
      <trkpt lat="47.26992" lon="-2.31482">
        <ele>13.199999809265</ele>
        <time>2021-04-15T08:35:38.000Z</time>
      </trkpt>
      <trkpt lat="47.26991" lon="-2.31477">
        <ele>13.60000038147</ele>
        <time>2021-04-15T08:35:39.000Z</time>
      </trkpt>
      <trkpt lat="47.2699" lon="-2.31471">
        <ele>14</ele>
        <time>2021-04-15T08:35:40.000Z</time>
      </trkpt>
      <trkpt lat="47.26989" lon="-2.31451">
        <ele>14</ele>
        <time>2021-04-15T08:35:44.000Z</time>
      </trkpt>
      <trkpt lat="47.26987" lon="-2.31423">
        <ele>14.39999961853</ele>
        <time>2021-04-15T08:35:49.000Z</time>
      </trkpt>
      <trkpt lat="47.26987" lon="-2.31417">
        <ele>15</ele>
        <time>2021-04-15T08:35:50.000Z</time>
      </trkpt>
      <trkpt lat="47.26986" lon="-2.31412">
        <ele>15.39999961853</ele>
        <time>2021-04-15T08:35:51.000Z</time>
      </trkpt>
      <trkpt lat="47.26986" lon="-2.31407">
        <ele>15.800000190735</ele>
        <time>2021-04-15T08:35:52.000Z</time>
      </trkpt>
      <trkpt lat="47.26986" lon="-2.31402">
        <ele>16.200000762939</ele>
        <time>2021-04-15T08:35:53.000Z</time>
      </trkpt>
      <trkpt lat="47.26985" lon="-2.31383">
        <ele>16.200000762939</ele>
        <time>2021-04-15T08:35:57.000Z</time>
      </trkpt>
      <trkpt lat="47.26984" lon="-2.3136">
        <ele>16.60000038147</ele>
        <time>2021-04-15T08:36:02.000Z</time>
      </trkpt>
      <trkpt lat="47.26984" lon="-2.31355">
        <ele>17</ele>
        <time>2021-04-15T08:36:03.000Z</time>
      </trkpt>
      <trkpt lat="47.26984" lon="-2.3135">
        <ele>17.39999961853</ele>
        <time>2021-04-15T08:36:04.000Z</time>
      </trkpt>
      <trkpt lat="47.26983" lon="-2.31345">
        <ele>17.799999237061</ele>
        <time>2021-04-15T08:36:05.000Z</time>
      </trkpt>
      <trkpt lat="47.26983" lon="-2.3134">
        <ele>18.200000762939</ele>
        <time>2021-04-15T08:36:06.000Z</time>
      </trkpt>
      <trkpt lat="47.26978" lon="-2.31317">
        <ele>18.200000762939</ele>
        <time>2021-04-15T08:36:10.000Z</time>
      </trkpt>
      <trkpt lat="47.26977" lon="-2.31291">
        <ele>18.200000762939</ele>
        <time>2021-04-15T08:36:16.000Z</time>
      </trkpt>
      <trkpt lat="47.2698" lon="-2.31284">
        <ele>18.200000762939</ele>
        <time>2021-04-15T08:36:21.000Z</time>
      </trkpt>
      <trkpt lat="47.26979" lon="-2.31281">
        <ele>18.200000762939</ele>
        <time>2021-04-15T08:36:37.000Z</time>
      </trkpt>
      <trkpt lat="47.26975" lon="-2.31265">
        <ele>18.200000762939</ele>
        <time>2021-04-15T08:36:42.000Z</time>
      </trkpt>
      <trkpt lat="47.26975" lon="-2.3126">
        <ele>18.200000762939</ele>
        <time>2021-04-15T08:36:43.000Z</time>
      </trkpt>
      <trkpt lat="47.26977" lon="-2.31237">
        <ele>18.200000762939</ele>
        <time>2021-04-15T08:36:47.000Z</time>
      </trkpt>
      <trkpt lat="47.26983" lon="-2.31197">
        <ele>18.200000762939</ele>
        <time>2021-04-15T08:36:53.000Z</time>
      </trkpt>
      <trkpt lat="47.26989" lon="-2.31147">
        <ele>18.200000762939</ele>
        <time>2021-04-15T08:36:59.000Z</time>
      </trkpt>
      <trkpt lat="47.2699" lon="-2.31128">
        <ele>18.200000762939</ele>
        <time>2021-04-15T08:37:01.000Z</time>
      </trkpt>
      <trkpt lat="47.26989" lon="-2.3112">
        <ele>17.799999237061</ele>
        <time>2021-04-15T08:37:02.000Z</time>
      </trkpt>
      <trkpt lat="47.26989" lon="-2.31111">
        <ele>17.39999961853</ele>
        <time>2021-04-15T08:37:03.000Z</time>
      </trkpt>
      <trkpt lat="47.26989" lon="-2.31101">
        <ele>17</ele>
        <time>2021-04-15T08:37:04.000Z</time>
      </trkpt>
      <trkpt lat="47.26988" lon="-2.31093">
        <ele>16.60000038147</ele>
        <time>2021-04-15T08:37:05.000Z</time>
      </trkpt>
      <trkpt lat="47.26988" lon="-2.31086">
        <ele>16.200000762939</ele>
        <time>2021-04-15T08:37:06.000Z</time>
      </trkpt>
      <trkpt lat="47.26987" lon="-2.31077">
        <ele>16.200000762939</ele>
        <time>2021-04-15T08:37:08.000Z</time>
      </trkpt>
      <trkpt lat="47.2699" lon="-2.31064">
        <ele>15.800000190735</ele>
        <time>2021-04-15T08:37:11.000Z</time>
      </trkpt>
      <trkpt lat="47.26992" lon="-2.31061">
        <ele>15.39999961853</ele>
        <time>2021-04-15T08:37:12.000Z</time>
      </trkpt>
      <trkpt lat="47.26994" lon="-2.31056">
        <ele>15</ele>
        <time>2021-04-15T08:37:13.000Z</time>
      </trkpt>
      <trkpt lat="47.26997" lon="-2.31052">
        <ele>14.60000038147</ele>
        <time>2021-04-15T08:37:14.000Z</time>
      </trkpt>
      <trkpt lat="47.27" lon="-2.31047">
        <ele>14.199999809265</ele>
        <time>2021-04-15T08:37:15.000Z</time>
      </trkpt>
      <trkpt lat="47.27007" lon="-2.31038">
        <ele>14.199999809265</ele>
        <time>2021-04-15T08:37:17.000Z</time>
      </trkpt>
      <trkpt lat="47.27011" lon="-2.31033">
        <ele>14.199999809265</ele>
        <time>2021-04-15T08:37:18.000Z</time>
      </trkpt>
      <trkpt lat="47.27023" lon="-2.31023">
        <ele>13.60000038147</ele>
        <time>2021-04-15T08:37:21.000Z</time>
      </trkpt>
      <trkpt lat="47.27028" lon="-2.31019">
        <ele>13.199999809265</ele>
        <time>2021-04-15T08:37:22.000Z</time>
      </trkpt>
      <trkpt lat="47.27032" lon="-2.31016">
        <ele>12.800000190735</ele>
        <time>2021-04-15T08:37:23.000Z</time>
      </trkpt>
      <trkpt lat="47.27035" lon="-2.31012">
        <ele>12.39999961853</ele>
        <time>2021-04-15T08:37:24.000Z</time>
      </trkpt>
      <trkpt lat="47.27039" lon="-2.31009">
        <ele>12</ele>
        <time>2021-04-15T08:37:25.000Z</time>
      </trkpt>
      <trkpt lat="47.27045" lon="-2.31">
        <ele>12</ele>
        <time>2021-04-15T08:37:27.000Z</time>
      </trkpt>
      <trkpt lat="47.27046" lon="-2.30997">
        <ele>12</ele>
        <time>2021-04-15T08:37:28.000Z</time>
      </trkpt>
      <trkpt lat="47.27046" lon="-2.3098">
        <ele>12</ele>
        <time>2021-04-15T08:37:32.000Z</time>
      </trkpt>
      <trkpt lat="47.27044" lon="-2.30945">
        <ele>12</ele>
        <time>2021-04-15T08:37:38.000Z</time>
      </trkpt>
      <trkpt lat="47.2704" lon="-2.30927">
        <ele>12</ele>
        <time>2021-04-15T08:37:43.000Z</time>
      </trkpt>
      <trkpt lat="47.27039" lon="-2.30909">
        <ele>12</ele>
        <time>2021-04-15T08:37:48.000Z</time>
      </trkpt>
      <trkpt lat="47.27032" lon="-2.30897">
        <ele>12</ele>
        <time>2021-04-15T08:37:50.000Z</time>
      </trkpt>
      <trkpt lat="47.2703" lon="-2.30892">
        <ele>12</ele>
        <time>2021-04-15T08:37:51.000Z</time>
      </trkpt>
      <trkpt lat="47.27014" lon="-2.30861">
        <ele>12</ele>
        <time>2021-04-15T08:37:56.000Z</time>
      </trkpt>
      <trkpt lat="47.27005" lon="-2.30843">
        <ele>12</ele>
        <time>2021-04-15T08:37:59.000Z</time>
      </trkpt>
      <trkpt lat="47.26995" lon="-2.30825">
        <ele>12</ele>
        <time>2021-04-15T08:38:02.000Z</time>
      </trkpt>
      <trkpt lat="47.26987" lon="-2.30812">
        <ele>12</ele>
        <time>2021-04-15T08:38:06.000Z</time>
      </trkpt>
      <trkpt lat="47.26977" lon="-2.30788">
        <ele>12</ele>
        <time>2021-04-15T08:38:12.000Z</time>
      </trkpt>
      <trkpt lat="47.26974" lon="-2.30785">
        <ele>12.39999961853</ele>
        <time>2021-04-15T08:38:13.000Z</time>
      </trkpt>
      <trkpt lat="47.26972" lon="-2.30782">
        <ele>12.800000190735</ele>
        <time>2021-04-15T08:38:14.000Z</time>
      </trkpt>
      <trkpt lat="47.26969" lon="-2.30778">
        <ele>13.60000038147</ele>
        <time>2021-04-15T08:38:15.000Z</time>
      </trkpt>
      <trkpt lat="47.26966" lon="-2.30774">
        <ele>14</ele>
        <time>2021-04-15T08:38:16.000Z</time>
      </trkpt>
      <trkpt lat="47.26957" lon="-2.30761">
        <ele>14</ele>
        <time>2021-04-15T08:38:20.000Z</time>
      </trkpt>
      <trkpt lat="47.26946" lon="-2.30744">
        <ele>14.39999961853</ele>
        <time>2021-04-15T08:38:26.000Z</time>
      </trkpt>
      <trkpt lat="47.26944" lon="-2.30741">
        <ele>14.800000190735</ele>
        <time>2021-04-15T08:38:27.000Z</time>
      </trkpt>
      <trkpt lat="47.26942" lon="-2.30738">
        <ele>15.199999809265</ele>
        <time>2021-04-15T08:38:28.000Z</time>
      </trkpt>
      <trkpt lat="47.26939" lon="-2.30735">
        <ele>15.60000038147</ele>
        <time>2021-04-15T08:38:29.000Z</time>
      </trkpt>
      <trkpt lat="47.26938" lon="-2.30732">
        <ele>16.200000762939</ele>
        <time>2021-04-15T08:38:30.000Z</time>
      </trkpt>
      <trkpt lat="47.26932" lon="-2.30723">
        <ele>16.200000762939</ele>
        <time>2021-04-15T08:38:33.000Z</time>
      </trkpt>
      <trkpt lat="47.2692" lon="-2.30703">
        <ele>16.200000762939</ele>
        <time>2021-04-15T08:38:40.000Z</time>
      </trkpt>
      <trkpt lat="47.26905" lon="-2.3068">
        <ele>16.60000038147</ele>
        <time>2021-04-15T08:38:47.000Z</time>
      </trkpt>
      <trkpt lat="47.26903" lon="-2.30677">
        <ele>17</ele>
        <time>2021-04-15T08:38:48.000Z</time>
      </trkpt>
      <trkpt lat="47.26901" lon="-2.30675">
        <ele>17.39999961853</ele>
        <time>2021-04-15T08:38:49.000Z</time>
      </trkpt>
      <trkpt lat="47.269" lon="-2.30672">
        <ele>17.799999237061</ele>
        <time>2021-04-15T08:38:50.000Z</time>
      </trkpt>
      <trkpt lat="47.26899" lon="-2.30669">
        <ele>18.200000762939</ele>
        <time>2021-04-15T08:38:51.000Z</time>
      </trkpt>
      <trkpt lat="47.269" lon="-2.30664">
        <ele>18.200000762939</ele>
        <time>2021-04-15T08:38:52.000Z</time>
      </trkpt>
      <trkpt lat="47.26901" lon="-2.3066">
        <ele>18.200000762939</ele>
        <time>2021-04-15T08:38:53.000Z</time>
      </trkpt>
      <trkpt lat="47.26911" lon="-2.30646">
        <ele>18.200000762939</ele>
        <time>2021-04-15T08:38:57.000Z</time>
      </trkpt>
      <trkpt lat="47.26926" lon="-2.30634">
        <ele>18.200000762939</ele>
        <time>2021-04-15T08:39:01.000Z</time>
      </trkpt>
      <trkpt lat="47.26931" lon="-2.30632">
        <ele>18.200000762939</ele>
        <time>2021-04-15T08:39:02.000Z</time>
      </trkpt>
      <trkpt lat="47.2696" lon="-2.30621">
        <ele>18.200000762939</ele>
        <time>2021-04-15T08:39:07.000Z</time>
      </trkpt>
      <trkpt lat="47.26999" lon="-2.30599">
        <ele>18.200000762939</ele>
        <time>2021-04-15T08:39:14.000Z</time>
      </trkpt>
      <trkpt lat="47.27012" lon="-2.30576">
        <ele>18.200000762939</ele>
        <time>2021-04-15T08:39:18.000Z</time>
      </trkpt>
      <trkpt lat="47.27015" lon="-2.30568">
        <ele>18.200000762939</ele>
        <time>2021-04-15T08:39:19.000Z</time>
      </trkpt>
      <trkpt lat="47.27023" lon="-2.30539">
        <ele>18.200000762939</ele>
        <time>2021-04-15T08:39:23.000Z</time>
      </trkpt>
      <trkpt lat="47.27025" lon="-2.30532">
        <ele>18.200000762939</ele>
        <time>2021-04-15T08:39:24.000Z</time>
      </trkpt>
      <trkpt lat="47.27035" lon="-2.3049">
        <ele>18.200000762939</ele>
        <time>2021-04-15T08:39:30.000Z</time>
      </trkpt>
      <trkpt lat="47.27037" lon="-2.30483">
        <ele>18.200000762939</ele>
        <time>2021-04-15T08:39:31.000Z</time>
      </trkpt>
      <trkpt lat="47.27042" lon="-2.3046">
        <ele>18.200000762939</ele>
        <time>2021-04-15T08:39:34.000Z</time>
      </trkpt>
      <trkpt lat="47.27044" lon="-2.30444">
        <ele>18.200000762939</ele>
        <time>2021-04-15T08:39:36.000Z</time>
      </trkpt>
      <trkpt lat="47.2705" lon="-2.3039">
        <ele>18.200000762939</ele>
        <time>2021-04-15T08:39:43.000Z</time>
      </trkpt>
      <trkpt lat="47.27051" lon="-2.30383">
        <ele>18.200000762939</ele>
        <time>2021-04-15T08:39:44.000Z</time>
      </trkpt>
      <trkpt lat="47.27056" lon="-2.30347">
        <ele>18.200000762939</ele>
        <time>2021-04-15T08:39:49.000Z</time>
      </trkpt>
      <trkpt lat="47.27061" lon="-2.30313">
        <ele>18.200000762939</ele>
        <time>2021-04-15T08:39:55.000Z</time>
      </trkpt>
      <trkpt lat="47.27066" lon="-2.30287">
        <ele>17.799999237061</ele>
        <time>2021-04-15T08:40:00.000Z</time>
      </trkpt>
      <trkpt lat="47.27068" lon="-2.30282">
        <ele>17.39999961853</ele>
        <time>2021-04-15T08:40:01.000Z</time>
      </trkpt>
      <trkpt lat="47.27071" lon="-2.30276">
        <ele>17</ele>
        <time>2021-04-15T08:40:02.000Z</time>
      </trkpt>
      <trkpt lat="47.27075" lon="-2.30272">
        <ele>16.60000038147</ele>
        <time>2021-04-15T08:40:03.000Z</time>
      </trkpt>
      <trkpt lat="47.27079" lon="-2.30268">
        <ele>16.200000762939</ele>
        <time>2021-04-15T08:40:04.000Z</time>
      </trkpt>
      <trkpt lat="47.27082" lon="-2.30265">
        <ele>16.200000762939</ele>
        <time>2021-04-15T08:40:05.000Z</time>
      </trkpt>
      <trkpt lat="47.27096" lon="-2.30257">
        <ele>16.200000762939</ele>
        <time>2021-04-15T08:40:08.000Z</time>
      </trkpt>
      <trkpt lat="47.27101" lon="-2.30254">
        <ele>15.800000190735</ele>
        <time>2021-04-15T08:40:09.000Z</time>
      </trkpt>
      <trkpt lat="47.27106" lon="-2.30251">
        <ele>15.39999961853</ele>
        <time>2021-04-15T08:40:10.000Z</time>
      </trkpt>
      <trkpt lat="47.2711" lon="-2.30248">
        <ele>15</ele>
        <time>2021-04-15T08:40:11.000Z</time>
      </trkpt>
      <trkpt lat="47.27115" lon="-2.30245">
        <ele>14.60000038147</ele>
        <time>2021-04-15T08:40:12.000Z</time>
      </trkpt>
      <trkpt lat="47.2712" lon="-2.30243">
        <ele>14.199999809265</ele>
        <time>2021-04-15T08:40:13.000Z</time>
      </trkpt>
      <trkpt lat="47.27136" lon="-2.30236">
        <ele>14.199999809265</ele>
        <time>2021-04-15T08:40:16.000Z</time>
      </trkpt>
      <trkpt lat="47.2715" lon="-2.30238">
        <ele>14.199999809265</ele>
        <time>2021-04-15T08:40:20.000Z</time>
      </trkpt>
      <trkpt lat="47.27164" lon="-2.30248">
        <ele>14.199999809265</ele>
        <time>2021-04-15T08:40:24.000Z</time>
      </trkpt>
      <trkpt lat="47.27169" lon="-2.30248">
        <ele>14.199999809265</ele>
        <time>2021-04-15T08:40:25.000Z</time>
      </trkpt>
      <trkpt lat="47.27188" lon="-2.30241">
        <ele>14.199999809265</ele>
        <time>2021-04-15T08:40:29.000Z</time>
      </trkpt>
      <trkpt lat="47.27193" lon="-2.30241">
        <ele>14.199999809265</ele>
        <time>2021-04-15T08:40:30.000Z</time>
      </trkpt>
      <trkpt lat="47.27206" lon="-2.30247">
        <ele>14.199999809265</ele>
        <time>2021-04-15T08:40:33.000Z</time>
      </trkpt>
      <trkpt lat="47.2721" lon="-2.30248">
        <ele>14.199999809265</ele>
        <time>2021-04-15T08:40:34.000Z</time>
      </trkpt>
      <trkpt lat="47.27225" lon="-2.30255">
        <ele>14.199999809265</ele>
        <time>2021-04-15T08:40:38.000Z</time>
      </trkpt>
      <trkpt lat="47.27229" lon="-2.30255">
        <ele>14.199999809265</ele>
        <time>2021-04-15T08:40:39.000Z</time>
      </trkpt>
      <trkpt lat="47.27257" lon="-2.30255">
        <ele>14.199999809265</ele>
        <time>2021-04-15T08:40:44.000Z</time>
      </trkpt>
      <trkpt lat="47.27291" lon="-2.30257">
        <ele>14.199999809265</ele>
        <time>2021-04-15T08:40:50.000Z</time>
      </trkpt>
      <trkpt lat="47.27307" lon="-2.30257">
        <ele>14.199999809265</ele>
        <time>2021-04-15T08:40:53.000Z</time>
      </trkpt>
      <trkpt lat="47.27323" lon="-2.30255">
        <ele>14.199999809265</ele>
        <time>2021-04-15T08:40:56.000Z</time>
      </trkpt>
      <trkpt lat="47.27333" lon="-2.30254">
        <ele>14.199999809265</ele>
        <time>2021-04-15T08:40:58.000Z</time>
      </trkpt>
      <trkpt lat="47.27347" lon="-2.30253">
        <ele>14.199999809265</ele>
        <time>2021-04-15T08:41:01.000Z</time>
      </trkpt>
      <trkpt lat="47.27363" lon="-2.30253">
        <ele>14.199999809265</ele>
        <time>2021-04-15T08:41:05.000Z</time>
      </trkpt>
      <trkpt lat="47.27372" lon="-2.30251">
        <ele>14.199999809265</ele>
        <time>2021-04-15T08:41:07.000Z</time>
      </trkpt>
      <trkpt lat="47.27392" lon="-2.30242">
        <ele>14.199999809265</ele>
        <time>2021-04-15T08:41:12.000Z</time>
      </trkpt>
      <trkpt lat="47.27401" lon="-2.30237">
        <ele>14.199999809265</ele>
        <time>2021-04-15T08:41:14.000Z</time>
      </trkpt>
      <trkpt lat="47.27427" lon="-2.30224">
        <ele>14.199999809265</ele>
        <time>2021-04-15T08:41:21.000Z</time>
      </trkpt>
      <trkpt lat="47.27441" lon="-2.30217">
        <ele>14.199999809265</ele>
        <time>2021-04-15T08:41:26.000Z</time>
      </trkpt>
      <trkpt lat="47.27455" lon="-2.30202">
        <ele>14.199999809265</ele>
        <time>2021-04-15T08:41:32.000Z</time>
      </trkpt>
      <trkpt lat="47.27453" lon="-2.30182">
        <ele>14.199999809265</ele>
        <time>2021-04-15T08:41:36.000Z</time>
      </trkpt>
      <trkpt lat="47.27449" lon="-2.30166">
        <ele>14.60000038147</ele>
        <time>2021-04-15T08:41:39.000Z</time>
      </trkpt>
      <trkpt lat="47.27448" lon="-2.3016">
        <ele>15</ele>
        <time>2021-04-15T08:41:40.000Z</time>
      </trkpt>
      <trkpt lat="47.27447" lon="-2.30155">
        <ele>15.39999961853</ele>
        <time>2021-04-15T08:41:41.000Z</time>
      </trkpt>
      <trkpt lat="47.27447" lon="-2.3015">
        <ele>15.800000190735</ele>
        <time>2021-04-15T08:41:42.000Z</time>
      </trkpt>
      <trkpt lat="47.27446" lon="-2.30145">
        <ele>16.200000762939</ele>
        <time>2021-04-15T08:41:43.000Z</time>
      </trkpt>
      <trkpt lat="47.2744" lon="-2.30117">
        <ele>16.200000762939</ele>
        <time>2021-04-15T08:41:48.000Z</time>
      </trkpt>
      <trkpt lat="47.27437" lon="-2.30096">
        <ele>16.60000038147</ele>
        <time>2021-04-15T08:41:51.000Z</time>
      </trkpt>
      <trkpt lat="47.27435" lon="-2.3009">
        <ele>17</ele>
        <time>2021-04-15T08:41:52.000Z</time>
      </trkpt>
      <trkpt lat="47.27433" lon="-2.30083">
        <ele>17.39999961853</ele>
        <time>2021-04-15T08:41:53.000Z</time>
      </trkpt>
      <trkpt lat="47.27431" lon="-2.30077">
        <ele>17.799999237061</ele>
        <time>2021-04-15T08:41:54.000Z</time>
      </trkpt>
      <trkpt lat="47.27428" lon="-2.30071">
        <ele>18.200000762939</ele>
        <time>2021-04-15T08:41:55.000Z</time>
      </trkpt>
      <trkpt lat="47.27423" lon="-2.30058">
        <ele>18.200000762939</ele>
        <time>2021-04-15T08:41:57.000Z</time>
      </trkpt>
      <trkpt lat="47.27416" lon="-2.30035">
        <ele>18.200000762939</ele>
        <time>2021-04-15T08:42:00.000Z</time>
      </trkpt>
      <trkpt lat="47.27398" lon="-2.29992">
        <ele>18.200000762939</ele>
        <time>2021-04-15T08:42:07.000Z</time>
      </trkpt>
      <trkpt lat="47.27383" lon="-2.29958">
        <ele>18.200000762939</ele>
        <time>2021-04-15T08:42:13.000Z</time>
      </trkpt>
      <trkpt lat="47.27364" lon="-2.29914">
        <ele>18.200000762939</ele>
        <time>2021-04-15T08:42:20.000Z</time>
      </trkpt>
      <trkpt lat="47.27351" lon="-2.29883">
        <ele>18.200000762939</ele>
        <time>2021-04-15T08:42:25.000Z</time>
      </trkpt>
      <trkpt lat="47.27346" lon="-2.29873">
        <ele>18.200000762939</ele>
        <time>2021-04-15T08:42:27.000Z</time>
      </trkpt>
      <trkpt lat="47.27342" lon="-2.29867">
        <ele>18.60000038147</ele>
        <time>2021-04-15T08:42:28.000Z</time>
      </trkpt>
      <trkpt lat="47.27339" lon="-2.29861">
        <ele>19</ele>
        <time>2021-04-15T08:42:29.000Z</time>
      </trkpt>
      <trkpt lat="47.27335" lon="-2.29855">
        <ele>19.39999961853</ele>
        <time>2021-04-15T08:42:30.000Z</time>
      </trkpt>
      <trkpt lat="47.27332" lon="-2.2985">
        <ele>19.799999237061</ele>
        <time>2021-04-15T08:42:31.000Z</time>
      </trkpt>
      <trkpt lat="47.27328" lon="-2.29845">
        <ele>20.200000762939</ele>
        <time>2021-04-15T08:42:32.000Z</time>
      </trkpt>
      <trkpt lat="47.27316" lon="-2.29825">
        <ele>20.200000762939</ele>
        <time>2021-04-15T08:42:36.000Z</time>
      </trkpt>
      <trkpt lat="47.27297" lon="-2.29791">
        <ele>20.200000762939</ele>
        <time>2021-04-15T08:42:42.000Z</time>
      </trkpt>
      <trkpt lat="47.27284" lon="-2.29763">
        <ele>20.200000762939</ele>
        <time>2021-04-15T08:42:47.000Z</time>
      </trkpt>
      <trkpt lat="47.27282" lon="-2.29756">
        <ele>20.200000762939</ele>
        <time>2021-04-15T08:42:48.000Z</time>
      </trkpt>
      <trkpt lat="47.27279" lon="-2.29723">
        <ele>20.200000762939</ele>
        <time>2021-04-15T08:42:52.000Z</time>
      </trkpt>
      <trkpt lat="47.27271" lon="-2.29677">
        <ele>20.200000762939</ele>
        <time>2021-04-15T08:42:59.000Z</time>
      </trkpt>
      <trkpt lat="47.27267" lon="-2.29651">
        <ele>20.200000762939</ele>
        <time>2021-04-15T08:43:05.000Z</time>
      </trkpt>
      <trkpt lat="47.27261" lon="-2.29638">
        <ele>20.200000762939</ele>
        <time>2021-04-15T08:43:11.000Z</time>
      </trkpt>
      <trkpt lat="47.27257" lon="-2.29624">
        <ele>20.200000762939</ele>
        <time>2021-04-15T08:43:18.000Z</time>
      </trkpt>
      <trkpt lat="47.27255" lon="-2.29606">
        <ele>20.200000762939</ele>
        <time>2021-04-15T08:43:23.000Z</time>
      </trkpt>
      <trkpt lat="47.27252" lon="-2.29591">
        <ele>20.200000762939</ele>
        <time>2021-04-15T08:43:30.000Z</time>
      </trkpt>
      <trkpt lat="47.2725" lon="-2.29566">
        <ele>20.200000762939</ele>
        <time>2021-04-15T08:43:36.000Z</time>
      </trkpt>
      <trkpt lat="47.27245" lon="-2.29539">
        <ele>20.200000762939</ele>
        <time>2021-04-15T08:43:42.000Z</time>
      </trkpt>
      <trkpt lat="47.27235" lon="-2.29517">
        <ele>20.200000762939</ele>
        <time>2021-04-15T08:43:47.000Z</time>
      </trkpt>
      <trkpt lat="47.27222" lon="-2.29475">
        <ele>20.200000762939</ele>
        <time>2021-04-15T08:43:53.000Z</time>
      </trkpt>
      <trkpt lat="47.27209" lon="-2.29428">
        <ele>20.200000762939</ele>
        <time>2021-04-15T08:43:59.000Z</time>
      </trkpt>
      <trkpt lat="47.27196" lon="-2.29388">
        <ele>20.200000762939</ele>
        <time>2021-04-15T08:44:04.000Z</time>
      </trkpt>
      <trkpt lat="47.27193" lon="-2.29381">
        <ele>20.200000762939</ele>
        <time>2021-04-15T08:44:05.000Z</time>
      </trkpt>
      <trkpt lat="47.27186" lon="-2.29368">
        <ele>20.200000762939</ele>
        <time>2021-04-15T08:44:07.000Z</time>
      </trkpt>
      <trkpt lat="47.27175" lon="-2.29351">
        <ele>20.200000762939</ele>
        <time>2021-04-15T08:44:10.000Z</time>
      </trkpt>
      <trkpt lat="47.27154" lon="-2.29319">
        <ele>20.200000762939</ele>
        <time>2021-04-15T08:44:16.000Z</time>
      </trkpt>
      <trkpt lat="47.27153" lon="-2.29304">
        <ele>20.200000762939</ele>
        <time>2021-04-15T08:44:18.000Z</time>
      </trkpt>
      <trkpt lat="47.27156" lon="-2.29289">
        <ele>20.200000762939</ele>
        <time>2021-04-15T08:44:20.000Z</time>
      </trkpt>
      <trkpt lat="47.2716" lon="-2.29273">
        <ele>20.200000762939</ele>
        <time>2021-04-15T08:44:22.000Z</time>
      </trkpt>
      <trkpt lat="47.27164" lon="-2.29246">
        <ele>20.200000762939</ele>
        <time>2021-04-15T08:44:25.000Z</time>
      </trkpt>
      <trkpt lat="47.27165" lon="-2.2923">
        <ele>20.200000762939</ele>
        <time>2021-04-15T08:44:27.000Z</time>
      </trkpt>
      <trkpt lat="47.27156" lon="-2.29208">
        <ele>20.200000762939</ele>
        <time>2021-04-15T08:44:30.000Z</time>
      </trkpt>
      <trkpt lat="47.27153" lon="-2.29201">
        <ele>20.200000762939</ele>
        <time>2021-04-15T08:44:31.000Z</time>
      </trkpt>
      <trkpt lat="47.27151" lon="-2.29194">
        <ele>20.200000762939</ele>
        <time>2021-04-15T08:44:32.000Z</time>
      </trkpt>
      <trkpt lat="47.27148" lon="-2.29173">
        <ele>20.200000762939</ele>
        <time>2021-04-15T08:44:35.000Z</time>
      </trkpt>
      <trkpt lat="47.27152" lon="-2.29156">
        <ele>20.200000762939</ele>
        <time>2021-04-15T08:44:38.000Z</time>
      </trkpt>
      <trkpt lat="47.27155" lon="-2.29151">
        <ele>20.200000762939</ele>
        <time>2021-04-15T08:44:39.000Z</time>
      </trkpt>
      <trkpt lat="47.27174" lon="-2.2913">
        <ele>20.200000762939</ele>
        <time>2021-04-15T08:44:43.000Z</time>
      </trkpt>
      <trkpt lat="47.27179" lon="-2.29126">
        <ele>20.200000762939</ele>
        <time>2021-04-15T08:44:44.000Z</time>
      </trkpt>
      <trkpt lat="47.27197" lon="-2.29102">
        <ele>20.200000762939</ele>
        <time>2021-04-15T08:44:48.000Z</time>
      </trkpt>
      <trkpt lat="47.27202" lon="-2.29098">
        <ele>20.200000762939</ele>
        <time>2021-04-15T08:44:49.000Z</time>
      </trkpt>
      <trkpt lat="47.27218" lon="-2.29083">
        <ele>20.200000762939</ele>
        <time>2021-04-15T08:44:52.000Z</time>
      </trkpt>
      <trkpt lat="47.27223" lon="-2.29078">
        <ele>20.200000762939</ele>
        <time>2021-04-15T08:44:53.000Z</time>
      </trkpt>
      <trkpt lat="47.27244" lon="-2.2906">
        <ele>20.200000762939</ele>
        <time>2021-04-15T08:44:57.000Z</time>
      </trkpt>
      <trkpt lat="47.27255" lon="-2.29049">
        <ele>20.200000762939</ele>
        <time>2021-04-15T08:44:59.000Z</time>
      </trkpt>
      <trkpt lat="47.27264" lon="-2.29038">
        <ele>20.200000762939</ele>
        <time>2021-04-15T08:45:01.000Z</time>
      </trkpt>
      <trkpt lat="47.27273" lon="-2.29026">
        <ele>19.799999237061</ele>
        <time>2021-04-15T08:45:03.000Z</time>
      </trkpt>
      <trkpt lat="47.27275" lon="-2.29019">
        <ele>19.39999961853</ele>
        <time>2021-04-15T08:45:04.000Z</time>
      </trkpt>
      <trkpt lat="47.27277" lon="-2.29013">
        <ele>19</ele>
        <time>2021-04-15T08:45:05.000Z</time>
      </trkpt>
      <trkpt lat="47.2728" lon="-2.29007">
        <ele>18.60000038147</ele>
        <time>2021-04-15T08:45:06.000Z</time>
      </trkpt>
      <trkpt lat="47.27282" lon="-2.29001">
        <ele>18.200000762939</ele>
        <time>2021-04-15T08:45:07.000Z</time>
      </trkpt>
      <trkpt lat="47.27293" lon="-2.28981">
        <ele>18.200000762939</ele>
        <time>2021-04-15T08:45:11.000Z</time>
      </trkpt>
      <trkpt lat="47.27305" lon="-2.28959">
        <ele>18.200000762939</ele>
        <time>2021-04-15T08:45:16.000Z</time>
      </trkpt>
      <trkpt lat="47.27309" lon="-2.2895">
        <ele>18.200000762939</ele>
        <time>2021-04-15T08:45:18.000Z</time>
      </trkpt>
      <trkpt lat="47.27317" lon="-2.28948">
        <ele>18.200000762939</ele>
        <time>2021-04-15T08:45:20.000Z</time>
      </trkpt>
      <trkpt lat="47.2733" lon="-2.28956">
        <ele>18.200000762939</ele>
        <time>2021-04-15T08:45:23.000Z</time>
      </trkpt>
      <trkpt lat="47.27342" lon="-2.28944">
        <ele>18.200000762939</ele>
        <time>2021-04-15T08:45:26.000Z</time>
      </trkpt>
      <trkpt lat="47.27346" lon="-2.28923">
        <ele>18.200000762939</ele>
        <time>2021-04-15T08:45:29.000Z</time>
      </trkpt>
      <trkpt lat="47.27348" lon="-2.28915">
        <ele>18.200000762939</ele>
        <time>2021-04-15T08:45:30.000Z</time>
      </trkpt>
      <trkpt lat="47.27352" lon="-2.28881">
        <ele>18.200000762939</ele>
        <time>2021-04-15T08:45:34.000Z</time>
      </trkpt>
      <trkpt lat="47.27361" lon="-2.2883">
        <ele>18.200000762939</ele>
        <time>2021-04-15T08:45:40.000Z</time>
      </trkpt>
      <trkpt lat="47.27371" lon="-2.28796">
        <ele>18.200000762939</ele>
        <time>2021-04-15T08:45:44.000Z</time>
      </trkpt>
      <trkpt lat="47.27375" lon="-2.28787">
        <ele>18.200000762939</ele>
        <time>2021-04-15T08:45:45.000Z</time>
      </trkpt>
      <trkpt lat="47.27401" lon="-2.28733">
        <ele>18.200000762939</ele>
        <time>2021-04-15T08:45:52.000Z</time>
      </trkpt>
      <trkpt lat="47.27415" lon="-2.28702">
        <ele>18.200000762939</ele>
        <time>2021-04-15T08:45:57.000Z</time>
      </trkpt>
      <trkpt lat="47.27436" lon="-2.28662">
        <ele>18.200000762939</ele>
        <time>2021-04-15T08:46:03.000Z</time>
      </trkpt>
      <trkpt lat="47.27456" lon="-2.28626">
        <ele>18.200000762939</ele>
        <time>2021-04-15T08:46:09.000Z</time>
      </trkpt>
      <trkpt lat="47.27469" lon="-2.28608">
        <ele>18.200000762939</ele>
        <time>2021-04-15T08:46:13.000Z</time>
      </trkpt>
      <trkpt lat="47.2748" lon="-2.28621">
        <ele>18.200000762939</ele>
        <time>2021-04-15T08:46:16.000Z</time>
      </trkpt>
      <trkpt lat="47.27484" lon="-2.2863">
        <ele>18.200000762939</ele>
        <time>2021-04-15T08:46:17.000Z</time>
      </trkpt>
      <trkpt lat="47.27488" lon="-2.28639">
        <ele>18.200000762939</ele>
        <time>2021-04-15T08:46:18.000Z</time>
      </trkpt>
      <trkpt lat="47.27497" lon="-2.28655">
        <ele>18.200000762939</ele>
        <time>2021-04-15T08:46:20.000Z</time>
      </trkpt>
      <trkpt lat="47.27516" lon="-2.28688">
        <ele>18.200000762939</ele>
        <time>2021-04-15T08:46:25.000Z</time>
      </trkpt>
      <trkpt lat="47.2754" lon="-2.28711">
        <ele>18.200000762939</ele>
        <time>2021-04-15T08:46:30.000Z</time>
      </trkpt>
      <trkpt lat="47.27544" lon="-2.28714">
        <ele>18.200000762939</ele>
        <time>2021-04-15T08:46:31.000Z</time>
      </trkpt>
      <trkpt lat="47.27577" lon="-2.28733">
        <ele>18.200000762939</ele>
        <time>2021-04-15T08:46:37.000Z</time>
      </trkpt>
      <trkpt lat="47.27607" lon="-2.28748">
        <ele>17.799999237061</ele>
        <time>2021-04-15T08:46:42.000Z</time>
      </trkpt>
      <trkpt lat="47.27612" lon="-2.2875">
        <ele>17.39999961853</ele>
        <time>2021-04-15T08:46:43.000Z</time>
      </trkpt>
      <trkpt lat="47.27618" lon="-2.28751">
        <ele>17</ele>
        <time>2021-04-15T08:46:44.000Z</time>
      </trkpt>
      <trkpt lat="47.27624" lon="-2.28752">
        <ele>16.60000038147</ele>
        <time>2021-04-15T08:46:45.000Z</time>
      </trkpt>
      <trkpt lat="47.2763" lon="-2.28754">
        <ele>16.200000762939</ele>
        <time>2021-04-15T08:46:46.000Z</time>
      </trkpt>
      <trkpt lat="47.27647" lon="-2.28758">
        <ele>16.200000762939</ele>
        <time>2021-04-15T08:46:49.000Z</time>
      </trkpt>
      <trkpt lat="47.27678" lon="-2.28773">
        <ele>16.200000762939</ele>
        <time>2021-04-15T08:46:55.000Z</time>
      </trkpt>
      <trkpt lat="47.27692" lon="-2.28797">
        <ele>16.200000762939</ele>
        <time>2021-04-15T08:46:59.000Z</time>
      </trkpt>
      <trkpt lat="47.27704" lon="-2.28811">
        <ele>16.200000762939</ele>
        <time>2021-04-15T08:47:02.000Z</time>
      </trkpt>
      <trkpt lat="47.2771" lon="-2.28812">
        <ele>16.200000762939</ele>
        <time>2021-04-15T08:47:03.000Z</time>
      </trkpt>
      <trkpt lat="47.27733" lon="-2.28805">
        <ele>16.200000762939</ele>
        <time>2021-04-15T08:47:07.000Z</time>
      </trkpt>
      <trkpt lat="47.27766" lon="-2.28796">
        <ele>16.200000762939</ele>
        <time>2021-04-15T08:47:13.000Z</time>
      </trkpt>
      <trkpt lat="47.27778" lon="-2.28795">
        <ele>16.200000762939</ele>
        <time>2021-04-15T08:47:15.000Z</time>
      </trkpt>
      <trkpt lat="47.27797" lon="-2.28795">
        <ele>16.200000762939</ele>
        <time>2021-04-15T08:47:18.000Z</time>
      </trkpt>
      <trkpt lat="47.27828" lon="-2.28795">
        <ele>16.200000762939</ele>
        <time>2021-04-15T08:47:23.000Z</time>
      </trkpt>
      <trkpt lat="47.27833" lon="-2.28797">
        <ele>16.200000762939</ele>
        <time>2021-04-15T08:47:24.000Z</time>
      </trkpt>
      <trkpt lat="47.27853" lon="-2.2881">
        <ele>16.200000762939</ele>
        <time>2021-04-15T08:47:28.000Z</time>
      </trkpt>
      <trkpt lat="47.27863" lon="-2.28815">
        <ele>16.200000762939</ele>
        <time>2021-04-15T08:47:32.000Z</time>
      </trkpt>
      <trkpt lat="47.27869" lon="-2.28804">
        <ele>16.200000762939</ele>
        <time>2021-04-15T08:47:36.000Z</time>
      </trkpt>
      <trkpt lat="47.27877" lon="-2.28783">
        <ele>16.200000762939</ele>
        <time>2021-04-15T08:47:40.000Z</time>
      </trkpt>
      <trkpt lat="47.27879" lon="-2.28777">
        <ele>16.200000762939</ele>
        <time>2021-04-15T08:47:41.000Z</time>
      </trkpt>
      <trkpt lat="47.27897" lon="-2.28763">
        <ele>16.200000762939</ele>
        <time>2021-04-15T08:47:45.000Z</time>
      </trkpt>
      <trkpt lat="47.27908" lon="-2.2876">
        <ele>16.200000762939</ele>
        <time>2021-04-15T08:47:47.000Z</time>
      </trkpt>
      <trkpt lat="47.27939" lon="-2.2875">
        <ele>16.200000762939</ele>
        <time>2021-04-15T08:47:53.000Z</time>
      </trkpt>
      <trkpt lat="47.27945" lon="-2.28747">
        <ele>16.200000762939</ele>
        <time>2021-04-15T08:47:54.000Z</time>
      </trkpt>
      <trkpt lat="47.27956" lon="-2.28744">
        <ele>16.200000762939</ele>
        <time>2021-04-15T08:47:56.000Z</time>
      </trkpt>
      <trkpt lat="47.27967" lon="-2.28743">
        <ele>16.200000762939</ele>
        <time>2021-04-15T08:47:58.000Z</time>
      </trkpt>
      <trkpt lat="47.28001" lon="-2.28748">
        <ele>16.200000762939</ele>
        <time>2021-04-15T08:48:04.000Z</time>
      </trkpt>
      <trkpt lat="47.28035" lon="-2.28755">
        <ele>16.200000762939</ele>
        <time>2021-04-15T08:48:10.000Z</time>
      </trkpt>
      <trkpt lat="47.28073" lon="-2.28767">
        <ele>16.200000762939</ele>
        <time>2021-04-15T08:48:17.000Z</time>
      </trkpt>
      <trkpt lat="47.28113" lon="-2.28788">
        <ele>16.200000762939</ele>
        <time>2021-04-15T08:48:25.000Z</time>
      </trkpt>
      <trkpt lat="47.28145" lon="-2.28811">
        <ele>16.200000762939</ele>
        <time>2021-04-15T08:48:32.000Z</time>
      </trkpt>
      <trkpt lat="47.2815" lon="-2.28816">
        <ele>16.200000762939</ele>
        <time>2021-04-15T08:48:33.000Z</time>
      </trkpt>
      <trkpt lat="47.28172" lon="-2.28836">
        <ele>16.799999237061</ele>
        <time>2021-04-15T08:48:38.000Z</time>
      </trkpt>
      <trkpt lat="47.28177" lon="-2.28839">
        <ele>17.200000762939</ele>
        <time>2021-04-15T08:48:39.000Z</time>
      </trkpt>
      <trkpt lat="47.28182" lon="-2.28844">
        <ele>17.60000038147</ele>
        <time>2021-04-15T08:48:40.000Z</time>
      </trkpt>
      <trkpt lat="47.28187" lon="-2.28849">
        <ele>18</ele>
        <time>2021-04-15T08:48:41.000Z</time>
      </trkpt>
      <trkpt lat="47.28191" lon="-2.28854">
        <ele>18.60000038147</ele>
        <time>2021-04-15T08:48:42.000Z</time>
      </trkpt>
      <trkpt lat="47.2821" lon="-2.2887">
        <ele>18.60000038147</ele>
        <time>2021-04-15T08:48:46.000Z</time>
      </trkpt>
      <trkpt lat="47.28225" lon="-2.28863">
        <ele>18.60000038147</ele>
        <time>2021-04-15T08:48:49.000Z</time>
      </trkpt>
      <trkpt lat="47.28233" lon="-2.28843">
        <ele>18.60000038147</ele>
        <time>2021-04-15T08:48:52.000Z</time>
      </trkpt>
      <trkpt lat="47.28235" lon="-2.28835">
        <ele>18.60000038147</ele>
        <time>2021-04-15T08:48:53.000Z</time>
      </trkpt>
      <trkpt lat="47.28236" lon="-2.28827">
        <ele>19</ele>
        <time>2021-04-15T08:48:54.000Z</time>
      </trkpt>
      <trkpt lat="47.28238" lon="-2.28818">
        <ele>19.39999961853</ele>
        <time>2021-04-15T08:48:55.000Z</time>
      </trkpt>
      <trkpt lat="47.28239" lon="-2.28809">
        <ele>19.799999237061</ele>
        <time>2021-04-15T08:48:56.000Z</time>
      </trkpt>
      <trkpt lat="47.2824" lon="-2.288">
        <ele>20.200000762939</ele>
        <time>2021-04-15T08:48:57.000Z</time>
      </trkpt>
      <trkpt lat="47.28241" lon="-2.28791">
        <ele>20.60000038147</ele>
        <time>2021-04-15T08:48:58.000Z</time>
      </trkpt>
      <trkpt lat="47.28243" lon="-2.28783">
        <ele>20.60000038147</ele>
        <time>2021-04-15T08:48:59.000Z</time>
      </trkpt>
      <trkpt lat="47.28254" lon="-2.28716">
        <ele>20.60000038147</ele>
        <time>2021-04-15T08:49:07.000Z</time>
      </trkpt>
      <trkpt lat="47.28264" lon="-2.28659">
        <ele>20.60000038147</ele>
        <time>2021-04-15T08:49:14.000Z</time>
      </trkpt>
      <trkpt lat="47.28277" lon="-2.28595">
        <ele>20.60000038147</ele>
        <time>2021-04-15T08:49:22.000Z</time>
      </trkpt>
      <trkpt lat="47.2829" lon="-2.28523">
        <ele>20.60000038147</ele>
        <time>2021-04-15T08:49:31.000Z</time>
      </trkpt>
      <trkpt lat="47.28297" lon="-2.28471">
        <ele>20.60000038147</ele>
        <time>2021-04-15T08:49:38.000Z</time>
      </trkpt>
      <trkpt lat="47.28299" lon="-2.28464">
        <ele>20.60000038147</ele>
        <time>2021-04-15T08:49:39.000Z</time>
      </trkpt>
      <trkpt lat="47.28308" lon="-2.28427">
        <ele>20.60000038147</ele>
        <time>2021-04-15T08:49:44.000Z</time>
      </trkpt>
      <trkpt lat="47.2832" lon="-2.28382">
        <ele>20.60000038147</ele>
        <time>2021-04-15T08:49:50.000Z</time>
      </trkpt>
      <trkpt lat="47.28323" lon="-2.28365">
        <ele>20.60000038147</ele>
        <time>2021-04-15T08:49:52.000Z</time>
      </trkpt>
      <trkpt lat="47.28324" lon="-2.28343">
        <ele>20.60000038147</ele>
        <time>2021-04-15T08:49:55.000Z</time>
      </trkpt>
      <trkpt lat="47.28324" lon="-2.28294">
        <ele>20.60000038147</ele>
        <time>2021-04-15T08:50:02.000Z</time>
      </trkpt>
      <trkpt lat="47.28325" lon="-2.28243">
        <ele>20.60000038147</ele>
        <time>2021-04-15T08:50:08.000Z</time>
      </trkpt>
      <trkpt lat="47.28325" lon="-2.28176">
        <ele>20.200000762939</ele>
        <time>2021-04-15T08:50:15.000Z</time>
      </trkpt>
      <trkpt lat="47.28325" lon="-2.28166">
        <ele>19.60000038147</ele>
        <time>2021-04-15T08:50:16.000Z</time>
      </trkpt>
      <trkpt lat="47.28324" lon="-2.28155">
        <ele>19.200000762939</ele>
        <time>2021-04-15T08:50:17.000Z</time>
      </trkpt>
      <trkpt lat="47.28324" lon="-2.28146">
        <ele>18.60000038147</ele>
        <time>2021-04-15T08:50:18.000Z</time>
      </trkpt>
      <trkpt lat="47.28324" lon="-2.28136">
        <ele>18</ele>
        <time>2021-04-15T08:50:19.000Z</time>
      </trkpt>
      <trkpt lat="47.28324" lon="-2.28126">
        <ele>17.39999961853</ele>
        <time>2021-04-15T08:50:20.000Z</time>
      </trkpt>
      <trkpt lat="47.28323" lon="-2.28117">
        <ele>16.799999237061</ele>
        <time>2021-04-15T08:50:21.000Z</time>
      </trkpt>
      <trkpt lat="47.28323" lon="-2.28107">
        <ele>16.200000762939</ele>
        <time>2021-04-15T08:50:22.000Z</time>
      </trkpt>
      <trkpt lat="47.28324" lon="-2.28101">
        <ele>15.60000038147</ele>
        <time>2021-04-15T08:50:23.000Z</time>
      </trkpt>
      <trkpt lat="47.28324" lon="-2.28095">
        <ele>15</ele>
        <time>2021-04-15T08:50:24.000Z</time>
      </trkpt>
      <trkpt lat="47.28325" lon="-2.28091">
        <ele>14.39999961853</ele>
        <time>2021-04-15T08:50:25.000Z</time>
      </trkpt>
      <trkpt lat="47.28327" lon="-2.28089">
        <ele>13.800000190735</ele>
        <time>2021-04-15T08:50:26.000Z</time>
      </trkpt>
      <trkpt lat="47.28331" lon="-2.28079">
        <ele>13.800000190735</ele>
        <time>2021-04-15T08:50:29.000Z</time>
      </trkpt>
      <trkpt lat="47.2835" lon="-2.28065">
        <ele>11.60000038147</ele>
        <time>2021-04-15T08:50:36.000Z</time>
      </trkpt>
      <trkpt lat="47.28354" lon="-2.28064">
        <ele>11.60000038147</ele>
        <time>2021-04-15T08:50:38.000Z</time>
      </trkpt>
      <trkpt lat="47.28364" lon="-2.28066">
        <ele>11.60000038147</ele>
        <time>2021-04-15T08:50:43.000Z</time>
      </trkpt>
      <trkpt lat="47.28372" lon="-2.28069">
        <ele>11.60000038147</ele>
        <time>2021-04-15T08:50:49.000Z</time>
      </trkpt>
      <trkpt lat="47.28374" lon="-2.2807">
        <ele>11.60000038147</ele>
        <time>2021-04-15T08:50:52.000Z</time>
      </trkpt>
      <trkpt lat="47.2838" lon="-2.2807">
        <ele>11.60000038147</ele>
        <time>2021-04-15T08:51:12.000Z</time>
      </trkpt>
      <trkpt lat="47.28382" lon="-2.28069">
        <ele>11.60000038147</ele>
        <time>2021-04-15T08:51:13.000Z</time>
      </trkpt>
      <trkpt lat="47.28394" lon="-2.28072">
        <ele>11.60000038147</ele>
        <time>2021-04-15T08:51:18.000Z</time>
      </trkpt>
      <trkpt lat="47.2841" lon="-2.28075">
        <ele>11.60000038147</ele>
        <time>2021-04-15T08:51:23.000Z</time>
      </trkpt>
      <trkpt lat="47.28416" lon="-2.28076">
        <ele>12.199999809265</ele>
        <time>2021-04-15T08:51:26.000Z</time>
      </trkpt>
      <trkpt lat="47.28419" lon="-2.28078">
        <ele>13</ele>
        <time>2021-04-15T08:51:27.000Z</time>
      </trkpt>
      <trkpt lat="47.28422" lon="-2.28075">
        <ele>13.39999961853</ele>
        <time>2021-04-15T08:51:28.000Z</time>
      </trkpt>
      <trkpt lat="47.28425" lon="-2.28074">
        <ele>13.800000190735</ele>
        <time>2021-04-15T08:51:29.000Z</time>
      </trkpt>
      <trkpt lat="47.28428" lon="-2.28075">
        <ele>13.800000190735</ele>
        <time>2021-04-15T08:51:30.000Z</time>
      </trkpt>
      <trkpt lat="47.28443" lon="-2.28078">
        <ele>13.800000190735</ele>
        <time>2021-04-15T08:51:34.000Z</time>
      </trkpt>
      <trkpt lat="47.28448" lon="-2.28079">
        <ele>13.800000190735</ele>
        <time>2021-04-15T08:51:35.000Z</time>
      </trkpt>
      <trkpt lat="47.28451" lon="-2.28082">
        <ele>13.800000190735</ele>
        <time>2021-04-15T08:51:36.000Z</time>
      </trkpt>
      <trkpt lat="47.28456" lon="-2.28087">
        <ele>13.800000190735</ele>
        <time>2021-04-15T08:51:38.000Z</time>
      </trkpt>
      <trkpt lat="47.28474" lon="-2.28083">
        <ele>13.800000190735</ele>
        <time>2021-04-15T08:51:42.000Z</time>
      </trkpt>
      <trkpt lat="47.28484" lon="-2.28073">
        <ele>13.800000190735</ele>
        <time>2021-04-15T08:51:46.000Z</time>
      </trkpt>
      <trkpt lat="47.28483" lon="-2.28067">
        <ele>13.800000190735</ele>
        <time>2021-04-15T08:51:49.000Z</time>
      </trkpt>
      <trkpt lat="47.28479" lon="-2.28062">
        <ele>14.199999809265</ele>
        <time>2021-04-15T08:51:52.000Z</time>
      </trkpt>
      <trkpt lat="47.28479" lon="-2.28061">
        <ele>14.800000190735</ele>
        <time>2021-04-15T08:51:53.000Z</time>
      </trkpt>
      <trkpt lat="47.28478" lon="-2.28059">
        <ele>15.199999809265</ele>
        <time>2021-04-15T08:51:54.000Z</time>
      </trkpt>
      <trkpt lat="47.28477" lon="-2.28057">
        <ele>15.60000038147</ele>
        <time>2021-04-15T08:51:55.000Z</time>
      </trkpt>
      <trkpt lat="47.28476" lon="-2.28055">
        <ele>16</ele>
        <time>2021-04-15T08:51:56.000Z</time>
      </trkpt>
      <trkpt lat="47.28479" lon="-2.28052">
        <ele>16</ele>
        <time>2021-04-15T08:51:58.000Z</time>
      </trkpt>
      <trkpt lat="47.28481" lon="-2.28051">
        <ele>16</ele>
        <time>2021-04-15T08:51:59.000Z</time>
      </trkpt>
      <trkpt lat="47.28496" lon="-2.28041">
        <ele>16</ele>
        <time>2021-04-15T08:52:04.000Z</time>
      </trkpt>
      <trkpt lat="47.28499" lon="-2.2804">
        <ele>16</ele>
        <time>2021-04-15T08:52:05.000Z</time>
      </trkpt>
      <trkpt lat="47.28512" lon="-2.28049">
        <ele>16</ele>
        <time>2021-04-15T08:52:09.000Z</time>
      </trkpt>
      <trkpt lat="47.28523" lon="-2.28047">
        <ele>16</ele>
        <time>2021-04-15T08:52:11.000Z</time>
      </trkpt>
      <trkpt lat="47.28527" lon="-2.28046">
        <ele>16</ele>
        <time>2021-04-15T08:52:12.000Z</time>
      </trkpt>
      <trkpt lat="47.28531" lon="-2.28047">
        <ele>15.39999961853</ele>
        <time>2021-04-15T08:52:13.000Z</time>
      </trkpt>
      <trkpt lat="47.28534" lon="-2.28047">
        <ele>15</ele>
        <time>2021-04-15T08:52:14.000Z</time>
      </trkpt>
      <trkpt lat="47.28538" lon="-2.28047">
        <ele>14.39999961853</ele>
        <time>2021-04-15T08:52:15.000Z</time>
      </trkpt>
      <trkpt lat="47.28542" lon="-2.28046">
        <ele>13.39999961853</ele>
        <time>2021-04-15T08:52:16.000Z</time>
      </trkpt>
      <trkpt lat="47.28545" lon="-2.28048">
        <ele>12.800000190735</ele>
        <time>2021-04-15T08:52:17.000Z</time>
      </trkpt>
      <trkpt lat="47.28548" lon="-2.28051">
        <ele>12.199999809265</ele>
        <time>2021-04-15T08:52:18.000Z</time>
      </trkpt>
      <trkpt lat="47.28553" lon="-2.28051">
        <ele>11.60000038147</ele>
        <time>2021-04-15T08:52:19.000Z</time>
      </trkpt>
      <trkpt lat="47.28557" lon="-2.2805">
        <ele>11.199999809265</ele>
        <time>2021-04-15T08:52:20.000Z</time>
      </trkpt>
      <trkpt lat="47.28572" lon="-2.28046">
        <ele>11.199999809265</ele>
        <time>2021-04-15T08:52:24.000Z</time>
      </trkpt>
      <trkpt lat="47.2858" lon="-2.28039">
        <ele>11.199999809265</ele>
        <time>2021-04-15T08:52:26.000Z</time>
      </trkpt>
      <trkpt lat="47.28585" lon="-2.28036">
        <ele>10.800000190735</ele>
        <time>2021-04-15T08:52:27.000Z</time>
      </trkpt>
      <trkpt lat="47.28588" lon="-2.28032">
        <ele>10.39999961853</ele>
        <time>2021-04-15T08:52:28.000Z</time>
      </trkpt>
      <trkpt lat="47.28593" lon="-2.28027">
        <ele>10</ele>
        <time>2021-04-15T08:52:29.000Z</time>
      </trkpt>
      <trkpt lat="47.28597" lon="-2.28022">
        <ele>9.6000003814697</ele>
        <time>2021-04-15T08:52:30.000Z</time>
      </trkpt>
      <trkpt lat="47.286" lon="-2.28017">
        <ele>9.1999998092651</ele>
        <time>2021-04-15T08:52:31.000Z</time>
      </trkpt>
      <trkpt lat="47.28607" lon="-2.28006">
        <ele>9.1999998092651</ele>
        <time>2021-04-15T08:52:33.000Z</time>
      </trkpt>
      <trkpt lat="47.28611" lon="-2.27998">
        <ele>9.1999998092651</ele>
        <time>2021-04-15T08:52:34.000Z</time>
      </trkpt>
      <trkpt lat="47.28614" lon="-2.27974">
        <ele>9.1999998092651</ele>
        <time>2021-04-15T08:52:37.000Z</time>
      </trkpt>
      <trkpt lat="47.28616" lon="-2.27966">
        <ele>9.1999998092651</ele>
        <time>2021-04-15T08:52:38.000Z</time>
      </trkpt>
      <trkpt lat="47.28621" lon="-2.27954">
        <ele>9.1999998092651</ele>
        <time>2021-04-15T08:52:41.000Z</time>
      </trkpt>
      <trkpt lat="47.28621" lon="-2.27954">
        <ele>9.1999998092651</ele>
        <time>2021-04-15T08:52:42.000Z</time>
      </trkpt>
      <trkpt lat="47.28626" lon="-2.27942">
        <ele>7</ele>
        <time>2021-04-15T08:57:57.000Z</time>
      </trkpt>
      <trkpt lat="47.28626" lon="-2.27939">
        <ele>7</ele>
        <time>2021-04-15T08:57:58.000Z</time>
      </trkpt>
      <trkpt lat="47.28626" lon="-2.27923">
        <ele>7</ele>
        <time>2021-04-15T08:58:02.000Z</time>
      </trkpt>
      <trkpt lat="47.28626" lon="-2.27918">
        <ele>7</ele>
        <time>2021-04-15T08:58:03.000Z</time>
      </trkpt>
      <trkpt lat="47.2863" lon="-2.27888">
        <ele>7</ele>
        <time>2021-04-15T08:58:08.000Z</time>
      </trkpt>
      <trkpt lat="47.28632" lon="-2.27875">
        <ele>7</ele>
        <time>2021-04-15T08:58:10.000Z</time>
      </trkpt>
      <trkpt lat="47.28634" lon="-2.27855">
        <ele>7</ele>
        <time>2021-04-15T08:58:13.000Z</time>
      </trkpt>
      <trkpt lat="47.28636" lon="-2.2784">
        <ele>7</ele>
        <time>2021-04-15T08:58:15.000Z</time>
      </trkpt>
      <trkpt lat="47.28643" lon="-2.27813">
        <ele>7</ele>
        <time>2021-04-15T08:58:19.000Z</time>
      </trkpt>
      <trkpt lat="47.28648" lon="-2.27794">
        <ele>7</ele>
        <time>2021-04-15T08:58:22.000Z</time>
      </trkpt>
      <trkpt lat="47.28654" lon="-2.27768">
        <ele>7</ele>
        <time>2021-04-15T08:58:26.000Z</time>
      </trkpt>
      <trkpt lat="47.28668" lon="-2.27738">
        <ele>7</ele>
        <time>2021-04-15T08:58:30.000Z</time>
      </trkpt>
      <trkpt lat="47.287" lon="-2.27686">
        <ele>7</ele>
        <time>2021-04-15T08:58:38.000Z</time>
      </trkpt>
      <trkpt lat="47.28726" lon="-2.27643">
        <ele>7</ele>
        <time>2021-04-15T08:58:45.000Z</time>
      </trkpt>
      <trkpt lat="47.28741" lon="-2.27618">
        <ele>7</ele>
        <time>2021-04-15T08:58:49.000Z</time>
      </trkpt>
      <trkpt lat="47.28746" lon="-2.27612">
        <ele>7</ele>
        <time>2021-04-15T08:58:50.000Z</time>
      </trkpt>
      <trkpt lat="47.2876" lon="-2.27596">
        <ele>7</ele>
        <time>2021-04-15T08:58:53.000Z</time>
      </trkpt>
      <trkpt lat="47.28777" lon="-2.27575">
        <ele>7</ele>
        <time>2021-04-15T08:58:57.000Z</time>
      </trkpt>
      <trkpt lat="47.2879" lon="-2.27558">
        <ele>7</ele>
        <time>2021-04-15T08:59:00.000Z</time>
      </trkpt>
      <trkpt lat="47.28793" lon="-2.27552">
        <ele>6.5999999046326</ele>
        <time>2021-04-15T08:59:01.000Z</time>
      </trkpt>
      <trkpt lat="47.28797" lon="-2.27546">
        <ele>6.1999998092651</ele>
        <time>2021-04-15T08:59:02.000Z</time>
      </trkpt>
      <trkpt lat="47.28801" lon="-2.27542">
        <ele>5.8000001907349</ele>
        <time>2021-04-15T08:59:03.000Z</time>
      </trkpt>
      <trkpt lat="47.28807" lon="-2.27539">
        <ele>5.4000000953674</ele>
        <time>2021-04-15T08:59:04.000Z</time>
      </trkpt>
      <trkpt lat="47.28812" lon="-2.27537">
        <ele>5</ele>
        <time>2021-04-15T08:59:05.000Z</time>
      </trkpt>
      <trkpt lat="47.28818" lon="-2.27536">
        <ele>5</ele>
        <time>2021-04-15T08:59:06.000Z</time>
      </trkpt>
      <trkpt lat="47.28823" lon="-2.27536">
        <ele>5</ele>
        <time>2021-04-15T08:59:07.000Z</time>
      </trkpt>
      <trkpt lat="47.28857" lon="-2.27531">
        <ele>5</ele>
        <time>2021-04-15T08:59:13.000Z</time>
      </trkpt>
      <trkpt lat="47.28891" lon="-2.27525">
        <ele>5</ele>
        <time>2021-04-15T08:59:19.000Z</time>
      </trkpt>
      <trkpt lat="47.2892" lon="-2.2752">
        <ele>5</ele>
        <time>2021-04-15T08:59:24.000Z</time>
      </trkpt>
      <trkpt lat="47.28952" lon="-2.27521">
        <ele>5</ele>
        <time>2021-04-15T08:59:29.000Z</time>
      </trkpt>
      <trkpt lat="47.28959" lon="-2.27521">
        <ele>5</ele>
        <time>2021-04-15T08:59:30.000Z</time>
      </trkpt>
      <trkpt lat="47.2899" lon="-2.27519">
        <ele>5</ele>
        <time>2021-04-15T08:59:35.000Z</time>
      </trkpt>
      <trkpt lat="47.29032" lon="-2.2752">
        <ele>5</ele>
        <time>2021-04-15T08:59:42.000Z</time>
      </trkpt>
      <trkpt lat="47.29085" lon="-2.27526">
        <ele>5</ele>
        <time>2021-04-15T08:59:51.000Z</time>
      </trkpt>
      <trkpt lat="47.29113" lon="-2.2753">
        <ele>5</ele>
        <time>2021-04-15T08:59:56.000Z</time>
      </trkpt>
      <trkpt lat="47.29118" lon="-2.27531">
        <ele>5</ele>
        <time>2021-04-15T08:59:57.000Z</time>
      </trkpt>
      <trkpt lat="47.29153" lon="-2.2753">
        <ele>5</ele>
        <time>2021-04-15T09:00:03.000Z</time>
      </trkpt>
      <trkpt lat="47.292" lon="-2.27528">
        <ele>5</ele>
        <time>2021-04-15T09:00:11.000Z</time>
      </trkpt>
      <trkpt lat="47.29229" lon="-2.27528">
        <ele>5</ele>
        <time>2021-04-15T09:00:16.000Z</time>
      </trkpt>
      <trkpt lat="47.29251" lon="-2.27526">
        <ele>5</ele>
        <time>2021-04-15T09:00:20.000Z</time>
      </trkpt>
      <trkpt lat="47.29258" lon="-2.27525">
        <ele>5</ele>
        <time>2021-04-15T09:00:22.000Z</time>
      </trkpt>
      <trkpt lat="47.29268" lon="-2.27521">
        <ele>5</ele>
        <time>2021-04-15T09:00:26.000Z</time>
      </trkpt>
      <trkpt lat="47.29276" lon="-2.27517">
        <ele>5</ele>
        <time>2021-04-15T09:00:28.000Z</time>
      </trkpt>
      <trkpt lat="47.29285" lon="-2.27521">
        <ele>5</ele>
        <time>2021-04-15T09:00:30.000Z</time>
      </trkpt>
      <trkpt lat="47.29295" lon="-2.27527">
        <ele>5</ele>
        <time>2021-04-15T09:00:32.000Z</time>
      </trkpt>
      <trkpt lat="47.29311" lon="-2.27532">
        <ele>5</ele>
        <time>2021-04-15T09:00:35.000Z</time>
      </trkpt>
      <trkpt lat="47.29317" lon="-2.27532">
        <ele>5</ele>
        <time>2021-04-15T09:00:36.000Z</time>
      </trkpt>
      <trkpt lat="47.29353" lon="-2.27529">
        <ele>5</ele>
        <time>2021-04-15T09:00:42.000Z</time>
      </trkpt>
      <trkpt lat="47.29392" lon="-2.27516">
        <ele>5</ele>
        <time>2021-04-15T09:00:49.000Z</time>
      </trkpt>
      <trkpt lat="47.29403" lon="-2.27513">
        <ele>5.4000000953674</ele>
        <time>2021-04-15T09:00:51.000Z</time>
      </trkpt>
      <trkpt lat="47.29409" lon="-2.27512">
        <ele>5.8000001907349</ele>
        <time>2021-04-15T09:00:52.000Z</time>
      </trkpt>
      <trkpt lat="47.29416" lon="-2.27511">
        <ele>6.1999998092651</ele>
        <time>2021-04-15T09:00:53.000Z</time>
      </trkpt>
      <trkpt lat="47.29422" lon="-2.2751">
        <ele>6.5999999046326</ele>
        <time>2021-04-15T09:00:54.000Z</time>
      </trkpt>
      <trkpt lat="47.29429" lon="-2.27509">
        <ele>7</ele>
        <time>2021-04-15T09:00:55.000Z</time>
      </trkpt>
      <trkpt lat="47.29468" lon="-2.27515">
        <ele>7</ele>
        <time>2021-04-15T09:01:01.000Z</time>
      </trkpt>
      <trkpt lat="47.29519" lon="-2.27533">
        <ele>7</ele>
        <time>2021-04-15T09:01:09.000Z</time>
      </trkpt>
      <trkpt lat="47.29545" lon="-2.2754">
        <ele>7</ele>
        <time>2021-04-15T09:01:13.000Z</time>
      </trkpt>
      <trkpt lat="47.29558" lon="-2.27543">
        <ele>7</ele>
        <time>2021-04-15T09:01:15.000Z</time>
      </trkpt>
      <trkpt lat="47.29588" lon="-2.27556">
        <ele>6.1999998092651</ele>
        <time>2021-04-15T09:01:20.000Z</time>
      </trkpt>
      <trkpt lat="47.29594" lon="-2.2756">
        <ele>5.8000001907349</ele>
        <time>2021-04-15T09:01:21.000Z</time>
      </trkpt>
      <trkpt lat="47.29599" lon="-2.27563">
        <ele>5.4000000953674</ele>
        <time>2021-04-15T09:01:22.000Z</time>
      </trkpt>
      <trkpt lat="47.29606" lon="-2.27567">
        <ele>5</ele>
        <time>2021-04-15T09:01:23.000Z</time>
      </trkpt>
      <trkpt lat="47.29643" lon="-2.27592">
        <ele>4.5999999046326</ele>
        <time>2021-04-15T09:01:29.000Z</time>
      </trkpt>
      <trkpt lat="47.2965" lon="-2.27596">
        <ele>4.1999998092651</ele>
        <time>2021-04-15T09:01:30.000Z</time>
      </trkpt>
      <trkpt lat="47.29657" lon="-2.276">
        <ele>3.7999999523163</ele>
        <time>2021-04-15T09:01:31.000Z</time>
      </trkpt>
      <trkpt lat="47.29664" lon="-2.27604">
        <ele>3.4000000953674</ele>
        <time>2021-04-15T09:01:32.000Z</time>
      </trkpt>
      <trkpt lat="47.29672" lon="-2.27607">
        <ele>2.7999999523163</ele>
        <time>2021-04-15T09:01:33.000Z</time>
      </trkpt>
      <trkpt lat="47.29679" lon="-2.2761">
        <ele>2.7999999523163</ele>
        <time>2021-04-15T09:01:34.000Z</time>
      </trkpt>
      <trkpt lat="47.29709" lon="-2.27613">
        <ele>2.4000000953674</ele>
        <time>2021-04-15T09:01:38.000Z</time>
      </trkpt>
      <trkpt lat="47.29717" lon="-2.27611">
        <ele>2</ele>
        <time>2021-04-15T09:01:39.000Z</time>
      </trkpt>
      <trkpt lat="47.29724" lon="-2.27609">
        <ele>1.6000000238419</ele>
        <time>2021-04-15T09:01:40.000Z</time>
      </trkpt>
      <trkpt lat="47.2973" lon="-2.27606">
        <ele>1.2000000476837</ele>
        <time>2021-04-15T09:01:41.000Z</time>
      </trkpt>
      <trkpt lat="47.29737" lon="-2.27603">
        <ele>0.80000001192093</ele>
        <time>2021-04-15T09:01:42.000Z</time>
      </trkpt>
      <trkpt lat="47.2975" lon="-2.27596">
        <ele>0.80000001192093</ele>
        <time>2021-04-15T09:01:44.000Z</time>
      </trkpt>
      <trkpt lat="47.29783" lon="-2.27586">
        <ele>0.80000001192093</ele>
        <time>2021-04-15T09:01:49.000Z</time>
      </trkpt>
      <trkpt lat="47.29789" lon="-2.27586">
        <ele>0.80000001192093</ele>
        <time>2021-04-15T09:01:50.000Z</time>
      </trkpt>
      <trkpt lat="47.29808" lon="-2.27592">
        <ele>0.80000001192093</ele>
        <time>2021-04-15T09:01:53.000Z</time>
      </trkpt>
      <trkpt lat="47.29815" lon="-2.27596">
        <ele>0.80000001192093</ele>
        <time>2021-04-15T09:01:54.000Z</time>
      </trkpt>
      <trkpt lat="47.29845" lon="-2.27614">
        <ele>0.80000001192093</ele>
        <time>2021-04-15T09:01:59.000Z</time>
      </trkpt>
      <trkpt lat="47.29851" lon="-2.27615">
        <ele>0.80000001192093</ele>
        <time>2021-04-15T09:02:00.000Z</time>
      </trkpt>
      <trkpt lat="47.29879" lon="-2.27613">
        <ele>0.80000001192093</ele>
        <time>2021-04-15T09:02:04.000Z</time>
      </trkpt>
      <trkpt lat="47.29886" lon="-2.27611">
        <ele>0.80000001192093</ele>
        <time>2021-04-15T09:02:05.000Z</time>
      </trkpt>
      <trkpt lat="47.29892" lon="-2.27608">
        <ele>0.80000001192093</ele>
        <time>2021-04-15T09:02:06.000Z</time>
      </trkpt>
      <trkpt lat="47.29911" lon="-2.27598">
        <ele>0.80000001192093</ele>
        <time>2021-04-15T09:02:09.000Z</time>
      </trkpt>
      <trkpt lat="47.29917" lon="-2.27596">
        <ele>0.80000001192093</ele>
        <time>2021-04-15T09:02:10.000Z</time>
      </trkpt>
      <trkpt lat="47.29939" lon="-2.27593">
        <ele>0.80000001192093</ele>
        <time>2021-04-15T09:02:14.000Z</time>
      </trkpt>
      <trkpt lat="47.29945" lon="-2.27593">
        <ele>0.80000001192093</ele>
        <time>2021-04-15T09:02:15.000Z</time>
      </trkpt>
      <trkpt lat="47.29956" lon="-2.27596">
        <ele>0.40000000596046</ele>
        <time>2021-04-15T09:02:17.000Z</time>
      </trkpt>
      <trkpt lat="47.2996" lon="-2.27598">
        <ele>9.7</ele>
        <time>2021-04-15T09:02:18.000Z</time>
      </trkpt>
      <trkpt lat="47.29963" lon="-2.27602">
        <ele>-0.40000000596046</ele>
        <time>2021-04-15T09:02:19.000Z</time>
      </trkpt>
      <trkpt lat="47.29965" lon="-2.27605">
        <ele>-0.80000001192093</ele>
        <time>2021-04-15T09:02:20.000Z</time>
      </trkpt>
      <trkpt lat="47.29966" lon="-2.27609">
        <ele>-1.2000000476837</ele>
        <time>2021-04-15T09:02:21.000Z</time>
      </trkpt>
      <trkpt lat="47.29966" lon="-2.27633">
        <ele>-1.2000000476837</ele>
        <time>2021-04-15T09:02:25.000Z</time>
      </trkpt>
      <trkpt lat="47.29964" lon="-2.27649">
        <ele>-1.2000000476837</ele>
        <time>2021-04-15T09:02:27.000Z</time>
      </trkpt>
      <trkpt lat="47.29962" lon="-2.27673">
        <ele>-1.2000000476837</ele>
        <time>2021-04-15T09:02:30.000Z</time>
      </trkpt>
      <trkpt lat="47.29956" lon="-2.27722">
        <ele>-1.2000000476837</ele>
        <time>2021-04-15T09:02:37.000Z</time>
      </trkpt>
      <trkpt lat="47.29953" lon="-2.2776">
        <ele>-1.2000000476837</ele>
        <time>2021-04-15T09:02:42.000Z</time>
      </trkpt>
      <trkpt lat="47.29945" lon="-2.27833">
        <ele>-1.2000000476837</ele>
        <time>2021-04-15T09:02:51.000Z</time>
      </trkpt>
      <trkpt lat="47.2994" lon="-2.27891">
        <ele>-0.80000001192093</ele>
        <time>2021-04-15T09:02:58.000Z</time>
      </trkpt>
      <trkpt lat="47.29939" lon="-2.27899">
        <ele>12.2</ele>
        <time>2021-04-15T09:02:59.000Z</time>
      </trkpt>
      <trkpt lat="47.29938" lon="-2.27907">
        <ele>0.40000000596046</ele>
        <time>2021-04-15T09:03:00.000Z</time>
      </trkpt>
      <trkpt lat="47.29937" lon="-2.27915">
        <ele>0.80000001192093</ele>
        <time>2021-04-15T09:03:01.000Z</time>
      </trkpt>
      <trkpt lat="47.29934" lon="-2.27956">
        <ele>0.80000001192093</ele>
        <time>2021-04-15T09:03:06.000Z</time>
      </trkpt>
      <trkpt lat="47.29938" lon="-2.28013">
        <ele>0.80000001192093</ele>
        <time>2021-04-15T09:03:13.000Z</time>
      </trkpt>
      <trkpt lat="47.2994" lon="-2.2802">
        <ele>0.80000001192093</ele>
        <time>2021-04-15T09:03:14.000Z</time>
      </trkpt>
      <trkpt lat="47.2995" lon="-2.28045">
        <ele>0.80000001192093</ele>
        <time>2021-04-15T09:03:18.000Z</time>
      </trkpt>
      <trkpt lat="47.29962" lon="-2.28048">
        <ele>0.80000001192093</ele>
        <time>2021-04-15T09:03:21.000Z</time>
      </trkpt>
      <trkpt lat="47.29977" lon="-2.28038">
        <ele>0.80000001192093</ele>
        <time>2021-04-15T09:03:25.000Z</time>
      </trkpt>
      <trkpt lat="47.29984" lon="-2.28034">
        <ele>0.80000001192093</ele>
        <time>2021-04-15T09:03:27.000Z</time>
      </trkpt>
      <trkpt lat="47.29987" lon="-2.28034">
        <ele>0.80000001192093</ele>
        <time>2021-04-15T09:03:28.000Z</time>
      </trkpt>
      <trkpt lat="47.29991" lon="-2.28038">
        <ele>0.80000001192093</ele>
        <time>2021-04-15T09:03:30.000Z</time>
      </trkpt>
      <trkpt lat="47.29989" lon="-2.28048">
        <ele>0.80000001192093</ele>
        <time>2021-04-15T09:03:33.000Z</time>
      </trkpt>
      <trkpt lat="47.29986" lon="-2.28052">
        <ele>0.80000001192093</ele>
        <time>2021-04-15T09:03:34.000Z</time>
      </trkpt>
      <trkpt lat="47.29985" lon="-2.28058">
        <ele>0.80000001192093</ele>
        <time>2021-04-15T09:03:35.000Z</time>
      </trkpt>
      <trkpt lat="47.2998" lon="-2.28075">
        <ele>0.80000001192093</ele>
        <time>2021-04-15T09:03:38.000Z</time>
      </trkpt>
      <trkpt lat="47.29967" lon="-2.28127">
        <ele>0.80000001192093</ele>
        <time>2021-04-15T09:03:46.000Z</time>
      </trkpt>
      <trkpt lat="47.29955" lon="-2.28167">
        <ele>0.80000001192093</ele>
        <time>2021-04-15T09:03:53.000Z</time>
      </trkpt>
      <trkpt lat="47.2995" lon="-2.282">
        <ele>0.80000001192093</ele>
        <time>2021-04-15T09:03:59.000Z</time>
      </trkpt>
      <trkpt lat="47.29951" lon="-2.28216">
        <ele>0.80000001192093</ele>
        <time>2021-04-15T09:04:01.000Z</time>
      </trkpt>
      <trkpt lat="47.29951" lon="-2.28241">
        <ele>0.80000001192093</ele>
        <time>2021-04-15T09:04:04.000Z</time>
      </trkpt>
      <trkpt lat="47.29952" lon="-2.28251">
        <ele>0.80000001192093</ele>
        <time>2021-04-15T09:04:05.000Z</time>
      </trkpt>
      <trkpt lat="47.29955" lon="-2.28282">
        <ele>0.80000001192093</ele>
        <time>2021-04-15T09:04:09.000Z</time>
      </trkpt>
      <trkpt lat="47.29954" lon="-2.28299">
        <ele>0.80000001192093</ele>
        <time>2021-04-15T09:04:11.000Z</time>
      </trkpt>
      <trkpt lat="47.29954" lon="-2.28324">
        <ele>0.80000001192093</ele>
        <time>2021-04-15T09:04:14.000Z</time>
      </trkpt>
      <trkpt lat="47.29953" lon="-2.28333">
        <ele>0.80000001192093</ele>
        <time>2021-04-15T09:04:15.000Z</time>
      </trkpt>
      <trkpt lat="47.29952" lon="-2.28373">
        <ele>0.80000001192093</ele>
        <time>2021-04-15T09:04:20.000Z</time>
      </trkpt>
      <trkpt lat="47.29953" lon="-2.28382">
        <ele>0.80000001192093</ele>
        <time>2021-04-15T09:04:21.000Z</time>
      </trkpt>
      <trkpt lat="47.29954" lon="-2.28415">
        <ele>0.80000001192093</ele>
        <time>2021-04-15T09:04:25.000Z</time>
      </trkpt>
      <trkpt lat="47.29952" lon="-2.28423">
        <ele>0.80000001192093</ele>
        <time>2021-04-15T09:04:26.000Z</time>
      </trkpt>
      <trkpt lat="47.29946" lon="-2.28442">
        <ele>0.80000001192093</ele>
        <time>2021-04-15T09:04:29.000Z</time>
      </trkpt>
      <trkpt lat="47.29942" lon="-2.28472">
        <ele>0.80000001192093</ele>
        <time>2021-04-15T09:04:33.000Z</time>
      </trkpt>
      <trkpt lat="47.29942" lon="-2.2848">
        <ele>0.80000001192093</ele>
        <time>2021-04-15T09:04:34.000Z</time>
      </trkpt>
      <trkpt lat="47.29943" lon="-2.28496">
        <ele>0.80000001192093</ele>
        <time>2021-04-15T09:04:36.000Z</time>
      </trkpt>
      <trkpt lat="47.29939" lon="-2.28509">
        <ele>0.80000001192093</ele>
        <time>2021-04-15T09:04:38.000Z</time>
      </trkpt>
      <trkpt lat="47.29933" lon="-2.28531">
        <ele>0.80000001192093</ele>
        <time>2021-04-15T09:04:41.000Z</time>
      </trkpt>
      <trkpt lat="47.29931" lon="-2.28544">
        <ele>0.80000001192093</ele>
        <time>2021-04-15T09:04:43.000Z</time>
      </trkpt>
      <trkpt lat="47.29936" lon="-2.28561">
        <ele>0.80000001192093</ele>
        <time>2021-04-15T09:04:47.000Z</time>
      </trkpt>
      <trkpt lat="47.2994" lon="-2.28571">
        <ele>0.80000001192093</ele>
        <time>2021-04-15T09:04:49.000Z</time>
      </trkpt>
      <trkpt lat="47.29941" lon="-2.28584">
        <ele>0.80000001192093</ele>
        <time>2021-04-15T09:04:51.000Z</time>
      </trkpt>
      <trkpt lat="47.2994" lon="-2.28598">
        <ele>0.80000001192093</ele>
        <time>2021-04-15T09:04:53.000Z</time>
      </trkpt>
      <trkpt lat="47.29939" lon="-2.28605">
        <ele>0.40000000596046</ele>
        <time>2021-04-15T09:04:54.000Z</time>
      </trkpt>
      <trkpt lat="47.29939" lon="-2.28612">
        <ele>10</ele>
        <time>2021-04-15T09:04:55.000Z</time>
      </trkpt>
      <trkpt lat="47.29939" lon="-2.2862">
        <ele>-0.40000000596046</ele>
        <time>2021-04-15T09:04:56.000Z</time>
      </trkpt>
      <trkpt lat="47.29938" lon="-2.28628">
        <ele>-0.80000001192093</ele>
        <time>2021-04-15T09:04:57.000Z</time>
      </trkpt>
      <trkpt lat="47.29937" lon="-2.28636">
        <ele>-1.2000000476837</ele>
        <time>2021-04-15T09:04:58.000Z</time>
      </trkpt>
      <trkpt lat="47.29935" lon="-2.28644">
        <ele>-1.2000000476837</ele>
        <time>2021-04-15T09:04:59.000Z</time>
      </trkpt>
      <trkpt lat="47.29932" lon="-2.2866">
        <ele>-1.2000000476837</ele>
        <time>2021-04-15T09:05:01.000Z</time>
      </trkpt>
      <trkpt lat="47.2992" lon="-2.28713">
        <ele>-1.2000000476837</ele>
        <time>2021-04-15T09:05:07.000Z</time>
      </trkpt>
      <trkpt lat="47.29918" lon="-2.28722">
        <ele>-1.2000000476837</ele>
        <time>2021-04-15T09:05:08.000Z</time>
      </trkpt>
      <trkpt lat="47.29909" lon="-2.2876">
        <ele>-1.2000000476837</ele>
        <time>2021-04-15T09:05:12.000Z</time>
      </trkpt>
      <trkpt lat="47.29908" lon="-2.28769">
        <ele>-1.2000000476837</ele>
        <time>2021-04-15T09:05:13.000Z</time>
      </trkpt>
      <trkpt lat="47.29903" lon="-2.28802">
        <ele>-1.2000000476837</ele>
        <time>2021-04-15T09:05:17.000Z</time>
      </trkpt>
      <trkpt lat="47.29903" lon="-2.2881">
        <ele>-1.2000000476837</ele>
        <time>2021-04-15T09:05:18.000Z</time>
      </trkpt>
      <trkpt lat="47.29898" lon="-2.28842">
        <ele>-1.2000000476837</ele>
        <time>2021-04-15T09:05:22.000Z</time>
      </trkpt>
      <trkpt lat="47.29887" lon="-2.28889">
        <ele>-1.2000000476837</ele>
        <time>2021-04-15T09:05:28.000Z</time>
      </trkpt>
      <trkpt lat="47.29882" lon="-2.28901">
        <ele>-1.6000000238419</ele>
        <time>2021-04-15T09:05:30.000Z</time>
      </trkpt>
      <trkpt lat="47.29881" lon="-2.28909">
        <ele>-2</ele>
        <time>2021-04-15T09:05:31.000Z</time>
      </trkpt>
      <trkpt lat="47.2988" lon="-2.28917">
        <ele>-2.4000000953674</ele>
        <time>2021-04-15T09:05:32.000Z</time>
      </trkpt>
      <trkpt lat="47.29879" lon="-2.28924">
        <ele>-2.7999999523163</ele>
        <time>2021-04-15T09:05:33.000Z</time>
      </trkpt>
      <trkpt lat="47.29878" lon="-2.28929">
        <ele>-3.2000000476837</ele>
        <time>2021-04-15T09:05:34.000Z</time>
      </trkpt>
      <trkpt lat="47.29877" lon="-2.28937">
        <ele>-3.2000000476837</ele>
        <time>2021-04-15T09:05:36.000Z</time>
      </trkpt>
      <trkpt lat="47.29876" lon="-2.28941">
        <ele>-3.2000000476837</ele>
        <time>2021-04-15T09:05:39.000Z</time>
      </trkpt>
      <trkpt lat="47.29871" lon="-2.28954">
        <ele>-1.2000000476837</ele>
        <time>2021-04-15T09:24:04.000Z</time>
      </trkpt>
      <trkpt lat="47.29872" lon="-2.28952">
        <ele>-1.2000000476837</ele>
        <time>2021-04-15T09:24:07.000Z</time>
      </trkpt>
      <trkpt lat="47.29872" lon="-2.28952">
        <ele>-1.2000000476837</ele>
        <time>2021-04-15T09:24:09.000Z</time>
      </trkpt>
      <trkpt lat="47.29878" lon="-2.28947">
        <ele>-1.2000000476837</ele>
        <time>2021-04-15T09:25:29.000Z</time>
      </trkpt>
      <trkpt lat="47.29883" lon="-2.28949">
        <ele>-1.2000000476837</ele>
        <time>2021-04-15T09:25:31.000Z</time>
      </trkpt>
      <trkpt lat="47.29902" lon="-2.28952">
        <ele>-1.2000000476837</ele>
        <time>2021-04-15T09:25:37.000Z</time>
      </trkpt>
      <trkpt lat="47.29917" lon="-2.28957">
        <ele>-1.2000000476837</ele>
        <time>2021-04-15T09:25:41.000Z</time>
      </trkpt>
      <trkpt lat="47.29919" lon="-2.28961">
        <ele>-1.2000000476837</ele>
        <time>2021-04-15T09:25:42.000Z</time>
      </trkpt>
      <trkpt lat="47.29931" lon="-2.28982">
        <ele>-1.2000000476837</ele>
        <time>2021-04-15T09:25:47.000Z</time>
      </trkpt>
      <trkpt lat="47.29937" lon="-2.28993">
        <ele>-1.2000000476837</ele>
        <time>2021-04-15T09:25:49.000Z</time>
      </trkpt>
      <trkpt lat="47.2995" lon="-2.29017">
        <ele>-1.2000000476837</ele>
        <time>2021-04-15T09:25:53.000Z</time>
      </trkpt>
      <trkpt lat="47.29969" lon="-2.29051">
        <ele>-1.2000000476837</ele>
        <time>2021-04-15T09:25:59.000Z</time>
      </trkpt>
      <trkpt lat="47.29988" lon="-2.29082">
        <ele>-1.2000000476837</ele>
        <time>2021-04-15T09:26:04.000Z</time>
      </trkpt>
      <trkpt lat="47.29996" lon="-2.29092">
        <ele>-1.2000000476837</ele>
        <time>2021-04-15T09:26:06.000Z</time>
      </trkpt>
      <trkpt lat="47.30009" lon="-2.29104">
        <ele>-1.2000000476837</ele>
        <time>2021-04-15T09:26:09.000Z</time>
      </trkpt>
      <trkpt lat="47.30036" lon="-2.29126">
        <ele>-1.2000000476837</ele>
        <time>2021-04-15T09:26:15.000Z</time>
      </trkpt>
      <trkpt lat="47.3005" lon="-2.29134">
        <ele>-1.2000000476837</ele>
        <time>2021-04-15T09:26:18.000Z</time>
      </trkpt>
      <trkpt lat="47.30059" lon="-2.29143">
        <ele>-1.2000000476837</ele>
        <time>2021-04-15T09:26:20.000Z</time>
      </trkpt>
      <trkpt lat="47.30082" lon="-2.29179">
        <ele>-1.2000000476837</ele>
        <time>2021-04-15T09:26:26.000Z</time>
      </trkpt>
      <trkpt lat="47.30103" lon="-2.29209">
        <ele>-1.6000000238419</ele>
        <time>2021-04-15T09:26:31.000Z</time>
      </trkpt>
      <trkpt lat="47.30107" lon="-2.29215">
        <ele>-2</ele>
        <time>2021-04-15T09:26:32.000Z</time>
      </trkpt>
      <trkpt lat="47.30111" lon="-2.29221">
        <ele>-2.4000000953674</ele>
        <time>2021-04-15T09:26:33.000Z</time>
      </trkpt>
      <trkpt lat="47.30116" lon="-2.29227">
        <ele>-2.7999999523163</ele>
        <time>2021-04-15T09:26:34.000Z</time>
      </trkpt>
      <trkpt lat="47.3012" lon="-2.29234">
        <ele>-3.2000000476837</ele>
        <time>2021-04-15T09:26:35.000Z</time>
      </trkpt>
      <trkpt lat="47.3014" lon="-2.29266">
        <ele>-3.2000000476837</ele>
        <time>2021-04-15T09:26:40.000Z</time>
      </trkpt>
      <trkpt lat="47.30165" lon="-2.29307">
        <ele>-3.2000000476837</ele>
        <time>2021-04-15T09:26:46.000Z</time>
      </trkpt>
      <trkpt lat="47.30191" lon="-2.29351">
        <ele>-3.2000000476837</ele>
        <time>2021-04-15T09:26:53.000Z</time>
      </trkpt>
      <trkpt lat="47.30194" lon="-2.29358">
        <ele>-3.2000000476837</ele>
        <time>2021-04-15T09:26:54.000Z</time>
      </trkpt>
      <trkpt lat="47.30202" lon="-2.29383">
        <ele>-3.2000000476837</ele>
        <time>2021-04-15T09:26:57.000Z</time>
      </trkpt>
      <trkpt lat="47.30205" lon="-2.2939">
        <ele>-3.2000000476837</ele>
        <time>2021-04-15T09:26:58.000Z</time>
      </trkpt>
      <trkpt lat="47.30212" lon="-2.29409">
        <ele>-3.2000000476837</ele>
        <time>2021-04-15T09:27:01.000Z</time>
      </trkpt>
      <trkpt lat="47.30213" lon="-2.29415">
        <ele>-3.2000000476837</ele>
        <time>2021-04-15T09:27:02.000Z</time>
      </trkpt>
      <trkpt lat="47.3021" lon="-2.29432">
        <ele>-4.1999998092651</ele>
        <time>2021-04-15T09:27:05.000Z</time>
      </trkpt>
      <trkpt lat="47.30207" lon="-2.29439">
        <ele>-4.5999999046326</ele>
        <time>2021-04-15T09:27:06.000Z</time>
      </trkpt>
      <trkpt lat="47.30205" lon="-2.29445">
        <ele>-5</ele>
        <time>2021-04-15T09:27:07.000Z</time>
      </trkpt>
      <trkpt lat="47.30202" lon="-2.29451">
        <ele>-5.4000000953674</ele>
        <time>2021-04-15T09:27:08.000Z</time>
      </trkpt>
      <trkpt lat="47.30192" lon="-2.2947">
        <ele>-5.4000000953674</ele>
        <time>2021-04-15T09:27:11.000Z</time>
      </trkpt>
      <trkpt lat="47.30186" lon="-2.29481">
        <ele>-5.4000000953674</ele>
        <time>2021-04-15T09:27:13.000Z</time>
      </trkpt>
      <trkpt lat="47.30177" lon="-2.29503">
        <ele>-5.4000000953674</ele>
        <time>2021-04-15T09:27:17.000Z</time>
      </trkpt>
      <trkpt lat="47.3016" lon="-2.29545">
        <ele>-5.4000000953674</ele>
        <time>2021-04-15T09:27:24.000Z</time>
      </trkpt>
      <trkpt lat="47.30153" lon="-2.29565">
        <ele>-5.4000000953674</ele>
        <time>2021-04-15T09:27:27.000Z</time>
      </trkpt>
      <trkpt lat="47.3015" lon="-2.29581">
        <ele>-5.4000000953674</ele>
        <time>2021-04-15T09:27:29.000Z</time>
      </trkpt>
      <trkpt lat="47.30151" lon="-2.29598">
        <ele>-5.4000000953674</ele>
        <time>2021-04-15T09:27:31.000Z</time>
      </trkpt>
      <trkpt lat="47.30149" lon="-2.29623">
        <ele>-5.4000000953674</ele>
        <time>2021-04-15T09:27:34.000Z</time>
      </trkpt>
      <trkpt lat="47.30145" lon="-2.29647">
        <ele>-5.4000000953674</ele>
        <time>2021-04-15T09:27:38.000Z</time>
      </trkpt>
      <trkpt lat="47.30146" lon="-2.2965">
        <ele>-5.4000000953674</ele>
        <time>2021-04-15T09:27:39.000Z</time>
      </trkpt>
      <trkpt lat="47.30152" lon="-2.29656">
        <ele>-5.4000000953674</ele>
        <time>2021-04-15T09:27:41.000Z</time>
      </trkpt>
      <trkpt lat="47.30166" lon="-2.29664">
        <ele>-5.4000000953674</ele>
        <time>2021-04-15T09:27:44.000Z</time>
      </trkpt>
      <trkpt lat="47.30171" lon="-2.29667">
        <ele>-5.4000000953674</ele>
        <time>2021-04-15T09:27:45.000Z</time>
      </trkpt>
      <trkpt lat="47.30176" lon="-2.29668">
        <ele>-5.4000000953674</ele>
        <time>2021-04-15T09:27:46.000Z</time>
      </trkpt>
      <trkpt lat="47.30186" lon="-2.29675">
        <ele>-5.4000000953674</ele>
        <time>2021-04-15T09:27:48.000Z</time>
      </trkpt>
      <trkpt lat="47.30196" lon="-2.29682">
        <ele>-5.4000000953674</ele>
        <time>2021-04-15T09:27:50.000Z</time>
      </trkpt>
      <trkpt lat="47.30213" lon="-2.29692">
        <ele>-5.4000000953674</ele>
        <time>2021-04-15T09:27:53.000Z</time>
      </trkpt>
      <trkpt lat="47.30225" lon="-2.29698">
        <ele>-5.4000000953674</ele>
        <time>2021-04-15T09:27:55.000Z</time>
      </trkpt>
      <trkpt lat="47.3024" lon="-2.29703">
        <ele>-5.4000000953674</ele>
        <time>2021-04-15T09:27:58.000Z</time>
      </trkpt>
      <trkpt lat="47.30249" lon="-2.29709">
        <ele>-5.4000000953674</ele>
        <time>2021-04-15T09:28:02.000Z</time>
      </trkpt>
      <trkpt lat="47.3025" lon="-2.29711">
        <ele>-5.4000000953674</ele>
        <time>2021-04-15T09:28:03.000Z</time>
      </trkpt>
      <trkpt lat="47.30248" lon="-2.29717">
        <ele>-5.4000000953674</ele>
        <time>2021-04-15T09:28:06.000Z</time>
      </trkpt>
      <trkpt lat="47.30248" lon="-2.29717">
        <ele>-5.4000000953674</ele>
        <time>2021-04-15T09:28:08.000Z</time>
      </trkpt>
      <trkpt lat="47.30244" lon="-2.29724">
        <ele>-5.4000000953674</ele>
        <time>2021-04-15T09:28:19.000Z</time>
      </trkpt>
      <trkpt lat="47.30243" lon="-2.29725">
        <ele>-5.4000000953674</ele>
        <time>2021-04-15T09:28:20.000Z</time>
      </trkpt>
      <trkpt lat="47.30241" lon="-2.29726">
        <ele>-5.4000000953674</ele>
        <time>2021-04-15T09:28:22.000Z</time>
      </trkpt>
      <trkpt lat="47.30237" lon="-2.29733">
        <ele>-5.4000000953674</ele>
        <time>2021-04-15T09:28:40.000Z</time>
      </trkpt>
      <trkpt lat="47.30236" lon="-2.29735">
        <ele>-5.4000000953674</ele>
        <time>2021-04-15T09:28:41.000Z</time>
      </trkpt>
      <trkpt lat="47.30229" lon="-2.29754">
        <ele>-5.4000000953674</ele>
        <time>2021-04-15T09:28:47.000Z</time>
      </trkpt>
      <trkpt lat="47.30222" lon="-2.29774">
        <ele>-5.4000000953674</ele>
        <time>2021-04-15T09:28:52.000Z</time>
      </trkpt>
      <trkpt lat="47.3022" lon="-2.29777">
        <ele>-5.4000000953674</ele>
        <time>2021-04-15T09:28:53.000Z</time>
      </trkpt>
      <trkpt lat="47.3021" lon="-2.29793">
        <ele>-5.4000000953674</ele>
        <time>2021-04-15T09:28:58.000Z</time>
      </trkpt>
      <trkpt lat="47.302" lon="-2.29804">
        <ele>-5.4000000953674</ele>
        <time>2021-04-15T09:29:02.000Z</time>
      </trkpt>
      <trkpt lat="47.30199" lon="-2.29806">
        <ele>-5.4000000953674</ele>
        <time>2021-04-15T09:29:03.000Z</time>
      </trkpt>
      <trkpt lat="47.30192" lon="-2.29818">
        <ele>-5.4000000953674</ele>
        <time>2021-04-15T09:29:09.000Z</time>
      </trkpt>
      <trkpt lat="47.30189" lon="-2.29821">
        <ele>-5.4000000953674</ele>
        <time>2021-04-15T09:29:10.000Z</time>
      </trkpt>
      <trkpt lat="47.30183" lon="-2.29835">
        <ele>-5.4000000953674</ele>
        <time>2021-04-15T09:29:14.000Z</time>
      </trkpt>
      <trkpt lat="47.30181" lon="-2.29839">
        <ele>-5.4000000953674</ele>
        <time>2021-04-15T09:29:15.000Z</time>
      </trkpt>
      <trkpt lat="47.30165" lon="-2.29862">
        <ele>-5.4000000953674</ele>
        <time>2021-04-15T09:29:21.000Z</time>
      </trkpt>
      <trkpt lat="47.30152" lon="-2.29874">
        <ele>-5.4000000953674</ele>
        <time>2021-04-15T09:29:26.000Z</time>
      </trkpt>
      <trkpt lat="47.3014" lon="-2.29891">
        <ele>-5.4000000953674</ele>
        <time>2021-04-15T09:29:31.000Z</time>
      </trkpt>
      <trkpt lat="47.30123" lon="-2.29909">
        <ele>-5.4000000953674</ele>
        <time>2021-04-15T09:29:37.000Z</time>
      </trkpt>
      <trkpt lat="47.30111" lon="-2.29917">
        <ele>-5.4000000953674</ele>
        <time>2021-04-15T09:29:40.000Z</time>
      </trkpt>
      <trkpt lat="47.30109" lon="-2.29921">
        <ele>-5.4000000953674</ele>
        <time>2021-04-15T09:29:41.000Z</time>
      </trkpt>
      <trkpt lat="47.30104" lon="-2.29937">
        <ele>-5.4000000953674</ele>
        <time>2021-04-15T09:29:46.000Z</time>
      </trkpt>
      <trkpt lat="47.30106" lon="-2.29955">
        <ele>-5.4000000953674</ele>
        <time>2021-04-15T09:29:51.000Z</time>
      </trkpt>
      <trkpt lat="47.30104" lon="-2.29959">
        <ele>-5.4000000953674</ele>
        <time>2021-04-15T09:29:52.000Z</time>
      </trkpt>
      <trkpt lat="47.30103" lon="-2.29969">
        <ele>-5.4000000953674</ele>
        <time>2021-04-15T09:29:55.000Z</time>
      </trkpt>
      <trkpt lat="47.30106" lon="-2.29985">
        <ele>-5.4000000953674</ele>
        <time>2021-04-15T09:29:59.000Z</time>
      </trkpt>
      <trkpt lat="47.30116" lon="-2.29994">
        <ele>-5.4000000953674</ele>
        <time>2021-04-15T09:30:03.000Z</time>
      </trkpt>
      <trkpt lat="47.3012" lon="-2.30003">
        <ele>-5.4000000953674</ele>
        <time>2021-04-15T09:30:05.000Z</time>
      </trkpt>
      <trkpt lat="47.30127" lon="-2.30016">
        <ele>-5.4000000953674</ele>
        <time>2021-04-15T09:30:08.000Z</time>
      </trkpt>
      <trkpt lat="47.30139" lon="-2.30042">
        <ele>-5.4000000953674</ele>
        <time>2021-04-15T09:30:13.000Z</time>
      </trkpt>
      <trkpt lat="47.30153" lon="-2.30071">
        <ele>-5.4000000953674</ele>
        <time>2021-04-15T09:30:19.000Z</time>
      </trkpt>
      <trkpt lat="47.30159" lon="-2.30086">
        <ele>-5.4000000953674</ele>
        <time>2021-04-15T09:30:22.000Z</time>
      </trkpt>
      <trkpt lat="47.3016" lon="-2.30091">
        <ele>-5</ele>
        <time>2021-04-15T09:30:23.000Z</time>
      </trkpt>
      <trkpt lat="47.30162" lon="-2.30098">
        <ele>-4.5999999046326</ele>
        <time>2021-04-15T09:30:24.000Z</time>
      </trkpt>
      <trkpt lat="47.30164" lon="-2.30103">
        <ele>-4.1999998092651</ele>
        <time>2021-04-15T09:30:25.000Z</time>
      </trkpt>
      <trkpt lat="47.30166" lon="-2.30108">
        <ele>-3.7999999523163</ele>
        <time>2021-04-15T09:30:26.000Z</time>
      </trkpt>
      <trkpt lat="47.30167" lon="-2.30113">
        <ele>-3.4000000953674</ele>
        <time>2021-04-15T09:30:27.000Z</time>
      </trkpt>
      <trkpt lat="47.30172" lon="-2.30129">
        <ele>-3.4000000953674</ele>
        <time>2021-04-15T09:30:30.000Z</time>
      </trkpt>
      <trkpt lat="47.30184" lon="-2.30162">
        <ele>-3.4000000953674</ele>
        <time>2021-04-15T09:30:36.000Z</time>
      </trkpt>
      <trkpt lat="47.30196" lon="-2.30193">
        <ele>-3.4000000953674</ele>
        <time>2021-04-15T09:30:42.000Z</time>
      </trkpt>
      <trkpt lat="47.302" lon="-2.30214">
        <ele>-3.4000000953674</ele>
        <time>2021-04-15T09:30:47.000Z</time>
      </trkpt>
      <trkpt lat="47.30191" lon="-2.30231">
        <ele>-3.4000000953674</ele>
        <time>2021-04-15T09:30:53.000Z</time>
      </trkpt>
      <trkpt lat="47.30175" lon="-2.30244">
        <ele>-3.4000000953674</ele>
        <time>2021-04-15T09:31:00.000Z</time>
      </trkpt>
      <trkpt lat="47.30143" lon="-2.30256">
        <ele>-3.4000000953674</ele>
        <time>2021-04-15T09:31:08.000Z</time>
      </trkpt>
      <trkpt lat="47.30134" lon="-2.30258">
        <ele>-3.4000000953674</ele>
        <time>2021-04-15T09:31:10.000Z</time>
      </trkpt>
      <trkpt lat="47.30112" lon="-2.30269">
        <ele>-3.4000000953674</ele>
        <time>2021-04-15T09:31:15.000Z</time>
      </trkpt>
      <trkpt lat="47.30105" lon="-2.30288">
        <ele>-3.4000000953674</ele>
        <time>2021-04-15T09:31:18.000Z</time>
      </trkpt>
      <trkpt lat="47.30109" lon="-2.30314">
        <ele>-3.4000000953674</ele>
        <time>2021-04-15T09:31:22.000Z</time>
      </trkpt>
      <trkpt lat="47.30124" lon="-2.30367">
        <ele>-3.4000000953674</ele>
        <time>2021-04-15T09:31:30.000Z</time>
      </trkpt>
      <trkpt lat="47.30138" lon="-2.30416">
        <ele>-3.4000000953674</ele>
        <time>2021-04-15T09:31:37.000Z</time>
      </trkpt>
      <trkpt lat="47.3015" lon="-2.30449">
        <ele>-3</ele>
        <time>2021-04-15T09:31:42.000Z</time>
      </trkpt>
      <trkpt lat="47.30153" lon="-2.30455">
        <ele>-2.5999999046326</ele>
        <time>2021-04-15T09:31:43.000Z</time>
      </trkpt>
      <trkpt lat="47.30157" lon="-2.30461">
        <ele>-2.2000000476837</ele>
        <time>2021-04-15T09:31:44.000Z</time>
      </trkpt>
      <trkpt lat="47.3016" lon="-2.30468">
        <ele>-1.7999999523163</ele>
        <time>2021-04-15T09:31:45.000Z</time>
      </trkpt>
      <trkpt lat="47.30164" lon="-2.30473">
        <ele>-1.3999999761581</ele>
        <time>2021-04-15T09:31:46.000Z</time>
      </trkpt>
      <trkpt lat="47.30178" lon="-2.30495">
        <ele>-1.3999999761581</ele>
        <time>2021-04-15T09:31:50.000Z</time>
      </trkpt>
      <trkpt lat="47.30185" lon="-2.30502">
        <ele>-1.3999999761581</ele>
        <time>2021-04-15T09:31:52.000Z</time>
      </trkpt>
      <trkpt lat="47.30205" lon="-2.3052">
        <ele>-1.3999999761581</ele>
        <time>2021-04-15T09:31:57.000Z</time>
      </trkpt>
      <trkpt lat="47.30224" lon="-2.3054">
        <ele>-1.3999999761581</ele>
        <time>2021-04-15T09:32:02.000Z</time>
      </trkpt>
      <trkpt lat="47.30227" lon="-2.30545">
        <ele>-1.3999999761581</ele>
        <time>2021-04-15T09:32:03.000Z</time>
      </trkpt>
      <trkpt lat="47.30233" lon="-2.30574">
        <ele>-1.3999999761581</ele>
        <time>2021-04-15T09:32:08.000Z</time>
      </trkpt>
      <trkpt lat="47.30226" lon="-2.3059">
        <ele>-1.3999999761581</ele>
        <time>2021-04-15T09:32:11.000Z</time>
      </trkpt>
      <trkpt lat="47.30212" lon="-2.306">
        <ele>-1.3999999761581</ele>
        <time>2021-04-15T09:32:14.000Z</time>
      </trkpt>
      <trkpt lat="47.30207" lon="-2.30605">
        <ele>-1.3999999761581</ele>
        <time>2021-04-15T09:32:15.000Z</time>
      </trkpt>
      <trkpt lat="47.30188" lon="-2.30627">
        <ele>-1.3999999761581</ele>
        <time>2021-04-15T09:32:19.000Z</time>
      </trkpt>
      <trkpt lat="47.30172" lon="-2.30647">
        <ele>-1.3999999761581</ele>
        <time>2021-04-15T09:32:23.000Z</time>
      </trkpt>
      <trkpt lat="47.30169" lon="-2.30673">
        <ele>-1.3999999761581</ele>
        <time>2021-04-15T09:32:26.000Z</time>
      </trkpt>
      <trkpt lat="47.3017" lon="-2.30682">
        <ele>-1.3999999761581</ele>
        <time>2021-04-15T09:32:27.000Z</time>
      </trkpt>
      <trkpt lat="47.30174" lon="-2.30727">
        <ele>-1.3999999761581</ele>
        <time>2021-04-15T09:32:32.000Z</time>
      </trkpt>
      <trkpt lat="47.30175" lon="-2.30735">
        <ele>-1.3999999761581</ele>
        <time>2021-04-15T09:32:33.000Z</time>
      </trkpt>
      <trkpt lat="47.30179" lon="-2.30746">
        <ele>-1.3999999761581</ele>
        <time>2021-04-15T09:32:35.000Z</time>
      </trkpt>
      <trkpt lat="47.30185" lon="-2.30761">
        <ele>-1.7999999523163</ele>
        <time>2021-04-15T09:32:38.000Z</time>
      </trkpt>
      <trkpt lat="47.30187" lon="-2.30767">
        <ele>-2.2000000476837</ele>
        <time>2021-04-15T09:32:39.000Z</time>
      </trkpt>
      <trkpt lat="47.30187" lon="-2.30775">
        <ele>-2.5999999046326</ele>
        <time>2021-04-15T09:32:40.000Z</time>
      </trkpt>
      <trkpt lat="47.30187" lon="-2.30783">
        <ele>-3</ele>
        <time>2021-04-15T09:32:41.000Z</time>
      </trkpt>
      <trkpt lat="47.30187" lon="-2.3079">
        <ele>-3.4000000953674</ele>
        <time>2021-04-15T09:32:42.000Z</time>
      </trkpt>
      <trkpt lat="47.30187" lon="-2.30804">
        <ele>-3.4000000953674</ele>
        <time>2021-04-15T09:32:44.000Z</time>
      </trkpt>
      <trkpt lat="47.30192" lon="-2.30815">
        <ele>-3.4000000953674</ele>
        <time>2021-04-15T09:32:46.000Z</time>
      </trkpt>
      <trkpt lat="47.30206" lon="-2.30833">
        <ele>-3.4000000953674</ele>
        <time>2021-04-15T09:32:50.000Z</time>
      </trkpt>
      <trkpt lat="47.30213" lon="-2.30843">
        <ele>-3.4000000953674</ele>
        <time>2021-04-15T09:32:52.000Z</time>
      </trkpt>
      <trkpt lat="47.30234" lon="-2.30864">
        <ele>-3</ele>
        <time>2021-04-15T09:32:57.000Z</time>
      </trkpt>
      <trkpt lat="47.30239" lon="-2.30868">
        <ele>-2.5999999046326</ele>
        <time>2021-04-15T09:32:58.000Z</time>
      </trkpt>
      <trkpt lat="47.30243" lon="-2.30873">
        <ele>-2.2000000476837</ele>
        <time>2021-04-15T09:32:59.000Z</time>
      </trkpt>
      <trkpt lat="47.30247" lon="-2.30879">
        <ele>-1.3999999761581</ele>
        <time>2021-04-15T09:33:00.000Z</time>
      </trkpt>
      <trkpt lat="47.30254" lon="-2.30889">
        <ele>-1.3999999761581</ele>
        <time>2021-04-15T09:33:02.000Z</time>
      </trkpt>
      <trkpt lat="47.30274" lon="-2.30917">
        <ele>-1.3999999761581</ele>
        <time>2021-04-15T09:33:07.000Z</time>
      </trkpt>
      <trkpt lat="47.30278" lon="-2.30922">
        <ele>-1</ele>
        <time>2021-04-15T09:33:08.000Z</time>
      </trkpt>
      <trkpt lat="47.30281" lon="-2.30927">
        <ele>-0.40000000596046</ele>
        <time>2021-04-15T09:33:09.000Z</time>
      </trkpt>
      <trkpt lat="47.30285" lon="-2.30932">
        <ele>9.3</ele>
        <time>2021-04-15T09:33:10.000Z</time>
      </trkpt>
      <trkpt lat="47.30288" lon="-2.30937">
        <ele>0.40000000596046</ele>
        <time>2021-04-15T09:33:11.000Z</time>
      </trkpt>
      <trkpt lat="47.30292" lon="-2.30942">
        <ele>0.80000001192093</ele>
        <time>2021-04-15T09:33:12.000Z</time>
      </trkpt>
      <trkpt lat="47.30299" lon="-2.30952">
        <ele>0.80000001192093</ele>
        <time>2021-04-15T09:33:14.000Z</time>
      </trkpt>
      <trkpt lat="47.30306" lon="-2.30963">
        <ele>0.80000001192093</ele>
        <time>2021-04-15T09:33:16.000Z</time>
      </trkpt>
      <trkpt lat="47.30309" lon="-2.30968">
        <ele>1.2000000476837</ele>
        <time>2021-04-15T09:33:17.000Z</time>
      </trkpt>
      <trkpt lat="47.30313" lon="-2.30973">
        <ele>1.6000000238419</ele>
        <time>2021-04-15T09:33:18.000Z</time>
      </trkpt>
      <trkpt lat="47.30316" lon="-2.30978">
        <ele>2.2000000476837</ele>
        <time>2021-04-15T09:33:19.000Z</time>
      </trkpt>
      <trkpt lat="47.30319" lon="-2.30982">
        <ele>2.5999999046326</ele>
        <time>2021-04-15T09:33:20.000Z</time>
      </trkpt>
      <trkpt lat="47.30322" lon="-2.30987">
        <ele>3</ele>
        <time>2021-04-15T09:33:21.000Z</time>
      </trkpt>
      <trkpt lat="47.30325" lon="-2.30991">
        <ele>3</ele>
        <time>2021-04-15T09:33:22.000Z</time>
      </trkpt>
      <trkpt lat="47.3034" lon="-2.31013">
        <ele>3.4000000953674</ele>
        <time>2021-04-15T09:33:27.000Z</time>
      </trkpt>
      <trkpt lat="47.30343" lon="-2.31017">
        <ele>3.7999999523163</ele>
        <time>2021-04-15T09:33:28.000Z</time>
      </trkpt>
      <trkpt lat="47.30346" lon="-2.31021">
        <ele>4.1999998092651</ele>
        <time>2021-04-15T09:33:29.000Z</time>
      </trkpt>
      <trkpt lat="47.30349" lon="-2.31024">
        <ele>4.8000001907349</ele>
        <time>2021-04-15T09:33:30.000Z</time>
      </trkpt>
      <trkpt lat="47.30353" lon="-2.31029">
        <ele>5.1999998092651</ele>
        <time>2021-04-15T09:33:31.000Z</time>
      </trkpt>
      <trkpt lat="47.30378" lon="-2.31063">
        <ele>5.1999998092651</ele>
        <time>2021-04-15T09:33:39.000Z</time>
      </trkpt>
      <trkpt lat="47.30388" lon="-2.31076">
        <ele>5.5999999046326</ele>
        <time>2021-04-15T09:33:42.000Z</time>
      </trkpt>
      <trkpt lat="47.30392" lon="-2.31081">
        <ele>6</ele>
        <time>2021-04-15T09:33:43.000Z</time>
      </trkpt>
      <trkpt lat="47.30395" lon="-2.31085">
        <ele>6.4000000953674</ele>
        <time>2021-04-15T09:33:44.000Z</time>
      </trkpt>
      <trkpt lat="47.30398" lon="-2.31088">
        <ele>6.8000001907349</ele>
        <time>2021-04-15T09:33:45.000Z</time>
      </trkpt>
      <trkpt lat="47.30402" lon="-2.31092">
        <ele>7.1999998092651</ele>
        <time>2021-04-15T09:33:46.000Z</time>
      </trkpt>
      <trkpt lat="47.30411" lon="-2.31102">
        <ele>7.1999998092651</ele>
        <time>2021-04-15T09:33:49.000Z</time>
      </trkpt>
      <trkpt lat="47.30415" lon="-2.31106">
        <ele>7.1999998092651</ele>
        <time>2021-04-15T09:33:50.000Z</time>
      </trkpt>
      <trkpt lat="47.30419" lon="-2.31109">
        <ele>7.1999998092651</ele>
        <time>2021-04-15T09:33:51.000Z</time>
      </trkpt>
      <trkpt lat="47.30434" lon="-2.3112">
        <ele>7.1999998092651</ele>
        <time>2021-04-15T09:33:55.000Z</time>
      </trkpt>
      <trkpt lat="47.30443" lon="-2.31132">
        <ele>7.1999998092651</ele>
        <time>2021-04-15T09:33:58.000Z</time>
      </trkpt>
      <trkpt lat="47.30447" lon="-2.31144">
        <ele>7.1999998092651</ele>
        <time>2021-04-15T09:34:00.000Z</time>
      </trkpt>
      <trkpt lat="47.30449" lon="-2.31151">
        <ele>7.5999999046326</ele>
        <time>2021-04-15T09:34:01.000Z</time>
      </trkpt>
      <trkpt lat="47.30451" lon="-2.31157">
        <ele>8</ele>
        <time>2021-04-15T09:34:02.000Z</time>
      </trkpt>
      <trkpt lat="47.30454" lon="-2.31163">
        <ele>8.3999996185303</ele>
        <time>2021-04-15T09:34:03.000Z</time>
      </trkpt>
      <trkpt lat="47.30456" lon="-2.31169">
        <ele>8.8000001907349</ele>
        <time>2021-04-15T09:34:04.000Z</time>
      </trkpt>
      <trkpt lat="47.30458" lon="-2.31175">
        <ele>9.1999998092651</ele>
        <time>2021-04-15T09:34:05.000Z</time>
      </trkpt>
      <trkpt lat="47.30465" lon="-2.31193">
        <ele>9.1999998092651</ele>
        <time>2021-04-15T09:34:08.000Z</time>
      </trkpt>
      <trkpt lat="47.30479" lon="-2.31232">
        <ele>9.1999998092651</ele>
        <time>2021-04-15T09:34:14.000Z</time>
      </trkpt>
      <trkpt lat="47.30481" lon="-2.3124">
        <ele>9.1999998092651</ele>
        <time>2021-04-15T09:34:15.000Z</time>
      </trkpt>
      <trkpt lat="47.30505" lon="-2.3128">
        <ele>9.1999998092651</ele>
        <time>2021-04-15T09:34:21.000Z</time>
      </trkpt>
      <trkpt lat="47.30529" lon="-2.31318">
        <ele>9.1999998092651</ele>
        <time>2021-04-15T09:34:27.000Z</time>
      </trkpt>
      <trkpt lat="47.30533" lon="-2.31324">
        <ele>9.1999998092651</ele>
        <time>2021-04-15T09:34:28.000Z</time>
      </trkpt>
      <trkpt lat="47.30554" lon="-2.31353">
        <ele>9.1999998092651</ele>
        <time>2021-04-15T09:34:33.000Z</time>
      </trkpt>
      <trkpt lat="47.3058" lon="-2.31393">
        <ele>9.1999998092651</ele>
        <time>2021-04-15T09:34:40.000Z</time>
      </trkpt>
      <trkpt lat="47.30598" lon="-2.31432">
        <ele>9.1999998092651</ele>
        <time>2021-04-15T09:34:46.000Z</time>
      </trkpt>
      <trkpt lat="47.30628" lon="-2.31506">
        <ele>9.1999998092651</ele>
        <time>2021-04-15T09:34:56.000Z</time>
      </trkpt>
      <trkpt lat="47.30655" lon="-2.31571">
        <ele>8.3999996185303</ele>
        <time>2021-04-15T09:35:04.000Z</time>
      </trkpt>
      <trkpt lat="47.30659" lon="-2.3158">
        <ele>8</ele>
        <time>2021-04-15T09:35:05.000Z</time>
      </trkpt>
      <trkpt lat="47.30663" lon="-2.31588">
        <ele>7.4000000953674</ele>
        <time>2021-04-15T09:35:06.000Z</time>
      </trkpt>
      <trkpt lat="47.30667" lon="-2.31598">
        <ele>7</ele>
        <time>2021-04-15T09:35:07.000Z</time>
      </trkpt>
      <trkpt lat="47.30675" lon="-2.31617">
        <ele>7</ele>
        <time>2021-04-15T09:35:09.000Z</time>
      </trkpt>
      <trkpt lat="47.30699" lon="-2.31679">
        <ele>7</ele>
        <time>2021-04-15T09:35:15.000Z</time>
      </trkpt>
      <trkpt lat="47.30717" lon="-2.31714">
        <ele>7</ele>
        <time>2021-04-15T09:35:20.000Z</time>
      </trkpt>
      <trkpt lat="47.30732" lon="-2.31753">
        <ele>7</ele>
        <time>2021-04-15T09:35:26.000Z</time>
      </trkpt>
      <trkpt lat="47.30742" lon="-2.31759">
        <ele>7</ele>
        <time>2021-04-15T09:35:29.000Z</time>
      </trkpt>
      <trkpt lat="47.30749" lon="-2.31756">
        <ele>7</ele>
        <time>2021-04-15T09:35:31.000Z</time>
      </trkpt>
      <trkpt lat="47.30757" lon="-2.31752">
        <ele>7</ele>
        <time>2021-04-15T09:35:33.000Z</time>
      </trkpt>
      <trkpt lat="47.3076" lon="-2.31748">
        <ele>7</ele>
        <time>2021-04-15T09:35:34.000Z</time>
      </trkpt>
      <trkpt lat="47.30784" lon="-2.3172">
        <ele>7</ele>
        <time>2021-04-15T09:35:40.000Z</time>
      </trkpt>
      <trkpt lat="47.30812" lon="-2.31685">
        <ele>7</ele>
        <time>2021-04-15T09:35:47.000Z</time>
      </trkpt>
      <trkpt lat="47.30832" lon="-2.3166">
        <ele>8</ele>
        <time>2021-04-15T09:35:53.000Z</time>
      </trkpt>
      <trkpt lat="47.30835" lon="-2.31656">
        <ele>8.3999996185303</ele>
        <time>2021-04-15T09:35:54.000Z</time>
      </trkpt>
      <trkpt lat="47.30839" lon="-2.31652">
        <ele>8.8000001907349</ele>
        <time>2021-04-15T09:35:55.000Z</time>
      </trkpt>
      <trkpt lat="47.30842" lon="-2.31648">
        <ele>9.1999998092651</ele>
        <time>2021-04-15T09:35:56.000Z</time>
      </trkpt>
      <trkpt lat="47.30851" lon="-2.31647">
        <ele>9.1999998092651</ele>
        <time>2021-04-15T09:35:58.000Z</time>
      </trkpt>
      <trkpt lat="47.30862" lon="-2.3166">
        <ele>9.1999998092651</ele>
        <time>2021-04-15T09:36:01.000Z</time>
      </trkpt>
      <trkpt lat="47.30866" lon="-2.31665">
        <ele>9.1999998092651</ele>
        <time>2021-04-15T09:36:02.000Z</time>
      </trkpt>
      <trkpt lat="47.30897" lon="-2.31704">
        <ele>9.1999998092651</ele>
        <time>2021-04-15T09:36:10.000Z</time>
      </trkpt>
      <trkpt lat="47.30905" lon="-2.31714">
        <ele>9.1999998092651</ele>
        <time>2021-04-15T09:36:12.000Z</time>
      </trkpt>
      <trkpt lat="47.3092" lon="-2.31732">
        <ele>9.1999998092651</ele>
        <time>2021-04-15T09:36:15.000Z</time>
      </trkpt>
      <trkpt lat="47.30951" lon="-2.31767">
        <ele>9.1999998092651</ele>
        <time>2021-04-15T09:36:21.000Z</time>
      </trkpt>
      <trkpt lat="47.30994" lon="-2.31811">
        <ele>9.1999998092651</ele>
        <time>2021-04-15T09:36:29.000Z</time>
      </trkpt>
      <trkpt lat="47.31002" lon="-2.3182">
        <ele>9.1999998092651</ele>
        <time>2021-04-15T09:36:31.000Z</time>
      </trkpt>
      <trkpt lat="47.31005" lon="-2.31834">
        <ele>9.1999998092651</ele>
        <time>2021-04-15T09:36:33.000Z</time>
      </trkpt>
      <trkpt lat="47.30997" lon="-2.3186">
        <ele>9.1999998092651</ele>
        <time>2021-04-15T09:36:37.000Z</time>
      </trkpt>
      <trkpt lat="47.3099" lon="-2.31882">
        <ele>9.1999998092651</ele>
        <time>2021-04-15T09:36:40.000Z</time>
      </trkpt>
      <trkpt lat="47.30987" lon="-2.31898">
        <ele>9.1999998092651</ele>
        <time>2021-04-15T09:36:42.000Z</time>
      </trkpt>
      <trkpt lat="47.3098" lon="-2.31921">
        <ele>9.1999998092651</ele>
        <time>2021-04-15T09:36:45.000Z</time>
      </trkpt>
      <trkpt lat="47.3097" lon="-2.3194">
        <ele>9.1999998092651</ele>
        <time>2021-04-15T09:36:48.000Z</time>
      </trkpt>
      <trkpt lat="47.30968" lon="-2.31947">
        <ele>9.1999998092651</ele>
        <time>2021-04-15T09:36:49.000Z</time>
      </trkpt>
      <trkpt lat="47.30967" lon="-2.31961">
        <ele>9.1999998092651</ele>
        <time>2021-04-15T09:36:51.000Z</time>
      </trkpt>
      <trkpt lat="47.30974" lon="-2.31986">
        <ele>9.1999998092651</ele>
        <time>2021-04-15T09:36:55.000Z</time>
      </trkpt>
      <trkpt lat="47.30988" lon="-2.32023">
        <ele>9.1999998092651</ele>
        <time>2021-04-15T09:37:01.000Z</time>
      </trkpt>
      <trkpt lat="47.30996" lon="-2.32041">
        <ele>9.1999998092651</ele>
        <time>2021-04-15T09:37:04.000Z</time>
      </trkpt>
      <trkpt lat="47.31003" lon="-2.32053">
        <ele>9.1999998092651</ele>
        <time>2021-04-15T09:37:06.000Z</time>
      </trkpt>
      <trkpt lat="47.31008" lon="-2.32065">
        <ele>9.1999998092651</ele>
        <time>2021-04-15T09:37:08.000Z</time>
      </trkpt>
      <trkpt lat="47.31019" lon="-2.32083">
        <ele>9.1999998092651</ele>
        <time>2021-04-15T09:37:11.000Z</time>
      </trkpt>
      <trkpt lat="47.31036" lon="-2.32109">
        <ele>9.1999998092651</ele>
        <time>2021-04-15T09:37:16.000Z</time>
      </trkpt>
      <trkpt lat="47.31046" lon="-2.32123">
        <ele>9.1999998092651</ele>
        <time>2021-04-15T09:37:19.000Z</time>
      </trkpt>
      <trkpt lat="47.31057" lon="-2.32137">
        <ele>9.6000003814697</ele>
        <time>2021-04-15T09:37:22.000Z</time>
      </trkpt>
      <trkpt lat="47.3106" lon="-2.32142">
        <ele>10.199999809265</ele>
        <time>2021-04-15T09:37:23.000Z</time>
      </trkpt>
      <trkpt lat="47.31064" lon="-2.32148">
        <ele>10.60000038147</ele>
        <time>2021-04-15T09:37:24.000Z</time>
      </trkpt>
      <trkpt lat="47.31067" lon="-2.32154">
        <ele>11</ele>
        <time>2021-04-15T09:37:25.000Z</time>
      </trkpt>
      <trkpt lat="47.3107" lon="-2.32159">
        <ele>11.39999961853</ele>
        <time>2021-04-15T09:37:26.000Z</time>
      </trkpt>
      <trkpt lat="47.31073" lon="-2.32165">
        <ele>11.39999961853</ele>
        <time>2021-04-15T09:37:27.000Z</time>
      </trkpt>
      <trkpt lat="47.31094" lon="-2.32209">
        <ele>11.39999961853</ele>
        <time>2021-04-15T09:37:35.000Z</time>
      </trkpt>
      <trkpt lat="47.31101" lon="-2.32228">
        <ele>11.800000190735</ele>
        <time>2021-04-15T09:37:39.000Z</time>
      </trkpt>
      <trkpt lat="47.31102" lon="-2.32233">
        <ele>12.199999809265</ele>
        <time>2021-04-15T09:37:40.000Z</time>
      </trkpt>
      <trkpt lat="47.31104" lon="-2.32237">
        <ele>12.60000038147</ele>
        <time>2021-04-15T09:37:41.000Z</time>
      </trkpt>
      <trkpt lat="47.31105" lon="-2.32242">
        <ele>13</ele>
        <time>2021-04-15T09:37:42.000Z</time>
      </trkpt>
      <trkpt lat="47.31107" lon="-2.32246">
        <ele>13.39999961853</ele>
        <time>2021-04-15T09:37:43.000Z</time>
      </trkpt>
      <trkpt lat="47.31112" lon="-2.32258">
        <ele>13.39999961853</ele>
        <time>2021-04-15T09:37:46.000Z</time>
      </trkpt>
      <trkpt lat="47.31127" lon="-2.32289">
        <ele>13.800000190735</ele>
        <time>2021-04-15T09:37:53.000Z</time>
      </trkpt>
      <trkpt lat="47.31129" lon="-2.32294">
        <ele>14.199999809265</ele>
        <time>2021-04-15T09:37:54.000Z</time>
      </trkpt>
      <trkpt lat="47.31131" lon="-2.323">
        <ele>14.60000038147</ele>
        <time>2021-04-15T09:37:55.000Z</time>
      </trkpt>
      <trkpt lat="47.31133" lon="-2.32305">
        <ele>15</ele>
        <time>2021-04-15T09:37:56.000Z</time>
      </trkpt>
      <trkpt lat="47.31135" lon="-2.32311">
        <ele>15.39999961853</ele>
        <time>2021-04-15T09:37:57.000Z</time>
      </trkpt>
      <trkpt lat="47.31138" lon="-2.32323">
        <ele>15.39999961853</ele>
        <time>2021-04-15T09:37:59.000Z</time>
      </trkpt>
      <trkpt lat="47.31142" lon="-2.32353">
        <ele>16</ele>
        <time>2021-04-15T09:38:04.000Z</time>
      </trkpt>
      <trkpt lat="47.31143" lon="-2.32359">
        <ele>16.39999961853</ele>
        <time>2021-04-15T09:38:05.000Z</time>
      </trkpt>
      <trkpt lat="47.31143" lon="-2.32365">
        <ele>16.799999237061</ele>
        <time>2021-04-15T09:38:06.000Z</time>
      </trkpt>
      <trkpt lat="47.31144" lon="-2.3237">
        <ele>17.200000762939</ele>
        <time>2021-04-15T09:38:07.000Z</time>
      </trkpt>
      <trkpt lat="47.31144" lon="-2.32376">
        <ele>17.60000038147</ele>
        <time>2021-04-15T09:38:08.000Z</time>
      </trkpt>
      <trkpt lat="47.31145" lon="-2.32404">
        <ele>17.60000038147</ele>
        <time>2021-04-15T09:38:13.000Z</time>
      </trkpt>
      <trkpt lat="47.31147" lon="-2.32417">
        <ele>17.60000038147</ele>
        <time>2021-04-15T09:38:16.000Z</time>
      </trkpt>
      <trkpt lat="47.3115" lon="-2.32419">
        <ele>17.60000038147</ele>
        <time>2021-04-15T09:38:17.000Z</time>
      </trkpt>
      <trkpt lat="47.31166" lon="-2.32426">
        <ele>17.60000038147</ele>
        <time>2021-04-15T09:38:21.000Z</time>
      </trkpt>
      <trkpt lat="47.31175" lon="-2.32428">
        <ele>17.60000038147</ele>
        <time>2021-04-15T09:38:23.000Z</time>
      </trkpt>
      <trkpt lat="47.31188" lon="-2.32426">
        <ele>17.60000038147</ele>
        <time>2021-04-15T09:38:26.000Z</time>
      </trkpt>
      <trkpt lat="47.31193" lon="-2.32424">
        <ele>18</ele>
        <time>2021-04-15T09:38:27.000Z</time>
      </trkpt>
      <trkpt lat="47.31198" lon="-2.32422">
        <ele>18.39999961853</ele>
        <time>2021-04-15T09:38:28.000Z</time>
      </trkpt>
      <trkpt lat="47.31203" lon="-2.32419">
        <ele>18.799999237061</ele>
        <time>2021-04-15T09:38:29.000Z</time>
      </trkpt>
      <trkpt lat="47.31207" lon="-2.32417">
        <ele>19.39999961853</ele>
        <time>2021-04-15T09:38:30.000Z</time>
      </trkpt>
      <trkpt lat="47.31212" lon="-2.32414">
        <ele>19.799999237061</ele>
        <time>2021-04-15T09:38:31.000Z</time>
      </trkpt>
      <trkpt lat="47.31217" lon="-2.32411">
        <ele>19.799999237061</ele>
        <time>2021-04-15T09:38:32.000Z</time>
      </trkpt>
      <trkpt lat="47.31247" lon="-2.32392">
        <ele>19.799999237061</ele>
        <time>2021-04-15T09:38:38.000Z</time>
      </trkpt>
      <trkpt lat="47.3128" lon="-2.32363">
        <ele>19.799999237061</ele>
        <time>2021-04-15T09:38:45.000Z</time>
      </trkpt>
      <trkpt lat="47.31312" lon="-2.32329">
        <ele>19.799999237061</ele>
        <time>2021-04-15T09:38:52.000Z</time>
      </trkpt>
      <trkpt lat="47.31346" lon="-2.32298">
        <ele>19.799999237061</ele>
        <time>2021-04-15T09:38:59.000Z</time>
      </trkpt>
      <trkpt lat="47.31355" lon="-2.32293">
        <ele>19.39999961853</ele>
        <time>2021-04-15T09:39:01.000Z</time>
      </trkpt>
      <trkpt lat="47.3136" lon="-2.3229">
        <ele>19</ele>
        <time>2021-04-15T09:39:02.000Z</time>
      </trkpt>
      <trkpt lat="47.31364" lon="-2.32288">
        <ele>18.60000038147</ele>
        <time>2021-04-15T09:39:03.000Z</time>
      </trkpt>
      <trkpt lat="47.31369" lon="-2.32286">
        <ele>18</ele>
        <time>2021-04-15T09:39:04.000Z</time>
      </trkpt>
      <trkpt lat="47.31374" lon="-2.32284">
        <ele>17.60000038147</ele>
        <time>2021-04-15T09:39:05.000Z</time>
      </trkpt>
      <trkpt lat="47.31409" lon="-2.32272">
        <ele>17.60000038147</ele>
        <time>2021-04-15T09:39:12.000Z</time>
      </trkpt>
      <trkpt lat="47.31435" lon="-2.32266">
        <ele>17.60000038147</ele>
        <time>2021-04-15T09:39:17.000Z</time>
      </trkpt>
      <trkpt lat="47.31441" lon="-2.32263">
        <ele>17.60000038147</ele>
        <time>2021-04-15T09:39:18.000Z</time>
      </trkpt>
      <trkpt lat="47.31455" lon="-2.32248">
        <ele>17.60000038147</ele>
        <time>2021-04-15T09:39:21.000Z</time>
      </trkpt>
      <trkpt lat="47.31458" lon="-2.32242">
        <ele>18.200000762939</ele>
        <time>2021-04-15T09:39:22.000Z</time>
      </trkpt>
      <trkpt lat="47.31461" lon="-2.32236">
        <ele>18.60000038147</ele>
        <time>2021-04-15T09:39:23.000Z</time>
      </trkpt>
      <trkpt lat="47.31464" lon="-2.3223">
        <ele>19</ele>
        <time>2021-04-15T09:39:24.000Z</time>
      </trkpt>
      <trkpt lat="47.31466" lon="-2.32223">
        <ele>19.39999961853</ele>
        <time>2021-04-15T09:39:25.000Z</time>
      </trkpt>
      <trkpt lat="47.31468" lon="-2.32216">
        <ele>20</ele>
        <time>2021-04-15T09:39:26.000Z</time>
      </trkpt>
      <trkpt lat="47.31478" lon="-2.32189">
        <ele>20</ele>
        <time>2021-04-15T09:39:30.000Z</time>
      </trkpt>
      <trkpt lat="47.31483" lon="-2.32175">
        <ele>20</ele>
        <time>2021-04-15T09:39:32.000Z</time>
      </trkpt>
      <trkpt lat="47.31492" lon="-2.32171">
        <ele>20</ele>
        <time>2021-04-15T09:39:34.000Z</time>
      </trkpt>
      <trkpt lat="47.31504" lon="-2.3218">
        <ele>20</ele>
        <time>2021-04-15T09:39:37.000Z</time>
      </trkpt>
      <trkpt lat="47.31517" lon="-2.32178">
        <ele>20</ele>
        <time>2021-04-15T09:39:40.000Z</time>
      </trkpt>
      <trkpt lat="47.31518" lon="-2.32164">
        <ele>20</ele>
        <time>2021-04-15T09:39:43.000Z</time>
      </trkpt>
      <trkpt lat="47.31511" lon="-2.32145">
        <ele>20</ele>
        <time>2021-04-15T09:39:47.000Z</time>
      </trkpt>
      <trkpt lat="47.315" lon="-2.32122">
        <ele>20</ele>
        <time>2021-04-15T09:39:51.000Z</time>
      </trkpt>
      <trkpt lat="47.31499" lon="-2.32112">
        <ele>20</ele>
        <time>2021-04-15T09:39:53.000Z</time>
      </trkpt>
      <trkpt lat="47.31503" lon="-2.32108">
        <ele>20</ele>
        <time>2021-04-15T09:39:57.000Z</time>
      </trkpt>
      <trkpt lat="47.31505" lon="-2.32106">
        <ele>20</ele>
        <time>2021-04-15T09:39:59.000Z</time>
      </trkpt>
      <trkpt lat="47.3151" lon="-2.32107">
        <ele>20</ele>
        <time>2021-04-15T09:40:02.000Z</time>
      </trkpt>
      <trkpt lat="47.31513" lon="-2.32109">
        <ele>20</ele>
        <time>2021-04-15T09:40:03.000Z</time>
      </trkpt>
      <trkpt lat="47.31516" lon="-2.32112">
        <ele>20</ele>
        <time>2021-04-15T09:40:04.000Z</time>
      </trkpt>
      <trkpt lat="47.3152" lon="-2.32112">
        <ele>20</ele>
        <time>2021-04-15T09:40:05.000Z</time>
      </trkpt>
      <trkpt lat="47.31531" lon="-2.32114">
        <ele>20</ele>
        <time>2021-04-15T09:40:08.000Z</time>
      </trkpt>
      <trkpt lat="47.31539" lon="-2.32115">
        <ele>20</ele>
        <time>2021-04-15T09:40:10.000Z</time>
      </trkpt>
      <trkpt lat="47.31558" lon="-2.32118">
        <ele>20.39999961853</ele>
        <time>2021-04-15T09:40:14.000Z</time>
      </trkpt>
      <trkpt lat="47.31562" lon="-2.3212">
        <ele>20.799999237061</ele>
        <time>2021-04-15T09:40:15.000Z</time>
      </trkpt>
      <trkpt lat="47.31567" lon="-2.32121">
        <ele>21.200000762939</ele>
        <time>2021-04-15T09:40:16.000Z</time>
      </trkpt>
      <trkpt lat="47.31572" lon="-2.32122">
        <ele>21.60000038147</ele>
        <time>2021-04-15T09:40:17.000Z</time>
      </trkpt>
      <trkpt lat="47.31577" lon="-2.32123">
        <ele>22</ele>
        <time>2021-04-15T09:40:18.000Z</time>
      </trkpt>
      <trkpt lat="47.31598" lon="-2.32129">
        <ele>22</ele>
        <time>2021-04-15T09:40:22.000Z</time>
      </trkpt>
      <trkpt lat="47.31641" lon="-2.32139">
        <ele>22</ele>
        <time>2021-04-15T09:40:30.000Z</time>
      </trkpt>
      <trkpt lat="47.31651" lon="-2.32142">
        <ele>22.39999961853</ele>
        <time>2021-04-15T09:40:32.000Z</time>
      </trkpt>
      <trkpt lat="47.31656" lon="-2.32144">
        <ele>22.799999237061</ele>
        <time>2021-04-15T09:40:33.000Z</time>
      </trkpt>
      <trkpt lat="47.31661" lon="-2.32146">
        <ele>23.200000762939</ele>
        <time>2021-04-15T09:40:34.000Z</time>
      </trkpt>
      <trkpt lat="47.31666" lon="-2.32147">
        <ele>23.60000038147</ele>
        <time>2021-04-15T09:40:35.000Z</time>
      </trkpt>
      <trkpt lat="47.31671" lon="-2.32149">
        <ele>24</ele>
        <time>2021-04-15T09:40:36.000Z</time>
      </trkpt>
      <trkpt lat="47.31682" lon="-2.32152">
        <ele>24</ele>
        <time>2021-04-15T09:40:38.000Z</time>
      </trkpt>
      <trkpt lat="47.31699" lon="-2.32156">
        <ele>24</ele>
        <time>2021-04-15T09:40:41.000Z</time>
      </trkpt>
      <trkpt lat="47.31742" lon="-2.32165">
        <ele>24</ele>
        <time>2021-04-15T09:40:48.000Z</time>
      </trkpt>
      <trkpt lat="47.31791" lon="-2.32176">
        <ele>24</ele>
        <time>2021-04-15T09:40:55.000Z</time>
      </trkpt>
      <trkpt lat="47.31837" lon="-2.32187">
        <ele>23.60000038147</ele>
        <time>2021-04-15T09:41:01.000Z</time>
      </trkpt>
      <trkpt lat="47.31845" lon="-2.32189">
        <ele>23.200000762939</ele>
        <time>2021-04-15T09:41:02.000Z</time>
      </trkpt>
      <trkpt lat="47.31852" lon="-2.32191">
        <ele>22.799999237061</ele>
        <time>2021-04-15T09:41:03.000Z</time>
      </trkpt>
      <trkpt lat="47.3186" lon="-2.32192">
        <ele>22.39999961853</ele>
        <time>2021-04-15T09:41:04.000Z</time>
      </trkpt>
      <trkpt lat="47.31867" lon="-2.32194">
        <ele>22</ele>
        <time>2021-04-15T09:41:05.000Z</time>
      </trkpt>
      <trkpt lat="47.31873" lon="-2.32195">
        <ele>21.60000038147</ele>
        <time>2021-04-15T09:41:06.000Z</time>
      </trkpt>
      <trkpt lat="47.3188" lon="-2.32196">
        <ele>21</ele>
        <time>2021-04-15T09:41:07.000Z</time>
      </trkpt>
      <trkpt lat="47.31885" lon="-2.32197">
        <ele>20.60000038147</ele>
        <time>2021-04-15T09:41:08.000Z</time>
      </trkpt>
      <trkpt lat="47.31889" lon="-2.32197">
        <ele>20</ele>
        <time>2021-04-15T09:41:09.000Z</time>
      </trkpt>
      <trkpt lat="47.31891" lon="-2.32199">
        <ele>19.39999961853</ele>
        <time>2021-04-15T09:41:10.000Z</time>
      </trkpt>
      <trkpt lat="47.31892" lon="-2.32202">
        <ele>18.799999237061</ele>
        <time>2021-04-15T09:41:11.000Z</time>
      </trkpt>
      <trkpt lat="47.31891" lon="-2.32205">
        <ele>18</ele>
        <time>2021-04-15T09:41:12.000Z</time>
      </trkpt>
      <trkpt lat="47.31889" lon="-2.32207">
        <ele>17.39999961853</ele>
        <time>2021-04-15T09:41:13.000Z</time>
      </trkpt>
      <trkpt lat="47.31887" lon="-2.32208">
        <ele>16.60000038147</ele>
        <time>2021-04-15T09:41:14.000Z</time>
      </trkpt>
      <trkpt lat="47.31883" lon="-2.32209">
        <ele>15.199999809265</ele>
        <time>2021-04-15T09:41:15.000Z</time>
      </trkpt>
      <trkpt lat="47.31879" lon="-2.32209">
        <ele>15.199999809265</ele>
        <time>2021-04-15T09:41:16.000Z</time>
      </trkpt>
      <trkpt lat="47.31874" lon="-2.3221">
        <ele>15.199999809265</ele>
        <time>2021-04-15T09:41:17.000Z</time>
      </trkpt>
      <trkpt lat="47.31869" lon="-2.32212">
        <ele>15.199999809265</ele>
        <time>2021-04-15T09:41:18.000Z</time>
      </trkpt>
      <trkpt lat="47.31854" lon="-2.32217">
        <ele>15.199999809265</ele>
        <time>2021-04-15T09:41:21.000Z</time>
      </trkpt>
      <trkpt lat="47.31842" lon="-2.32222">
        <ele>15.800000190735</ele>
        <time>2021-04-15T09:41:24.000Z</time>
      </trkpt>
      <trkpt lat="47.31838" lon="-2.32223">
        <ele>16.200000762939</ele>
        <time>2021-04-15T09:41:25.000Z</time>
      </trkpt>
      <trkpt lat="47.31833" lon="-2.32225">
        <ele>16.60000038147</ele>
        <time>2021-04-15T09:41:26.000Z</time>
      </trkpt>
      <trkpt lat="47.31828" lon="-2.32225">
        <ele>17.200000762939</ele>
        <time>2021-04-15T09:41:27.000Z</time>
      </trkpt>
      <trkpt lat="47.31824" lon="-2.32226">
        <ele>17.60000038147</ele>
        <time>2021-04-15T09:41:28.000Z</time>
      </trkpt>
      <trkpt lat="47.3182" lon="-2.32225">
        <ele>18</ele>
        <time>2021-04-15T09:41:29.000Z</time>
      </trkpt>
      <trkpt lat="47.31815" lon="-2.32226">
        <ele>18.39999961853</ele>
        <time>2021-04-15T09:41:30.000Z</time>
      </trkpt>
      <trkpt lat="47.3181" lon="-2.32227">
        <ele>18.799999237061</ele>
        <time>2021-04-15T09:41:31.000Z</time>
      </trkpt>
      <trkpt lat="47.31806" lon="-2.32227">
        <ele>19.200000762939</ele>
        <time>2021-04-15T09:41:32.000Z</time>
      </trkpt>
      <trkpt lat="47.31801" lon="-2.32228">
        <ele>19.60000038147</ele>
        <time>2021-04-15T09:41:33.000Z</time>
      </trkpt>
      <trkpt lat="47.31788" lon="-2.3223">
        <ele>20.200000762939</ele>
        <time>2021-04-15T09:41:36.000Z</time>
      </trkpt>
      <trkpt lat="47.31783" lon="-2.3223">
        <ele>20.60000038147</ele>
        <time>2021-04-15T09:41:37.000Z</time>
      </trkpt>
      <trkpt lat="47.31778" lon="-2.32231">
        <ele>21</ele>
        <time>2021-04-15T09:41:38.000Z</time>
      </trkpt>
      <trkpt lat="47.31774" lon="-2.32231">
        <ele>21.39999961853</ele>
        <time>2021-04-15T09:41:39.000Z</time>
      </trkpt>
      <trkpt lat="47.3177" lon="-2.32232">
        <ele>21.799999237061</ele>
        <time>2021-04-15T09:41:40.000Z</time>
      </trkpt>
      <trkpt lat="47.31761" lon="-2.32235">
        <ele>21.799999237061</ele>
        <time>2021-04-15T09:41:42.000Z</time>
      </trkpt>
      <trkpt lat="47.31758" lon="-2.3224">
        <ele>21.799999237061</ele>
        <time>2021-04-15T09:41:43.000Z</time>
      </trkpt>
      <trkpt lat="47.31756" lon="-2.3226">
        <ele>21.799999237061</ele>
        <time>2021-04-15T09:41:46.000Z</time>
      </trkpt>
      <trkpt lat="47.31759" lon="-2.32282">
        <ele>21.799999237061</ele>
        <time>2021-04-15T09:41:49.000Z</time>
      </trkpt>
      <trkpt lat="47.3176" lon="-2.3229">
        <ele>21.799999237061</ele>
        <time>2021-04-15T09:41:50.000Z</time>
      </trkpt>
      <trkpt lat="47.31774" lon="-2.32358">
        <ele>21.799999237061</ele>
        <time>2021-04-15T09:41:58.000Z</time>
      </trkpt>
      <trkpt lat="47.31786" lon="-2.32416">
        <ele>21.799999237061</ele>
        <time>2021-04-15T09:42:04.000Z</time>
      </trkpt>
      <trkpt lat="47.3179" lon="-2.32447">
        <ele>21.39999961853</ele>
        <time>2021-04-15T09:42:07.000Z</time>
      </trkpt>
      <trkpt lat="47.31791" lon="-2.32456">
        <ele>21</ele>
        <time>2021-04-15T09:42:08.000Z</time>
      </trkpt>
      <trkpt lat="47.31793" lon="-2.32464">
        <ele>20.39999961853</ele>
        <time>2021-04-15T09:42:09.000Z</time>
      </trkpt>
      <trkpt lat="47.31795" lon="-2.32473">
        <ele>20</ele>
        <time>2021-04-15T09:42:10.000Z</time>
      </trkpt>
      <trkpt lat="47.31797" lon="-2.32481">
        <ele>19.60000038147</ele>
        <time>2021-04-15T09:42:11.000Z</time>
      </trkpt>
      <trkpt lat="47.31799" lon="-2.32489">
        <ele>19.200000762939</ele>
        <time>2021-04-15T09:42:12.000Z</time>
      </trkpt>
      <trkpt lat="47.31801" lon="-2.32498">
        <ele>18.799999237061</ele>
        <time>2021-04-15T09:42:13.000Z</time>
      </trkpt>
      <trkpt lat="47.31803" lon="-2.32508">
        <ele>18.39999961853</ele>
        <time>2021-04-15T09:42:14.000Z</time>
      </trkpt>
      <trkpt lat="47.31805" lon="-2.32518">
        <ele>18</ele>
        <time>2021-04-15T09:42:15.000Z</time>
      </trkpt>
      <trkpt lat="47.31807" lon="-2.32528">
        <ele>17.60000038147</ele>
        <time>2021-04-15T09:42:16.000Z</time>
      </trkpt>
      <trkpt lat="47.31815" lon="-2.32558">
        <ele>17.200000762939</ele>
        <time>2021-04-15T09:42:19.000Z</time>
      </trkpt>
      <trkpt lat="47.31817" lon="-2.32569">
        <ele>16.799999237061</ele>
        <time>2021-04-15T09:42:20.000Z</time>
      </trkpt>
      <trkpt lat="47.3182" lon="-2.32581">
        <ele>16.39999961853</ele>
        <time>2021-04-15T09:42:21.000Z</time>
      </trkpt>
      <trkpt lat="47.31823" lon="-2.32592">
        <ele>16</ele>
        <time>2021-04-15T09:42:22.000Z</time>
      </trkpt>
      <trkpt lat="47.31826" lon="-2.32603">
        <ele>15.60000038147</ele>
        <time>2021-04-15T09:42:23.000Z</time>
      </trkpt>
      <trkpt lat="47.31834" lon="-2.32635">
        <ele>15</ele>
        <time>2021-04-15T09:42:26.000Z</time>
      </trkpt>
      <trkpt lat="47.31836" lon="-2.32645">
        <ele>14.60000038147</ele>
        <time>2021-04-15T09:42:27.000Z</time>
      </trkpt>
      <trkpt lat="47.3184" lon="-2.32655">
        <ele>14.199999809265</ele>
        <time>2021-04-15T09:42:28.000Z</time>
      </trkpt>
      <trkpt lat="47.31843" lon="-2.32663">
        <ele>13.39999961853</ele>
        <time>2021-04-15T09:42:29.000Z</time>
      </trkpt>
      <trkpt lat="47.31859" lon="-2.32699">
        <ele>13</ele>
        <time>2021-04-15T09:42:33.000Z</time>
      </trkpt>
      <trkpt lat="47.31863" lon="-2.32709">
        <ele>12.39999961853</ele>
        <time>2021-04-15T09:42:34.000Z</time>
      </trkpt>
      <trkpt lat="47.31866" lon="-2.32719">
        <ele>12</ele>
        <time>2021-04-15T09:42:35.000Z</time>
      </trkpt>
      <trkpt lat="47.31869" lon="-2.32729">
        <ele>11.60000038147</ele>
        <time>2021-04-15T09:42:36.000Z</time>
      </trkpt>
      <trkpt lat="47.31873" lon="-2.32738">
        <ele>11.199999809265</ele>
        <time>2021-04-15T09:42:37.000Z</time>
      </trkpt>
      <trkpt lat="47.3188" lon="-2.32758">
        <ele>11.199999809265</ele>
        <time>2021-04-15T09:42:39.000Z</time>
      </trkpt>
      <trkpt lat="47.31882" lon="-2.32768">
        <ele>11.199999809265</ele>
        <time>2021-04-15T09:42:40.000Z</time>
      </trkpt>
      <trkpt lat="47.31885" lon="-2.3279">
        <ele>11.199999809265</ele>
        <time>2021-04-15T09:42:42.000Z</time>
      </trkpt>
      <trkpt lat="47.31891" lon="-2.32859">
        <ele>11.199999809265</ele>
        <time>2021-04-15T09:42:48.000Z</time>
      </trkpt>
      <trkpt lat="47.31893" lon="-2.32911">
        <ele>10.39999961853</ele>
        <time>2021-04-15T09:42:53.000Z</time>
      </trkpt>
      <trkpt lat="47.31893" lon="-2.3292">
        <ele>10</ele>
        <time>2021-04-15T09:42:54.000Z</time>
      </trkpt>
      <trkpt lat="47.31894" lon="-2.32929">
        <ele>9.6000003814697</ele>
        <time>2021-04-15T09:42:55.000Z</time>
      </trkpt>
      <trkpt lat="47.31894" lon="-2.32938">
        <ele>9.1999998092651</ele>
        <time>2021-04-15T09:42:56.000Z</time>
      </trkpt>
      <trkpt lat="47.31895" lon="-2.3296">
        <ele>9.1999998092651</ele>
        <time>2021-04-15T09:42:58.000Z</time>
      </trkpt>
      <trkpt lat="47.31893" lon="-2.33016">
        <ele>9.1999998092651</ele>
        <time>2021-04-15T09:43:03.000Z</time>
      </trkpt>
      <trkpt lat="47.31892" lon="-2.33073">
        <ele>9.1999998092651</ele>
        <time>2021-04-15T09:43:09.000Z</time>
      </trkpt>
      <trkpt lat="47.31889" lon="-2.33113">
        <ele>9.1999998092651</ele>
        <time>2021-04-15T09:43:14.000Z</time>
      </trkpt>
      <trkpt lat="47.31884" lon="-2.3314">
        <ele>9.1999998092651</ele>
        <time>2021-04-15T09:43:18.000Z</time>
      </trkpt>
      <trkpt lat="47.31877" lon="-2.33179">
        <ele>9.6000003814697</ele>
        <time>2021-04-15T09:43:24.000Z</time>
      </trkpt>
      <trkpt lat="47.31876" lon="-2.33186">
        <ele>10</ele>
        <time>2021-04-15T09:43:25.000Z</time>
      </trkpt>
      <trkpt lat="47.31874" lon="-2.33193">
        <ele>10.60000038147</ele>
        <time>2021-04-15T09:43:26.000Z</time>
      </trkpt>
      <trkpt lat="47.31872" lon="-2.332">
        <ele>11</ele>
        <time>2021-04-15T09:43:27.000Z</time>
      </trkpt>
      <trkpt lat="47.31871" lon="-2.33207">
        <ele>11.60000038147</ele>
        <time>2021-04-15T09:43:28.000Z</time>
      </trkpt>
      <trkpt lat="47.31869" lon="-2.33215">
        <ele>11.60000038147</ele>
        <time>2021-04-15T09:43:29.000Z</time>
      </trkpt>
      <trkpt lat="47.31862" lon="-2.33249">
        <ele>11.60000038147</ele>
        <time>2021-04-15T09:43:34.000Z</time>
      </trkpt>
      <trkpt lat="47.3186" lon="-2.33255">
        <ele>11.60000038147</ele>
        <time>2021-04-15T09:43:35.000Z</time>
      </trkpt>
      <trkpt lat="47.31859" lon="-2.33261">
        <ele>11.60000038147</ele>
        <time>2021-04-15T09:43:36.000Z</time>
      </trkpt>
      <trkpt lat="47.31854" lon="-2.33272">
        <ele>12</ele>
        <time>2021-04-15T09:43:38.000Z</time>
      </trkpt>
      <trkpt lat="47.31852" lon="-2.33277">
        <ele>12.39999961853</ele>
        <time>2021-04-15T09:43:39.000Z</time>
      </trkpt>
      <trkpt lat="47.31849" lon="-2.33282">
        <ele>12.800000190735</ele>
        <time>2021-04-15T09:43:40.000Z</time>
      </trkpt>
      <trkpt lat="47.31846" lon="-2.33286">
        <ele>13.199999809265</ele>
        <time>2021-04-15T09:43:41.000Z</time>
      </trkpt>
      <trkpt lat="47.31843" lon="-2.33289">
        <ele>13.60000038147</ele>
        <time>2021-04-15T09:43:42.000Z</time>
      </trkpt>
      <trkpt lat="47.31827" lon="-2.33304">
        <ele>14</ele>
        <time>2021-04-15T09:43:47.000Z</time>
      </trkpt>
      <trkpt lat="47.31825" lon="-2.33308">
        <ele>14.39999961853</ele>
        <time>2021-04-15T09:43:48.000Z</time>
      </trkpt>
      <trkpt lat="47.31822" lon="-2.33311">
        <ele>14.800000190735</ele>
        <time>2021-04-15T09:43:49.000Z</time>
      </trkpt>
      <trkpt lat="47.3182" lon="-2.33315">
        <ele>15.199999809265</ele>
        <time>2021-04-15T09:43:50.000Z</time>
      </trkpt>
      <trkpt lat="47.31816" lon="-2.33317">
        <ele>15.800000190735</ele>
        <time>2021-04-15T09:43:51.000Z</time>
      </trkpt>
      <trkpt lat="47.31809" lon="-2.33324">
        <ele>15.800000190735</ele>
        <time>2021-04-15T09:43:53.000Z</time>
      </trkpt>
      <trkpt lat="47.31801" lon="-2.33328">
        <ele>16.200000762939</ele>
        <time>2021-04-15T09:43:55.000Z</time>
      </trkpt>
      <trkpt lat="47.31798" lon="-2.3333">
        <ele>16.60000038147</ele>
        <time>2021-04-15T09:43:56.000Z</time>
      </trkpt>
      <trkpt lat="47.31794" lon="-2.33331">
        <ele>17</ele>
        <time>2021-04-15T09:43:57.000Z</time>
      </trkpt>
      <trkpt lat="47.3179" lon="-2.33331">
        <ele>17.60000038147</ele>
        <time>2021-04-15T09:43:58.000Z</time>
      </trkpt>
      <trkpt lat="47.31786" lon="-2.33329">
        <ele>18</ele>
        <time>2021-04-15T09:43:59.000Z</time>
      </trkpt>
      <trkpt lat="47.31778" lon="-2.3332">
        <ele>18.39999961853</ele>
        <time>2021-04-15T09:44:02.000Z</time>
      </trkpt>
      <trkpt lat="47.31777" lon="-2.33316">
        <ele>18.799999237061</ele>
        <time>2021-04-15T09:44:03.000Z</time>
      </trkpt>
      <trkpt lat="47.31775" lon="-2.33314">
        <ele>19.200000762939</ele>
        <time>2021-04-15T09:44:04.000Z</time>
      </trkpt>
      <trkpt lat="47.31773" lon="-2.33311">
        <ele>19.60000038147</ele>
        <time>2021-04-15T09:44:05.000Z</time>
      </trkpt>
      <trkpt lat="47.31772" lon="-2.33307">
        <ele>20</ele>
        <time>2021-04-15T09:44:06.000Z</time>
      </trkpt>
      <trkpt lat="47.31767" lon="-2.33296">
        <ele>20</ele>
        <time>2021-04-15T09:44:09.000Z</time>
      </trkpt>
      <trkpt lat="47.3176" lon="-2.33267">
        <ele>20</ele>
        <time>2021-04-15T09:44:14.000Z</time>
      </trkpt>
      <trkpt lat="47.31758" lon="-2.33263">
        <ele>20</ele>
        <time>2021-04-15T09:44:15.000Z</time>
      </trkpt>
      <trkpt lat="47.3175" lon="-2.33261">
        <ele>20</ele>
        <time>2021-04-15T09:44:17.000Z</time>
      </trkpt>
      <trkpt lat="47.31733" lon="-2.33261">
        <ele>20</ele>
        <time>2021-04-15T09:44:21.000Z</time>
      </trkpt>
      <trkpt lat="47.31729" lon="-2.33261">
        <ele>20</ele>
        <time>2021-04-15T09:44:22.000Z</time>
      </trkpt>
      <trkpt lat="47.31722" lon="-2.33261">
        <ele>20.39999961853</ele>
        <time>2021-04-15T09:44:24.000Z</time>
      </trkpt>
      <trkpt lat="47.3172" lon="-2.33262">
        <ele>20.799999237061</ele>
        <time>2021-04-15T09:44:25.000Z</time>
      </trkpt>
      <trkpt lat="47.31717" lon="-2.33262">
        <ele>21.39999961853</ele>
        <time>2021-04-15T09:44:26.000Z</time>
      </trkpt>
      <trkpt lat="47.31715" lon="-2.33263">
        <ele>21.799999237061</ele>
        <time>2021-04-15T09:44:27.000Z</time>
      </trkpt>
      <trkpt lat="47.3171" lon="-2.33263">
        <ele>22.200000762939</ele>
        <time>2021-04-15T09:44:28.000Z</time>
      </trkpt>
      <trkpt lat="47.31692" lon="-2.33269">
        <ele>22.60000038147</ele>
        <time>2021-04-15T09:44:32.000Z</time>
      </trkpt>
      <trkpt lat="47.31687" lon="-2.33271">
        <ele>23</ele>
        <time>2021-04-15T09:44:33.000Z</time>
      </trkpt>
      <trkpt lat="47.31683" lon="-2.33273">
        <ele>23.39999961853</ele>
        <time>2021-04-15T09:44:34.000Z</time>
      </trkpt>
      <trkpt lat="47.31679" lon="-2.33273">
        <ele>23.799999237061</ele>
        <time>2021-04-15T09:44:35.000Z</time>
      </trkpt>
      <trkpt lat="47.31675" lon="-2.33276">
        <ele>24.200000762939</ele>
        <time>2021-04-15T09:44:36.000Z</time>
      </trkpt>
      <trkpt lat="47.31659" lon="-2.33287">
        <ele>24.200000762939</ele>
        <time>2021-04-15T09:44:40.000Z</time>
      </trkpt>
      <trkpt lat="47.31646" lon="-2.33293">
        <ele>24.200000762939</ele>
        <time>2021-04-15T09:44:43.000Z</time>
      </trkpt>
      <trkpt lat="47.31639" lon="-2.33299">
        <ele>24.200000762939</ele>
        <time>2021-04-15T09:44:45.000Z</time>
      </trkpt>
      <trkpt lat="47.31617" lon="-2.33309">
        <ele>24.200000762939</ele>
        <time>2021-04-15T09:44:50.000Z</time>
      </trkpt>
      <trkpt lat="47.31607" lon="-2.33314">
        <ele>24.200000762939</ele>
        <time>2021-04-15T09:44:52.000Z</time>
      </trkpt>
      <trkpt lat="47.31598" lon="-2.3332">
        <ele>24.60000038147</ele>
        <time>2021-04-15T09:44:54.000Z</time>
      </trkpt>
      <trkpt lat="47.31593" lon="-2.33323">
        <ele>25</ele>
        <time>2021-04-15T09:44:55.000Z</time>
      </trkpt>
      <trkpt lat="47.31588" lon="-2.33326">
        <ele>25.799999237061</ele>
        <time>2021-04-15T09:44:56.000Z</time>
      </trkpt>
      <trkpt lat="47.31584" lon="-2.33329">
        <ele>26.200000762939</ele>
        <time>2021-04-15T09:44:57.000Z</time>
      </trkpt>
      <trkpt lat="47.31579" lon="-2.33331">
        <ele>26.200000762939</ele>
        <time>2021-04-15T09:44:58.000Z</time>
      </trkpt>
      <trkpt lat="47.31563" lon="-2.33338">
        <ele>26.200000762939</ele>
        <time>2021-04-15T09:45:01.000Z</time>
      </trkpt>
      <trkpt lat="47.31519" lon="-2.33358">
        <ele>26.200000762939</ele>
        <time>2021-04-15T09:45:10.000Z</time>
      </trkpt>
      <trkpt lat="47.31497" lon="-2.33367">
        <ele>26.200000762939</ele>
        <time>2021-04-15T09:45:14.000Z</time>
      </trkpt>
      <trkpt lat="47.31487" lon="-2.33364">
        <ele>26.200000762939</ele>
        <time>2021-04-15T09:45:16.000Z</time>
      </trkpt>
      <trkpt lat="47.31474" lon="-2.33348">
        <ele>26.200000762939</ele>
        <time>2021-04-15T09:45:19.000Z</time>
      </trkpt>
      <trkpt lat="47.3147" lon="-2.33341">
        <ele>26.200000762939</ele>
        <time>2021-04-15T09:45:20.000Z</time>
      </trkpt>
      <trkpt lat="47.31453" lon="-2.33312">
        <ele>26.200000762939</ele>
        <time>2021-04-15T09:45:25.000Z</time>
      </trkpt>
      <trkpt lat="47.31425" lon="-2.33277">
        <ele>26.200000762939</ele>
        <time>2021-04-15T09:45:31.000Z</time>
      </trkpt>
      <trkpt lat="47.31388" lon="-2.33246">
        <ele>26.200000762939</ele>
        <time>2021-04-15T09:45:38.000Z</time>
      </trkpt>
      <trkpt lat="47.31359" lon="-2.33227">
        <ele>26.200000762939</ele>
        <time>2021-04-15T09:45:44.000Z</time>
      </trkpt>
      <trkpt lat="47.31355" lon="-2.33223">
        <ele>25.799999237061</ele>
        <time>2021-04-15T09:45:45.000Z</time>
      </trkpt>
      <trkpt lat="47.31351" lon="-2.3322">
        <ele>25</ele>
        <time>2021-04-15T09:45:46.000Z</time>
      </trkpt>
      <trkpt lat="47.31348" lon="-2.33217">
        <ele>24.60000038147</ele>
        <time>2021-04-15T09:45:47.000Z</time>
      </trkpt>
      <trkpt lat="47.31344" lon="-2.33213">
        <ele>24.200000762939</ele>
        <time>2021-04-15T09:45:48.000Z</time>
      </trkpt>
      <trkpt lat="47.31337" lon="-2.33206">
        <ele>24.200000762939</ele>
        <time>2021-04-15T09:45:50.000Z</time>
      </trkpt>
      <trkpt lat="47.31312" lon="-2.33184">
        <ele>24.200000762939</ele>
        <time>2021-04-15T09:45:57.000Z</time>
      </trkpt>
      <trkpt lat="47.31294" lon="-2.33174">
        <ele>24.200000762939</ele>
        <time>2021-04-15T09:46:02.000Z</time>
      </trkpt>
      <trkpt lat="47.31265" lon="-2.3316">
        <ele>24.200000762939</ele>
        <time>2021-04-15T09:46:09.000Z</time>
      </trkpt>
      <trkpt lat="47.31261" lon="-2.33158">
        <ele>24.200000762939</ele>
        <time>2021-04-15T09:46:10.000Z</time>
      </trkpt>
      <trkpt lat="47.31245" lon="-2.33155">
        <ele>24.200000762939</ele>
        <time>2021-04-15T09:46:14.000Z</time>
      </trkpt>
      <trkpt lat="47.31219" lon="-2.33155">
        <ele>24.200000762939</ele>
        <time>2021-04-15T09:46:20.000Z</time>
      </trkpt>
      <trkpt lat="47.3121" lon="-2.33159">
        <ele>24.200000762939</ele>
        <time>2021-04-15T09:46:22.000Z</time>
      </trkpt>
      <trkpt lat="47.31192" lon="-2.3317">
        <ele>24.200000762939</ele>
        <time>2021-04-15T09:46:26.000Z</time>
      </trkpt>
      <trkpt lat="47.31183" lon="-2.33175">
        <ele>24.200000762939</ele>
        <time>2021-04-15T09:46:28.000Z</time>
      </trkpt>
      <trkpt lat="47.31171" lon="-2.33183">
        <ele>24.200000762939</ele>
        <time>2021-04-15T09:46:31.000Z</time>
      </trkpt>
      <trkpt lat="47.3116" lon="-2.33192">
        <ele>24.200000762939</ele>
        <time>2021-04-15T09:46:34.000Z</time>
      </trkpt>
      <trkpt lat="47.31149" lon="-2.33199">
        <ele>24.200000762939</ele>
        <time>2021-04-15T09:46:37.000Z</time>
      </trkpt>
      <trkpt lat="47.31121" lon="-2.33216">
        <ele>24.200000762939</ele>
        <time>2021-04-15T09:46:44.000Z</time>
      </trkpt>
      <trkpt lat="47.31115" lon="-2.33234">
        <ele>24.200000762939</ele>
        <time>2021-04-15T09:46:47.000Z</time>
      </trkpt>
      <trkpt lat="47.31113" lon="-2.3324">
        <ele>24.200000762939</ele>
        <time>2021-04-15T09:46:48.000Z</time>
      </trkpt>
      <trkpt lat="47.31111" lon="-2.33255">
        <ele>24.200000762939</ele>
        <time>2021-04-15T09:46:50.000Z</time>
      </trkpt>
      <trkpt lat="47.31109" lon="-2.3327">
        <ele>24.200000762939</ele>
        <time>2021-04-15T09:46:52.000Z</time>
      </trkpt>
      <trkpt lat="47.31105" lon="-2.333">
        <ele>24.200000762939</ele>
        <time>2021-04-15T09:46:56.000Z</time>
      </trkpt>
      <trkpt lat="47.31105" lon="-2.33308">
        <ele>24.200000762939</ele>
        <time>2021-04-15T09:46:57.000Z</time>
      </trkpt>
      <trkpt lat="47.31103" lon="-2.33331">
        <ele>24.60000038147</ele>
        <time>2021-04-15T09:47:00.000Z</time>
      </trkpt>
      <trkpt lat="47.31103" lon="-2.33338">
        <ele>25</ele>
        <time>2021-04-15T09:47:01.000Z</time>
      </trkpt>
      <trkpt lat="47.31103" lon="-2.33346">
        <ele>25.39999961853</ele>
        <time>2021-04-15T09:47:02.000Z</time>
      </trkpt>
      <trkpt lat="47.31102" lon="-2.33353">
        <ele>25.799999237061</ele>
        <time>2021-04-15T09:47:03.000Z</time>
      </trkpt>
      <trkpt lat="47.31102" lon="-2.3336">
        <ele>26.200000762939</ele>
        <time>2021-04-15T09:47:04.000Z</time>
      </trkpt>
      <trkpt lat="47.31102" lon="-2.33366">
        <ele>26.200000762939</ele>
        <time>2021-04-15T09:47:05.000Z</time>
      </trkpt>
      <trkpt lat="47.31101" lon="-2.33409">
        <ele>26.200000762939</ele>
        <time>2021-04-15T09:47:10.000Z</time>
      </trkpt>
      <trkpt lat="47.31101" lon="-2.33474">
        <ele>26.60000038147</ele>
        <time>2021-04-15T09:47:17.000Z</time>
      </trkpt>
      <trkpt lat="47.31101" lon="-2.33482">
        <ele>27.200000762939</ele>
        <time>2021-04-15T09:47:18.000Z</time>
      </trkpt>
      <trkpt lat="47.31102" lon="-2.33491">
        <ele>27.60000038147</ele>
        <time>2021-04-15T09:47:19.000Z</time>
      </trkpt>
      <trkpt lat="47.31103" lon="-2.33499">
        <ele>28</ele>
        <time>2021-04-15T09:47:20.000Z</time>
      </trkpt>
      <trkpt lat="47.31104" lon="-2.33507">
        <ele>28.39999961853</ele>
        <time>2021-04-15T09:47:21.000Z</time>
      </trkpt>
      <trkpt lat="47.31106" lon="-2.33523">
        <ele>28.39999961853</ele>
        <time>2021-04-15T09:47:23.000Z</time>
      </trkpt>
      <trkpt lat="47.31111" lon="-2.33582">
        <ele>28.39999961853</ele>
        <time>2021-04-15T09:47:30.000Z</time>
      </trkpt>
      <trkpt lat="47.31107" lon="-2.33637">
        <ele>28.39999961853</ele>
        <time>2021-04-15T09:47:36.000Z</time>
      </trkpt>
      <trkpt lat="47.31097" lon="-2.33708">
        <ele>28.39999961853</ele>
        <time>2021-04-15T09:47:44.000Z</time>
      </trkpt>
      <trkpt lat="47.31084" lon="-2.33773">
        <ele>28.39999961853</ele>
        <time>2021-04-15T09:47:52.000Z</time>
      </trkpt>
      <trkpt lat="47.31071" lon="-2.33808">
        <ele>28.39999961853</ele>
        <time>2021-04-15T09:47:57.000Z</time>
      </trkpt>
      <trkpt lat="47.31069" lon="-2.33815">
        <ele>28.39999961853</ele>
        <time>2021-04-15T09:47:58.000Z</time>
      </trkpt>
      <trkpt lat="47.31065" lon="-2.33836">
        <ele>28.39999961853</ele>
        <time>2021-04-15T09:48:01.000Z</time>
      </trkpt>
      <trkpt lat="47.31064" lon="-2.33842">
        <ele>28.39999961853</ele>
        <time>2021-04-15T09:48:02.000Z</time>
      </trkpt>
      <trkpt lat="47.31063" lon="-2.33848">
        <ele>28.39999961853</ele>
        <time>2021-04-15T09:48:03.000Z</time>
      </trkpt>
      <trkpt lat="47.31061" lon="-2.33877">
        <ele>28.39999961853</ele>
        <time>2021-04-15T09:48:08.000Z</time>
      </trkpt>
      <trkpt lat="47.31061" lon="-2.33884">
        <ele>28.39999961853</ele>
        <time>2021-04-15T09:48:09.000Z</time>
      </trkpt>
      <trkpt lat="47.31061" lon="-2.33925">
        <ele>28.39999961853</ele>
        <time>2021-04-15T09:48:15.000Z</time>
      </trkpt>
      <trkpt lat="47.3106" lon="-2.3396">
        <ele>28.39999961853</ele>
        <time>2021-04-15T09:48:21.000Z</time>
      </trkpt>
      <trkpt lat="47.31061" lon="-2.33998">
        <ele>28.39999961853</ele>
        <time>2021-04-15T09:48:29.000Z</time>
      </trkpt>
      <trkpt lat="47.31065" lon="-2.34022">
        <ele>28.39999961853</ele>
        <time>2021-04-15T09:48:36.000Z</time>
      </trkpt>
      <trkpt lat="47.31068" lon="-2.34044">
        <ele>28.39999961853</ele>
        <time>2021-04-15T09:48:43.000Z</time>
      </trkpt>
      <trkpt lat="47.31073" lon="-2.3407">
        <ele>28.39999961853</ele>
        <time>2021-04-15T09:48:50.000Z</time>
      </trkpt>
      <trkpt lat="47.3108" lon="-2.341">
        <ele>28.39999961853</ele>
        <time>2021-04-15T09:48:58.000Z</time>
      </trkpt>
      <trkpt lat="47.31081" lon="-2.34103">
        <ele>28.39999961853</ele>
        <time>2021-04-15T09:49:01.000Z</time>
      </trkpt>
      <trkpt lat="47.31085" lon="-2.34109">
        <ele>28</ele>
        <time>2021-04-15T09:49:27.000Z</time>
      </trkpt>
      <trkpt lat="47.31088" lon="-2.34112">
        <ele>27.60000038147</ele>
        <time>2021-04-15T09:49:28.000Z</time>
      </trkpt>
      <trkpt lat="47.31091" lon="-2.34116">
        <ele>26.799999237061</ele>
        <time>2021-04-15T09:49:29.000Z</time>
      </trkpt>
      <trkpt lat="47.31093" lon="-2.34121">
        <ele>26.39999961853</ele>
        <time>2021-04-15T09:49:30.000Z</time>
      </trkpt>
      <trkpt lat="47.31096" lon="-2.34127">
        <ele>26.39999961853</ele>
        <time>2021-04-15T09:49:31.000Z</time>
      </trkpt>
      <trkpt lat="47.31114" lon="-2.34157">
        <ele>26.39999961853</ele>
        <time>2021-04-15T09:49:35.000Z</time>
      </trkpt>
      <trkpt lat="47.31141" lon="-2.34205">
        <ele>26.39999961853</ele>
        <time>2021-04-15T09:49:40.000Z</time>
      </trkpt>
      <trkpt lat="47.31147" lon="-2.34216">
        <ele>25.799999237061</ele>
        <time>2021-04-15T09:49:41.000Z</time>
      </trkpt>
      <trkpt lat="47.31153" lon="-2.34227">
        <ele>25.39999961853</ele>
        <time>2021-04-15T09:49:42.000Z</time>
      </trkpt>
      <trkpt lat="47.31158" lon="-2.34239">
        <ele>24.799999237061</ele>
        <time>2021-04-15T09:49:43.000Z</time>
      </trkpt>
      <trkpt lat="47.31164" lon="-2.3425">
        <ele>24.39999961853</ele>
        <time>2021-04-15T09:49:44.000Z</time>
      </trkpt>
      <trkpt lat="47.3117" lon="-2.34261">
        <ele>23.799999237061</ele>
        <time>2021-04-15T09:49:45.000Z</time>
      </trkpt>
      <trkpt lat="47.31175" lon="-2.34272">
        <ele>23.39999961853</ele>
        <time>2021-04-15T09:49:46.000Z</time>
      </trkpt>
      <trkpt lat="47.3118" lon="-2.34283">
        <ele>23</ele>
        <time>2021-04-15T09:49:47.000Z</time>
      </trkpt>
      <trkpt lat="47.31185" lon="-2.34294">
        <ele>22.60000038147</ele>
        <time>2021-04-15T09:49:48.000Z</time>
      </trkpt>
      <trkpt lat="47.3119" lon="-2.34305">
        <ele>22</ele>
        <time>2021-04-15T09:49:49.000Z</time>
      </trkpt>
      <trkpt lat="47.31195" lon="-2.34314">
        <ele>21.60000038147</ele>
        <time>2021-04-15T09:49:50.000Z</time>
      </trkpt>
      <trkpt lat="47.31206" lon="-2.3433">
        <ele>21.60000038147</ele>
        <time>2021-04-15T09:49:52.000Z</time>
      </trkpt>
      <trkpt lat="47.31228" lon="-2.34345">
        <ele>21.60000038147</ele>
        <time>2021-04-15T09:49:55.000Z</time>
      </trkpt>
      <trkpt lat="47.31248" lon="-2.34355">
        <ele>21.60000038147</ele>
        <time>2021-04-15T09:49:58.000Z</time>
      </trkpt>
      <trkpt lat="47.3126" lon="-2.34366">
        <ele>21.60000038147</ele>
        <time>2021-04-15T09:50:00.000Z</time>
      </trkpt>
      <trkpt lat="47.31275" lon="-2.34391">
        <ele>21.60000038147</ele>
        <time>2021-04-15T09:50:04.000Z</time>
      </trkpt>
      <trkpt lat="47.31281" lon="-2.34417">
        <ele>21.60000038147</ele>
        <time>2021-04-15T09:50:07.000Z</time>
      </trkpt>
      <trkpt lat="47.31285" lon="-2.34467">
        <ele>21.60000038147</ele>
        <time>2021-04-15T09:50:11.000Z</time>
      </trkpt>
      <trkpt lat="47.31287" lon="-2.345">
        <ele>22</ele>
        <time>2021-04-15T09:50:14.000Z</time>
      </trkpt>
      <trkpt lat="47.31288" lon="-2.3451">
        <ele>22.39999961853</ele>
        <time>2021-04-15T09:50:15.000Z</time>
      </trkpt>
      <trkpt lat="47.31289" lon="-2.34519">
        <ele>22.799999237061</ele>
        <time>2021-04-15T09:50:16.000Z</time>
      </trkpt>
      <trkpt lat="47.3129" lon="-2.34529">
        <ele>23.39999961853</ele>
        <time>2021-04-15T09:50:17.000Z</time>
      </trkpt>
      <trkpt lat="47.31291" lon="-2.34538">
        <ele>23.799999237061</ele>
        <time>2021-04-15T09:50:18.000Z</time>
      </trkpt>
      <trkpt lat="47.31294" lon="-2.34575">
        <ele>24.200000762939</ele>
        <time>2021-04-15T09:50:22.000Z</time>
      </trkpt>
      <trkpt lat="47.31295" lon="-2.34584">
        <ele>24.60000038147</ele>
        <time>2021-04-15T09:50:23.000Z</time>
      </trkpt>
      <trkpt lat="47.31296" lon="-2.34593">
        <ele>25</ele>
        <time>2021-04-15T09:50:24.000Z</time>
      </trkpt>
      <trkpt lat="47.31297" lon="-2.34602">
        <ele>25.39999961853</ele>
        <time>2021-04-15T09:50:25.000Z</time>
      </trkpt>
      <trkpt lat="47.31298" lon="-2.34611">
        <ele>25.799999237061</ele>
        <time>2021-04-15T09:50:26.000Z</time>
      </trkpt>
      <trkpt lat="47.31302" lon="-2.3465">
        <ele>25.799999237061</ele>
        <time>2021-04-15T09:50:31.000Z</time>
      </trkpt>
      <trkpt lat="47.31302" lon="-2.34657">
        <ele>26.200000762939</ele>
        <time>2021-04-15T09:50:32.000Z</time>
      </trkpt>
      <trkpt lat="47.31303" lon="-2.34664">
        <ele>26.60000038147</ele>
        <time>2021-04-15T09:50:33.000Z</time>
      </trkpt>
      <trkpt lat="47.31302" lon="-2.3467">
        <ele>27</ele>
        <time>2021-04-15T09:50:34.000Z</time>
      </trkpt>
      <trkpt lat="47.31301" lon="-2.34675">
        <ele>27.39999961853</ele>
        <time>2021-04-15T09:50:35.000Z</time>
      </trkpt>
      <trkpt lat="47.31297" lon="-2.34682">
        <ele>27.799999237061</ele>
        <time>2021-04-15T09:50:36.000Z</time>
      </trkpt>
      <trkpt lat="47.31287" lon="-2.347">
        <ele>27.799999237061</ele>
        <time>2021-04-15T09:50:39.000Z</time>
      </trkpt>
      <trkpt lat="47.31286" lon="-2.34707">
        <ele>27.799999237061</ele>
        <time>2021-04-15T09:50:40.000Z</time>
      </trkpt>
      <trkpt lat="47.31286" lon="-2.34714">
        <ele>27.799999237061</ele>
        <time>2021-04-15T09:50:41.000Z</time>
      </trkpt>
      <trkpt lat="47.31286" lon="-2.34736">
        <ele>27.799999237061</ele>
        <time>2021-04-15T09:50:44.000Z</time>
      </trkpt>
      <trkpt lat="47.31289" lon="-2.34758">
        <ele>27.799999237061</ele>
        <time>2021-04-15T09:50:47.000Z</time>
      </trkpt>
      <trkpt lat="47.31296" lon="-2.34794">
        <ele>28.200000762939</ele>
        <time>2021-04-15T09:50:52.000Z</time>
      </trkpt>
      <trkpt lat="47.31298" lon="-2.34802">
        <ele>28.60000038147</ele>
        <time>2021-04-15T09:50:53.000Z</time>
      </trkpt>
      <trkpt lat="47.31299" lon="-2.34809">
        <ele>29</ele>
        <time>2021-04-15T09:50:54.000Z</time>
      </trkpt>
      <trkpt lat="47.313" lon="-2.34816">
        <ele>29.39999961853</ele>
        <time>2021-04-15T09:50:55.000Z</time>
      </trkpt>
      <trkpt lat="47.31301" lon="-2.34823">
        <ele>29.799999237061</ele>
        <time>2021-04-15T09:50:56.000Z</time>
      </trkpt>
      <trkpt lat="47.31307" lon="-2.34854">
        <ele>29.799999237061</ele>
        <time>2021-04-15T09:51:00.000Z</time>
      </trkpt>
      <trkpt lat="47.31321" lon="-2.34907">
        <ele>29.799999237061</ele>
        <time>2021-04-15T09:51:07.000Z</time>
      </trkpt>
      <trkpt lat="47.31338" lon="-2.34968">
        <ele>29.799999237061</ele>
        <time>2021-04-15T09:51:14.000Z</time>
      </trkpt>
      <trkpt lat="47.31347" lon="-2.3502">
        <ele>29.799999237061</ele>
        <time>2021-04-15T09:51:20.000Z</time>
      </trkpt>
      <trkpt lat="47.31349" lon="-2.35076">
        <ele>29.799999237061</ele>
        <time>2021-04-15T09:51:27.000Z</time>
      </trkpt>
      <trkpt lat="47.31347" lon="-2.35131">
        <ele>29.799999237061</ele>
        <time>2021-04-15T09:51:34.000Z</time>
      </trkpt>
      <trkpt lat="47.31343" lon="-2.35197">
        <ele>29.799999237061</ele>
        <time>2021-04-15T09:51:42.000Z</time>
      </trkpt>
      <trkpt lat="47.31343" lon="-2.35214">
        <ele>29.799999237061</ele>
        <time>2021-04-15T09:51:44.000Z</time>
      </trkpt>
      <trkpt lat="47.31342" lon="-2.3525">
        <ele>29.799999237061</ele>
        <time>2021-04-15T09:51:48.000Z</time>
      </trkpt>
      <trkpt lat="47.31339" lon="-2.35308">
        <ele>29.799999237061</ele>
        <time>2021-04-15T09:51:54.000Z</time>
      </trkpt>
      <trkpt lat="47.31334" lon="-2.35378">
        <ele>29.799999237061</ele>
        <time>2021-04-15T09:52:01.000Z</time>
      </trkpt>
      <trkpt lat="47.31334" lon="-2.35423">
        <ele>29.799999237061</ele>
        <time>2021-04-15T09:52:06.000Z</time>
      </trkpt>
      <trkpt lat="47.31333" lon="-2.35445">
        <ele>29.799999237061</ele>
        <time>2021-04-15T09:52:09.000Z</time>
      </trkpt>
      <trkpt lat="47.31332" lon="-2.35471">
        <ele>29.799999237061</ele>
        <time>2021-04-15T09:52:12.000Z</time>
      </trkpt>
      <trkpt lat="47.31332" lon="-2.35497">
        <ele>29.799999237061</ele>
        <time>2021-04-15T09:52:16.000Z</time>
      </trkpt>
      <trkpt lat="47.31332" lon="-2.35527">
        <ele>29.799999237061</ele>
        <time>2021-04-15T09:52:21.000Z</time>
      </trkpt>
      <trkpt lat="47.31341" lon="-2.35542">
        <ele>29.799999237061</ele>
        <time>2021-04-15T09:52:25.000Z</time>
      </trkpt>
      <trkpt lat="47.31353" lon="-2.35536">
        <ele>29.799999237061</ele>
        <time>2021-04-15T09:52:29.000Z</time>
      </trkpt>
      <trkpt lat="47.31373" lon="-2.35528">
        <ele>29.799999237061</ele>
        <time>2021-04-15T09:52:33.000Z</time>
      </trkpt>
      <trkpt lat="47.31378" lon="-2.35528">
        <ele>29.799999237061</ele>
        <time>2021-04-15T09:52:34.000Z</time>
      </trkpt>
      <trkpt lat="47.31395" lon="-2.35526">
        <ele>29.799999237061</ele>
        <time>2021-04-15T09:52:37.000Z</time>
      </trkpt>
      <trkpt lat="47.31407" lon="-2.35526">
        <ele>29.799999237061</ele>
        <time>2021-04-15T09:52:39.000Z</time>
      </trkpt>
      <trkpt lat="47.31418" lon="-2.35525">
        <ele>29.799999237061</ele>
        <time>2021-04-15T09:52:41.000Z</time>
      </trkpt>
      <trkpt lat="47.31437" lon="-2.35525">
        <ele>29.799999237061</ele>
        <time>2021-04-15T09:52:44.000Z</time>
      </trkpt>
      <trkpt lat="47.31443" lon="-2.35525">
        <ele>29.799999237061</ele>
        <time>2021-04-15T09:52:45.000Z</time>
      </trkpt>
      <trkpt lat="47.31471" lon="-2.35518">
        <ele>29.799999237061</ele>
        <time>2021-04-15T09:52:50.000Z</time>
      </trkpt>
      <trkpt lat="47.31476" lon="-2.35514">
        <ele>29.799999237061</ele>
        <time>2021-04-15T09:52:51.000Z</time>
      </trkpt>
      <trkpt lat="47.31483" lon="-2.355">
        <ele>29.799999237061</ele>
        <time>2021-04-15T09:52:53.000Z</time>
      </trkpt>
      <trkpt lat="47.31488" lon="-2.35483">
        <ele>29.799999237061</ele>
        <time>2021-04-15T09:52:55.000Z</time>
      </trkpt>
      <trkpt lat="47.31491" lon="-2.35466">
        <ele>29.799999237061</ele>
        <time>2021-04-15T09:52:57.000Z</time>
      </trkpt>
      <trkpt lat="47.31503" lon="-2.35419">
        <ele>29.799999237061</ele>
        <time>2021-04-15T09:53:03.000Z</time>
      </trkpt>
      <trkpt lat="47.31505" lon="-2.35414">
        <ele>29.799999237061</ele>
        <time>2021-04-15T09:53:04.000Z</time>
      </trkpt>
      <trkpt lat="47.31515" lon="-2.35398">
        <ele>29.799999237061</ele>
        <time>2021-04-15T09:53:07.000Z</time>
      </trkpt>
      <trkpt lat="47.31531" lon="-2.35388">
        <ele>29.799999237061</ele>
        <time>2021-04-15T09:53:10.000Z</time>
      </trkpt>
      <trkpt lat="47.31544" lon="-2.35382">
        <ele>29.799999237061</ele>
        <time>2021-04-15T09:53:12.000Z</time>
      </trkpt>
      <trkpt lat="47.31561" lon="-2.35372">
        <ele>29.799999237061</ele>
        <time>2021-04-15T09:53:15.000Z</time>
      </trkpt>
      <trkpt lat="47.31587" lon="-2.35362">
        <ele>29.799999237061</ele>
        <time>2021-04-15T09:53:19.000Z</time>
      </trkpt>
      <trkpt lat="47.31608" lon="-2.3536">
        <ele>29.799999237061</ele>
        <time>2021-04-15T09:53:22.000Z</time>
      </trkpt>
      <trkpt lat="47.31614" lon="-2.35361">
        <ele>29.39999961853</ele>
        <time>2021-04-15T09:53:23.000Z</time>
      </trkpt>
      <trkpt lat="47.31622" lon="-2.35362">
        <ele>29</ele>
        <time>2021-04-15T09:53:24.000Z</time>
      </trkpt>
      <trkpt lat="47.31629" lon="-2.35366">
        <ele>28.60000038147</ele>
        <time>2021-04-15T09:53:25.000Z</time>
      </trkpt>
      <trkpt lat="47.31636" lon="-2.35368">
        <ele>28.200000762939</ele>
        <time>2021-04-15T09:53:26.000Z</time>
      </trkpt>
      <trkpt lat="47.31642" lon="-2.3537">
        <ele>27.799999237061</ele>
        <time>2021-04-15T09:53:27.000Z</time>
      </trkpt>
      <trkpt lat="47.31656" lon="-2.35373">
        <ele>27.799999237061</ele>
        <time>2021-04-15T09:53:29.000Z</time>
      </trkpt>
      <trkpt lat="47.3167" lon="-2.35374">
        <ele>27.799999237061</ele>
        <time>2021-04-15T09:53:31.000Z</time>
      </trkpt>
      <trkpt lat="47.31709" lon="-2.35372">
        <ele>27.799999237061</ele>
        <time>2021-04-15T09:53:37.000Z</time>
      </trkpt>
      <trkpt lat="47.31732" lon="-2.35366">
        <ele>27.799999237061</ele>
        <time>2021-04-15T09:53:41.000Z</time>
      </trkpt>
      <trkpt lat="47.31737" lon="-2.35366">
        <ele>27.799999237061</ele>
        <time>2021-04-15T09:53:42.000Z</time>
      </trkpt>
      <trkpt lat="47.31747" lon="-2.35373">
        <ele>27.39999961853</ele>
        <time>2021-04-15T09:53:44.000Z</time>
      </trkpt>
      <trkpt lat="47.31751" lon="-2.35379">
        <ele>26.799999237061</ele>
        <time>2021-04-15T09:53:45.000Z</time>
      </trkpt>
      <trkpt lat="47.31755" lon="-2.35386">
        <ele>26.39999961853</ele>
        <time>2021-04-15T09:53:46.000Z</time>
      </trkpt>
      <trkpt lat="47.3176" lon="-2.35394">
        <ele>26</ele>
        <time>2021-04-15T09:53:47.000Z</time>
      </trkpt>
      <trkpt lat="47.31764" lon="-2.35399">
        <ele>25.39999961853</ele>
        <time>2021-04-15T09:53:48.000Z</time>
      </trkpt>
      <trkpt lat="47.31769" lon="-2.35407">
        <ele>25.39999961853</ele>
        <time>2021-04-15T09:53:49.000Z</time>
      </trkpt>
      <trkpt lat="47.3179" lon="-2.35435">
        <ele>25</ele>
        <time>2021-04-15T09:53:54.000Z</time>
      </trkpt>
      <trkpt lat="47.31793" lon="-2.35438">
        <ele>24.60000038147</ele>
        <time>2021-04-15T09:53:55.000Z</time>
      </trkpt>
      <trkpt lat="47.31797" lon="-2.3544">
        <ele>24.200000762939</ele>
        <time>2021-04-15T09:53:56.000Z</time>
      </trkpt>
      <trkpt lat="47.318" lon="-2.35442">
        <ele>23.60000038147</ele>
        <time>2021-04-15T09:53:57.000Z</time>
      </trkpt>
      <trkpt lat="47.31802" lon="-2.35444">
        <ele>23.200000762939</ele>
        <time>2021-04-15T09:53:58.000Z</time>
      </trkpt>
      <trkpt lat="47.31808" lon="-2.35452">
        <ele>22.799999237061</ele>
        <time>2021-04-15T09:54:02.000Z</time>
      </trkpt>
      <trkpt lat="47.31809" lon="-2.35455">
        <ele>22.39999961853</ele>
        <time>2021-04-15T09:54:03.000Z</time>
      </trkpt>
      <trkpt lat="47.31811" lon="-2.35458">
        <ele>22</ele>
        <time>2021-04-15T09:54:04.000Z</time>
      </trkpt>
      <trkpt lat="47.31812" lon="-2.3546">
        <ele>21.60000038147</ele>
        <time>2021-04-15T09:54:05.000Z</time>
      </trkpt>
      <trkpt lat="47.31812" lon="-2.35462">
        <ele>21.200000762939</ele>
        <time>2021-04-15T09:54:06.000Z</time>
      </trkpt>
      <trkpt lat="47.31811" lon="-2.35464">
        <ele>21.200000762939</ele>
        <time>2021-04-15T09:54:07.000Z</time>
      </trkpt>
      <trkpt lat="47.31817" lon="-2.3548">
        <ele>21.200000762939</ele>
        <time>2021-04-15T09:54:13.000Z</time>
      </trkpt>
      <trkpt lat="47.31828" lon="-2.35505">
        <ele>21.200000762939</ele>
        <time>2021-04-15T09:54:18.000Z</time>
      </trkpt>
      <trkpt lat="47.31838" lon="-2.35525">
        <ele>21.200000762939</ele>
        <time>2021-04-15T09:54:23.000Z</time>
      </trkpt>
      <trkpt lat="47.31838" lon="-2.35541">
        <ele>21.200000762939</ele>
        <time>2021-04-15T09:54:28.000Z</time>
      </trkpt>
      <trkpt lat="47.31838" lon="-2.35545">
        <ele>21.200000762939</ele>
        <time>2021-04-15T09:54:29.000Z</time>
      </trkpt>
      <trkpt lat="47.31831" lon="-2.35557">
        <ele>21.200000762939</ele>
        <time>2021-04-15T09:54:34.000Z</time>
      </trkpt>
      <trkpt lat="47.31825" lon="-2.35574">
        <ele>21.200000762939</ele>
        <time>2021-04-15T09:54:40.000Z</time>
      </trkpt>
      <trkpt lat="47.31819" lon="-2.3559">
        <ele>21.200000762939</ele>
        <time>2021-04-15T09:54:44.000Z</time>
      </trkpt>
      <trkpt lat="47.31814" lon="-2.35597">
        <ele>21.200000762939</ele>
        <time>2021-04-15T09:54:47.000Z</time>
      </trkpt>
      <trkpt lat="47.3181" lon="-2.35604">
        <ele>21.200000762939</ele>
        <time>2021-04-15T09:54:49.000Z</time>
      </trkpt>
      <trkpt lat="47.31807" lon="-2.35611">
        <ele>21.200000762939</ele>
        <time>2021-04-15T09:54:51.000Z</time>
      </trkpt>
      <trkpt lat="47.31796" lon="-2.35624">
        <ele>21.200000762939</ele>
        <time>2021-04-15T09:54:55.000Z</time>
      </trkpt>
      <trkpt lat="47.31787" lon="-2.35638">
        <ele>21.200000762939</ele>
        <time>2021-04-15T09:54:58.000Z</time>
      </trkpt>
      <trkpt lat="47.31786" lon="-2.35648">
        <ele>21.200000762939</ele>
        <time>2021-04-15T09:55:00.000Z</time>
      </trkpt>
      <trkpt lat="47.31785" lon="-2.35662">
        <ele>21.60000038147</ele>
        <time>2021-04-15T09:55:03.000Z</time>
      </trkpt>
      <trkpt lat="47.31784" lon="-2.35665">
        <ele>22</ele>
        <time>2021-04-15T09:55:04.000Z</time>
      </trkpt>
      <trkpt lat="47.31784" lon="-2.3567">
        <ele>22.39999961853</ele>
        <time>2021-04-15T09:55:05.000Z</time>
      </trkpt>
      <trkpt lat="47.31783" lon="-2.35673">
        <ele>22.799999237061</ele>
        <time>2021-04-15T09:55:06.000Z</time>
      </trkpt>
      <trkpt lat="47.31782" lon="-2.35679">
        <ele>23.200000762939</ele>
        <time>2021-04-15T09:55:07.000Z</time>
      </trkpt>
      <trkpt lat="47.31781" lon="-2.35698">
        <ele>23.200000762939</ele>
        <time>2021-04-15T09:55:11.000Z</time>
      </trkpt>
      <trkpt lat="47.31781" lon="-2.35715">
        <ele>23.60000038147</ele>
        <time>2021-04-15T09:55:15.000Z</time>
      </trkpt>
      <trkpt lat="47.31781" lon="-2.3572">
        <ele>24</ele>
        <time>2021-04-15T09:55:16.000Z</time>
      </trkpt>
      <trkpt lat="47.31781" lon="-2.35724">
        <ele>24.39999961853</ele>
        <time>2021-04-15T09:55:17.000Z</time>
      </trkpt>
      <trkpt lat="47.31781" lon="-2.35729">
        <ele>24.799999237061</ele>
        <time>2021-04-15T09:55:18.000Z</time>
      </trkpt>
      <trkpt lat="47.3178" lon="-2.35734">
        <ele>25.39999961853</ele>
        <time>2021-04-15T09:55:19.000Z</time>
      </trkpt>
      <trkpt lat="47.3178" lon="-2.35769">
        <ele>25.39999961853</ele>
        <time>2021-04-15T09:55:26.000Z</time>
      </trkpt>
      <trkpt lat="47.31788" lon="-2.358">
        <ele>25.39999961853</ele>
        <time>2021-04-15T09:55:31.000Z</time>
      </trkpt>
      <trkpt lat="47.318" lon="-2.35827">
        <ele>25.799999237061</ele>
        <time>2021-04-15T09:55:36.000Z</time>
      </trkpt>
      <trkpt lat="47.31803" lon="-2.35831">
        <ele>26.200000762939</ele>
        <time>2021-04-15T09:55:37.000Z</time>
      </trkpt>
      <trkpt lat="47.31805" lon="-2.35834">
        <ele>27</ele>
        <time>2021-04-15T09:55:38.000Z</time>
      </trkpt>
      <trkpt lat="47.31807" lon="-2.35837">
        <ele>27.39999961853</ele>
        <time>2021-04-15T09:55:39.000Z</time>
      </trkpt>
      <trkpt lat="47.31811" lon="-2.35841">
        <ele>27.39999961853</ele>
        <time>2021-04-15T09:55:40.000Z</time>
      </trkpt>
      <trkpt lat="47.31814" lon="-2.35847">
        <ele>27.39999961853</ele>
        <time>2021-04-15T09:55:41.000Z</time>
      </trkpt>
      <trkpt lat="47.31819" lon="-2.35863">
        <ele>27.39999961853</ele>
        <time>2021-04-15T09:55:44.000Z</time>
      </trkpt>
      <trkpt lat="47.31821" lon="-2.35867">
        <ele>27.39999961853</ele>
        <time>2021-04-15T09:55:45.000Z</time>
      </trkpt>
      <trkpt lat="47.3182" lon="-2.3588">
        <ele>27.39999961853</ele>
        <time>2021-04-15T09:55:48.000Z</time>
      </trkpt>
      <trkpt lat="47.31808" lon="-2.35887">
        <ele>27.39999961853</ele>
        <time>2021-04-15T09:55:52.000Z</time>
      </trkpt>
      <trkpt lat="47.31786" lon="-2.35899">
        <ele>27.39999961853</ele>
        <time>2021-04-15T09:55:58.000Z</time>
      </trkpt>
      <trkpt lat="47.31771" lon="-2.35908">
        <ele>27.39999961853</ele>
        <time>2021-04-15T09:56:03.000Z</time>
      </trkpt>
      <trkpt lat="47.31748" lon="-2.35923">
        <ele>27.39999961853</ele>
        <time>2021-04-15T09:56:09.000Z</time>
      </trkpt>
      <trkpt lat="47.3172" lon="-2.35941">
        <ele>27.39999961853</ele>
        <time>2021-04-15T09:56:16.000Z</time>
      </trkpt>
      <trkpt lat="47.31712" lon="-2.35946">
        <ele>27.799999237061</ele>
        <time>2021-04-15T09:56:18.000Z</time>
      </trkpt>
      <trkpt lat="47.31708" lon="-2.35947">
        <ele>28.200000762939</ele>
        <time>2021-04-15T09:56:19.000Z</time>
      </trkpt>
      <trkpt lat="47.31703" lon="-2.35949">
        <ele>28.60000038147</ele>
        <time>2021-04-15T09:56:20.000Z</time>
      </trkpt>
      <trkpt lat="47.31699" lon="-2.35951">
        <ele>29</ele>
        <time>2021-04-15T09:56:21.000Z</time>
      </trkpt>
      <trkpt lat="47.31696" lon="-2.35954">
        <ele>29.39999961853</ele>
        <time>2021-04-15T09:56:22.000Z</time>
      </trkpt>
      <trkpt lat="47.3168" lon="-2.35961">
        <ele>29.39999961853</ele>
        <time>2021-04-15T09:56:26.000Z</time>
      </trkpt>
      <trkpt lat="47.31676" lon="-2.35963">
        <ele>29.39999961853</ele>
        <time>2021-04-15T09:56:27.000Z</time>
      </trkpt>
      <trkpt lat="47.31664" lon="-2.3597">
        <ele>29.39999961853</ele>
        <time>2021-04-15T09:56:30.000Z</time>
      </trkpt>
      <trkpt lat="47.31659" lon="-2.35973">
        <ele>29.39999961853</ele>
        <time>2021-04-15T09:56:31.000Z</time>
      </trkpt>
      <trkpt lat="47.31655" lon="-2.35976">
        <ele>29.799999237061</ele>
        <time>2021-04-15T09:56:32.000Z</time>
      </trkpt>
      <trkpt lat="47.31653" lon="-2.35981">
        <ele>30.200000762939</ele>
        <time>2021-04-15T09:56:33.000Z</time>
      </trkpt>
      <trkpt lat="47.31651" lon="-2.35987">
        <ele>30.799999237061</ele>
        <time>2021-04-15T09:56:34.000Z</time>
      </trkpt>
      <trkpt lat="47.31648" lon="-2.35993">
        <ele>31.200000762939</ele>
        <time>2021-04-15T09:56:35.000Z</time>
      </trkpt>
      <trkpt lat="47.31644" lon="-2.35998">
        <ele>31.60000038147</ele>
        <time>2021-04-15T09:56:36.000Z</time>
      </trkpt>
      <trkpt lat="47.31637" lon="-2.36007">
        <ele>31.60000038147</ele>
        <time>2021-04-15T09:56:38.000Z</time>
      </trkpt>
      <trkpt lat="47.31629" lon="-2.36016">
        <ele>31.60000038147</ele>
        <time>2021-04-15T09:56:40.000Z</time>
      </trkpt>
      <trkpt lat="47.3162" lon="-2.36025">
        <ele>31.60000038147</ele>
        <time>2021-04-15T09:56:42.000Z</time>
      </trkpt>
      <trkpt lat="47.31616" lon="-2.3603">
        <ele>31.60000038147</ele>
        <time>2021-04-15T09:56:43.000Z</time>
      </trkpt>
      <trkpt lat="47.31595" lon="-2.36046">
        <ele>31.60000038147</ele>
        <time>2021-04-15T09:56:48.000Z</time>
      </trkpt>
      <trkpt lat="47.31586" lon="-2.36054">
        <ele>32</ele>
        <time>2021-04-15T09:56:50.000Z</time>
      </trkpt>
      <trkpt lat="47.31582" lon="-2.36058">
        <ele>32.400001525879</ele>
        <time>2021-04-15T09:56:51.000Z</time>
      </trkpt>
      <trkpt lat="47.31577" lon="-2.36063">
        <ele>33.200000762939</ele>
        <time>2021-04-15T09:56:52.000Z</time>
      </trkpt>
      <trkpt lat="47.31573" lon="-2.36066">
        <ele>33.599998474121</ele>
        <time>2021-04-15T09:56:53.000Z</time>
      </trkpt>
      <trkpt lat="47.31569" lon="-2.3607">
        <ele>33.599998474121</ele>
        <time>2021-04-15T09:56:54.000Z</time>
      </trkpt>
      <trkpt lat="47.31548" lon="-2.3609">
        <ele>33.599998474121</ele>
        <time>2021-04-15T09:56:59.000Z</time>
      </trkpt>
      <trkpt lat="47.31545" lon="-2.36095">
        <ele>33.599998474121</ele>
        <time>2021-04-15T09:57:00.000Z</time>
      </trkpt>
      <trkpt lat="47.31532" lon="-2.36108">
        <ele>33.599998474121</ele>
        <time>2021-04-15T09:57:03.000Z</time>
      </trkpt>
      <trkpt lat="47.31503" lon="-2.3614">
        <ele>33.599998474121</ele>
        <time>2021-04-15T09:57:10.000Z</time>
      </trkpt>
      <trkpt lat="47.31482" lon="-2.36164">
        <ele>33.599998474121</ele>
        <time>2021-04-15T09:57:16.000Z</time>
      </trkpt>
      <trkpt lat="47.31471" lon="-2.36175">
        <ele>34</ele>
        <time>2021-04-15T09:57:20.000Z</time>
      </trkpt>
      <trkpt lat="47.31469" lon="-2.36177">
        <ele>34.400001525879</ele>
        <time>2021-04-15T09:57:21.000Z</time>
      </trkpt>
      <trkpt lat="47.31468" lon="-2.36178">
        <ele>34.799999237061</ele>
        <time>2021-04-15T09:57:22.000Z</time>
      </trkpt>
      <trkpt lat="47.31468" lon="-2.36178">
        <ele>35.200000762939</ele>
        <time>2021-04-15T09:57:23.000Z</time>
      </trkpt>
      <trkpt lat="47.31462" lon="-2.36184">
        <ele>35.599998474121</ele>
        <time>2021-04-15T09:59:10.000Z</time>
      </trkpt>
      <trkpt lat="47.31458" lon="-2.36188">
        <ele>35.599998474121</ele>
        <time>2021-04-15T09:59:12.000Z</time>
      </trkpt>
      <trkpt lat="47.3144" lon="-2.362">
        <ele>35.599998474121</ele>
        <time>2021-04-15T09:59:17.000Z</time>
      </trkpt>
      <trkpt lat="47.31423" lon="-2.36211">
        <ele>35.599998474121</ele>
        <time>2021-04-15T09:59:21.000Z</time>
      </trkpt>
      <trkpt lat="47.31414" lon="-2.36217">
        <ele>35.599998474121</ele>
        <time>2021-04-15T09:59:23.000Z</time>
      </trkpt>
      <trkpt lat="47.31392" lon="-2.36229">
        <ele>35.599998474121</ele>
        <time>2021-04-15T09:59:28.000Z</time>
      </trkpt>
      <trkpt lat="47.31382" lon="-2.36234">
        <ele>35.599998474121</ele>
        <time>2021-04-15T09:59:30.000Z</time>
      </trkpt>
      <trkpt lat="47.31373" lon="-2.36239">
        <ele>35.599998474121</ele>
        <time>2021-04-15T09:59:32.000Z</time>
      </trkpt>
      <trkpt lat="47.31356" lon="-2.36253">
        <ele>35.599998474121</ele>
        <time>2021-04-15T09:59:36.000Z</time>
      </trkpt>
      <trkpt lat="47.31337" lon="-2.36271">
        <ele>35.599998474121</ele>
        <time>2021-04-15T09:59:40.000Z</time>
      </trkpt>
      <trkpt lat="47.31312" lon="-2.36293">
        <ele>35.599998474121</ele>
        <time>2021-04-15T09:59:45.000Z</time>
      </trkpt>
      <trkpt lat="47.31271" lon="-2.36312">
        <ele>35.599998474121</ele>
        <time>2021-04-15T09:59:52.000Z</time>
      </trkpt>
      <trkpt lat="47.31236" lon="-2.36335">
        <ele>35.599998474121</ele>
        <time>2021-04-15T09:59:58.000Z</time>
      </trkpt>
      <trkpt lat="47.31195" lon="-2.36358">
        <ele>35.599998474121</ele>
        <time>2021-04-15T10:00:04.000Z</time>
      </trkpt>
      <trkpt lat="47.31161" lon="-2.36381">
        <ele>35.599998474121</ele>
        <time>2021-04-15T10:00:09.000Z</time>
      </trkpt>
      <trkpt lat="47.31154" lon="-2.36386">
        <ele>35.599998474121</ele>
        <time>2021-04-15T10:00:10.000Z</time>
      </trkpt>
      <trkpt lat="47.31125" lon="-2.36407">
        <ele>35.599998474121</ele>
        <time>2021-04-15T10:00:15.000Z</time>
      </trkpt>
      <trkpt lat="47.31119" lon="-2.36411">
        <ele>35.200000762939</ele>
        <time>2021-04-15T10:00:16.000Z</time>
      </trkpt>
      <trkpt lat="47.31114" lon="-2.36414">
        <ele>34.799999237061</ele>
        <time>2021-04-15T10:00:17.000Z</time>
      </trkpt>
      <trkpt lat="47.31109" lon="-2.36417">
        <ele>34.400001525879</ele>
        <time>2021-04-15T10:00:18.000Z</time>
      </trkpt>
      <trkpt lat="47.31105" lon="-2.3642">
        <ele>34</ele>
        <time>2021-04-15T10:00:19.000Z</time>
      </trkpt>
      <trkpt lat="47.31101" lon="-2.36422">
        <ele>33.599998474121</ele>
        <time>2021-04-15T10:00:20.000Z</time>
      </trkpt>
      <trkpt lat="47.31098" lon="-2.36423">
        <ele>33.599998474121</ele>
        <time>2021-04-15T10:00:21.000Z</time>
      </trkpt>
      <trkpt lat="47.31089" lon="-2.36425">
        <ele>33.599998474121</ele>
        <time>2021-04-15T10:00:24.000Z</time>
      </trkpt>
      <trkpt lat="47.31075" lon="-2.36427">
        <ele>33.599998474121</ele>
        <time>2021-04-15T10:00:27.000Z</time>
      </trkpt>
      <trkpt lat="47.31064" lon="-2.36429">
        <ele>33.599998474121</ele>
        <time>2021-04-15T10:00:29.000Z</time>
      </trkpt>
      <trkpt lat="47.31025" lon="-2.36433">
        <ele>33.599998474121</ele>
        <time>2021-04-15T10:00:35.000Z</time>
      </trkpt>
      <trkpt lat="47.31013" lon="-2.36436">
        <ele>33.599998474121</ele>
        <time>2021-04-15T10:00:37.000Z</time>
      </trkpt>
      <trkpt lat="47.30996" lon="-2.36442">
        <ele>33.599998474121</ele>
        <time>2021-04-15T10:00:40.000Z</time>
      </trkpt>
      <trkpt lat="47.30964" lon="-2.36457">
        <ele>33.599998474121</ele>
        <time>2021-04-15T10:00:46.000Z</time>
      </trkpt>
      <trkpt lat="47.30935" lon="-2.36468">
        <ele>34</ele>
        <time>2021-04-15T10:00:51.000Z</time>
      </trkpt>
      <trkpt lat="47.30929" lon="-2.36469">
        <ele>34.400001525879</ele>
        <time>2021-04-15T10:00:52.000Z</time>
      </trkpt>
      <trkpt lat="47.30922" lon="-2.36471">
        <ele>34.799999237061</ele>
        <time>2021-04-15T10:00:53.000Z</time>
      </trkpt>
      <trkpt lat="47.30916" lon="-2.36473">
        <ele>35.200000762939</ele>
        <time>2021-04-15T10:00:54.000Z</time>
      </trkpt>
      <trkpt lat="47.30909" lon="-2.36475">
        <ele>35.599998474121</ele>
        <time>2021-04-15T10:00:55.000Z</time>
      </trkpt>
      <trkpt lat="47.30884" lon="-2.36483">
        <ele>35.599998474121</ele>
        <time>2021-04-15T10:00:59.000Z</time>
      </trkpt>
      <trkpt lat="47.30848" lon="-2.36489">
        <ele>35.599998474121</ele>
        <time>2021-04-15T10:01:05.000Z</time>
      </trkpt>
      <trkpt lat="47.30828" lon="-2.36486">
        <ele>35.599998474121</ele>
        <time>2021-04-15T10:01:09.000Z</time>
      </trkpt>
      <trkpt lat="47.30824" lon="-2.36482">
        <ele>35.599998474121</ele>
        <time>2021-04-15T10:01:10.000Z</time>
      </trkpt>
      <trkpt lat="47.30802" lon="-2.36476">
        <ele>35.599998474121</ele>
        <time>2021-04-15T10:01:14.000Z</time>
      </trkpt>
      <trkpt lat="47.30791" lon="-2.36481">
        <ele>35.599998474121</ele>
        <time>2021-04-15T10:01:16.000Z</time>
      </trkpt>
      <trkpt lat="47.3078" lon="-2.36485">
        <ele>35.599998474121</ele>
        <time>2021-04-15T10:01:18.000Z</time>
      </trkpt>
      <trkpt lat="47.30739" lon="-2.36501">
        <ele>35.599998474121</ele>
        <time>2021-04-15T10:01:25.000Z</time>
      </trkpt>
      <trkpt lat="47.30723" lon="-2.36509">
        <ele>36</ele>
        <time>2021-04-15T10:01:28.000Z</time>
      </trkpt>
      <trkpt lat="47.30718" lon="-2.36513">
        <ele>36.400001525879</ele>
        <time>2021-04-15T10:01:29.000Z</time>
      </trkpt>
      <trkpt lat="47.30713" lon="-2.36518">
        <ele>37</ele>
        <time>2021-04-15T10:01:30.000Z</time>
      </trkpt>
      <trkpt lat="47.30709" lon="-2.36522">
        <ele>37.400001525879</ele>
        <time>2021-04-15T10:01:31.000Z</time>
      </trkpt>
      <trkpt lat="47.30705" lon="-2.36524">
        <ele>37.799999237061</ele>
        <time>2021-04-15T10:01:32.000Z</time>
      </trkpt>
      <trkpt lat="47.30698" lon="-2.36514">
        <ele>37.799999237061</ele>
        <time>2021-04-15T10:01:34.000Z</time>
      </trkpt>
      <trkpt lat="47.30686" lon="-2.36516">
        <ele>37.799999237061</ele>
        <time>2021-04-15T10:01:37.000Z</time>
      </trkpt>
      <trkpt lat="47.30682" lon="-2.36519">
        <ele>37.799999237061</ele>
        <time>2021-04-15T10:01:38.000Z</time>
      </trkpt>
      <trkpt lat="47.30668" lon="-2.36524">
        <ele>37.799999237061</ele>
        <time>2021-04-15T10:01:41.000Z</time>
      </trkpt>
      <trkpt lat="47.30663" lon="-2.36527">
        <ele>38.200000762939</ele>
        <time>2021-04-15T10:01:42.000Z</time>
      </trkpt>
      <trkpt lat="47.30659" lon="-2.3653">
        <ele>38.599998474121</ele>
        <time>2021-04-15T10:01:43.000Z</time>
      </trkpt>
      <trkpt lat="47.30654" lon="-2.36532">
        <ele>39</ele>
        <time>2021-04-15T10:01:44.000Z</time>
      </trkpt>
      <trkpt lat="47.3065" lon="-2.36535">
        <ele>39.599998474121</ele>
        <time>2021-04-15T10:01:45.000Z</time>
      </trkpt>
      <trkpt lat="47.30645" lon="-2.36538">
        <ele>40</ele>
        <time>2021-04-15T10:01:46.000Z</time>
      </trkpt>
      <trkpt lat="47.30641" lon="-2.36541">
        <ele>40</ele>
        <time>2021-04-15T10:01:47.000Z</time>
      </trkpt>
      <trkpt lat="47.30622" lon="-2.36548">
        <ele>40</ele>
        <time>2021-04-15T10:01:51.000Z</time>
      </trkpt>
      <trkpt lat="47.30588" lon="-2.36556">
        <ele>40</ele>
        <time>2021-04-15T10:01:57.000Z</time>
      </trkpt>
      <trkpt lat="47.30566" lon="-2.36568">
        <ele>40</ele>
        <time>2021-04-15T10:02:01.000Z</time>
      </trkpt>
      <trkpt lat="47.30561" lon="-2.36571">
        <ele>40</ele>
        <time>2021-04-15T10:02:02.000Z</time>
      </trkpt>
      <trkpt lat="47.30541" lon="-2.36586">
        <ele>40</ele>
        <time>2021-04-15T10:02:06.000Z</time>
      </trkpt>
      <trkpt lat="47.30536" lon="-2.3659">
        <ele>40</ele>
        <time>2021-04-15T10:02:07.000Z</time>
      </trkpt>
      <trkpt lat="47.30531" lon="-2.36593">
        <ele>40</ele>
        <time>2021-04-15T10:02:08.000Z</time>
      </trkpt>
      <trkpt lat="47.3051" lon="-2.366">
        <ele>40</ele>
        <time>2021-04-15T10:02:12.000Z</time>
      </trkpt>
      <trkpt lat="47.3049" lon="-2.36606">
        <ele>40</ele>
        <time>2021-04-15T10:02:16.000Z</time>
      </trkpt>
      <trkpt lat="47.30486" lon="-2.36608">
        <ele>40</ele>
        <time>2021-04-15T10:02:17.000Z</time>
      </trkpt>
      <trkpt lat="47.30473" lon="-2.36616">
        <ele>40</ele>
        <time>2021-04-15T10:02:20.000Z</time>
      </trkpt>
      <trkpt lat="47.30464" lon="-2.36622">
        <ele>40</ele>
        <time>2021-04-15T10:02:22.000Z</time>
      </trkpt>
      <trkpt lat="47.30436" lon="-2.36646">
        <ele>40</ele>
        <time>2021-04-15T10:02:28.000Z</time>
      </trkpt>
      <trkpt lat="47.30426" lon="-2.36652">
        <ele>40</ele>
        <time>2021-04-15T10:02:30.000Z</time>
      </trkpt>
      <trkpt lat="47.3041" lon="-2.36656">
        <ele>40</ele>
        <time>2021-04-15T10:02:33.000Z</time>
      </trkpt>
      <trkpt lat="47.30404" lon="-2.36657">
        <ele>40</ele>
        <time>2021-04-15T10:02:34.000Z</time>
      </trkpt>
      <trkpt lat="47.30386" lon="-2.36658">
        <ele>40</ele>
        <time>2021-04-15T10:02:37.000Z</time>
      </trkpt>
      <trkpt lat="47.30372" lon="-2.36657">
        <ele>40</ele>
        <time>2021-04-15T10:02:39.000Z</time>
      </trkpt>
      <trkpt lat="47.30336" lon="-2.3665">
        <ele>40</ele>
        <time>2021-04-15T10:02:44.000Z</time>
      </trkpt>
      <trkpt lat="47.30316" lon="-2.36646">
        <ele>40</ele>
        <time>2021-04-15T10:02:47.000Z</time>
      </trkpt>
      <trkpt lat="47.30302" lon="-2.36648">
        <ele>40</ele>
        <time>2021-04-15T10:02:49.000Z</time>
      </trkpt>
      <trkpt lat="47.30291" lon="-2.36655">
        <ele>40</ele>
        <time>2021-04-15T10:02:51.000Z</time>
      </trkpt>
      <trkpt lat="47.30277" lon="-2.36659">
        <ele>40</ele>
        <time>2021-04-15T10:02:53.000Z</time>
      </trkpt>
      <trkpt lat="47.30231" lon="-2.36668">
        <ele>40</ele>
        <time>2021-04-15T10:03:00.000Z</time>
      </trkpt>
      <trkpt lat="47.3019" lon="-2.36675">
        <ele>39.599998474121</ele>
        <time>2021-04-15T10:03:08.000Z</time>
      </trkpt>
      <trkpt lat="47.30187" lon="-2.36676">
        <ele>39.200000762939</ele>
        <time>2021-04-15T10:03:09.000Z</time>
      </trkpt>
      <trkpt lat="47.30185" lon="-2.36678">
        <ele>38.599998474121</ele>
        <time>2021-04-15T10:03:10.000Z</time>
      </trkpt>
      <trkpt lat="47.30183" lon="-2.36679">
        <ele>38.200000762939</ele>
        <time>2021-04-15T10:03:11.000Z</time>
      </trkpt>
      <trkpt lat="47.30182" lon="-2.3668">
        <ele>37.799999237061</ele>
        <time>2021-04-15T10:03:12.000Z</time>
      </trkpt>
      <trkpt lat="47.30178" lon="-2.36681">
        <ele>37.799999237061</ele>
        <time>2021-04-15T10:03:14.000Z</time>
      </trkpt>
      <trkpt lat="47.30177" lon="-2.3668">
        <ele>37.799999237061</ele>
        <time>2021-04-15T10:03:17.000Z</time>
      </trkpt>
      <trkpt lat="47.30176" lon="-2.3668">
        <ele>37.799999237061</ele>
        <time>2021-04-15T10:04:30.000Z</time>
      </trkpt>
      <trkpt lat="47.30169" lon="-2.3668">
        <ele>37.799999237061</ele>
        <time>2021-04-15T10:04:33.000Z</time>
      </trkpt>
      <trkpt lat="47.30158" lon="-2.36668">
        <ele>37.799999237061</ele>
        <time>2021-04-15T10:04:37.000Z</time>
      </trkpt>
      <trkpt lat="47.3014" lon="-2.36634">
        <ele>37.400001525879</ele>
        <time>2021-04-15T10:04:43.000Z</time>
      </trkpt>
      <trkpt lat="47.30138" lon="-2.36627">
        <ele>37</ele>
        <time>2021-04-15T10:04:44.000Z</time>
      </trkpt>
      <trkpt lat="47.30135" lon="-2.3662">
        <ele>36.599998474121</ele>
        <time>2021-04-15T10:04:45.000Z</time>
      </trkpt>
      <trkpt lat="47.30133" lon="-2.36613">
        <ele>36.200000762939</ele>
        <time>2021-04-15T10:04:46.000Z</time>
      </trkpt>
      <trkpt lat="47.30131" lon="-2.36606">
        <ele>35.799999237061</ele>
        <time>2021-04-15T10:04:47.000Z</time>
      </trkpt>
      <trkpt lat="47.30128" lon="-2.36589">
        <ele>35.799999237061</ele>
        <time>2021-04-15T10:04:49.000Z</time>
      </trkpt>
      <trkpt lat="47.30119" lon="-2.36523">
        <ele>35.799999237061</ele>
        <time>2021-04-15T10:04:56.000Z</time>
      </trkpt>
      <trkpt lat="47.30108" lon="-2.36444">
        <ele>35.799999237061</ele>
        <time>2021-04-15T10:05:04.000Z</time>
      </trkpt>
      <trkpt lat="47.30107" lon="-2.36434">
        <ele>35.799999237061</ele>
        <time>2021-04-15T10:05:05.000Z</time>
      </trkpt>
      <trkpt lat="47.30098" lon="-2.36353">
        <ele>35.400001525879</ele>
        <time>2021-04-15T10:05:13.000Z</time>
      </trkpt>
      <trkpt lat="47.30098" lon="-2.36343">
        <ele>35</ele>
        <time>2021-04-15T10:05:14.000Z</time>
      </trkpt>
      <trkpt lat="47.30097" lon="-2.36334">
        <ele>34.400001525879</ele>
        <time>2021-04-15T10:05:15.000Z</time>
      </trkpt>
      <trkpt lat="47.30096" lon="-2.36324">
        <ele>34</ele>
        <time>2021-04-15T10:05:16.000Z</time>
      </trkpt>
      <trkpt lat="47.30095" lon="-2.36314">
        <ele>33.400001525879</ele>
        <time>2021-04-15T10:05:17.000Z</time>
      </trkpt>
      <trkpt lat="47.30091" lon="-2.36253">
        <ele>33</ele>
        <time>2021-04-15T10:05:23.000Z</time>
      </trkpt>
      <trkpt lat="47.3009" lon="-2.36243">
        <ele>32.599998474121</ele>
        <time>2021-04-15T10:05:24.000Z</time>
      </trkpt>
      <trkpt lat="47.3009" lon="-2.36233">
        <ele>32.200000762939</ele>
        <time>2021-04-15T10:05:25.000Z</time>
      </trkpt>
      <trkpt lat="47.30089" lon="-2.36222">
        <ele>31.799999237061</ele>
        <time>2021-04-15T10:05:26.000Z</time>
      </trkpt>
      <trkpt lat="47.30088" lon="-2.36212">
        <ele>31.39999961853</ele>
        <time>2021-04-15T10:05:27.000Z</time>
      </trkpt>
      <trkpt lat="47.30087" lon="-2.36191">
        <ele>31.39999961853</ele>
        <time>2021-04-15T10:05:29.000Z</time>
      </trkpt>
      <trkpt lat="47.30088" lon="-2.3617">
        <ele>30.60000038147</ele>
        <time>2021-04-15T10:05:31.000Z</time>
      </trkpt>
      <trkpt lat="47.30089" lon="-2.3616">
        <ele>30.200000762939</ele>
        <time>2021-04-15T10:05:32.000Z</time>
      </trkpt>
      <trkpt lat="47.3009" lon="-2.3615">
        <ele>29.799999237061</ele>
        <time>2021-04-15T10:05:33.000Z</time>
      </trkpt>
      <trkpt lat="47.30091" lon="-2.3614">
        <ele>29.39999961853</ele>
        <time>2021-04-15T10:05:34.000Z</time>
      </trkpt>
      <trkpt lat="47.30092" lon="-2.3613">
        <ele>29.39999961853</ele>
        <time>2021-04-15T10:05:35.000Z</time>
      </trkpt>
      <trkpt lat="47.30102" lon="-2.3605">
        <ele>29.39999961853</ele>
        <time>2021-04-15T10:05:43.000Z</time>
      </trkpt>
      <trkpt lat="47.30103" lon="-2.3604">
        <ele>29.39999961853</ele>
        <time>2021-04-15T10:05:44.000Z</time>
      </trkpt>
      <trkpt lat="47.30113" lon="-2.35961">
        <ele>29.39999961853</ele>
        <time>2021-04-15T10:05:52.000Z</time>
      </trkpt>
      <trkpt lat="47.30124" lon="-2.35908">
        <ele>29.39999961853</ele>
        <time>2021-04-15T10:05:58.000Z</time>
      </trkpt>
      <trkpt lat="47.30134" lon="-2.35865">
        <ele>29.39999961853</ele>
        <time>2021-04-15T10:06:03.000Z</time>
      </trkpt>
      <trkpt lat="47.30137" lon="-2.35846">
        <ele>29.39999961853</ele>
        <time>2021-04-15T10:06:05.000Z</time>
      </trkpt>
      <trkpt lat="47.3014" lon="-2.35819">
        <ele>29.799999237061</ele>
        <time>2021-04-15T10:06:08.000Z</time>
      </trkpt>
      <trkpt lat="47.3014" lon="-2.35811">
        <ele>30.200000762939</ele>
        <time>2021-04-15T10:06:09.000Z</time>
      </trkpt>
      <trkpt lat="47.30141" lon="-2.35802">
        <ele>30.799999237061</ele>
        <time>2021-04-15T10:06:10.000Z</time>
      </trkpt>
      <trkpt lat="47.30141" lon="-2.35794">
        <ele>31.200000762939</ele>
        <time>2021-04-15T10:06:11.000Z</time>
      </trkpt>
      <trkpt lat="47.3014" lon="-2.35785">
        <ele>31.60000038147</ele>
        <time>2021-04-15T10:06:12.000Z</time>
      </trkpt>
      <trkpt lat="47.30139" lon="-2.3576">
        <ele>32</ele>
        <time>2021-04-15T10:06:15.000Z</time>
      </trkpt>
      <trkpt lat="47.30139" lon="-2.35752">
        <ele>32.400001525879</ele>
        <time>2021-04-15T10:06:16.000Z</time>
      </trkpt>
      <trkpt lat="47.30138" lon="-2.35744">
        <ele>32.799999237061</ele>
        <time>2021-04-15T10:06:17.000Z</time>
      </trkpt>
      <trkpt lat="47.30138" lon="-2.35736">
        <ele>33.400001525879</ele>
        <time>2021-04-15T10:06:18.000Z</time>
      </trkpt>
      <trkpt lat="47.30137" lon="-2.35728">
        <ele>33.799999237061</ele>
        <time>2021-04-15T10:06:19.000Z</time>
      </trkpt>
      <trkpt lat="47.30137" lon="-2.35721">
        <ele>34.599998474121</ele>
        <time>2021-04-15T10:06:20.000Z</time>
      </trkpt>
      <trkpt lat="47.30137" lon="-2.35714">
        <ele>35</ele>
        <time>2021-04-15T10:06:21.000Z</time>
      </trkpt>
      <trkpt lat="47.30136" lon="-2.35706">
        <ele>35.400001525879</ele>
        <time>2021-04-15T10:06:22.000Z</time>
      </trkpt>
      <trkpt lat="47.30136" lon="-2.35699">
        <ele>35.799999237061</ele>
        <time>2021-04-15T10:06:23.000Z</time>
      </trkpt>
      <trkpt lat="47.30135" lon="-2.35683">
        <ele>35.799999237061</ele>
        <time>2021-04-15T10:06:25.000Z</time>
      </trkpt>
      <trkpt lat="47.30132" lon="-2.35634">
        <ele>35.799999237061</ele>
        <time>2021-04-15T10:06:32.000Z</time>
      </trkpt>
      <trkpt lat="47.30127" lon="-2.35618">
        <ele>35.799999237061</ele>
        <time>2021-04-15T10:06:37.000Z</time>
      </trkpt>
      <trkpt lat="47.30124" lon="-2.35617">
        <ele>35.799999237061</ele>
        <time>2021-04-15T10:06:38.000Z</time>
      </trkpt>
      <trkpt lat="47.30115" lon="-2.35619">
        <ele>35.799999237061</ele>
        <time>2021-04-15T10:06:40.000Z</time>
      </trkpt>
      <trkpt lat="47.30082" lon="-2.35639">
        <ele>35.799999237061</ele>
        <time>2021-04-15T10:06:47.000Z</time>
      </trkpt>
      <trkpt lat="47.30073" lon="-2.35645">
        <ele>35.400001525879</ele>
        <time>2021-04-15T10:06:49.000Z</time>
      </trkpt>
      <trkpt lat="47.30067" lon="-2.35648">
        <ele>35</ele>
        <time>2021-04-15T10:06:50.000Z</time>
      </trkpt>
      <trkpt lat="47.30062" lon="-2.35651">
        <ele>34.599998474121</ele>
        <time>2021-04-15T10:06:51.000Z</time>
      </trkpt>
      <trkpt lat="47.30056" lon="-2.35655">
        <ele>34.200000762939</ele>
        <time>2021-04-15T10:06:52.000Z</time>
      </trkpt>
      <trkpt lat="47.3005" lon="-2.35659">
        <ele>33.799999237061</ele>
        <time>2021-04-15T10:06:53.000Z</time>
      </trkpt>
      <trkpt lat="47.30002" lon="-2.35687">
        <ele>33.799999237061</ele>
        <time>2021-04-15T10:07:01.000Z</time>
      </trkpt>
      <trkpt lat="47.29953" lon="-2.35716">
        <ele>33.799999237061</ele>
        <time>2021-04-15T10:07:09.000Z</time>
      </trkpt>
      <trkpt lat="47.29916" lon="-2.35747">
        <ele>33.400001525879</ele>
        <time>2021-04-15T10:07:15.000Z</time>
      </trkpt>
      <trkpt lat="47.2991" lon="-2.35752">
        <ele>33</ele>
        <time>2021-04-15T10:07:16.000Z</time>
      </trkpt>
      <trkpt lat="47.29903" lon="-2.35757">
        <ele>32.400001525879</ele>
        <time>2021-04-15T10:07:17.000Z</time>
      </trkpt>
      <trkpt lat="47.29896" lon="-2.35761">
        <ele>32</ele>
        <time>2021-04-15T10:07:18.000Z</time>
      </trkpt>
      <trkpt lat="47.2989" lon="-2.35765">
        <ele>31.60000038147</ele>
        <time>2021-04-15T10:07:19.000Z</time>
      </trkpt>
      <trkpt lat="47.29875" lon="-2.35772">
        <ele>31.60000038147</ele>
        <time>2021-04-15T10:07:21.000Z</time>
      </trkpt>
      <trkpt lat="47.29826" lon="-2.35789">
        <ele>31.60000038147</ele>
        <time>2021-04-15T10:07:28.000Z</time>
      </trkpt>
      <trkpt lat="47.29814" lon="-2.35794">
        <ele>32</ele>
        <time>2021-04-15T10:07:30.000Z</time>
      </trkpt>
      <trkpt lat="47.29808" lon="-2.35795">
        <ele>32.599998474121</ele>
        <time>2021-04-15T10:07:31.000Z</time>
      </trkpt>
      <trkpt lat="47.29802" lon="-2.35797">
        <ele>33</ele>
        <time>2021-04-15T10:07:32.000Z</time>
      </trkpt>
      <trkpt lat="47.29796" lon="-2.35799">
        <ele>33.400001525879</ele>
        <time>2021-04-15T10:07:33.000Z</time>
      </trkpt>
      <trkpt lat="47.2979" lon="-2.35801">
        <ele>33.799999237061</ele>
        <time>2021-04-15T10:07:34.000Z</time>
      </trkpt>
      <trkpt lat="47.29784" lon="-2.35803">
        <ele>33.799999237061</ele>
        <time>2021-04-15T10:07:35.000Z</time>
      </trkpt>
      <trkpt lat="47.29738" lon="-2.35821">
        <ele>33.799999237061</ele>
        <time>2021-04-15T10:07:42.000Z</time>
      </trkpt>
      <trkpt lat="47.29724" lon="-2.35829">
        <ele>33.400001525879</ele>
        <time>2021-04-15T10:07:44.000Z</time>
      </trkpt>
      <trkpt lat="47.29716" lon="-2.35834">
        <ele>33</ele>
        <time>2021-04-15T10:07:45.000Z</time>
      </trkpt>
      <trkpt lat="47.29708" lon="-2.35838">
        <ele>32.599998474121</ele>
        <time>2021-04-15T10:07:46.000Z</time>
      </trkpt>
      <trkpt lat="47.297" lon="-2.35843">
        <ele>32.200000762939</ele>
        <time>2021-04-15T10:07:47.000Z</time>
      </trkpt>
      <trkpt lat="47.29692" lon="-2.35846">
        <ele>31.799999237061</ele>
        <time>2021-04-15T10:07:48.000Z</time>
      </trkpt>
      <trkpt lat="47.29663" lon="-2.3586">
        <ele>31.799999237061</ele>
        <time>2021-04-15T10:07:52.000Z</time>
      </trkpt>
      <trkpt lat="47.29627" lon="-2.35882">
        <ele>31.799999237061</ele>
        <time>2021-04-15T10:07:57.000Z</time>
      </trkpt>
      <trkpt lat="47.29587" lon="-2.35907">
        <ele>31.799999237061</ele>
        <time>2021-04-15T10:08:03.000Z</time>
      </trkpt>
      <trkpt lat="47.29536" lon="-2.35936">
        <ele>31.799999237061</ele>
        <time>2021-04-15T10:08:11.000Z</time>
      </trkpt>
      <trkpt lat="47.29529" lon="-2.3594">
        <ele>31.39999961853</ele>
        <time>2021-04-15T10:08:12.000Z</time>
      </trkpt>
      <trkpt lat="47.29523" lon="-2.35944">
        <ele>31</ele>
        <time>2021-04-15T10:08:13.000Z</time>
      </trkpt>
      <trkpt lat="47.29516" lon="-2.35948">
        <ele>30.60000038147</ele>
        <time>2021-04-15T10:08:14.000Z</time>
      </trkpt>
      <trkpt lat="47.2951" lon="-2.35952">
        <ele>30.200000762939</ele>
        <time>2021-04-15T10:08:15.000Z</time>
      </trkpt>
      <trkpt lat="47.29504" lon="-2.35956">
        <ele>29.799999237061</ele>
        <time>2021-04-15T10:08:16.000Z</time>
      </trkpt>
      <trkpt lat="47.29491" lon="-2.35965">
        <ele>29.799999237061</ele>
        <time>2021-04-15T10:08:18.000Z</time>
      </trkpt>
      <trkpt lat="47.2948" lon="-2.35974">
        <ele>29.799999237061</ele>
        <time>2021-04-15T10:08:20.000Z</time>
      </trkpt>
      <trkpt lat="47.29467" lon="-2.35991">
        <ele>29.799999237061</ele>
        <time>2021-04-15T10:08:23.000Z</time>
      </trkpt>
      <trkpt lat="47.2946" lon="-2.35991">
        <ele>29.799999237061</ele>
        <time>2021-04-15T10:08:25.000Z</time>
      </trkpt>
      <trkpt lat="47.29456" lon="-2.35981">
        <ele>29.799999237061</ele>
        <time>2021-04-15T10:08:27.000Z</time>
      </trkpt>
      <trkpt lat="47.29455" lon="-2.35977">
        <ele>29.799999237061</ele>
        <time>2021-04-15T10:08:28.000Z</time>
      </trkpt>
      <trkpt lat="47.29454" lon="-2.35963">
        <ele>29.799999237061</ele>
        <time>2021-04-15T10:08:32.000Z</time>
      </trkpt>
      <trkpt lat="47.29451" lon="-2.35947">
        <ele>29.799999237061</ele>
        <time>2021-04-15T10:08:36.000Z</time>
      </trkpt>
      <trkpt lat="47.29437" lon="-2.3591">
        <ele>29.799999237061</ele>
        <time>2021-04-15T10:08:43.000Z</time>
      </trkpt>
      <trkpt lat="47.29432" lon="-2.35897">
        <ele>29.799999237061</ele>
        <time>2021-04-15T10:08:45.000Z</time>
      </trkpt>
      <trkpt lat="47.29423" lon="-2.35886">
        <ele>29.799999237061</ele>
        <time>2021-04-15T10:08:47.000Z</time>
      </trkpt>
      <trkpt lat="47.29413" lon="-2.35874">
        <ele>29.799999237061</ele>
        <time>2021-04-15T10:08:49.000Z</time>
      </trkpt>
      <trkpt lat="47.29402" lon="-2.35863">
        <ele>29.799999237061</ele>
        <time>2021-04-15T10:08:51.000Z</time>
      </trkpt>
      <trkpt lat="47.29373" lon="-2.3583">
        <ele>29.799999237061</ele>
        <time>2021-04-15T10:08:57.000Z</time>
      </trkpt>
      <trkpt lat="47.29364" lon="-2.3582">
        <ele>29.799999237061</ele>
        <time>2021-04-15T10:08:59.000Z</time>
      </trkpt>
      <trkpt lat="47.29326" lon="-2.35788">
        <ele>29.799999237061</ele>
        <time>2021-04-15T10:09:06.000Z</time>
      </trkpt>
      <trkpt lat="47.29292" lon="-2.35759">
        <ele>29.799999237061</ele>
        <time>2021-04-15T10:09:12.000Z</time>
      </trkpt>
      <trkpt lat="47.29266" lon="-2.35735">
        <ele>29.799999237061</ele>
        <time>2021-04-15T10:09:18.000Z</time>
      </trkpt>
      <trkpt lat="47.29255" lon="-2.35739">
        <ele>29.799999237061</ele>
        <time>2021-04-15T10:09:20.000Z</time>
      </trkpt>
      <trkpt lat="47.29246" lon="-2.35752">
        <ele>29.799999237061</ele>
        <time>2021-04-15T10:09:22.000Z</time>
      </trkpt>
      <trkpt lat="47.29237" lon="-2.35765">
        <ele>29.799999237061</ele>
        <time>2021-04-15T10:09:24.000Z</time>
      </trkpt>
      <trkpt lat="47.29202" lon="-2.358">
        <ele>29.799999237061</ele>
        <time>2021-04-15T10:09:31.000Z</time>
      </trkpt>
      <trkpt lat="47.29163" lon="-2.35829">
        <ele>29.799999237061</ele>
        <time>2021-04-15T10:09:38.000Z</time>
      </trkpt>
      <trkpt lat="47.29127" lon="-2.35862">
        <ele>29.799999237061</ele>
        <time>2021-04-15T10:09:45.000Z</time>
      </trkpt>
      <trkpt lat="47.29092" lon="-2.35902">
        <ele>29.799999237061</ele>
        <time>2021-04-15T10:09:52.000Z</time>
      </trkpt>
      <trkpt lat="47.29051" lon="-2.35949">
        <ele>29.799999237061</ele>
        <time>2021-04-15T10:10:00.000Z</time>
      </trkpt>
      <trkpt lat="47.29021" lon="-2.35983">
        <ele>29.799999237061</ele>
        <time>2021-04-15T10:10:06.000Z</time>
      </trkpt>
      <trkpt lat="47.28979" lon="-2.36025">
        <ele>29.799999237061</ele>
        <time>2021-04-15T10:10:14.000Z</time>
      </trkpt>
      <trkpt lat="47.28941" lon="-2.36055">
        <ele>29.799999237061</ele>
        <time>2021-04-15T10:10:21.000Z</time>
      </trkpt>
      <trkpt lat="47.28919" lon="-2.3607">
        <ele>29.799999237061</ele>
        <time>2021-04-15T10:10:25.000Z</time>
      </trkpt>
      <trkpt lat="47.28913" lon="-2.36074">
        <ele>29.799999237061</ele>
        <time>2021-04-15T10:10:26.000Z</time>
      </trkpt>
      <trkpt lat="47.28889" lon="-2.36097">
        <ele>29.799999237061</ele>
        <time>2021-04-15T10:10:31.000Z</time>
      </trkpt>
      <trkpt lat="47.28884" lon="-2.36102">
        <ele>29.799999237061</ele>
        <time>2021-04-15T10:10:32.000Z</time>
      </trkpt>
      <trkpt lat="47.28871" lon="-2.36114">
        <ele>29.799999237061</ele>
        <time>2021-04-15T10:10:35.000Z</time>
      </trkpt>
      <trkpt lat="47.28853" lon="-2.36133">
        <ele>29.799999237061</ele>
        <time>2021-04-15T10:10:39.000Z</time>
      </trkpt>
      <trkpt lat="47.28836" lon="-2.36155">
        <ele>29.799999237061</ele>
        <time>2021-04-15T10:10:43.000Z</time>
      </trkpt>
      <trkpt lat="47.28828" lon="-2.36167">
        <ele>29.799999237061</ele>
        <time>2021-04-15T10:10:45.000Z</time>
      </trkpt>
      <trkpt lat="47.28823" lon="-2.36172">
        <ele>29.799999237061</ele>
        <time>2021-04-15T10:10:46.000Z</time>
      </trkpt>
      <trkpt lat="47.28814" lon="-2.3618">
        <ele>29.799999237061</ele>
        <time>2021-04-15T10:10:48.000Z</time>
      </trkpt>
      <trkpt lat="47.28804" lon="-2.36187">
        <ele>29.799999237061</ele>
        <time>2021-04-15T10:10:50.000Z</time>
      </trkpt>
      <trkpt lat="47.28779" lon="-2.36205">
        <ele>29.799999237061</ele>
        <time>2021-04-15T10:10:56.000Z</time>
      </trkpt>
      <trkpt lat="47.28759" lon="-2.3622">
        <ele>29.799999237061</ele>
        <time>2021-04-15T10:11:01.000Z</time>
      </trkpt>
      <trkpt lat="47.28751" lon="-2.36224">
        <ele>29.799999237061</ele>
        <time>2021-04-15T10:11:03.000Z</time>
      </trkpt>
      <trkpt lat="47.2873" lon="-2.36239">
        <ele>29.799999237061</ele>
        <time>2021-04-15T10:11:08.000Z</time>
      </trkpt>
      <trkpt lat="47.28726" lon="-2.36242">
        <ele>29.799999237061</ele>
        <time>2021-04-15T10:11:09.000Z</time>
      </trkpt>
      <trkpt lat="47.2872" lon="-2.36248">
        <ele>29.799999237061</ele>
        <time>2021-04-15T10:11:12.000Z</time>
      </trkpt>
      <trkpt lat="47.28713" lon="-2.36257">
        <ele>29.799999237061</ele>
        <time>2021-04-15T10:11:17.000Z</time>
      </trkpt>
      <trkpt lat="47.28702" lon="-2.36272">
        <ele>30.200000762939</ele>
        <time>2021-04-15T10:11:22.000Z</time>
      </trkpt>
      <trkpt lat="47.28699" lon="-2.36274">
        <ele>30.60000038147</ele>
        <time>2021-04-15T10:11:23.000Z</time>
      </trkpt>
      <trkpt lat="47.28696" lon="-2.36275">
        <ele>31</ele>
        <time>2021-04-15T10:11:24.000Z</time>
      </trkpt>
      <trkpt lat="47.28693" lon="-2.36277">
        <ele>31.39999961853</ele>
        <time>2021-04-15T10:11:25.000Z</time>
      </trkpt>
      <trkpt lat="47.2869" lon="-2.36278">
        <ele>32</ele>
        <time>2021-04-15T10:11:26.000Z</time>
      </trkpt>
      <trkpt lat="47.28684" lon="-2.3628">
        <ele>32</ele>
        <time>2021-04-15T10:11:28.000Z</time>
      </trkpt>
      <trkpt lat="47.2868" lon="-2.3628">
        <ele>32.400001525879</ele>
        <time>2021-04-15T10:11:29.000Z</time>
      </trkpt>
      <trkpt lat="47.28677" lon="-2.36279">
        <ele>32.799999237061</ele>
        <time>2021-04-15T10:11:30.000Z</time>
      </trkpt>
      <trkpt lat="47.28674" lon="-2.36278">
        <ele>33.200000762939</ele>
        <time>2021-04-15T10:11:31.000Z</time>
      </trkpt>
      <trkpt lat="47.28673" lon="-2.36275">
        <ele>33.599998474121</ele>
        <time>2021-04-15T10:11:32.000Z</time>
      </trkpt>
      <trkpt lat="47.28672" lon="-2.36271">
        <ele>34</ele>
        <time>2021-04-15T10:11:33.000Z</time>
      </trkpt>
      <trkpt lat="47.28671" lon="-2.36258">
        <ele>34</ele>
        <time>2021-04-15T10:11:36.000Z</time>
      </trkpt>
      <trkpt lat="47.28672" lon="-2.36253">
        <ele>34</ele>
        <time>2021-04-15T10:11:37.000Z</time>
      </trkpt>
      <trkpt lat="47.28674" lon="-2.36235">
        <ele>34.400001525879</ele>
        <time>2021-04-15T10:11:41.000Z</time>
      </trkpt>
      <trkpt lat="47.28674" lon="-2.3623">
        <ele>35.200000762939</ele>
        <time>2021-04-15T10:11:42.000Z</time>
      </trkpt>
      <trkpt lat="47.28673" lon="-2.36226">
        <ele>35.599998474121</ele>
        <time>2021-04-15T10:11:43.000Z</time>
      </trkpt>
      <trkpt lat="47.28673" lon="-2.36222">
        <ele>36</ele>
        <time>2021-04-15T10:11:44.000Z</time>
      </trkpt>
      <trkpt lat="47.28667" lon="-2.36199">
        <ele>36</ele>
        <time>2021-04-15T10:11:50.000Z</time>
      </trkpt>
      <trkpt lat="47.28652" lon="-2.36183">
        <ele>36</ele>
        <time>2021-04-15T10:11:55.000Z</time>
      </trkpt>
      <trkpt lat="47.28646" lon="-2.36174">
        <ele>36.599998474121</ele>
        <time>2021-04-15T10:11:57.000Z</time>
      </trkpt>
      <trkpt lat="47.28643" lon="-2.36172">
        <ele>37</ele>
        <time>2021-04-15T10:11:58.000Z</time>
      </trkpt>
      <trkpt lat="47.2864" lon="-2.36167">
        <ele>37.400001525879</ele>
        <time>2021-04-15T10:11:59.000Z</time>
      </trkpt>
      <trkpt lat="47.28638" lon="-2.36163">
        <ele>38</ele>
        <time>2021-04-15T10:12:00.000Z</time>
      </trkpt>
      <trkpt lat="47.28636" lon="-2.36159">
        <ele>38.400001525879</ele>
        <time>2021-04-15T10:12:01.000Z</time>
      </trkpt>
      <trkpt lat="47.28633" lon="-2.36157">
        <ele>38.400001525879</ele>
        <time>2021-04-15T10:12:02.000Z</time>
      </trkpt>
      <trkpt lat="47.28628" lon="-2.36148">
        <ele>38.400001525879</ele>
        <time>2021-04-15T10:12:03.000Z</time>
      </trkpt>
      <trkpt lat="47.28621" lon="-2.36148">
        <ele>38.400001525879</ele>
        <time>2021-04-15T10:12:05.000Z</time>
      </trkpt>
      <trkpt lat="47.28606" lon="-2.36159">
        <ele>38.400001525879</ele>
        <time>2021-04-15T10:12:10.000Z</time>
      </trkpt>
      <trkpt lat="47.28593" lon="-2.36158">
        <ele>38.400001525879</ele>
        <time>2021-04-15T10:12:14.000Z</time>
      </trkpt>
      <trkpt lat="47.28575" lon="-2.36152">
        <ele>38.400001525879</ele>
        <time>2021-04-15T10:12:20.000Z</time>
      </trkpt>
      <trkpt lat="47.28555" lon="-2.36156">
        <ele>38.400001525879</ele>
        <time>2021-04-15T10:12:24.000Z</time>
      </trkpt>
      <trkpt lat="47.28549" lon="-2.36148">
        <ele>38</ele>
        <time>2021-04-15T10:12:26.000Z</time>
      </trkpt>
      <trkpt lat="47.28547" lon="-2.36141">
        <ele>37.400001525879</ele>
        <time>2021-04-15T10:12:27.000Z</time>
      </trkpt>
      <trkpt lat="47.28544" lon="-2.36134">
        <ele>37</ele>
        <time>2021-04-15T10:12:28.000Z</time>
      </trkpt>
      <trkpt lat="47.28542" lon="-2.36127">
        <ele>36.599998474121</ele>
        <time>2021-04-15T10:12:29.000Z</time>
      </trkpt>
      <trkpt lat="47.2854" lon="-2.36119">
        <ele>36</ele>
        <time>2021-04-15T10:12:30.000Z</time>
      </trkpt>
      <trkpt lat="47.28537" lon="-2.361">
        <ele>36</ele>
        <time>2021-04-15T10:12:33.000Z</time>
      </trkpt>
      <trkpt lat="47.28532" lon="-2.36084">
        <ele>36</ele>
        <time>2021-04-15T10:12:37.000Z</time>
      </trkpt>
      <trkpt lat="47.28521" lon="-2.36063">
        <ele>36</ele>
        <time>2021-04-15T10:12:42.000Z</time>
      </trkpt>
      <trkpt lat="47.28498" lon="-2.36042">
        <ele>36</ele>
        <time>2021-04-15T10:12:47.000Z</time>
      </trkpt>
      <trkpt lat="47.28474" lon="-2.36027">
        <ele>36</ele>
        <time>2021-04-15T10:12:52.000Z</time>
      </trkpt>
      <trkpt lat="47.28454" lon="-2.36005">
        <ele>36</ele>
        <time>2021-04-15T10:12:57.000Z</time>
      </trkpt>
      <trkpt lat="47.28446" lon="-2.35988">
        <ele>36</ele>
        <time>2021-04-15T10:13:01.000Z</time>
      </trkpt>
      <trkpt lat="47.28448" lon="-2.35985">
        <ele>36</ele>
        <time>2021-04-15T10:13:04.000Z</time>
      </trkpt>
      <trkpt lat="47.28448" lon="-2.35986">
        <ele>36</ele>
        <time>2021-04-15T10:13:06.000Z</time>
      </trkpt>
      <trkpt lat="47.28446" lon="-2.35989">
        <ele>36</ele>
        <time>2021-04-15T10:13:09.000Z</time>
      </trkpt>
      <trkpt lat="47.28441" lon="-2.35993">
        <ele>36</ele>
        <time>2021-04-15T10:13:12.000Z</time>
      </trkpt>
      <trkpt lat="47.28436" lon="-2.35997">
        <ele>36</ele>
        <time>2021-04-15T10:13:14.000Z</time>
      </trkpt>
      <trkpt lat="47.28426" lon="-2.36005">
        <ele>36</ele>
        <time>2021-04-15T10:13:17.000Z</time>
      </trkpt>
      <trkpt lat="47.28408" lon="-2.3602">
        <ele>36</ele>
        <time>2021-04-15T10:13:23.000Z</time>
      </trkpt>
      <trkpt lat="47.28393" lon="-2.36021">
        <ele>36</ele>
        <time>2021-04-15T10:13:27.000Z</time>
      </trkpt>
      <trkpt lat="47.28388" lon="-2.36022">
        <ele>36</ele>
        <time>2021-04-15T10:13:28.000Z</time>
      </trkpt>
      <trkpt lat="47.28383" lon="-2.36024">
        <ele>35.599998474121</ele>
        <time>2021-04-15T10:13:29.000Z</time>
      </trkpt>
      <trkpt lat="47.28377" lon="-2.36025">
        <ele>35</ele>
        <time>2021-04-15T10:13:30.000Z</time>
      </trkpt>
      <trkpt lat="47.28369" lon="-2.36027">
        <ele>34.599998474121</ele>
        <time>2021-04-15T10:13:31.000Z</time>
      </trkpt>
      <trkpt lat="47.2836" lon="-2.36031">
        <ele>34</ele>
        <time>2021-04-15T10:13:32.000Z</time>
      </trkpt>
      <trkpt lat="47.28353" lon="-2.36036">
        <ele>33.400001525879</ele>
        <time>2021-04-15T10:13:33.000Z</time>
      </trkpt>
      <trkpt lat="47.28346" lon="-2.36041">
        <ele>32.799999237061</ele>
        <time>2021-04-15T10:13:34.000Z</time>
      </trkpt>
      <trkpt lat="47.2834" lon="-2.36046">
        <ele>32.200000762939</ele>
        <time>2021-04-15T10:13:35.000Z</time>
      </trkpt>
      <trkpt lat="47.28334" lon="-2.3605">
        <ele>31.60000038147</ele>
        <time>2021-04-15T10:13:36.000Z</time>
      </trkpt>
      <trkpt lat="47.28329" lon="-2.36052">
        <ele>31</ele>
        <time>2021-04-15T10:13:37.000Z</time>
      </trkpt>
      <trkpt lat="47.28323" lon="-2.36053">
        <ele>30.60000038147</ele>
        <time>2021-04-15T10:13:38.000Z</time>
      </trkpt>
      <trkpt lat="47.28316" lon="-2.36053">
        <ele>30.200000762939</ele>
        <time>2021-04-15T10:13:39.000Z</time>
      </trkpt>
      <trkpt lat="47.28311" lon="-2.36052">
        <ele>29.799999237061</ele>
        <time>2021-04-15T10:13:40.000Z</time>
      </trkpt>
      <trkpt lat="47.28305" lon="-2.36051">
        <ele>29.39999961853</ele>
        <time>2021-04-15T10:13:41.000Z</time>
      </trkpt>
      <trkpt lat="47.28296" lon="-2.36048">
        <ele>29</ele>
        <time>2021-04-15T10:13:43.000Z</time>
      </trkpt>
      <trkpt lat="47.28292" lon="-2.36045">
        <ele>28.39999961853</ele>
        <time>2021-04-15T10:13:44.000Z</time>
      </trkpt>
      <trkpt lat="47.28289" lon="-2.36041">
        <ele>28</ele>
        <time>2021-04-15T10:13:45.000Z</time>
      </trkpt>
      <trkpt lat="47.28286" lon="-2.36036">
        <ele>26.799999237061</ele>
        <time>2021-04-15T10:13:46.000Z</time>
      </trkpt>
      <trkpt lat="47.28283" lon="-2.36029">
        <ele>26</ele>
        <time>2021-04-15T10:13:47.000Z</time>
      </trkpt>
      <trkpt lat="47.28282" lon="-2.36022">
        <ele>25.200000762939</ele>
        <time>2021-04-15T10:13:48.000Z</time>
      </trkpt>
      <trkpt lat="47.28281" lon="-2.36016">
        <ele>24.39999961853</ele>
        <time>2021-04-15T10:13:49.000Z</time>
      </trkpt>
      <trkpt lat="47.28281" lon="-2.36006">
        <ele>23.60000038147</ele>
        <time>2021-04-15T10:13:50.000Z</time>
      </trkpt>
      <trkpt lat="47.2828" lon="-2.35999">
        <ele>22.799999237061</ele>
        <time>2021-04-15T10:13:51.000Z</time>
      </trkpt>
      <trkpt lat="47.28279" lon="-2.35991">
        <ele>22</ele>
        <time>2021-04-15T10:13:52.000Z</time>
      </trkpt>
      <trkpt lat="47.28278" lon="-2.35985">
        <ele>21.200000762939</ele>
        <time>2021-04-15T10:13:53.000Z</time>
      </trkpt>
      <trkpt lat="47.28276" lon="-2.35981">
        <ele>20.39999961853</ele>
        <time>2021-04-15T10:13:54.000Z</time>
      </trkpt>
      <trkpt lat="47.28274" lon="-2.35976">
        <ele>19.60000038147</ele>
        <time>2021-04-15T10:13:55.000Z</time>
      </trkpt>
      <trkpt lat="47.28267" lon="-2.35962">
        <ele>19.60000038147</ele>
        <time>2021-04-15T10:13:59.000Z</time>
      </trkpt>
      <trkpt lat="47.28265" lon="-2.35957">
        <ele>19.60000038147</ele>
        <time>2021-04-15T10:14:00.000Z</time>
      </trkpt>
      <trkpt lat="47.28256" lon="-2.35934">
        <ele>20</ele>
        <time>2021-04-15T10:14:05.000Z</time>
      </trkpt>
      <trkpt lat="47.28253" lon="-2.35929">
        <ele>20.39999961853</ele>
        <time>2021-04-15T10:14:06.000Z</time>
      </trkpt>
      <trkpt lat="47.2825" lon="-2.35924">
        <ele>20.799999237061</ele>
        <time>2021-04-15T10:14:07.000Z</time>
      </trkpt>
      <trkpt lat="47.28247" lon="-2.35923">
        <ele>21.39999961853</ele>
        <time>2021-04-15T10:14:08.000Z</time>
      </trkpt>
      <trkpt lat="47.28244" lon="-2.35922">
        <ele>21.799999237061</ele>
        <time>2021-04-15T10:14:09.000Z</time>
      </trkpt>
      <trkpt lat="47.28235" lon="-2.3592">
        <ele>21.799999237061</ele>
        <time>2021-04-15T10:14:11.000Z</time>
      </trkpt>
      <trkpt lat="47.28225" lon="-2.35918">
        <ele>21.799999237061</ele>
        <time>2021-04-15T10:14:13.000Z</time>
      </trkpt>
      <trkpt lat="47.28201" lon="-2.35912">
        <ele>21.200000762939</ele>
        <time>2021-04-15T10:14:18.000Z</time>
      </trkpt>
      <trkpt lat="47.28197" lon="-2.35911">
        <ele>20.799999237061</ele>
        <time>2021-04-15T10:14:19.000Z</time>
      </trkpt>
      <trkpt lat="47.28192" lon="-2.3591">
        <ele>20.39999961853</ele>
        <time>2021-04-15T10:14:20.000Z</time>
      </trkpt>
      <trkpt lat="47.28189" lon="-2.35909">
        <ele>20</ele>
        <time>2021-04-15T10:14:21.000Z</time>
      </trkpt>
      <trkpt lat="47.28185" lon="-2.35907">
        <ele>19.60000038147</ele>
        <time>2021-04-15T10:14:22.000Z</time>
      </trkpt>
      <trkpt lat="47.28181" lon="-2.35905">
        <ele>19.60000038147</ele>
        <time>2021-04-15T10:14:24.000Z</time>
      </trkpt>
      <trkpt lat="47.28165" lon="-2.35903">
        <ele>19.60000038147</ele>
        <time>2021-04-15T10:14:29.000Z</time>
      </trkpt>
      <trkpt lat="47.28146" lon="-2.35892">
        <ele>19.60000038147</ele>
        <time>2021-04-15T10:14:34.000Z</time>
      </trkpt>
      <trkpt lat="47.28141" lon="-2.35885">
        <ele>19.60000038147</ele>
        <time>2021-04-15T10:14:36.000Z</time>
      </trkpt>
      <trkpt lat="47.28141" lon="-2.35881">
        <ele>19.60000038147</ele>
        <time>2021-04-15T10:14:37.000Z</time>
      </trkpt>
      <trkpt lat="47.28138" lon="-2.35871">
        <ele>19.60000038147</ele>
        <time>2021-04-15T10:14:40.000Z</time>
      </trkpt>
      <trkpt lat="47.28135" lon="-2.35869">
        <ele>19.60000038147</ele>
        <time>2021-04-15T10:14:41.000Z</time>
      </trkpt>
      <trkpt lat="47.28121" lon="-2.35859">
        <ele>19.60000038147</ele>
        <time>2021-04-15T10:14:47.000Z</time>
      </trkpt>
      <trkpt lat="47.28115" lon="-2.35841">
        <ele>19.60000038147</ele>
        <time>2021-04-15T10:14:51.000Z</time>
      </trkpt>
      <trkpt lat="47.28112" lon="-2.35836">
        <ele>19.200000762939</ele>
        <time>2021-04-15T10:14:52.000Z</time>
      </trkpt>
      <trkpt lat="47.28108" lon="-2.35831">
        <ele>18.799999237061</ele>
        <time>2021-04-15T10:14:53.000Z</time>
      </trkpt>
      <trkpt lat="47.28104" lon="-2.35826">
        <ele>18.39999961853</ele>
        <time>2021-04-15T10:14:54.000Z</time>
      </trkpt>
      <trkpt lat="47.28099" lon="-2.35824">
        <ele>18</ele>
        <time>2021-04-15T10:14:55.000Z</time>
      </trkpt>
      <trkpt lat="47.28095" lon="-2.35821">
        <ele>17.60000038147</ele>
        <time>2021-04-15T10:14:56.000Z</time>
      </trkpt>
      <trkpt lat="47.2809" lon="-2.35819">
        <ele>17.60000038147</ele>
        <time>2021-04-15T10:14:57.000Z</time>
      </trkpt>
      <trkpt lat="47.28079" lon="-2.35813">
        <ele>17.60000038147</ele>
        <time>2021-04-15T10:15:01.000Z</time>
      </trkpt>
      <trkpt lat="47.28073" lon="-2.35801">
        <ele>18</ele>
        <time>2021-04-15T10:15:04.000Z</time>
      </trkpt>
      <trkpt lat="47.28072" lon="-2.35797">
        <ele>18.39999961853</ele>
        <time>2021-04-15T10:15:05.000Z</time>
      </trkpt>
      <trkpt lat="47.28072" lon="-2.35793">
        <ele>18.799999237061</ele>
        <time>2021-04-15T10:15:06.000Z</time>
      </trkpt>
      <trkpt lat="47.28074" lon="-2.35789">
        <ele>19.200000762939</ele>
        <time>2021-04-15T10:15:07.000Z</time>
      </trkpt>
      <trkpt lat="47.28077" lon="-2.35782">
        <ele>19.60000038147</ele>
        <time>2021-04-15T10:15:08.000Z</time>
      </trkpt>
      <trkpt lat="47.28086" lon="-2.35762">
        <ele>19.60000038147</ele>
        <time>2021-04-15T10:15:11.000Z</time>
      </trkpt>
      <trkpt lat="47.28088" lon="-2.35756">
        <ele>20</ele>
        <time>2021-04-15T10:15:12.000Z</time>
      </trkpt>
      <trkpt lat="47.28089" lon="-2.35749">
        <ele>20.39999961853</ele>
        <time>2021-04-15T10:15:13.000Z</time>
      </trkpt>
      <trkpt lat="47.28091" lon="-2.35744">
        <ele>20.799999237061</ele>
        <time>2021-04-15T10:15:14.000Z</time>
      </trkpt>
      <trkpt lat="47.28093" lon="-2.35738">
        <ele>21.200000762939</ele>
        <time>2021-04-15T10:15:15.000Z</time>
      </trkpt>
      <trkpt lat="47.28094" lon="-2.35734">
        <ele>21.60000038147</ele>
        <time>2021-04-15T10:15:16.000Z</time>
      </trkpt>
      <trkpt lat="47.28095" lon="-2.35729">
        <ele>21.60000038147</ele>
        <time>2021-04-15T10:15:17.000Z</time>
      </trkpt>
      <trkpt lat="47.28096" lon="-2.35718">
        <ele>22.200000762939</ele>
        <time>2021-04-15T10:15:19.000Z</time>
      </trkpt>
      <trkpt lat="47.28097" lon="-2.35711">
        <ele>22.60000038147</ele>
        <time>2021-04-15T10:15:20.000Z</time>
      </trkpt>
      <trkpt lat="47.28098" lon="-2.35705">
        <ele>23</ele>
        <time>2021-04-15T10:15:21.000Z</time>
      </trkpt>
      <trkpt lat="47.28098" lon="-2.357">
        <ele>23.39999961853</ele>
        <time>2021-04-15T10:15:22.000Z</time>
      </trkpt>
      <trkpt lat="47.28098" lon="-2.35693">
        <ele>23.799999237061</ele>
        <time>2021-04-15T10:15:23.000Z</time>
      </trkpt>
      <trkpt lat="47.28097" lon="-2.35687">
        <ele>23.799999237061</ele>
        <time>2021-04-15T10:15:24.000Z</time>
      </trkpt>
      <trkpt lat="47.28091" lon="-2.35671">
        <ele>23.799999237061</ele>
        <time>2021-04-15T10:15:26.000Z</time>
      </trkpt>
      <trkpt lat="47.28083" lon="-2.35646">
        <ele>23.200000762939</ele>
        <time>2021-04-15T10:15:30.000Z</time>
      </trkpt>
      <trkpt lat="47.28082" lon="-2.3564">
        <ele>22.799999237061</ele>
        <time>2021-04-15T10:15:31.000Z</time>
      </trkpt>
      <trkpt lat="47.28081" lon="-2.35635">
        <ele>22.200000762939</ele>
        <time>2021-04-15T10:15:32.000Z</time>
      </trkpt>
      <trkpt lat="47.28079" lon="-2.35631">
        <ele>21.60000038147</ele>
        <time>2021-04-15T10:15:33.000Z</time>
      </trkpt>
      <trkpt lat="47.28078" lon="-2.35627">
        <ele>21</ele>
        <time>2021-04-15T10:15:34.000Z</time>
      </trkpt>
      <trkpt lat="47.28077" lon="-2.35624">
        <ele>20.39999961853</ele>
        <time>2021-04-15T10:15:35.000Z</time>
      </trkpt>
      <trkpt lat="47.28076" lon="-2.3562">
        <ele>19.60000038147</ele>
        <time>2021-04-15T10:15:36.000Z</time>
      </trkpt>
      <trkpt lat="47.28077" lon="-2.35617">
        <ele>19</ele>
        <time>2021-04-15T10:15:37.000Z</time>
      </trkpt>
      <trkpt lat="47.28078" lon="-2.35614">
        <ele>18.60000038147</ele>
        <time>2021-04-15T10:15:38.000Z</time>
      </trkpt>
      <trkpt lat="47.2808" lon="-2.35613">
        <ele>18.200000762939</ele>
        <time>2021-04-15T10:15:39.000Z</time>
      </trkpt>
      <trkpt lat="47.28082" lon="-2.35614">
        <ele>17.799999237061</ele>
        <time>2021-04-15T10:15:40.000Z</time>
      </trkpt>
      <trkpt lat="47.28083" lon="-2.35614">
        <ele>17.39999961853</ele>
        <time>2021-04-15T10:15:41.000Z</time>
      </trkpt>
      <trkpt lat="47.28083" lon="-2.35615">
        <ele>17</ele>
        <time>2021-04-15T10:15:42.000Z</time>
      </trkpt>
      <trkpt lat="47.28084" lon="-2.35617">
        <ele>17</ele>
        <time>2021-04-15T10:15:44.000Z</time>
      </trkpt>
      <trkpt lat="47.28084" lon="-2.35618">
        <ele>17</ele>
        <time>2021-04-15T10:15:45.000Z</time>
      </trkpt>
      <trkpt lat="47.28083" lon="-2.3562">
        <ele>23</ele>
        <time>2021-04-15T10:32:50.000Z</time>
      </trkpt>
      <trkpt lat="47.28079" lon="-2.35616">
        <ele>23</ele>
        <time>2021-04-15T10:32:52.000Z</time>
      </trkpt>
      <trkpt lat="47.28069" lon="-2.35596">
        <ele>23</ele>
        <time>2021-04-15T10:32:58.000Z</time>
      </trkpt>
      <trkpt lat="47.28053" lon="-2.35579">
        <ele>23</ele>
        <time>2021-04-15T10:33:03.000Z</time>
      </trkpt>
      <trkpt lat="47.28031" lon="-2.3557">
        <ele>23</ele>
        <time>2021-04-15T10:33:08.000Z</time>
      </trkpt>
      <trkpt lat="47.28017" lon="-2.35558">
        <ele>23</ele>
        <time>2021-04-15T10:33:11.000Z</time>
      </trkpt>
      <trkpt lat="47.28012" lon="-2.35557">
        <ele>23</ele>
        <time>2021-04-15T10:33:12.000Z</time>
      </trkpt>
      <trkpt lat="47.27992" lon="-2.35564">
        <ele>23</ele>
        <time>2021-04-15T10:33:16.000Z</time>
      </trkpt>
      <trkpt lat="47.27961" lon="-2.35577">
        <ele>23</ele>
        <time>2021-04-15T10:33:23.000Z</time>
      </trkpt>
      <trkpt lat="47.27959" lon="-2.35579">
        <ele>22.60000038147</ele>
        <time>2021-04-15T10:33:24.000Z</time>
      </trkpt>
      <trkpt lat="47.27958" lon="-2.3558">
        <ele>22.200000762939</ele>
        <time>2021-04-15T10:33:25.000Z</time>
      </trkpt>
      <trkpt lat="47.27958" lon="-2.35579">
        <ele>21.60000038147</ele>
        <time>2021-04-15T10:33:26.000Z</time>
      </trkpt>
      <trkpt lat="47.27955" lon="-2.3558">
        <ele>20.799999237061</ele>
        <time>2021-04-15T10:33:44.000Z</time>
      </trkpt>
      <trkpt lat="47.27951" lon="-2.35582">
        <ele>20.799999237061</ele>
        <time>2021-04-15T10:33:46.000Z</time>
      </trkpt>
      <trkpt lat="47.27944" lon="-2.35585">
        <ele>20.799999237061</ele>
        <time>2021-04-15T10:33:48.000Z</time>
      </trkpt>
      <trkpt lat="47.27934" lon="-2.35587">
        <ele>20.799999237061</ele>
        <time>2021-04-15T10:33:50.000Z</time>
      </trkpt>
      <trkpt lat="47.27896" lon="-2.35597">
        <ele>20.799999237061</ele>
        <time>2021-04-15T10:33:57.000Z</time>
      </trkpt>
      <trkpt lat="47.27869" lon="-2.35603">
        <ele>20.799999237061</ele>
        <time>2021-04-15T10:34:01.000Z</time>
      </trkpt>
      <trkpt lat="47.27854" lon="-2.35607">
        <ele>20.799999237061</ele>
        <time>2021-04-15T10:34:03.000Z</time>
      </trkpt>
      <trkpt lat="47.27833" lon="-2.35614">
        <ele>20.39999961853</ele>
        <time>2021-04-15T10:34:06.000Z</time>
      </trkpt>
      <trkpt lat="47.27826" lon="-2.35616">
        <ele>19.799999237061</ele>
        <time>2021-04-15T10:34:07.000Z</time>
      </trkpt>
      <trkpt lat="47.27818" lon="-2.35618">
        <ele>19.39999961853</ele>
        <time>2021-04-15T10:34:08.000Z</time>
      </trkpt>
      <trkpt lat="47.27811" lon="-2.35621">
        <ele>18.799999237061</ele>
        <time>2021-04-15T10:34:09.000Z</time>
      </trkpt>
      <trkpt lat="47.27803" lon="-2.35623">
        <ele>18.39999961853</ele>
        <time>2021-04-15T10:34:10.000Z</time>
      </trkpt>
      <trkpt lat="47.2778" lon="-2.35636">
        <ele>18.39999961853</ele>
        <time>2021-04-15T10:34:13.000Z</time>
      </trkpt>
      <trkpt lat="47.27766" lon="-2.35648">
        <ele>18.39999961853</ele>
        <time>2021-04-15T10:34:15.000Z</time>
      </trkpt>
      <trkpt lat="47.27754" lon="-2.35663">
        <ele>18.39999961853</ele>
        <time>2021-04-15T10:34:17.000Z</time>
      </trkpt>
      <trkpt lat="47.27748" lon="-2.35671">
        <ele>18</ele>
        <time>2021-04-15T10:34:18.000Z</time>
      </trkpt>
      <trkpt lat="47.27743" lon="-2.35679">
        <ele>17.60000038147</ele>
        <time>2021-04-15T10:34:19.000Z</time>
      </trkpt>
      <trkpt lat="47.27737" lon="-2.35687">
        <ele>17.200000762939</ele>
        <time>2021-04-15T10:34:20.000Z</time>
      </trkpt>
      <trkpt lat="47.27732" lon="-2.35694">
        <ele>16.799999237061</ele>
        <time>2021-04-15T10:34:21.000Z</time>
      </trkpt>
      <trkpt lat="47.27726" lon="-2.35702">
        <ele>16.200000762939</ele>
        <time>2021-04-15T10:34:22.000Z</time>
      </trkpt>
      <trkpt lat="47.27716" lon="-2.35715">
        <ele>15.800000190735</ele>
        <time>2021-04-15T10:34:24.000Z</time>
      </trkpt>
      <trkpt lat="47.27711" lon="-2.3572">
        <ele>15.39999961853</ele>
        <time>2021-04-15T10:34:25.000Z</time>
      </trkpt>
      <trkpt lat="47.27706" lon="-2.35724">
        <ele>15</ele>
        <time>2021-04-15T10:34:26.000Z</time>
      </trkpt>
      <trkpt lat="47.277" lon="-2.35729">
        <ele>14.60000038147</ele>
        <time>2021-04-15T10:34:27.000Z</time>
      </trkpt>
      <trkpt lat="47.27694" lon="-2.35732">
        <ele>14.199999809265</ele>
        <time>2021-04-15T10:34:28.000Z</time>
      </trkpt>
      <trkpt lat="47.27689" lon="-2.35737">
        <ele>14.199999809265</ele>
        <time>2021-04-15T10:34:29.000Z</time>
      </trkpt>
      <trkpt lat="47.27684" lon="-2.35743">
        <ele>13.800000190735</ele>
        <time>2021-04-15T10:34:30.000Z</time>
      </trkpt>
      <trkpt lat="47.2768" lon="-2.35747">
        <ele>13.199999809265</ele>
        <time>2021-04-15T10:34:31.000Z</time>
      </trkpt>
      <trkpt lat="47.27675" lon="-2.35747">
        <ele>12.800000190735</ele>
        <time>2021-04-15T10:34:32.000Z</time>
      </trkpt>
      <trkpt lat="47.27671" lon="-2.35745">
        <ele>12.39999961853</ele>
        <time>2021-04-15T10:34:33.000Z</time>
      </trkpt>
      <trkpt lat="47.27666" lon="-2.35738">
        <ele>12</ele>
        <time>2021-04-15T10:34:34.000Z</time>
      </trkpt>
      <trkpt lat="47.27662" lon="-2.35732">
        <ele>12</ele>
        <time>2021-04-15T10:34:35.000Z</time>
      </trkpt>
      <trkpt lat="47.27657" lon="-2.35728">
        <ele>12</ele>
        <time>2021-04-15T10:34:36.000Z</time>
      </trkpt>
      <trkpt lat="47.27645" lon="-2.35722">
        <ele>12</ele>
        <time>2021-04-15T10:34:38.000Z</time>
      </trkpt>
      <trkpt lat="47.27633" lon="-2.35719">
        <ele>12</ele>
        <time>2021-04-15T10:34:40.000Z</time>
      </trkpt>
      <trkpt lat="47.27613" lon="-2.35711">
        <ele>12</ele>
        <time>2021-04-15T10:34:43.000Z</time>
      </trkpt>
      <trkpt lat="47.27572" lon="-2.35702">
        <ele>12</ele>
        <time>2021-04-15T10:34:49.000Z</time>
      </trkpt>
      <trkpt lat="47.27546" lon="-2.35696">
        <ele>11.60000038147</ele>
        <time>2021-04-15T10:34:53.000Z</time>
      </trkpt>
      <trkpt lat="47.27539" lon="-2.35694">
        <ele>11.199999809265</ele>
        <time>2021-04-15T10:34:54.000Z</time>
      </trkpt>
      <trkpt lat="47.27532" lon="-2.35693">
        <ele>10.60000038147</ele>
        <time>2021-04-15T10:34:55.000Z</time>
      </trkpt>
      <trkpt lat="47.27525" lon="-2.35692">
        <ele>10.199999809265</ele>
        <time>2021-04-15T10:34:56.000Z</time>
      </trkpt>
      <trkpt lat="47.27518" lon="-2.3569">
        <ele>9.8000001907349</ele>
        <time>2021-04-15T10:34:57.000Z</time>
      </trkpt>
      <trkpt lat="47.27482" lon="-2.35682">
        <ele>9.8000001907349</ele>
        <time>2021-04-15T10:35:02.000Z</time>
      </trkpt>
      <trkpt lat="47.27475" lon="-2.35681">
        <ele>9.3999996185303</ele>
        <time>2021-04-15T10:35:03.000Z</time>
      </trkpt>
      <trkpt lat="47.27467" lon="-2.35679">
        <ele>9</ele>
        <time>2021-04-15T10:35:04.000Z</time>
      </trkpt>
      <trkpt lat="47.2746" lon="-2.35678">
        <ele>8.3999996185303</ele>
        <time>2021-04-15T10:35:05.000Z</time>
      </trkpt>
      <trkpt lat="47.27453" lon="-2.35676">
        <ele>8</ele>
        <time>2021-04-15T10:35:06.000Z</time>
      </trkpt>
      <trkpt lat="47.27446" lon="-2.35674">
        <ele>7.5999999046326</ele>
        <time>2021-04-15T10:35:07.000Z</time>
      </trkpt>
      <trkpt lat="47.27426" lon="-2.35669">
        <ele>7.5999999046326</ele>
        <time>2021-04-15T10:35:10.000Z</time>
      </trkpt>
      <trkpt lat="47.27411" lon="-2.35663">
        <ele>7.5999999046326</ele>
        <time>2021-04-15T10:35:13.000Z</time>
      </trkpt>
      <trkpt lat="47.2741" lon="-2.35657">
        <ele>7.5999999046326</ele>
        <time>2021-04-15T10:35:14.000Z</time>
      </trkpt>
      <trkpt lat="47.2741" lon="-2.35632">
        <ele>7.5999999046326</ele>
        <time>2021-04-15T10:35:17.000Z</time>
      </trkpt>
      <trkpt lat="47.2741" lon="-2.35623">
        <ele>7.5999999046326</ele>
        <time>2021-04-15T10:35:18.000Z</time>
      </trkpt>
      <trkpt lat="47.27408" lon="-2.35598">
        <ele>7.5999999046326</ele>
        <time>2021-04-15T10:35:21.000Z</time>
      </trkpt>
      <trkpt lat="47.27406" lon="-2.3558">
        <ele>7.5999999046326</ele>
        <time>2021-04-15T10:35:23.000Z</time>
      </trkpt>
      <trkpt lat="47.27398" lon="-2.35527">
        <ele>7.5999999046326</ele>
        <time>2021-04-15T10:35:29.000Z</time>
      </trkpt>
      <trkpt lat="47.27387" lon="-2.35473">
        <ele>8</ele>
        <time>2021-04-15T10:35:36.000Z</time>
      </trkpt>
      <trkpt lat="47.27386" lon="-2.35466">
        <ele>8.3999996185303</ele>
        <time>2021-04-15T10:35:37.000Z</time>
      </trkpt>
      <trkpt lat="47.27384" lon="-2.35458">
        <ele>8.8000001907349</ele>
        <time>2021-04-15T10:35:38.000Z</time>
      </trkpt>
      <trkpt lat="47.27382" lon="-2.35451">
        <ele>9.1999998092651</ele>
        <time>2021-04-15T10:35:39.000Z</time>
      </trkpt>
      <trkpt lat="47.2738" lon="-2.35444">
        <ele>9.6000003814697</ele>
        <time>2021-04-15T10:35:40.000Z</time>
      </trkpt>
      <trkpt lat="47.27368" lon="-2.35395">
        <ele>9.6000003814697</ele>
        <time>2021-04-15T10:35:47.000Z</time>
      </trkpt>
      <trkpt lat="47.27358" lon="-2.35353">
        <ele>9.6000003814697</ele>
        <time>2021-04-15T10:35:53.000Z</time>
      </trkpt>
      <trkpt lat="47.27354" lon="-2.35339">
        <ele>10.199999809265</ele>
        <time>2021-04-15T10:35:55.000Z</time>
      </trkpt>
      <trkpt lat="47.27352" lon="-2.35333">
        <ele>10.60000038147</ele>
        <time>2021-04-15T10:35:56.000Z</time>
      </trkpt>
      <trkpt lat="47.27351" lon="-2.35326">
        <ele>11</ele>
        <time>2021-04-15T10:35:57.000Z</time>
      </trkpt>
      <trkpt lat="47.2735" lon="-2.35319">
        <ele>11.60000038147</ele>
        <time>2021-04-15T10:35:58.000Z</time>
      </trkpt>
      <trkpt lat="47.27349" lon="-2.35313">
        <ele>12</ele>
        <time>2021-04-15T10:35:59.000Z</time>
      </trkpt>
      <trkpt lat="47.27345" lon="-2.353">
        <ele>12</ele>
        <time>2021-04-15T10:36:01.000Z</time>
      </trkpt>
      <trkpt lat="47.27334" lon="-2.35251">
        <ele>12</ele>
        <time>2021-04-15T10:36:08.000Z</time>
      </trkpt>
      <trkpt lat="47.27329" lon="-2.35227">
        <ele>12</ele>
        <time>2021-04-15T10:36:11.000Z</time>
      </trkpt>
      <trkpt lat="47.27323" lon="-2.35198">
        <ele>12</ele>
        <time>2021-04-15T10:36:15.000Z</time>
      </trkpt>
      <trkpt lat="47.27318" lon="-2.35171">
        <ele>12</ele>
        <time>2021-04-15T10:36:19.000Z</time>
      </trkpt>
      <trkpt lat="47.27314" lon="-2.35158">
        <ele>12</ele>
        <time>2021-04-15T10:36:21.000Z</time>
      </trkpt>
      <trkpt lat="47.27313" lon="-2.35151">
        <ele>12.39999961853</ele>
        <time>2021-04-15T10:36:22.000Z</time>
      </trkpt>
      <trkpt lat="47.27311" lon="-2.35144">
        <ele>12.800000190735</ele>
        <time>2021-04-15T10:36:23.000Z</time>
      </trkpt>
      <trkpt lat="47.2731" lon="-2.35138">
        <ele>13.199999809265</ele>
        <time>2021-04-15T10:36:24.000Z</time>
      </trkpt>
      <trkpt lat="47.27308" lon="-2.35131">
        <ele>14</ele>
        <time>2021-04-15T10:36:25.000Z</time>
      </trkpt>
      <trkpt lat="47.27303" lon="-2.35113">
        <ele>14</ele>
        <time>2021-04-15T10:36:28.000Z</time>
      </trkpt>
      <trkpt lat="47.27296" lon="-2.35102">
        <ele>14</ele>
        <time>2021-04-15T10:36:31.000Z</time>
      </trkpt>
      <trkpt lat="47.27292" lon="-2.35105">
        <ele>14</ele>
        <time>2021-04-15T10:36:32.000Z</time>
      </trkpt>
      <trkpt lat="47.27268" lon="-2.35119">
        <ele>14</ele>
        <time>2021-04-15T10:36:37.000Z</time>
      </trkpt>
      <trkpt lat="47.27256" lon="-2.35122">
        <ele>14</ele>
        <time>2021-04-15T10:36:39.000Z</time>
      </trkpt>
      <trkpt lat="47.27246" lon="-2.35116">
        <ele>14</ele>
        <time>2021-04-15T10:36:41.000Z</time>
      </trkpt>
      <trkpt lat="47.27236" lon="-2.35096">
        <ele>14</ele>
        <time>2021-04-15T10:36:44.000Z</time>
      </trkpt>
      <trkpt lat="47.27219" lon="-2.35048">
        <ele>14</ele>
        <time>2021-04-15T10:36:51.000Z</time>
      </trkpt>
      <trkpt lat="47.27206" lon="-2.35011">
        <ele>14</ele>
        <time>2021-04-15T10:36:57.000Z</time>
      </trkpt>
      <trkpt lat="47.27204" lon="-2.35005">
        <ele>14</ele>
        <time>2021-04-15T10:36:58.000Z</time>
      </trkpt>
      <trkpt lat="47.27188" lon="-2.34966">
        <ele>14</ele>
        <time>2021-04-15T10:37:04.000Z</time>
      </trkpt>
      <trkpt lat="47.27179" lon="-2.34934">
        <ele>14</ele>
        <time>2021-04-15T10:37:09.000Z</time>
      </trkpt>
      <trkpt lat="47.27178" lon="-2.34928">
        <ele>14</ele>
        <time>2021-04-15T10:37:10.000Z</time>
      </trkpt>
      <trkpt lat="47.27174" lon="-2.34914">
        <ele>13.199999809265</ele>
        <time>2021-04-15T10:37:14.000Z</time>
      </trkpt>
      <trkpt lat="47.27174" lon="-2.34912">
        <ele>12.60000038147</ele>
        <time>2021-04-15T10:37:15.000Z</time>
      </trkpt>
      <trkpt lat="47.27175" lon="-2.34912">
        <ele>12.199999809265</ele>
        <time>2021-04-15T10:37:16.000Z</time>
      </trkpt>
      <trkpt lat="47.27175" lon="-2.34911">
        <ele>11.800000190735</ele>
        <time>2021-04-15T10:37:17.000Z</time>
      </trkpt>
      <trkpt lat="47.27175" lon="-2.34909">
        <ele>11.800000190735</ele>
        <time>2021-04-15T10:37:19.000Z</time>
      </trkpt>
      <trkpt lat="47.27176" lon="-2.34908">
        <ele>11.800000190735</ele>
        <time>2021-04-15T10:37:21.000Z</time>
      </trkpt>
      <trkpt lat="47.2718" lon="-2.34905">
        <ele>11.800000190735</ele>
        <time>2021-04-15T10:37:46.000Z</time>
      </trkpt>
      <trkpt lat="47.27184" lon="-2.34902">
        <ele>11.800000190735</ele>
        <time>2021-04-15T10:37:48.000Z</time>
      </trkpt>
      <trkpt lat="47.27192" lon="-2.34903">
        <ele>11.800000190735</ele>
        <time>2021-04-15T10:37:55.000Z</time>
      </trkpt>
      <trkpt lat="47.27192" lon="-2.34903">
        <ele>11.800000190735</ele>
        <time>2021-04-15T10:37:56.000Z</time>
      </trkpt>
      <trkpt lat="47.27187" lon="-2.34906">
        <ele>7.8000001907349</ele>
        <time>2021-04-15T10:58:22.000Z</time>
      </trkpt>
      <trkpt lat="47.27185" lon="-2.34908">
        <ele>7.8000001907349</ele>
        <time>2021-04-15T10:58:24.000Z</time>
      </trkpt>
      <trkpt lat="47.27179" lon="-2.34911">
        <ele>7.8000001907349</ele>
        <time>2021-04-15T10:58:28.000Z</time>
      </trkpt>
      <trkpt lat="47.2718" lon="-2.34911">
        <ele>7.8000001907349</ele>
        <time>2021-04-15T10:58:29.000Z</time>
      </trkpt>
      <trkpt lat="47.27173" lon="-2.34914">
        <ele>7.8000001907349</ele>
        <time>2021-04-15T10:58:48.000Z</time>
      </trkpt>
      <trkpt lat="47.27168" lon="-2.34901">
        <ele>7.8000001907349</ele>
        <time>2021-04-15T10:58:52.000Z</time>
      </trkpt>
      <trkpt lat="47.27165" lon="-2.34889">
        <ele>7.8000001907349</ele>
        <time>2021-04-15T10:58:54.000Z</time>
      </trkpt>
      <trkpt lat="47.27159" lon="-2.3487">
        <ele>7.8000001907349</ele>
        <time>2021-04-15T10:58:57.000Z</time>
      </trkpt>
      <trkpt lat="47.2715" lon="-2.34829">
        <ele>7.8000001907349</ele>
        <time>2021-04-15T10:59:03.000Z</time>
      </trkpt>
      <trkpt lat="47.27139" lon="-2.34772">
        <ele>7.8000001907349</ele>
        <time>2021-04-15T10:59:11.000Z</time>
      </trkpt>
      <trkpt lat="47.27135" lon="-2.3475">
        <ele>7.8000001907349</ele>
        <time>2021-04-15T10:59:14.000Z</time>
      </trkpt>
      <trkpt lat="47.2713" lon="-2.34729">
        <ele>7.8000001907349</ele>
        <time>2021-04-15T10:59:17.000Z</time>
      </trkpt>
      <trkpt lat="47.27122" lon="-2.34693">
        <ele>7.8000001907349</ele>
        <time>2021-04-15T10:59:22.000Z</time>
      </trkpt>
      <trkpt lat="47.27118" lon="-2.34679">
        <ele>7.8000001907349</ele>
        <time>2021-04-15T10:59:24.000Z</time>
      </trkpt>
      <trkpt lat="47.27109" lon="-2.34634">
        <ele>7.8000001907349</ele>
        <time>2021-04-15T10:59:30.000Z</time>
      </trkpt>
      <trkpt lat="47.27107" lon="-2.34628">
        <ele>7.8000001907349</ele>
        <time>2021-04-15T10:59:31.000Z</time>
      </trkpt>
      <trkpt lat="47.27095" lon="-2.34581">
        <ele>7.8000001907349</ele>
        <time>2021-04-15T10:59:39.000Z</time>
      </trkpt>
      <trkpt lat="47.27082" lon="-2.34523">
        <ele>7.8000001907349</ele>
        <time>2021-04-15T10:59:47.000Z</time>
      </trkpt>
      <trkpt lat="47.2707" lon="-2.34478">
        <ele>7.8000001907349</ele>
        <time>2021-04-15T10:59:53.000Z</time>
      </trkpt>
      <trkpt lat="47.27059" lon="-2.34427">
        <ele>7.8000001907349</ele>
        <time>2021-04-15T11:00:00.000Z</time>
      </trkpt>
      <trkpt lat="47.27048" lon="-2.34378">
        <ele>7.8000001907349</ele>
        <time>2021-04-15T11:00:07.000Z</time>
      </trkpt>
      <trkpt lat="47.27038" lon="-2.34333">
        <ele>7.8000001907349</ele>
        <time>2021-04-15T11:00:14.000Z</time>
      </trkpt>
      <trkpt lat="47.27033" lon="-2.34326">
        <ele>7.8000001907349</ele>
        <time>2021-04-15T11:00:16.000Z</time>
      </trkpt>
      <trkpt lat="47.27029" lon="-2.34324">
        <ele>7.8000001907349</ele>
        <time>2021-04-15T11:00:17.000Z</time>
      </trkpt>
      <trkpt lat="47.2701" lon="-2.34326">
        <ele>7.8000001907349</ele>
        <time>2021-04-15T11:00:22.000Z</time>
      </trkpt>
      <trkpt lat="47.27002" lon="-2.34322">
        <ele>7.8000001907349</ele>
        <time>2021-04-15T11:00:25.000Z</time>
      </trkpt>
      <trkpt lat="47.27002" lon="-2.3432">
        <ele>7.1999998092651</ele>
        <time>2021-04-15T11:00:26.000Z</time>
      </trkpt>
      <trkpt lat="47.27003" lon="-2.34319">
        <ele>6.8000001907349</ele>
        <time>2021-04-15T11:00:27.000Z</time>
      </trkpt>
      <trkpt lat="47.27005" lon="-2.34319">
        <ele>6.4000000953674</ele>
        <time>2021-04-15T11:00:28.000Z</time>
      </trkpt>
      <trkpt lat="47.27007" lon="-2.34317">
        <ele>6</ele>
        <time>2021-04-15T11:00:29.000Z</time>
      </trkpt>
      <trkpt lat="47.27007" lon="-2.34314">
        <ele>5.5999999046326</ele>
        <time>2021-04-15T11:00:30.000Z</time>
      </trkpt>
      <trkpt lat="47.27006" lon="-2.34305">
        <ele>5.5999999046326</ele>
        <time>2021-04-15T11:00:32.000Z</time>
      </trkpt>
      <trkpt lat="47.27005" lon="-2.34286">
        <ele>5.5999999046326</ele>
        <time>2021-04-15T11:00:35.000Z</time>
      </trkpt>
      <trkpt lat="47.27004" lon="-2.34279">
        <ele>5.5999999046326</ele>
        <time>2021-04-15T11:00:36.000Z</time>
      </trkpt>
      <trkpt lat="47.27002" lon="-2.34272">
        <ele>5.5999999046326</ele>
        <time>2021-04-15T11:00:37.000Z</time>
      </trkpt>
      <trkpt lat="47.26991" lon="-2.34221">
        <ele>5.5999999046326</ele>
        <time>2021-04-15T11:00:44.000Z</time>
      </trkpt>
      <trkpt lat="47.26978" lon="-2.34162">
        <ele>5.5999999046326</ele>
        <time>2021-04-15T11:00:52.000Z</time>
      </trkpt>
      <trkpt lat="47.26966" lon="-2.34111">
        <ele>5.5999999046326</ele>
        <time>2021-04-15T11:00:59.000Z</time>
      </trkpt>
      <trkpt lat="47.26951" lon="-2.34044">
        <ele>5.5999999046326</ele>
        <time>2021-04-15T11:01:08.000Z</time>
      </trkpt>
      <trkpt lat="47.26941" lon="-2.34">
        <ele>5.5999999046326</ele>
        <time>2021-04-15T11:01:14.000Z</time>
      </trkpt>
      <trkpt lat="47.26926" lon="-2.3394">
        <ele>5.5999999046326</ele>
        <time>2021-04-15T11:01:22.000Z</time>
      </trkpt>
      <trkpt lat="47.26915" lon="-2.33888">
        <ele>5.5999999046326</ele>
        <time>2021-04-15T11:01:29.000Z</time>
      </trkpt>
      <trkpt lat="47.26911" lon="-2.33874">
        <ele>5.5999999046326</ele>
        <time>2021-04-15T11:01:31.000Z</time>
      </trkpt>
      <trkpt lat="47.26905" lon="-2.33844">
        <ele>5.5999999046326</ele>
        <time>2021-04-15T11:01:35.000Z</time>
      </trkpt>
      <trkpt lat="47.26902" lon="-2.3383">
        <ele>5.5999999046326</ele>
        <time>2021-04-15T11:01:37.000Z</time>
      </trkpt>
      <trkpt lat="47.26896" lon="-2.33809">
        <ele>5.5999999046326</ele>
        <time>2021-04-15T11:01:40.000Z</time>
      </trkpt>
      <trkpt lat="47.2689" lon="-2.33797">
        <ele>5.5999999046326</ele>
        <time>2021-04-15T11:01:42.000Z</time>
      </trkpt>
      <trkpt lat="47.26881" lon="-2.3379">
        <ele>5.5999999046326</ele>
        <time>2021-04-15T11:01:44.000Z</time>
      </trkpt>
      <trkpt lat="47.26875" lon="-2.33787">
        <ele>5.1999998092651</ele>
        <time>2021-04-15T11:01:45.000Z</time>
      </trkpt>
      <trkpt lat="47.2687" lon="-2.33785">
        <ele>4.8000001907349</ele>
        <time>2021-04-15T11:01:46.000Z</time>
      </trkpt>
      <trkpt lat="47.26865" lon="-2.33783">
        <ele>4.1999998092651</ele>
        <time>2021-04-15T11:01:47.000Z</time>
      </trkpt>
      <trkpt lat="47.26859" lon="-2.33781">
        <ele>3.7999999523163</ele>
        <time>2021-04-15T11:01:48.000Z</time>
      </trkpt>
      <trkpt lat="47.26854" lon="-2.33779">
        <ele>3.4000000953674</ele>
        <time>2021-04-15T11:01:49.000Z</time>
      </trkpt>
      <trkpt lat="47.26849" lon="-2.33777">
        <ele>3.4000000953674</ele>
        <time>2021-04-15T11:01:50.000Z</time>
      </trkpt>
      <trkpt lat="47.26841" lon="-2.33773">
        <ele>3.4000000953674</ele>
        <time>2021-04-15T11:01:52.000Z</time>
      </trkpt>
      <trkpt lat="47.2683" lon="-2.33763">
        <ele>3.4000000953674</ele>
        <time>2021-04-15T11:01:55.000Z</time>
      </trkpt>
      <trkpt lat="47.26826" lon="-2.33758">
        <ele>3.4000000953674</ele>
        <time>2021-04-15T11:01:56.000Z</time>
      </trkpt>
      <trkpt lat="47.26803" lon="-2.33731">
        <ele>3.4000000953674</ele>
        <time>2021-04-15T11:02:02.000Z</time>
      </trkpt>
      <trkpt lat="47.26779" lon="-2.33704">
        <ele>3.4000000953674</ele>
        <time>2021-04-15T11:02:08.000Z</time>
      </trkpt>
      <trkpt lat="47.26776" lon="-2.33681">
        <ele>3.4000000953674</ele>
        <time>2021-04-15T11:02:11.000Z</time>
      </trkpt>
      <trkpt lat="47.26776" lon="-2.33672">
        <ele>3.4000000953674</ele>
        <time>2021-04-15T11:02:12.000Z</time>
      </trkpt>
      <trkpt lat="47.26776" lon="-2.33617">
        <ele>3.4000000953674</ele>
        <time>2021-04-15T11:02:18.000Z</time>
      </trkpt>
      <trkpt lat="47.26776" lon="-2.33598">
        <ele>3</ele>
        <time>2021-04-15T11:02:20.000Z</time>
      </trkpt>
      <trkpt lat="47.26777" lon="-2.33588">
        <ele>2.5999999046326</ele>
        <time>2021-04-15T11:02:21.000Z</time>
      </trkpt>
      <trkpt lat="47.26777" lon="-2.33578">
        <ele>2</ele>
        <time>2021-04-15T11:02:22.000Z</time>
      </trkpt>
      <trkpt lat="47.26777" lon="-2.33568">
        <ele>1.6000000238419</ele>
        <time>2021-04-15T11:02:23.000Z</time>
      </trkpt>
      <trkpt lat="47.26776" lon="-2.33558">
        <ele>1.2000000476837</ele>
        <time>2021-04-15T11:02:24.000Z</time>
      </trkpt>
      <trkpt lat="47.26775" lon="-2.33548">
        <ele>1.2000000476837</ele>
        <time>2021-04-15T11:02:25.000Z</time>
      </trkpt>
      <trkpt lat="47.26774" lon="-2.33538">
        <ele>1.2000000476837</ele>
        <time>2021-04-15T11:02:26.000Z</time>
      </trkpt>
      <trkpt lat="47.26769" lon="-2.3351">
        <ele>1.2000000476837</ele>
        <time>2021-04-15T11:02:29.000Z</time>
      </trkpt>
      <trkpt lat="47.26761" lon="-2.33461">
        <ele>1.2000000476837</ele>
        <time>2021-04-15T11:02:35.000Z</time>
      </trkpt>
      <trkpt lat="47.26754" lon="-2.3341">
        <ele>1.2000000476837</ele>
        <time>2021-04-15T11:02:41.000Z</time>
      </trkpt>
      <trkpt lat="47.26747" lon="-2.33351">
        <ele>1.2000000476837</ele>
        <time>2021-04-15T11:02:48.000Z</time>
      </trkpt>
      <trkpt lat="47.26745" lon="-2.33335">
        <ele>0.80000001192093</ele>
        <time>2021-04-15T11:02:50.000Z</time>
      </trkpt>
      <trkpt lat="47.26743" lon="-2.33327">
        <ele>0.40000000596046</ele>
        <time>2021-04-15T11:02:51.000Z</time>
      </trkpt>
      <trkpt lat="47.26741" lon="-2.33319">
        <ele>4.6</ele>
        <time>2021-04-15T11:02:52.000Z</time>
      </trkpt>
      <trkpt lat="47.26739" lon="-2.33311">
        <ele>-0.40000000596046</ele>
        <time>2021-04-15T11:02:53.000Z</time>
      </trkpt>
      <trkpt lat="47.26736" lon="-2.33303">
        <ele>-0.80000001192093</ele>
        <time>2021-04-15T11:02:54.000Z</time>
      </trkpt>
      <trkpt lat="47.26731" lon="-2.33288">
        <ele>-0.80000001192093</ele>
        <time>2021-04-15T11:02:56.000Z</time>
      </trkpt>
      <trkpt lat="47.26729" lon="-2.33273">
        <ele>-0.80000001192093</ele>
        <time>2021-04-15T11:02:58.000Z</time>
      </trkpt>
      <trkpt lat="47.26729" lon="-2.33264">
        <ele>-0.80000001192093</ele>
        <time>2021-04-15T11:02:59.000Z</time>
      </trkpt>
      <trkpt lat="47.26735" lon="-2.3323">
        <ele>-0.80000001192093</ele>
        <time>2021-04-15T11:03:03.000Z</time>
      </trkpt>
      <trkpt lat="47.26742" lon="-2.33208">
        <ele>-0.80000001192093</ele>
        <time>2021-04-15T11:03:06.000Z</time>
      </trkpt>
      <trkpt lat="47.26749" lon="-2.33187">
        <ele>-0.80000001192093</ele>
        <time>2021-04-15T11:03:09.000Z</time>
      </trkpt>
      <trkpt lat="47.26765" lon="-2.33133">
        <ele>-0.80000001192093</ele>
        <time>2021-04-15T11:03:16.000Z</time>
      </trkpt>
      <trkpt lat="47.26766" lon="-2.33125">
        <ele>-0.80000001192093</ele>
        <time>2021-04-15T11:03:17.000Z</time>
      </trkpt>
      <trkpt lat="47.26763" lon="-2.33102">
        <ele>-0.80000001192093</ele>
        <time>2021-04-15T11:03:20.000Z</time>
      </trkpt>
      <trkpt lat="47.26751" lon="-2.33086">
        <ele>-0.80000001192093</ele>
        <time>2021-04-15T11:03:23.000Z</time>
      </trkpt>
      <trkpt lat="47.2674" lon="-2.33094">
        <ele>-0.80000001192093</ele>
        <time>2021-04-15T11:03:26.000Z</time>
      </trkpt>
      <trkpt lat="47.26736" lon="-2.33098">
        <ele>-0.80000001192093</ele>
        <time>2021-04-15T11:03:27.000Z</time>
      </trkpt>
      <trkpt lat="47.26705" lon="-2.3313">
        <ele>-0.80000001192093</ele>
        <time>2021-04-15T11:03:34.000Z</time>
      </trkpt>
      <trkpt lat="47.2667" lon="-2.33168">
        <ele>-0.80000001192093</ele>
        <time>2021-04-15T11:03:42.000Z</time>
      </trkpt>
      <trkpt lat="47.26647" lon="-2.3319">
        <ele>-0.80000001192093</ele>
        <time>2021-04-15T11:03:47.000Z</time>
      </trkpt>
      <trkpt lat="47.26637" lon="-2.33199">
        <ele>-0.80000001192093</ele>
        <time>2021-04-15T11:03:49.000Z</time>
      </trkpt>
      <trkpt lat="47.26608" lon="-2.33229">
        <ele>-0.80000001192093</ele>
        <time>2021-04-15T11:03:55.000Z</time>
      </trkpt>
      <trkpt lat="47.26571" lon="-2.33266">
        <ele>-0.80000001192093</ele>
        <time>2021-04-15T11:04:03.000Z</time>
      </trkpt>
      <trkpt lat="47.26539" lon="-2.333">
        <ele>-0.80000001192093</ele>
        <time>2021-04-15T11:04:11.000Z</time>
      </trkpt>
      <trkpt lat="47.26535" lon="-2.33298">
        <ele>-0.80000001192093</ele>
        <time>2021-04-15T11:04:13.000Z</time>
      </trkpt>
      <trkpt lat="47.26534" lon="-2.33296">
        <ele>-0.80000001192093</ele>
        <time>2021-04-15T11:04:14.000Z</time>
      </trkpt>
      <trkpt lat="47.26525" lon="-2.33283">
        <ele>-0.80000001192093</ele>
        <time>2021-04-15T11:04:18.000Z</time>
      </trkpt>
      <trkpt lat="47.26521" lon="-2.33285">
        <ele>-0.80000001192093</ele>
        <time>2021-04-15T11:04:19.000Z</time>
      </trkpt>
      <trkpt lat="47.26505" lon="-2.33282">
        <ele>-0.80000001192093</ele>
        <time>2021-04-15T11:04:23.000Z</time>
      </trkpt>
      <trkpt lat="47.26493" lon="-2.3328">
        <ele>-0.80000001192093</ele>
        <time>2021-04-15T11:04:26.000Z</time>
      </trkpt>
      <trkpt lat="47.26489" lon="-2.3328">
        <ele>-0.80000001192093</ele>
        <time>2021-04-15T11:04:27.000Z</time>
      </trkpt>
      <trkpt lat="47.26471" lon="-2.33279">
        <ele>-0.80000001192093</ele>
        <time>2021-04-15T11:04:31.000Z</time>
      </trkpt>
      <trkpt lat="47.26466" lon="-2.33276">
        <ele>-0.80000001192093</ele>
        <time>2021-04-15T11:04:32.000Z</time>
      </trkpt>
      <trkpt lat="47.26447" lon="-2.33272">
        <ele>-0.80000001192093</ele>
        <time>2021-04-15T11:04:36.000Z</time>
      </trkpt>
      <trkpt lat="47.26436" lon="-2.33271">
        <ele>-0.80000001192093</ele>
        <time>2021-04-15T11:04:38.000Z</time>
      </trkpt>
      <trkpt lat="47.26394" lon="-2.33264">
        <ele>-0.80000001192093</ele>
        <time>2021-04-15T11:04:46.000Z</time>
      </trkpt>
      <trkpt lat="47.26389" lon="-2.3326">
        <ele>-0.80000001192093</ele>
        <time>2021-04-15T11:04:47.000Z</time>
      </trkpt>
      <trkpt lat="47.26382" lon="-2.33249">
        <ele>-0.80000001192093</ele>
        <time>2021-04-15T11:04:49.000Z</time>
      </trkpt>
      <trkpt lat="47.26379" lon="-2.33225">
        <ele>-0.80000001192093</ele>
        <time>2021-04-15T11:04:52.000Z</time>
      </trkpt>
      <trkpt lat="47.26379" lon="-2.33216">
        <ele>-0.80000001192093</ele>
        <time>2021-04-15T11:04:53.000Z</time>
      </trkpt>
      <trkpt lat="47.26375" lon="-2.33161">
        <ele>-0.80000001192093</ele>
        <time>2021-04-15T11:05:00.000Z</time>
      </trkpt>
      <trkpt lat="47.26372" lon="-2.33096">
        <ele>-0.80000001192093</ele>
        <time>2021-04-15T11:05:08.000Z</time>
      </trkpt>
      <trkpt lat="47.26369" lon="-2.33041">
        <ele>-0.80000001192093</ele>
        <time>2021-04-15T11:05:15.000Z</time>
      </trkpt>
      <trkpt lat="47.26365" lon="-2.32987">
        <ele>-0.80000001192093</ele>
        <time>2021-04-15T11:05:22.000Z</time>
      </trkpt>
      <trkpt lat="47.26354" lon="-2.3297">
        <ele>-0.80000001192093</ele>
        <time>2021-04-15T11:05:25.000Z</time>
      </trkpt>
      <trkpt lat="47.26343" lon="-2.3295">
        <ele>-0.80000001192093</ele>
        <time>2021-04-15T11:05:28.000Z</time>
      </trkpt>
      <trkpt lat="47.26339" lon="-2.32935">
        <ele>-0.80000001192093</ele>
        <time>2021-04-15T11:05:30.000Z</time>
      </trkpt>
      <trkpt lat="47.26329" lon="-2.32906">
        <ele>-0.80000001192093</ele>
        <time>2021-04-15T11:05:34.000Z</time>
      </trkpt>
      <trkpt lat="47.26314" lon="-2.32867">
        <ele>-0.80000001192093</ele>
        <time>2021-04-15T11:05:40.000Z</time>
      </trkpt>
      <trkpt lat="47.263" lon="-2.32857">
        <ele>-0.80000001192093</ele>
        <time>2021-04-15T11:05:43.000Z</time>
      </trkpt>
      <trkpt lat="47.26295" lon="-2.32855">
        <ele>-0.80000001192093</ele>
        <time>2021-04-15T11:05:44.000Z</time>
      </trkpt>
      <trkpt lat="47.26291" lon="-2.32851">
        <ele>-0.80000001192093</ele>
        <time>2021-04-15T11:05:45.000Z</time>
      </trkpt>
      <trkpt lat="47.26284" lon="-2.32839">
        <ele>-0.80000001192093</ele>
        <time>2021-04-15T11:05:47.000Z</time>
      </trkpt>
      <trkpt lat="47.26276" lon="-2.32811">
        <ele>-0.80000001192093</ele>
        <time>2021-04-15T11:05:51.000Z</time>
      </trkpt>
      <trkpt lat="47.26274" lon="-2.32804">
        <ele>-0.80000001192093</ele>
        <time>2021-04-15T11:05:52.000Z</time>
      </trkpt>
      <trkpt lat="47.26271" lon="-2.32797">
        <ele>-0.80000001192093</ele>
        <time>2021-04-15T11:05:53.000Z</time>
      </trkpt>
      <trkpt lat="47.2626" lon="-2.32772">
        <ele>-0.80000001192093</ele>
        <time>2021-04-15T11:05:57.000Z</time>
      </trkpt>
      <trkpt lat="47.26254" lon="-2.3276">
        <ele>-0.80000001192093</ele>
        <time>2021-04-15T11:05:59.000Z</time>
      </trkpt>
      <trkpt lat="47.26237" lon="-2.32734">
        <ele>-0.80000001192093</ele>
        <time>2021-04-15T11:06:04.000Z</time>
      </trkpt>
      <trkpt lat="47.2621" lon="-2.32693">
        <ele>-0.80000001192093</ele>
        <time>2021-04-15T11:06:12.000Z</time>
      </trkpt>
      <trkpt lat="47.26199" lon="-2.3268">
        <ele>-0.80000001192093</ele>
        <time>2021-04-15T11:06:15.000Z</time>
      </trkpt>
      <trkpt lat="47.2619" lon="-2.32671">
        <ele>-0.40000000596046</ele>
        <time>2021-04-15T11:06:17.000Z</time>
      </trkpt>
      <trkpt lat="47.26186" lon="-2.32667">
        <ele>5</ele>
        <time>2021-04-15T11:06:18.000Z</time>
      </trkpt>
      <trkpt lat="47.26181" lon="-2.32663">
        <ele>0.40000000596046</ele>
        <time>2021-04-15T11:06:19.000Z</time>
      </trkpt>
      <trkpt lat="47.26176" lon="-2.3266">
        <ele>1</ele>
        <time>2021-04-15T11:06:20.000Z</time>
      </trkpt>
      <trkpt lat="47.26172" lon="-2.32656">
        <ele>1.3999999761581</ele>
        <time>2021-04-15T11:06:21.000Z</time>
      </trkpt>
      <trkpt lat="47.26157" lon="-2.32648">
        <ele>1.3999999761581</ele>
        <time>2021-04-15T11:06:24.000Z</time>
      </trkpt>
      <trkpt lat="47.26121" lon="-2.32638">
        <ele>1.3999999761581</ele>
        <time>2021-04-15T11:06:31.000Z</time>
      </trkpt>
      <trkpt lat="47.26115" lon="-2.32638">
        <ele>1.3999999761581</ele>
        <time>2021-04-15T11:06:32.000Z</time>
      </trkpt>
      <trkpt lat="47.26088" lon="-2.32641">
        <ele>1.3999999761581</ele>
        <time>2021-04-15T11:06:37.000Z</time>
      </trkpt>
      <trkpt lat="47.26043" lon="-2.32649">
        <ele>1.3999999761581</ele>
        <time>2021-04-15T11:06:45.000Z</time>
      </trkpt>
      <trkpt lat="47.26006" lon="-2.32654">
        <ele>1</ele>
        <time>2021-04-15T11:06:51.000Z</time>
      </trkpt>
      <trkpt lat="47.26" lon="-2.32656">
        <ele>0.60000002384186</ele>
        <time>2021-04-15T11:06:52.000Z</time>
      </trkpt>
      <trkpt lat="47.25994" lon="-2.32657">
        <ele>0.20000000298023</ele>
        <time>2021-04-15T11:06:53.000Z</time>
      </trkpt>
      <trkpt lat="47.25988" lon="-2.32657">
        <ele>-0.20000000298023</ele>
        <time>2021-04-15T11:06:54.000Z</time>
      </trkpt>
      <trkpt lat="47.25982" lon="-2.32657">
        <ele>-0.60000002384186</ele>
        <time>2021-04-15T11:06:55.000Z</time>
      </trkpt>
      <trkpt lat="47.25963" lon="-2.32656">
        <ele>-0.60000002384186</ele>
        <time>2021-04-15T11:06:58.000Z</time>
      </trkpt>
      <trkpt lat="47.25952" lon="-2.32654">
        <ele>-0.60000002384186</ele>
        <time>2021-04-15T11:07:00.000Z</time>
      </trkpt>
      <trkpt lat="47.25943" lon="-2.32646">
        <ele>-0.60000002384186</ele>
        <time>2021-04-15T11:07:02.000Z</time>
      </trkpt>
      <trkpt lat="47.25931" lon="-2.32629">
        <ele>-0.60000002384186</ele>
        <time>2021-04-15T11:07:05.000Z</time>
      </trkpt>
      <trkpt lat="47.25922" lon="-2.32618">
        <ele>-0.60000002384186</ele>
        <time>2021-04-15T11:07:07.000Z</time>
      </trkpt>
      <trkpt lat="47.25892" lon="-2.32581">
        <ele>-0.60000002384186</ele>
        <time>2021-04-15T11:07:14.000Z</time>
      </trkpt>
      <trkpt lat="47.25887" lon="-2.32579">
        <ele>-0.60000002384186</ele>
        <time>2021-04-15T11:07:15.000Z</time>
      </trkpt>
      <trkpt lat="47.25876" lon="-2.32563">
        <ele>-0.60000002384186</ele>
        <time>2021-04-15T11:07:18.000Z</time>
      </trkpt>
      <trkpt lat="47.25872" lon="-2.32558">
        <ele>-0.60000002384186</ele>
        <time>2021-04-15T11:07:19.000Z</time>
      </trkpt>
      <trkpt lat="47.25856" lon="-2.32538">
        <ele>-0.60000002384186</ele>
        <time>2021-04-15T11:07:23.000Z</time>
      </trkpt>
      <trkpt lat="47.25829" lon="-2.32502">
        <ele>-0.60000002384186</ele>
        <time>2021-04-15T11:07:30.000Z</time>
      </trkpt>
      <trkpt lat="47.25827" lon="-2.32497">
        <ele>-0.60000002384186</ele>
        <time>2021-04-15T11:07:31.000Z</time>
      </trkpt>
      <trkpt lat="47.25822" lon="-2.32481">
        <ele>-0.60000002384186</ele>
        <time>2021-04-15T11:07:34.000Z</time>
      </trkpt>
      <trkpt lat="47.25831" lon="-2.32479">
        <ele>-0.60000002384186</ele>
        <time>2021-04-15T11:07:37.000Z</time>
      </trkpt>
      <trkpt lat="47.25835" lon="-2.32481">
        <ele>-0.60000002384186</ele>
        <time>2021-04-15T11:07:38.000Z</time>
      </trkpt>
      <trkpt lat="47.2584" lon="-2.32481">
        <ele>-0.60000002384186</ele>
        <time>2021-04-15T11:07:39.000Z</time>
      </trkpt>
      <trkpt lat="47.25855" lon="-2.32482">
        <ele>-0.60000002384186</ele>
        <time>2021-04-15T11:07:42.000Z</time>
      </trkpt>
      <trkpt lat="47.25878" lon="-2.32479">
        <ele>-0.60000002384186</ele>
        <time>2021-04-15T11:07:47.000Z</time>
      </trkpt>
      <trkpt lat="47.25882" lon="-2.32475">
        <ele>-0.60000002384186</ele>
        <time>2021-04-15T11:07:48.000Z</time>
      </trkpt>
      <trkpt lat="47.25888" lon="-2.32462">
        <ele>-0.60000002384186</ele>
        <time>2021-04-15T11:07:51.000Z</time>
      </trkpt>
      <trkpt lat="47.25903" lon="-2.32444">
        <ele>-0.60000002384186</ele>
        <time>2021-04-15T11:07:55.000Z</time>
      </trkpt>
      <trkpt lat="47.25927" lon="-2.32414">
        <ele>-0.60000002384186</ele>
        <time>2021-04-15T11:08:01.000Z</time>
      </trkpt>
      <trkpt lat="47.25959" lon="-2.32373">
        <ele>-0.60000002384186</ele>
        <time>2021-04-15T11:08:09.000Z</time>
      </trkpt>
      <trkpt lat="47.25988" lon="-2.32339">
        <ele>-0.60000002384186</ele>
        <time>2021-04-15T11:08:16.000Z</time>
      </trkpt>
      <trkpt lat="47.26016" lon="-2.32304">
        <ele>-0.60000002384186</ele>
        <time>2021-04-15T11:08:23.000Z</time>
      </trkpt>
      <trkpt lat="47.26048" lon="-2.32266">
        <ele>-0.60000002384186</ele>
        <time>2021-04-15T11:08:31.000Z</time>
      </trkpt>
      <trkpt lat="47.26066" lon="-2.32247">
        <ele>-0.60000002384186</ele>
        <time>2021-04-15T11:08:35.000Z</time>
      </trkpt>
      <trkpt lat="47.26075" lon="-2.32238">
        <ele>-0.60000002384186</ele>
        <time>2021-04-15T11:08:37.000Z</time>
      </trkpt>
      <trkpt lat="47.26079" lon="-2.32232">
        <ele>-0.60000002384186</ele>
        <time>2021-04-15T11:08:38.000Z</time>
      </trkpt>
      <trkpt lat="47.26098" lon="-2.32201">
        <ele>-0.60000002384186</ele>
        <time>2021-04-15T11:08:43.000Z</time>
      </trkpt>
      <trkpt lat="47.26108" lon="-2.32181">
        <ele>-0.60000002384186</ele>
        <time>2021-04-15T11:08:46.000Z</time>
      </trkpt>
      <trkpt lat="47.26116" lon="-2.32159">
        <ele>-0.60000002384186</ele>
        <time>2021-04-15T11:08:49.000Z</time>
      </trkpt>
      <trkpt lat="47.26133" lon="-2.32111">
        <ele>-0.60000002384186</ele>
        <time>2021-04-15T11:08:56.000Z</time>
      </trkpt>
      <trkpt lat="47.26148" lon="-2.32059">
        <ele>-0.60000002384186</ele>
        <time>2021-04-15T11:09:03.000Z</time>
      </trkpt>
      <trkpt lat="47.2615" lon="-2.32052">
        <ele>-0.60000002384186</ele>
        <time>2021-04-15T11:09:04.000Z</time>
      </trkpt>
      <trkpt lat="47.26159" lon="-2.32025">
        <ele>-0.60000002384186</ele>
        <time>2021-04-15T11:09:08.000Z</time>
      </trkpt>
      <trkpt lat="47.26165" lon="-2.32016">
        <ele>-0.60000002384186</ele>
        <time>2021-04-15T11:09:10.000Z</time>
      </trkpt>
      <trkpt lat="47.26176" lon="-2.32016">
        <ele>-0.60000002384186</ele>
        <time>2021-04-15T11:09:13.000Z</time>
      </trkpt>
      <trkpt lat="47.26185" lon="-2.32019">
        <ele>-0.60000002384186</ele>
        <time>2021-04-15T11:09:16.000Z</time>
      </trkpt>
      <trkpt lat="47.2619" lon="-2.32021">
        <ele>-0.60000002384186</ele>
        <time>2021-04-15T11:09:18.000Z</time>
      </trkpt>
      <trkpt lat="47.26195" lon="-2.32019">
        <ele>-1</ele>
        <time>2021-04-15T11:09:20.000Z</time>
      </trkpt>
      <trkpt lat="47.26196" lon="-2.32014">
        <ele>-1.3999999761581</ele>
        <time>2021-04-15T11:09:21.000Z</time>
      </trkpt>
      <trkpt lat="47.26197" lon="-2.3201">
        <ele>-1.7999999523163</ele>
        <time>2021-04-15T11:09:22.000Z</time>
      </trkpt>
      <trkpt lat="47.26198" lon="-2.32006">
        <ele>-2.2000000476837</ele>
        <time>2021-04-15T11:09:23.000Z</time>
      </trkpt>
      <trkpt lat="47.26199" lon="-2.32005">
        <ele>-2.5999999046326</ele>
        <time>2021-04-15T11:09:24.000Z</time>
      </trkpt>
      <trkpt lat="47.26203" lon="-2.31999">
        <ele>-2.5999999046326</ele>
        <time>2021-04-15T11:09:26.000Z</time>
      </trkpt>
      <trkpt lat="47.26215" lon="-2.3198">
        <ele>-2.5999999046326</ele>
        <time>2021-04-15T11:09:31.000Z</time>
      </trkpt>
      <trkpt lat="47.26219" lon="-2.31974">
        <ele>-2.5999999046326</ele>
        <time>2021-04-15T11:09:33.000Z</time>
      </trkpt>
      <trkpt lat="47.26225" lon="-2.31971">
        <ele>-2.5999999046326</ele>
        <time>2021-04-15T11:09:35.000Z</time>
      </trkpt>
      <trkpt lat="47.26234" lon="-2.31956">
        <ele>-2.5999999046326</ele>
        <time>2021-04-15T11:09:38.000Z</time>
      </trkpt>
      <trkpt lat="47.26237" lon="-2.31951">
        <ele>-2.5999999046326</ele>
        <time>2021-04-15T11:09:39.000Z</time>
      </trkpt>
      <trkpt lat="47.26241" lon="-2.31946">
        <ele>-2.5999999046326</ele>
        <time>2021-04-15T11:09:40.000Z</time>
      </trkpt>
      <trkpt lat="47.26254" lon="-2.31929">
        <ele>-2.5999999046326</ele>
        <time>2021-04-15T11:09:44.000Z</time>
      </trkpt>
      <trkpt lat="47.2627" lon="-2.31905">
        <ele>-2.5999999046326</ele>
        <time>2021-04-15T11:09:49.000Z</time>
      </trkpt>
      <trkpt lat="47.26275" lon="-2.31901">
        <ele>-2.5999999046326</ele>
        <time>2021-04-15T11:09:50.000Z</time>
      </trkpt>
      <trkpt lat="47.26292" lon="-2.31882">
        <ele>-2.5999999046326</ele>
        <time>2021-04-15T11:09:55.000Z</time>
      </trkpt>
      <trkpt lat="47.26293" lon="-2.31876">
        <ele>-2.5999999046326</ele>
        <time>2021-04-15T11:09:56.000Z</time>
      </trkpt>
      <trkpt lat="47.26294" lon="-2.31856">
        <ele>-2.5999999046326</ele>
        <time>2021-04-15T11:09:59.000Z</time>
      </trkpt>
      <trkpt lat="47.26299" lon="-2.31821">
        <ele>-2.5999999046326</ele>
        <time>2021-04-15T11:10:05.000Z</time>
      </trkpt>
      <trkpt lat="47.26303" lon="-2.31797">
        <ele>-2.5999999046326</ele>
        <time>2021-04-15T11:10:08.000Z</time>
      </trkpt>
      <trkpt lat="47.26303" lon="-2.31774">
        <ele>-2.5999999046326</ele>
        <time>2021-04-15T11:10:11.000Z</time>
      </trkpt>
      <trkpt lat="47.26299" lon="-2.31739">
        <ele>-2.5999999046326</ele>
        <time>2021-04-15T11:10:16.000Z</time>
      </trkpt>
      <trkpt lat="47.26299" lon="-2.31732">
        <ele>-2.2000000476837</ele>
        <time>2021-04-15T11:10:17.000Z</time>
      </trkpt>
      <trkpt lat="47.263" lon="-2.31724">
        <ele>-1.7999999523163</ele>
        <time>2021-04-15T11:10:18.000Z</time>
      </trkpt>
      <trkpt lat="47.26302" lon="-2.31717">
        <ele>-1.3999999761581</ele>
        <time>2021-04-15T11:10:19.000Z</time>
      </trkpt>
      <trkpt lat="47.26304" lon="-2.31712">
        <ele>-1</ele>
        <time>2021-04-15T11:10:20.000Z</time>
      </trkpt>
      <trkpt lat="47.26307" lon="-2.31709">
        <ele>-0.60000002384186</ele>
        <time>2021-04-15T11:10:21.000Z</time>
      </trkpt>
      <trkpt lat="47.26319" lon="-2.31704">
        <ele>-0.60000002384186</ele>
        <time>2021-04-15T11:10:24.000Z</time>
      </trkpt>
      <trkpt lat="47.26343" lon="-2.31693">
        <ele>-0.60000002384186</ele>
        <time>2021-04-15T11:10:30.000Z</time>
      </trkpt>
      <trkpt lat="47.26363" lon="-2.31681">
        <ele>-0.20000000298023</ele>
        <time>2021-04-15T11:10:35.000Z</time>
      </trkpt>
      <trkpt lat="47.26367" lon="-2.31678">
        <ele>0.20000000298023</ele>
        <time>2021-04-15T11:10:36.000Z</time>
      </trkpt>
      <trkpt lat="47.26372" lon="-2.31675">
        <ele>0.60000002384186</ele>
        <time>2021-04-15T11:10:37.000Z</time>
      </trkpt>
      <trkpt lat="47.26376" lon="-2.31672">
        <ele>1</ele>
        <time>2021-04-15T11:10:38.000Z</time>
      </trkpt>
      <trkpt lat="47.26381" lon="-2.3167">
        <ele>1.3999999761581</ele>
        <time>2021-04-15T11:10:39.000Z</time>
      </trkpt>
      <trkpt lat="47.26393" lon="-2.31664">
        <ele>1.3999999761581</ele>
        <time>2021-04-15T11:10:42.000Z</time>
      </trkpt>
      <trkpt lat="47.26404" lon="-2.31657">
        <ele>1.3999999761581</ele>
        <time>2021-04-15T11:10:45.000Z</time>
      </trkpt>
      <trkpt lat="47.26407" lon="-2.31652">
        <ele>1.3999999761581</ele>
        <time>2021-04-15T11:10:46.000Z</time>
      </trkpt>
      <trkpt lat="47.26409" lon="-2.31636">
        <ele>1.3999999761581</ele>
        <time>2021-04-15T11:10:49.000Z</time>
      </trkpt>
      <trkpt lat="47.2641" lon="-2.31629">
        <ele>1.7999999523163</ele>
        <time>2021-04-15T11:10:50.000Z</time>
      </trkpt>
      <trkpt lat="47.2641" lon="-2.31623">
        <ele>2.2000000476837</ele>
        <time>2021-04-15T11:10:51.000Z</time>
      </trkpt>
      <trkpt lat="47.2641" lon="-2.31617">
        <ele>2.5999999046326</ele>
        <time>2021-04-15T11:10:52.000Z</time>
      </trkpt>
      <trkpt lat="47.2641" lon="-2.31611">
        <ele>3</ele>
        <time>2021-04-15T11:10:53.000Z</time>
      </trkpt>
      <trkpt lat="47.2641" lon="-2.31604">
        <ele>3.4000000953674</ele>
        <time>2021-04-15T11:10:54.000Z</time>
      </trkpt>
      <trkpt lat="47.2641" lon="-2.31598">
        <ele>3.4000000953674</ele>
        <time>2021-04-15T11:10:55.000Z</time>
      </trkpt>
      <trkpt lat="47.2641" lon="-2.31571">
        <ele>3.4000000953674</ele>
        <time>2021-04-15T11:11:00.000Z</time>
      </trkpt>
      <trkpt lat="47.26411" lon="-2.3155">
        <ele>3.4000000953674</ele>
        <time>2021-04-15T11:11:05.000Z</time>
      </trkpt>
      <trkpt lat="47.26414" lon="-2.3155">
        <ele>3.4000000953674</ele>
        <time>2021-04-15T11:11:06.000Z</time>
      </trkpt>
      <trkpt lat="47.26416" lon="-2.31553">
        <ele>3.4000000953674</ele>
        <time>2021-04-15T11:11:08.000Z</time>
      </trkpt>
      <trkpt lat="47.26418" lon="-2.31554">
        <ele>3.4000000953674</ele>
        <time>2021-04-15T11:11:11.000Z</time>
      </trkpt>
    </trkseg>
  </trk>
</gpx>